<?xml version="1.0" encoding="UTF-8" standalone="no" ?>
<gpx xmlns="http://www.topografix.com/GPX/1/1" xmlns:xsi="http://www.w3.org/2001/XMLSchema-instance" xsi:schemaLocation="http://www.topografix.com/GPX/1/1 http://www.topografix.com/GPX/1/1/gpx.xsd" version="1.1" creator="VisuGPX - https://www.visugpx.com">
  <metadata>
    <name>Brunoy Pyramide - Ru du Hauldres  Boucle 21 km </name>
    <desc><![CDATA[Petite sortie matinale pour aller chercher observer faune et flore à Lieussaint dans un espace naturel
Itinéraire très (trop) rectiligne mais qui évite les routes boueuses en cas de météo un peu trop humide à Sénart]]></desc>
  </metadata>
  <trk>
    <name><![CDATA[Brunoy Pyramide - Ru du Hauldres  Boucle 21 km _1]]></name>
    <trkseg>
      <trkpt lat="48.69026" lon="2.49011">
        <ele>84</ele>
        <time>2018-11-01T07:34:30Z</time>
      </trkpt>
      <trkpt lat="48.69026" lon="2.49011">
        <ele>141.412</ele>
        <time>2018-11-01T07:34:43Z</time>
      </trkpt>
      <trkpt lat="48.69029" lon="2.49022">
        <ele>149.613</ele>
        <time>2018-11-01T07:34:51Z</time>
      </trkpt>
      <trkpt lat="48.69041" lon="2.49023">
        <ele>144.353</ele>
        <time>2018-11-01T07:34:52Z</time>
      </trkpt>
      <trkpt lat="48.69045" lon="2.4902">
        <ele>144.495</ele>
        <time>2018-11-01T07:34:54Z</time>
      </trkpt>
      <trkpt lat="48.69045" lon="2.4902">
        <ele>144.495</ele>
        <time>2018-11-01T07:34:59Z</time>
      </trkpt>
      <trkpt lat="48.69045" lon="2.4902">
        <ele>83.6</ele>
        <time>2018-11-01T07:34:59Z</time>
      </trkpt>
      <trkpt lat="48.69045" lon="2.4902">
        <ele>83.6</ele>
        <time>2018-11-01T07:36:06Z</time>
      </trkpt>
      <trkpt lat="48.69019" lon="2.49008">
        <ele>138.644</ele>
        <time>2018-11-01T07:36:06Z</time>
      </trkpt>
      <trkpt lat="48.69014" lon="2.49005">
        <ele>138.594</ele>
        <time>2018-11-01T07:36:09Z</time>
      </trkpt>
      <trkpt lat="48.69012" lon="2.49003">
        <ele>138.562</ele>
        <time>2018-11-01T07:36:11Z</time>
      </trkpt>
      <trkpt lat="48.69008" lon="2.48999">
        <ele>138.514</ele>
        <time>2018-11-01T07:36:14Z</time>
      </trkpt>
      <trkpt lat="48.69005" lon="2.48996">
        <ele>138.486</ele>
        <time>2018-11-01T07:36:16Z</time>
      </trkpt>
      <trkpt lat="48.69003" lon="2.48994">
        <ele>138.471</ele>
        <time>2018-11-01T07:36:17Z</time>
      </trkpt>
      <trkpt lat="48.69001" lon="2.48987">
        <ele>138.424</ele>
        <time>2018-11-01T07:36:20Z</time>
      </trkpt>
      <trkpt lat="48.68999" lon="2.48984">
        <ele>138.378</ele>
        <time>2018-11-01T07:36:23Z</time>
      </trkpt>
      <trkpt lat="48.68996" lon="2.48978">
        <ele>138.318</ele>
        <time>2018-11-01T07:36:27Z</time>
      </trkpt>
      <trkpt lat="48.68994" lon="2.48973">
        <ele>138.279</ele>
        <time>2018-11-01T07:36:30Z</time>
      </trkpt>
      <trkpt lat="48.68993" lon="2.4897">
        <ele>138.255</ele>
        <time>2018-11-01T07:36:32Z</time>
      </trkpt>
      <trkpt lat="48.68992" lon="2.48967">
        <ele>138.23</ele>
        <time>2018-11-01T07:36:34Z</time>
      </trkpt>
      <trkpt lat="48.68988" lon="2.4896">
        <ele>138.174</ele>
        <time>2018-11-01T07:36:38Z</time>
      </trkpt>
      <trkpt lat="48.68983" lon="2.48954">
        <ele>138.143</ele>
        <time>2018-11-01T07:36:41Z</time>
      </trkpt>
      <trkpt lat="48.6898" lon="2.48951">
        <ele>138.124</ele>
        <time>2018-11-01T07:36:43Z</time>
      </trkpt>
      <trkpt lat="48.68976" lon="2.48946">
        <ele>138.089</ele>
        <time>2018-11-01T07:36:46Z</time>
      </trkpt>
      <trkpt lat="48.68973" lon="2.48944">
        <ele>138.065</ele>
        <time>2018-11-01T07:36:48Z</time>
      </trkpt>
      <trkpt lat="48.68971" lon="2.48942">
        <ele>138.053</ele>
        <time>2018-11-01T07:36:49Z</time>
      </trkpt>
      <trkpt lat="48.68968" lon="2.48937">
        <ele>138.023</ele>
        <time>2018-11-01T07:36:52Z</time>
      </trkpt>
      <trkpt lat="48.68966" lon="2.48934">
        <ele>138.006</ele>
        <time>2018-11-01T07:36:54Z</time>
      </trkpt>
      <trkpt lat="48.68962" lon="2.48924">
        <ele>137.974</ele>
        <time>2018-11-01T07:36:58Z</time>
      </trkpt>
      <trkpt lat="48.6896" lon="2.48919">
        <ele>137.96</ele>
        <time>2018-11-01T07:37:00Z</time>
      </trkpt>
      <trkpt lat="48.68959" lon="2.48915">
        <ele>137.948</ele>
        <time>2018-11-01T07:37:02Z</time>
      </trkpt>
      <trkpt lat="48.68955" lon="2.48909">
        <ele>137.929</ele>
        <time>2018-11-01T07:37:06Z</time>
      </trkpt>
      <trkpt lat="48.68952" lon="2.48902">
        <ele>137.905</ele>
        <time>2018-11-01T07:37:10Z</time>
      </trkpt>
      <trkpt lat="48.68947" lon="2.48899">
        <ele>137.872</ele>
        <time>2018-11-01T07:37:15Z</time>
      </trkpt>
      <trkpt lat="48.68943" lon="2.48905">
        <ele>137.836</ele>
        <time>2018-11-01T07:37:19Z</time>
      </trkpt>
      <trkpt lat="48.6894" lon="2.4891">
        <ele>137.796</ele>
        <time>2018-11-01T07:37:22Z</time>
      </trkpt>
      <trkpt lat="48.68935" lon="2.48915">
        <ele>137.751</ele>
        <time>2018-11-01T07:37:25Z</time>
      </trkpt>
      <trkpt lat="48.68932" lon="2.4892">
        <ele>137.717</ele>
        <time>2018-11-01T07:37:27Z</time>
      </trkpt>
      <trkpt lat="48.6893" lon="2.48924">
        <ele>137.666</ele>
        <time>2018-11-01T07:37:30Z</time>
      </trkpt>
      <trkpt lat="48.6893" lon="2.48924">
        <ele>85</ele>
        <time>2018-11-01T07:37:37Z</time>
      </trkpt>
      <trkpt lat="48.6893" lon="2.48924">
        <ele>85</ele>
        <time>2018-11-01T07:38:04Z</time>
      </trkpt>
      <trkpt lat="48.68939" lon="2.4891">
        <ele>137.432</ele>
        <time>2018-11-01T07:38:04Z</time>
      </trkpt>
      <trkpt lat="48.68941" lon="2.48906">
        <ele>137.405</ele>
        <time>2018-11-01T07:38:06Z</time>
      </trkpt>
      <trkpt lat="48.68943" lon="2.48902">
        <ele>137.378</ele>
        <time>2018-11-01T07:38:08Z</time>
      </trkpt>
      <trkpt lat="48.68949" lon="2.48909">
        <ele>137.289</ele>
        <time>2018-11-01T07:38:14Z</time>
      </trkpt>
      <trkpt lat="48.68953" lon="2.48914">
        <ele>137.237</ele>
        <time>2018-11-01T07:38:17Z</time>
      </trkpt>
      <trkpt lat="48.68956" lon="2.48917">
        <ele>137.204</ele>
        <time>2018-11-01T07:38:19Z</time>
      </trkpt>
      <trkpt lat="48.6896" lon="2.48923">
        <ele>137.144</ele>
        <time>2018-11-01T07:38:23Z</time>
      </trkpt>
      <trkpt lat="48.68962" lon="2.48926">
        <ele>137.116</ele>
        <time>2018-11-01T07:38:25Z</time>
      </trkpt>
      <trkpt lat="48.68964" lon="2.48929">
        <ele>137.089</ele>
        <time>2018-11-01T07:38:27Z</time>
      </trkpt>
      <trkpt lat="48.68967" lon="2.48933">
        <ele>137.065</ele>
        <time>2018-11-01T07:38:29Z</time>
      </trkpt>
      <trkpt lat="48.68969" lon="2.48937">
        <ele>137.044</ele>
        <time>2018-11-01T07:38:31Z</time>
      </trkpt>
      <trkpt lat="48.68971" lon="2.48941">
        <ele>137.025</ele>
        <time>2018-11-01T07:38:33Z</time>
      </trkpt>
      <trkpt lat="48.68974" lon="2.48945">
        <ele>137.006</ele>
        <time>2018-11-01T07:38:35Z</time>
      </trkpt>
      <trkpt lat="48.68978" lon="2.48951">
        <ele>136.979</ele>
        <time>2018-11-01T07:38:38Z</time>
      </trkpt>
      <trkpt lat="48.6898" lon="2.48955">
        <ele>136.96</ele>
        <time>2018-11-01T07:38:40Z</time>
      </trkpt>
      <trkpt lat="48.68984" lon="2.4896">
        <ele>136.931</ele>
        <time>2018-11-01T07:38:43Z</time>
      </trkpt>
      <trkpt lat="48.68986" lon="2.48964">
        <ele>136.91</ele>
        <time>2018-11-01T07:38:45Z</time>
      </trkpt>
      <trkpt lat="48.68989" lon="2.48972">
        <ele>136.863</ele>
        <time>2018-11-01T07:38:49Z</time>
      </trkpt>
      <trkpt lat="48.68992" lon="2.48978">
        <ele>136.826</ele>
        <time>2018-11-01T07:38:52Z</time>
      </trkpt>
      <trkpt lat="48.68994" lon="2.48984">
        <ele>136.79</ele>
        <time>2018-11-01T07:38:55Z</time>
      </trkpt>
      <trkpt lat="48.68997" lon="2.48991">
        <ele>136.745</ele>
        <time>2018-11-01T07:38:59Z</time>
      </trkpt>
      <trkpt lat="48.69001" lon="2.48996">
        <ele>136.714</ele>
        <time>2018-11-01T07:39:02Z</time>
      </trkpt>
      <trkpt lat="48.69005" lon="2.49003">
        <ele>136.67</ele>
        <time>2018-11-01T07:39:06Z</time>
      </trkpt>
      <trkpt lat="48.69007" lon="2.49007">
        <ele>136.647</ele>
        <time>2018-11-01T07:39:08Z</time>
      </trkpt>
      <trkpt lat="48.69009" lon="2.4901">
        <ele>136.622</ele>
        <time>2018-11-01T07:39:10Z</time>
      </trkpt>
      <trkpt lat="48.69012" lon="2.49013">
        <ele>136.597</ele>
        <time>2018-11-01T07:39:12Z</time>
      </trkpt>
      <trkpt lat="48.69015" lon="2.4902">
        <ele>136.544</ele>
        <time>2018-11-01T07:39:16Z</time>
      </trkpt>
      <trkpt lat="48.69016" lon="2.49023">
        <ele>136.516</ele>
        <time>2018-11-01T07:39:18Z</time>
      </trkpt>
      <trkpt lat="48.69021" lon="2.49026">
        <ele>136.461</ele>
        <time>2018-11-01T07:39:22Z</time>
      </trkpt>
      <trkpt lat="48.69024" lon="2.49033">
        <ele>136.341</ele>
        <time>2018-11-01T07:39:30Z</time>
      </trkpt>
      <trkpt lat="48.69029" lon="2.49032">
        <ele>136.273</ele>
        <time>2018-11-01T07:39:34Z</time>
      </trkpt>
      <trkpt lat="48.69035" lon="2.49028">
        <ele>136.224</ele>
        <time>2018-11-01T07:39:37Z</time>
      </trkpt>
      <trkpt lat="48.69037" lon="2.49022">
        <ele>136.17</ele>
        <time>2018-11-01T07:39:41Z</time>
      </trkpt>
      <trkpt lat="48.69037" lon="2.49022">
        <ele>83.7</ele>
        <time>2018-11-01T07:39:49Z</time>
      </trkpt>
      <trkpt lat="48.69037" lon="2.49022">
        <ele>83.7</ele>
        <time>2018-11-01T07:41:46Z</time>
      </trkpt>
      <trkpt lat="48.69022" lon="2.49017">
        <ele>135.626</ele>
        <time>2018-11-01T07:41:46Z</time>
      </trkpt>
      <trkpt lat="48.6902" lon="2.49015">
        <ele>135.617</ele>
        <time>2018-11-01T07:41:48Z</time>
      </trkpt>
      <trkpt lat="48.69018" lon="2.49012">
        <ele>135.609</ele>
        <time>2018-11-01T07:41:50Z</time>
      </trkpt>
      <trkpt lat="48.69015" lon="2.49009">
        <ele>135.6</ele>
        <time>2018-11-01T07:41:52Z</time>
      </trkpt>
      <trkpt lat="48.69013" lon="2.49005">
        <ele>135.592</ele>
        <time>2018-11-01T07:41:54Z</time>
      </trkpt>
      <trkpt lat="48.69011" lon="2.49001">
        <ele>135.582</ele>
        <time>2018-11-01T07:41:56Z</time>
      </trkpt>
      <trkpt lat="48.69008" lon="2.48995">
        <ele>135.562</ele>
        <time>2018-11-01T07:42:00Z</time>
      </trkpt>
      <trkpt lat="48.69005" lon="2.4899">
        <ele>135.552</ele>
        <time>2018-11-01T07:42:03Z</time>
      </trkpt>
      <trkpt lat="48.69003" lon="2.48983">
        <ele>135.543</ele>
        <time>2018-11-01T07:42:06Z</time>
      </trkpt>
      <trkpt lat="48.69001" lon="2.48979">
        <ele>135.537</ele>
        <time>2018-11-01T07:42:08Z</time>
      </trkpt>
      <trkpt lat="48.68998" lon="2.48972">
        <ele>135.528</ele>
        <time>2018-11-01T07:42:11Z</time>
      </trkpt>
      <trkpt lat="48.68994" lon="2.48967">
        <ele>135.518</ele>
        <time>2018-11-01T07:42:14Z</time>
      </trkpt>
      <trkpt lat="48.68991" lon="2.48963">
        <ele>135.511</ele>
        <time>2018-11-01T07:42:16Z</time>
      </trkpt>
      <trkpt lat="48.6899" lon="2.4896">
        <ele>135.502</ele>
        <time>2018-11-01T07:42:18Z</time>
      </trkpt>
      <trkpt lat="48.68986" lon="2.48954">
        <ele>135.48</ele>
        <time>2018-11-01T07:42:22Z</time>
      </trkpt>
      <trkpt lat="48.68984" lon="2.48951">
        <ele>135.467</ele>
        <time>2018-11-01T07:42:24Z</time>
      </trkpt>
      <trkpt lat="48.68982" lon="2.48948">
        <ele>135.452</ele>
        <time>2018-11-01T07:42:26Z</time>
      </trkpt>
      <trkpt lat="48.68978" lon="2.48941">
        <ele>135.425</ele>
        <time>2018-11-01T07:42:30Z</time>
      </trkpt>
      <trkpt lat="48.68976" lon="2.48937">
        <ele>135.413</ele>
        <time>2018-11-01T07:42:32Z</time>
      </trkpt>
      <trkpt lat="48.68972" lon="2.48932">
        <ele>135.4</ele>
        <time>2018-11-01T07:42:35Z</time>
      </trkpt>
      <trkpt lat="48.6897" lon="2.48929">
        <ele>135.393</ele>
        <time>2018-11-01T07:42:37Z</time>
      </trkpt>
      <trkpt lat="48.68967" lon="2.48925">
        <ele>135.39</ele>
        <time>2018-11-01T07:42:39Z</time>
      </trkpt>
      <trkpt lat="48.68965" lon="2.48923">
        <ele>135.386</ele>
        <time>2018-11-01T07:42:41Z</time>
      </trkpt>
      <trkpt lat="48.6896" lon="2.48917">
        <ele>135.38</ele>
        <time>2018-11-01T07:42:44Z</time>
      </trkpt>
      <trkpt lat="48.68956" lon="2.4891">
        <ele>135.374</ele>
        <time>2018-11-01T07:42:47Z</time>
      </trkpt>
      <trkpt lat="48.68954" lon="2.48906">
        <ele>135.371</ele>
        <time>2018-11-01T07:42:49Z</time>
      </trkpt>
      <trkpt lat="48.68949" lon="2.48906">
        <ele>135.362</ele>
        <time>2018-11-01T07:42:54Z</time>
      </trkpt>
      <trkpt lat="48.68945" lon="2.48909">
        <ele>135.352</ele>
        <time>2018-11-01T07:42:57Z</time>
      </trkpt>
      <trkpt lat="48.68942" lon="2.48911">
        <ele>135.347</ele>
        <time>2018-11-01T07:42:59Z</time>
      </trkpt>
      <trkpt lat="48.68939" lon="2.48917">
        <ele>135.339</ele>
        <time>2018-11-01T07:43:02Z</time>
      </trkpt>
      <trkpt lat="48.68937" lon="2.4892">
        <ele>135.333</ele>
        <time>2018-11-01T07:43:04Z</time>
      </trkpt>
      <trkpt lat="48.68932" lon="2.48925">
        <ele>135.322</ele>
        <time>2018-11-01T07:43:08Z</time>
      </trkpt>
      <trkpt lat="48.68928" lon="2.48929">
        <ele>135.317</ele>
        <time>2018-11-01T07:43:12Z</time>
      </trkpt>
      <trkpt lat="48.68924" lon="2.48934">
        <ele>135.315</ele>
        <time>2018-11-01T07:43:16Z</time>
      </trkpt>
      <trkpt lat="48.68921" lon="2.48938">
        <ele>135.313</ele>
        <time>2018-11-01T07:43:18Z</time>
      </trkpt>
      <trkpt lat="48.68916" lon="2.48942">
        <ele>135.312</ele>
        <time>2018-11-01T07:43:22Z</time>
      </trkpt>
      <trkpt lat="48.68912" lon="2.48944">
        <ele>135.312</ele>
        <time>2018-11-01T07:43:24Z</time>
      </trkpt>
      <trkpt lat="48.6891" lon="2.48945">
        <ele>135.313</ele>
        <time>2018-11-01T07:43:26Z</time>
      </trkpt>
      <trkpt lat="48.68905" lon="2.4895">
        <ele>135.316</ele>
        <time>2018-11-01T07:43:30Z</time>
      </trkpt>
      <trkpt lat="48.68903" lon="2.48951">
        <ele>135.318</ele>
        <time>2018-11-01T07:43:32Z</time>
      </trkpt>
      <trkpt lat="48.689" lon="2.48953">
        <ele>135.318</ele>
        <time>2018-11-01T07:43:34Z</time>
      </trkpt>
      <trkpt lat="48.68897" lon="2.48956">
        <ele>135.316</ele>
        <time>2018-11-01T07:43:36Z</time>
      </trkpt>
      <trkpt lat="48.68892" lon="2.48961">
        <ele>135.309</ele>
        <time>2018-11-01T07:43:40Z</time>
      </trkpt>
      <trkpt lat="48.6889" lon="2.48963">
        <ele>135.304</ele>
        <time>2018-11-01T07:43:42Z</time>
      </trkpt>
      <trkpt lat="48.68888" lon="2.48966">
        <ele>135.3</ele>
        <time>2018-11-01T07:43:44Z</time>
      </trkpt>
      <trkpt lat="48.68885" lon="2.48972">
        <ele>135.294</ele>
        <time>2018-11-01T07:43:47Z</time>
      </trkpt>
      <trkpt lat="48.68883" lon="2.48975">
        <ele>135.292</ele>
        <time>2018-11-01T07:43:49Z</time>
      </trkpt>
      <trkpt lat="48.68881" lon="2.48979">
        <ele>135.29</ele>
        <time>2018-11-01T07:43:51Z</time>
      </trkpt>
      <trkpt lat="48.68879" lon="2.48984">
        <ele>135.289</ele>
        <time>2018-11-01T07:43:53Z</time>
      </trkpt>
      <trkpt lat="48.68875" lon="2.48989">
        <ele>135.29</ele>
        <time>2018-11-01T07:43:56Z</time>
      </trkpt>
      <trkpt lat="48.6887" lon="2.48993">
        <ele>135.294</ele>
        <time>2018-11-01T07:43:59Z</time>
      </trkpt>
      <trkpt lat="48.68865" lon="2.48996">
        <ele>135.3</ele>
        <time>2018-11-01T07:44:02Z</time>
      </trkpt>
      <trkpt lat="48.68862" lon="2.48999">
        <ele>135.307</ele>
        <time>2018-11-01T07:44:05Z</time>
      </trkpt>
      <trkpt lat="48.68858" lon="2.49005">
        <ele>135.316</ele>
        <time>2018-11-01T07:44:08Z</time>
      </trkpt>
      <trkpt lat="48.68856" lon="2.49012">
        <ele>135.326</ele>
        <time>2018-11-01T07:44:11Z</time>
      </trkpt>
      <trkpt lat="48.68852" lon="2.49018">
        <ele>135.341</ele>
        <time>2018-11-01T07:44:15Z</time>
      </trkpt>
      <trkpt lat="48.68849" lon="2.49023">
        <ele>135.353</ele>
        <time>2018-11-01T07:44:18Z</time>
      </trkpt>
      <trkpt lat="48.68846" lon="2.49027">
        <ele>135.367</ele>
        <time>2018-11-01T07:44:21Z</time>
      </trkpt>
      <trkpt lat="48.68843" lon="2.49031">
        <ele>135.382</ele>
        <time>2018-11-01T07:44:24Z</time>
      </trkpt>
      <trkpt lat="48.68841" lon="2.49034">
        <ele>135.392</ele>
        <time>2018-11-01T07:44:26Z</time>
      </trkpt>
      <trkpt lat="48.68839" lon="2.49037">
        <ele>135.402</ele>
        <time>2018-11-01T07:44:28Z</time>
      </trkpt>
      <trkpt lat="48.68834" lon="2.49042">
        <ele>135.418</ele>
        <time>2018-11-01T07:44:31Z</time>
      </trkpt>
      <trkpt lat="48.68831" lon="2.49046">
        <ele>135.429</ele>
        <time>2018-11-01T07:44:33Z</time>
      </trkpt>
      <trkpt lat="48.68828" lon="2.4905">
        <ele>135.446</ele>
        <time>2018-11-01T07:44:36Z</time>
      </trkpt>
      <trkpt lat="48.68824" lon="2.49054">
        <ele>135.463</ele>
        <time>2018-11-01T07:44:39Z</time>
      </trkpt>
      <trkpt lat="48.68822" lon="2.49057">
        <ele>135.475</ele>
        <time>2018-11-01T07:44:41Z</time>
      </trkpt>
      <trkpt lat="48.68819" lon="2.4906">
        <ele>135.488</ele>
        <time>2018-11-01T07:44:43Z</time>
      </trkpt>
      <trkpt lat="48.68817" lon="2.49063">
        <ele>135.501</ele>
        <time>2018-11-01T07:44:45Z</time>
      </trkpt>
      <trkpt lat="48.68814" lon="2.49066">
        <ele>135.515</ele>
        <time>2018-11-01T07:44:47Z</time>
      </trkpt>
      <trkpt lat="48.6881" lon="2.49073">
        <ele>135.542</ele>
        <time>2018-11-01T07:44:51Z</time>
      </trkpt>
      <trkpt lat="48.68806" lon="2.49078">
        <ele>135.566</ele>
        <time>2018-11-01T07:44:55Z</time>
      </trkpt>
      <trkpt lat="48.68802" lon="2.49082">
        <ele>135.581</ele>
        <time>2018-11-01T07:44:58Z</time>
      </trkpt>
      <trkpt lat="48.68798" lon="2.49088">
        <ele>135.597</ele>
        <time>2018-11-01T07:45:02Z</time>
      </trkpt>
      <trkpt lat="48.68796" lon="2.49091">
        <ele>135.603</ele>
        <time>2018-11-01T07:45:04Z</time>
      </trkpt>
      <trkpt lat="48.68794" lon="2.49095">
        <ele>135.609</ele>
        <time>2018-11-01T07:45:06Z</time>
      </trkpt>
      <trkpt lat="48.68789" lon="2.49099">
        <ele>135.617</ele>
        <time>2018-11-01T07:45:09Z</time>
      </trkpt>
      <trkpt lat="48.68787" lon="2.49101">
        <ele>135.622</ele>
        <time>2018-11-01T07:45:11Z</time>
      </trkpt>
      <trkpt lat="48.68783" lon="2.49106">
        <ele>135.627</ele>
        <time>2018-11-01T07:45:14Z</time>
      </trkpt>
      <trkpt lat="48.68781" lon="2.49109">
        <ele>135.63</ele>
        <time>2018-11-01T07:45:16Z</time>
      </trkpt>
      <trkpt lat="48.68779" lon="2.49112">
        <ele>135.632</ele>
        <time>2018-11-01T07:45:18Z</time>
      </trkpt>
      <trkpt lat="48.68777" lon="2.49116">
        <ele>135.635</ele>
        <time>2018-11-01T07:45:20Z</time>
      </trkpt>
      <trkpt lat="48.68774" lon="2.4912">
        <ele>135.637</ele>
        <time>2018-11-01T07:45:22Z</time>
      </trkpt>
      <trkpt lat="48.68772" lon="2.49123">
        <ele>135.639</ele>
        <time>2018-11-01T07:45:24Z</time>
      </trkpt>
      <trkpt lat="48.68768" lon="2.49127">
        <ele>135.64</ele>
        <time>2018-11-01T07:45:28Z</time>
      </trkpt>
      <trkpt lat="48.68766" lon="2.4913">
        <ele>135.64</ele>
        <time>2018-11-01T07:45:30Z</time>
      </trkpt>
      <trkpt lat="48.68764" lon="2.49133">
        <ele>135.64</ele>
        <time>2018-11-01T07:45:32Z</time>
      </trkpt>
      <trkpt lat="48.68762" lon="2.49135">
        <ele>135.639</ele>
        <time>2018-11-01T07:45:34Z</time>
      </trkpt>
      <trkpt lat="48.68759" lon="2.49139">
        <ele>135.64</ele>
        <time>2018-11-01T07:45:36Z</time>
      </trkpt>
      <trkpt lat="48.68755" lon="2.49144">
        <ele>135.641</ele>
        <time>2018-11-01T07:45:39Z</time>
      </trkpt>
      <trkpt lat="48.68753" lon="2.49147">
        <ele>135.643</ele>
        <time>2018-11-01T07:45:41Z</time>
      </trkpt>
      <trkpt lat="48.68751" lon="2.4915">
        <ele>135.646</ele>
        <time>2018-11-01T07:45:43Z</time>
      </trkpt>
      <trkpt lat="48.68747" lon="2.49155">
        <ele>135.651</ele>
        <time>2018-11-01T07:45:46Z</time>
      </trkpt>
      <trkpt lat="48.68744" lon="2.4916">
        <ele>135.658</ele>
        <time>2018-11-01T07:45:49Z</time>
      </trkpt>
      <trkpt lat="48.68741" lon="2.49167">
        <ele>135.667</ele>
        <time>2018-11-01T07:45:53Z</time>
      </trkpt>
      <trkpt lat="48.68737" lon="2.49172">
        <ele>135.674</ele>
        <time>2018-11-01T07:45:56Z</time>
      </trkpt>
      <trkpt lat="48.68735" lon="2.49175">
        <ele>135.68</ele>
        <time>2018-11-01T07:45:58Z</time>
      </trkpt>
      <trkpt lat="48.68732" lon="2.49178">
        <ele>135.686</ele>
        <time>2018-11-01T07:46:00Z</time>
      </trkpt>
      <trkpt lat="48.6873" lon="2.49181">
        <ele>135.692</ele>
        <time>2018-11-01T07:46:02Z</time>
      </trkpt>
      <trkpt lat="48.68726" lon="2.49187">
        <ele>135.703</ele>
        <time>2018-11-01T07:46:05Z</time>
      </trkpt>
      <trkpt lat="48.68724" lon="2.4919">
        <ele>135.71</ele>
        <time>2018-11-01T07:46:07Z</time>
      </trkpt>
      <trkpt lat="48.6872" lon="2.49195">
        <ele>135.725</ele>
        <time>2018-11-01T07:46:11Z</time>
      </trkpt>
      <trkpt lat="48.68716" lon="2.49202">
        <ele>135.741</ele>
        <time>2018-11-01T07:46:15Z</time>
      </trkpt>
      <trkpt lat="48.68714" lon="2.49206">
        <ele>135.749</ele>
        <time>2018-11-01T07:46:17Z</time>
      </trkpt>
      <trkpt lat="48.68708" lon="2.49214">
        <ele>135.767</ele>
        <time>2018-11-01T07:46:22Z</time>
      </trkpt>
      <trkpt lat="48.68704" lon="2.49218">
        <ele>135.776</ele>
        <time>2018-11-01T07:46:25Z</time>
      </trkpt>
      <trkpt lat="48.68704" lon="2.49218">
        <ele>88</ele>
        <time>2018-11-01T07:46:32Z</time>
      </trkpt>
      <trkpt lat="48.68704" lon="2.49218">
        <ele>88</ele>
        <time>2018-11-01T07:46:38Z</time>
      </trkpt>
      <trkpt lat="48.68698" lon="2.49229">
        <ele>135.797</ele>
        <time>2018-11-01T07:46:38Z</time>
      </trkpt>
      <trkpt lat="48.68694" lon="2.49235">
        <ele>135.808</ele>
        <time>2018-11-01T07:46:42Z</time>
      </trkpt>
      <trkpt lat="48.6869" lon="2.49239">
        <ele>135.816</ele>
        <time>2018-11-01T07:46:45Z</time>
      </trkpt>
      <trkpt lat="48.68687" lon="2.49244">
        <ele>135.826</ele>
        <time>2018-11-01T07:46:48Z</time>
      </trkpt>
      <trkpt lat="48.68684" lon="2.49247">
        <ele>135.832</ele>
        <time>2018-11-01T07:46:50Z</time>
      </trkpt>
      <trkpt lat="48.68682" lon="2.49251">
        <ele>135.839</ele>
        <time>2018-11-01T07:46:52Z</time>
      </trkpt>
      <trkpt lat="48.6868" lon="2.49255">
        <ele>135.847</ele>
        <time>2018-11-01T07:46:54Z</time>
      </trkpt>
      <trkpt lat="48.68678" lon="2.49263">
        <ele>135.863</ele>
        <time>2018-11-01T07:46:58Z</time>
      </trkpt>
      <trkpt lat="48.68678" lon="2.49267">
        <ele>135.871</ele>
        <time>2018-11-01T07:47:00Z</time>
      </trkpt>
      <trkpt lat="48.68677" lon="2.49275">
        <ele>135.884</ele>
        <time>2018-11-01T07:47:03Z</time>
      </trkpt>
      <trkpt lat="48.68677" lon="2.4928">
        <ele>135.892</ele>
        <time>2018-11-01T07:47:05Z</time>
      </trkpt>
      <trkpt lat="48.68677" lon="2.49284">
        <ele>135.9</ele>
        <time>2018-11-01T07:47:07Z</time>
      </trkpt>
      <trkpt lat="48.68679" lon="2.49291">
        <ele>135.91</ele>
        <time>2018-11-01T07:47:10Z</time>
      </trkpt>
      <trkpt lat="48.6868" lon="2.49298">
        <ele>135.928</ele>
        <time>2018-11-01T07:47:15Z</time>
      </trkpt>
      <trkpt lat="48.68684" lon="2.49302">
        <ele>135.965</ele>
        <time>2018-11-01T07:47:22Z</time>
      </trkpt>
      <trkpt lat="48.68687" lon="2.49306">
        <ele>135.98</ele>
        <time>2018-11-01T07:47:25Z</time>
      </trkpt>
      <trkpt lat="48.68692" lon="2.49311">
        <ele>135.993</ele>
        <time>2018-11-01T07:47:28Z</time>
      </trkpt>
      <trkpt lat="48.68697" lon="2.49316">
        <ele>136</ele>
        <time>2018-11-01T07:47:31Z</time>
      </trkpt>
      <trkpt lat="48.68699" lon="2.49318">
        <ele>136.003</ele>
        <time>2018-11-01T07:47:33Z</time>
      </trkpt>
      <trkpt lat="48.68703" lon="2.49322">
        <ele>136.004</ele>
        <time>2018-11-01T07:47:37Z</time>
      </trkpt>
      <trkpt lat="48.68705" lon="2.49328">
        <ele>136.003</ele>
        <time>2018-11-01T07:47:40Z</time>
      </trkpt>
      <trkpt lat="48.68701" lon="2.49334">
        <ele>135.986</ele>
        <time>2018-11-01T07:47:45Z</time>
      </trkpt>
      <trkpt lat="48.68698" lon="2.49341">
        <ele>135.972</ele>
        <time>2018-11-01T07:47:48Z</time>
      </trkpt>
      <trkpt lat="48.68696" lon="2.49347">
        <ele>135.955</ele>
        <time>2018-11-01T07:47:51Z</time>
      </trkpt>
      <trkpt lat="48.68693" lon="2.49353">
        <ele>135.928</ele>
        <time>2018-11-01T07:47:55Z</time>
      </trkpt>
      <trkpt lat="48.68691" lon="2.49356">
        <ele>135.913</ele>
        <time>2018-11-01T07:47:57Z</time>
      </trkpt>
      <trkpt lat="48.68689" lon="2.49359">
        <ele>135.891</ele>
        <time>2018-11-01T07:48:00Z</time>
      </trkpt>
      <trkpt lat="48.68687" lon="2.49362">
        <ele>135.876</ele>
        <time>2018-11-01T07:48:02Z</time>
      </trkpt>
      <trkpt lat="48.68685" lon="2.49365">
        <ele>135.861</ele>
        <time>2018-11-01T07:48:04Z</time>
      </trkpt>
      <trkpt lat="48.68681" lon="2.49371">
        <ele>135.84</ele>
        <time>2018-11-01T07:48:07Z</time>
      </trkpt>
      <trkpt lat="48.68679" lon="2.49374">
        <ele>135.826</ele>
        <time>2018-11-01T07:48:09Z</time>
      </trkpt>
      <trkpt lat="48.68675" lon="2.49379">
        <ele>135.798</ele>
        <time>2018-11-01T07:48:13Z</time>
      </trkpt>
      <trkpt lat="48.68673" lon="2.49382">
        <ele>135.784</ele>
        <time>2018-11-01T07:48:15Z</time>
      </trkpt>
      <trkpt lat="48.68671" lon="2.49385">
        <ele>135.771</ele>
        <time>2018-11-01T07:48:17Z</time>
      </trkpt>
      <trkpt lat="48.68668" lon="2.49388">
        <ele>135.758</ele>
        <time>2018-11-01T07:48:19Z</time>
      </trkpt>
      <trkpt lat="48.68666" lon="2.49391">
        <ele>135.746</ele>
        <time>2018-11-01T07:48:21Z</time>
      </trkpt>
      <trkpt lat="48.68663" lon="2.49394">
        <ele>135.735</ele>
        <time>2018-11-01T07:48:23Z</time>
      </trkpt>
      <trkpt lat="48.68661" lon="2.49397">
        <ele>135.722</ele>
        <time>2018-11-01T07:48:25Z</time>
      </trkpt>
      <trkpt lat="48.68659" lon="2.49401">
        <ele>135.711</ele>
        <time>2018-11-01T07:48:27Z</time>
      </trkpt>
      <trkpt lat="48.68656" lon="2.49406">
        <ele>135.693</ele>
        <time>2018-11-01T07:48:30Z</time>
      </trkpt>
      <trkpt lat="48.68652" lon="2.49411">
        <ele>135.675</ele>
        <time>2018-11-01T07:48:33Z</time>
      </trkpt>
      <trkpt lat="48.68648" lon="2.49417">
        <ele>135.649</ele>
        <time>2018-11-01T07:48:37Z</time>
      </trkpt>
      <trkpt lat="48.68644" lon="2.49422">
        <ele>135.629</ele>
        <time>2018-11-01T07:48:40Z</time>
      </trkpt>
      <trkpt lat="48.6864" lon="2.49425">
        <ele>135.612</ele>
        <time>2018-11-01T07:48:43Z</time>
      </trkpt>
      <trkpt lat="48.68636" lon="2.4943">
        <ele>135.597</ele>
        <time>2018-11-01T07:48:46Z</time>
      </trkpt>
      <trkpt lat="48.68633" lon="2.49437">
        <ele>135.583</ele>
        <time>2018-11-01T07:48:49Z</time>
      </trkpt>
      <trkpt lat="48.6863" lon="2.49442">
        <ele>135.576</ele>
        <time>2018-11-01T07:48:51Z</time>
      </trkpt>
      <trkpt lat="48.68624" lon="2.49448">
        <ele>135.566</ele>
        <time>2018-11-01T07:48:56Z</time>
      </trkpt>
      <trkpt lat="48.68622" lon="2.49451">
        <ele>135.563</ele>
        <time>2018-11-01T07:48:58Z</time>
      </trkpt>
      <trkpt lat="48.68617" lon="2.49454">
        <ele>135.562</ele>
        <time>2018-11-01T07:49:03Z</time>
      </trkpt>
      <trkpt lat="48.68614" lon="2.4946">
        <ele>135.563</ele>
        <time>2018-11-01T07:49:07Z</time>
      </trkpt>
      <trkpt lat="48.68612" lon="2.49466">
        <ele>135.568</ele>
        <time>2018-11-01T07:49:13Z</time>
      </trkpt>
      <trkpt lat="48.68608" lon="2.49473">
        <ele>135.575</ele>
        <time>2018-11-01T07:49:16Z</time>
      </trkpt>
      <trkpt lat="48.68605" lon="2.49477">
        <ele>135.581</ele>
        <time>2018-11-01T07:49:18Z</time>
      </trkpt>
      <trkpt lat="48.68602" lon="2.49482">
        <ele>135.59</ele>
        <time>2018-11-01T07:49:21Z</time>
      </trkpt>
      <trkpt lat="48.68597" lon="2.49486">
        <ele>135.603</ele>
        <time>2018-11-01T07:49:25Z</time>
      </trkpt>
      <trkpt lat="48.68594" lon="2.49489">
        <ele>135.61</ele>
        <time>2018-11-01T07:49:27Z</time>
      </trkpt>
      <trkpt lat="48.68591" lon="2.49493">
        <ele>135.62</ele>
        <time>2018-11-01T07:49:30Z</time>
      </trkpt>
      <trkpt lat="48.68589" lon="2.49496">
        <ele>135.626</ele>
        <time>2018-11-01T07:49:32Z</time>
      </trkpt>
      <trkpt lat="48.68584" lon="2.49499">
        <ele>135.637</ele>
        <time>2018-11-01T07:49:36Z</time>
      </trkpt>
      <trkpt lat="48.68579" lon="2.49505">
        <ele>135.647</ele>
        <time>2018-11-01T07:49:40Z</time>
      </trkpt>
      <trkpt lat="48.68575" lon="2.49511">
        <ele>135.654</ele>
        <time>2018-11-01T07:49:43Z</time>
      </trkpt>
      <trkpt lat="48.68574" lon="2.49513">
        <ele>135.661</ele>
        <time>2018-11-01T07:49:45Z</time>
      </trkpt>
      <trkpt lat="48.68574" lon="2.49513">
        <ele>89</ele>
        <time>2018-11-01T07:49:52Z</time>
      </trkpt>
      <trkpt lat="48.68574" lon="2.49513">
        <ele>89</ele>
        <time>2018-11-01T07:50:23Z</time>
      </trkpt>
      <trkpt lat="48.6856" lon="2.49531">
        <ele>135.866</ele>
        <time>2018-11-01T07:50:23Z</time>
      </trkpt>
      <trkpt lat="48.68558" lon="2.49534">
        <ele>135.882</ele>
        <time>2018-11-01T07:50:25Z</time>
      </trkpt>
      <trkpt lat="48.68555" lon="2.49538">
        <ele>135.896</ele>
        <time>2018-11-01T07:50:27Z</time>
      </trkpt>
      <trkpt lat="48.68553" lon="2.49541">
        <ele>135.91</ele>
        <time>2018-11-01T07:50:29Z</time>
      </trkpt>
      <trkpt lat="48.68552" lon="2.49543">
        <ele>135.924</ele>
        <time>2018-11-01T07:50:31Z</time>
      </trkpt>
      <trkpt lat="48.68549" lon="2.49547">
        <ele>135.944</ele>
        <time>2018-11-01T07:50:34Z</time>
      </trkpt>
      <trkpt lat="48.68547" lon="2.4955">
        <ele>135.956</ele>
        <time>2018-11-01T07:50:36Z</time>
      </trkpt>
      <trkpt lat="48.68542" lon="2.49555">
        <ele>135.976</ele>
        <time>2018-11-01T07:50:39Z</time>
      </trkpt>
      <trkpt lat="48.68539" lon="2.49561">
        <ele>135.994</ele>
        <time>2018-11-01T07:50:42Z</time>
      </trkpt>
      <trkpt lat="48.68536" lon="2.49565">
        <ele>136.006</ele>
        <time>2018-11-01T07:50:44Z</time>
      </trkpt>
      <trkpt lat="48.68534" lon="2.49568">
        <ele>136.019</ele>
        <time>2018-11-01T07:50:46Z</time>
      </trkpt>
      <trkpt lat="48.68531" lon="2.49572">
        <ele>136.032</ele>
        <time>2018-11-01T07:50:48Z</time>
      </trkpt>
      <trkpt lat="48.68527" lon="2.49577">
        <ele>136.05</ele>
        <time>2018-11-01T07:50:51Z</time>
      </trkpt>
      <trkpt lat="48.68524" lon="2.49583">
        <ele>136.08</ele>
        <time>2018-11-01T07:50:56Z</time>
      </trkpt>
      <trkpt lat="48.68522" lon="2.49587">
        <ele>136.092</ele>
        <time>2018-11-01T07:50:58Z</time>
      </trkpt>
      <trkpt lat="48.6852" lon="2.4959">
        <ele>136.11</ele>
        <time>2018-11-01T07:51:01Z</time>
      </trkpt>
      <trkpt lat="48.68517" lon="2.49594">
        <ele>136.124</ele>
        <time>2018-11-01T07:51:03Z</time>
      </trkpt>
      <trkpt lat="48.68515" lon="2.49598">
        <ele>136.138</ele>
        <time>2018-11-01T07:51:05Z</time>
      </trkpt>
      <trkpt lat="48.68515" lon="2.49598">
        <ele>88</ele>
        <time>2018-11-01T07:51:13Z</time>
      </trkpt>
      <trkpt lat="48.68515" lon="2.49598">
        <ele>88</ele>
        <time>2018-11-01T07:51:53Z</time>
      </trkpt>
      <trkpt lat="48.68493" lon="2.49623">
        <ele>136.381</ele>
        <time>2018-11-01T07:51:53Z</time>
      </trkpt>
      <trkpt lat="48.68491" lon="2.49626">
        <ele>136.406</ele>
        <time>2018-11-01T07:51:55Z</time>
      </trkpt>
      <trkpt lat="48.68488" lon="2.4963">
        <ele>136.433</ele>
        <time>2018-11-01T07:51:57Z</time>
      </trkpt>
      <trkpt lat="48.68484" lon="2.49635">
        <ele>136.471</ele>
        <time>2018-11-01T07:52:00Z</time>
      </trkpt>
      <trkpt lat="48.68482" lon="2.49638">
        <ele>136.496</ele>
        <time>2018-11-01T07:52:02Z</time>
      </trkpt>
      <trkpt lat="48.68477" lon="2.49643">
        <ele>136.544</ele>
        <time>2018-11-01T07:52:06Z</time>
      </trkpt>
      <trkpt lat="48.68473" lon="2.4965">
        <ele>136.59</ele>
        <time>2018-11-01T07:52:10Z</time>
      </trkpt>
      <trkpt lat="48.6847" lon="2.49656">
        <ele>136.622</ele>
        <time>2018-11-01T07:52:13Z</time>
      </trkpt>
      <trkpt lat="48.68467" lon="2.49661">
        <ele>136.653</ele>
        <time>2018-11-01T07:52:16Z</time>
      </trkpt>
      <trkpt lat="48.68465" lon="2.49664">
        <ele>136.673</ele>
        <time>2018-11-01T07:52:18Z</time>
      </trkpt>
      <trkpt lat="48.68462" lon="2.49667">
        <ele>136.693</ele>
        <time>2018-11-01T07:52:20Z</time>
      </trkpt>
      <trkpt lat="48.6846" lon="2.49671">
        <ele>136.714</ele>
        <time>2018-11-01T07:52:22Z</time>
      </trkpt>
      <trkpt lat="48.68456" lon="2.49677">
        <ele>136.745</ele>
        <time>2018-11-01T07:52:25Z</time>
      </trkpt>
      <trkpt lat="48.68452" lon="2.49682">
        <ele>136.788</ele>
        <time>2018-11-01T07:52:29Z</time>
      </trkpt>
      <trkpt lat="48.68447" lon="2.49684">
        <ele>136.83</ele>
        <time>2018-11-01T07:52:33Z</time>
      </trkpt>
      <trkpt lat="48.68444" lon="2.49685">
        <ele>136.851</ele>
        <time>2018-11-01T07:52:35Z</time>
      </trkpt>
      <trkpt lat="48.6844" lon="2.49691">
        <ele>136.891</ele>
        <time>2018-11-01T07:52:39Z</time>
      </trkpt>
      <trkpt lat="48.68438" lon="2.49694">
        <ele>136.909</ele>
        <time>2018-11-01T07:52:41Z</time>
      </trkpt>
      <trkpt lat="48.68436" lon="2.49697">
        <ele>136.927</ele>
        <time>2018-11-01T07:52:43Z</time>
      </trkpt>
      <trkpt lat="48.68431" lon="2.49702">
        <ele>136.962</ele>
        <time>2018-11-01T07:52:47Z</time>
      </trkpt>
      <trkpt lat="48.68428" lon="2.49705">
        <ele>136.981</ele>
        <time>2018-11-01T07:52:49Z</time>
      </trkpt>
      <trkpt lat="48.68424" lon="2.49709">
        <ele>137.014</ele>
        <time>2018-11-01T07:52:52Z</time>
      </trkpt>
      <trkpt lat="48.68419" lon="2.49713">
        <ele>137.07</ele>
        <time>2018-11-01T07:52:56Z</time>
      </trkpt>
      <trkpt lat="48.68416" lon="2.49717">
        <ele>137.124</ele>
        <time>2018-11-01T07:53:00Z</time>
      </trkpt>
      <trkpt lat="48.68413" lon="2.49723">
        <ele>137.162</ele>
        <time>2018-11-01T07:53:03Z</time>
      </trkpt>
      <trkpt lat="48.68411" lon="2.49731">
        <ele>137.201</ele>
        <time>2018-11-01T07:53:06Z</time>
      </trkpt>
      <trkpt lat="48.68408" lon="2.49735">
        <ele>137.254</ele>
        <time>2018-11-01T07:53:10Z</time>
      </trkpt>
      <trkpt lat="48.68404" lon="2.49741">
        <ele>137.293</ele>
        <time>2018-11-01T07:53:13Z</time>
      </trkpt>
      <trkpt lat="48.68402" lon="2.49744">
        <ele>137.305</ele>
        <time>2018-11-01T07:53:14Z</time>
      </trkpt>
      <trkpt lat="48.68399" lon="2.49751">
        <ele>137.34</ele>
        <time>2018-11-01T07:53:17Z</time>
      </trkpt>
      <trkpt lat="48.68395" lon="2.49755">
        <ele>137.374</ele>
        <time>2018-11-01T07:53:20Z</time>
      </trkpt>
      <trkpt lat="48.68393" lon="2.49758">
        <ele>137.395</ele>
        <time>2018-11-01T07:53:22Z</time>
      </trkpt>
      <trkpt lat="48.68389" lon="2.49763">
        <ele>137.425</ele>
        <time>2018-11-01T07:53:25Z</time>
      </trkpt>
      <trkpt lat="48.68387" lon="2.49766">
        <ele>137.444</ele>
        <time>2018-11-01T07:53:27Z</time>
      </trkpt>
      <trkpt lat="48.68384" lon="2.49772">
        <ele>137.472</ele>
        <time>2018-11-01T07:53:30Z</time>
      </trkpt>
      <trkpt lat="48.68382" lon="2.49775">
        <ele>137.49</ele>
        <time>2018-11-01T07:53:32Z</time>
      </trkpt>
      <trkpt lat="48.68378" lon="2.4978">
        <ele>137.515</ele>
        <time>2018-11-01T07:53:35Z</time>
      </trkpt>
      <trkpt lat="48.68374" lon="2.49784">
        <ele>137.559</ele>
        <time>2018-11-01T07:53:41Z</time>
      </trkpt>
      <trkpt lat="48.68371" lon="2.49791">
        <ele>137.589</ele>
        <time>2018-11-01T07:53:46Z</time>
      </trkpt>
      <trkpt lat="48.68369" lon="2.49794">
        <ele>137.6</ele>
        <time>2018-11-01T07:53:48Z</time>
      </trkpt>
      <trkpt lat="48.68365" lon="2.49798">
        <ele>137.614</ele>
        <time>2018-11-01T07:53:51Z</time>
      </trkpt>
      <trkpt lat="48.68361" lon="2.49803">
        <ele>137.628</ele>
        <time>2018-11-01T07:53:54Z</time>
      </trkpt>
      <trkpt lat="48.68358" lon="2.49807">
        <ele>137.638</ele>
        <time>2018-11-01T07:53:56Z</time>
      </trkpt>
      <trkpt lat="48.68353" lon="2.49809">
        <ele>137.655</ele>
        <time>2018-11-01T07:53:59Z</time>
      </trkpt>
      <trkpt lat="48.68349" lon="2.49814">
        <ele>137.677</ele>
        <time>2018-11-01T07:54:03Z</time>
      </trkpt>
      <trkpt lat="48.68345" lon="2.49819">
        <ele>137.691</ele>
        <time>2018-11-01T07:54:06Z</time>
      </trkpt>
      <trkpt lat="48.6834" lon="2.49823">
        <ele>137.703</ele>
        <time>2018-11-01T07:54:09Z</time>
      </trkpt>
      <trkpt lat="48.68336" lon="2.49828">
        <ele>137.712</ele>
        <time>2018-11-01T07:54:12Z</time>
      </trkpt>
      <trkpt lat="48.68333" lon="2.49833">
        <ele>137.718</ele>
        <time>2018-11-01T07:54:15Z</time>
      </trkpt>
      <trkpt lat="48.68331" lon="2.49836">
        <ele>137.721</ele>
        <time>2018-11-01T07:54:17Z</time>
      </trkpt>
      <trkpt lat="48.68328" lon="2.49842">
        <ele>137.725</ele>
        <time>2018-11-01T07:54:20Z</time>
      </trkpt>
      <trkpt lat="48.68326" lon="2.49845">
        <ele>137.727</ele>
        <time>2018-11-01T07:54:22Z</time>
      </trkpt>
      <trkpt lat="48.68322" lon="2.4985">
        <ele>137.73</ele>
        <time>2018-11-01T07:54:27Z</time>
      </trkpt>
      <trkpt lat="48.68318" lon="2.49857">
        <ele>137.728</ele>
        <time>2018-11-01T07:54:31Z</time>
      </trkpt>
      <trkpt lat="48.68316" lon="2.49859">
        <ele>137.727</ele>
        <time>2018-11-01T07:54:33Z</time>
      </trkpt>
      <trkpt lat="48.68314" lon="2.49862">
        <ele>137.726</ele>
        <time>2018-11-01T07:54:35Z</time>
      </trkpt>
      <trkpt lat="48.68311" lon="2.49866">
        <ele>137.724</ele>
        <time>2018-11-01T07:54:37Z</time>
      </trkpt>
      <trkpt lat="48.68309" lon="2.49869">
        <ele>137.724</ele>
        <time>2018-11-01T07:54:38Z</time>
      </trkpt>
      <trkpt lat="48.68308" lon="2.49872">
        <ele>137.724</ele>
        <time>2018-11-01T07:54:39Z</time>
      </trkpt>
      <trkpt lat="48.68303" lon="2.49877">
        <ele>137.725</ele>
        <time>2018-11-01T07:54:42Z</time>
      </trkpt>
      <trkpt lat="48.68301" lon="2.4988">
        <ele>137.726</ele>
        <time>2018-11-01T07:54:44Z</time>
      </trkpt>
      <trkpt lat="48.68298" lon="2.49885">
        <ele>137.726</ele>
        <time>2018-11-01T07:54:47Z</time>
      </trkpt>
      <trkpt lat="48.68294" lon="2.49892">
        <ele>137.725</ele>
        <time>2018-11-01T07:54:51Z</time>
      </trkpt>
      <trkpt lat="48.68291" lon="2.49895">
        <ele>137.724</ele>
        <time>2018-11-01T07:54:53Z</time>
      </trkpt>
      <trkpt lat="48.68287" lon="2.49898">
        <ele>137.727</ele>
        <time>2018-11-01T07:54:57Z</time>
      </trkpt>
      <trkpt lat="48.68284" lon="2.49904">
        <ele>137.73</ele>
        <time>2018-11-01T07:55:01Z</time>
      </trkpt>
      <trkpt lat="48.68279" lon="2.49907">
        <ele>137.732</ele>
        <time>2018-11-01T07:55:04Z</time>
      </trkpt>
      <trkpt lat="48.68274" lon="2.49911">
        <ele>137.733</ele>
        <time>2018-11-01T07:55:07Z</time>
      </trkpt>
      <trkpt lat="48.68271" lon="2.49916">
        <ele>137.734</ele>
        <time>2018-11-01T07:55:10Z</time>
      </trkpt>
      <trkpt lat="48.68268" lon="2.49922">
        <ele>137.733</ele>
        <time>2018-11-01T07:55:13Z</time>
      </trkpt>
      <trkpt lat="48.68266" lon="2.49929">
        <ele>137.733</ele>
        <time>2018-11-01T07:55:16Z</time>
      </trkpt>
      <trkpt lat="48.68265" lon="2.49933">
        <ele>137.731</ele>
        <time>2018-11-01T07:55:18Z</time>
      </trkpt>
      <trkpt lat="48.68262" lon="2.49938">
        <ele>137.73</ele>
        <time>2018-11-01T07:55:21Z</time>
      </trkpt>
      <trkpt lat="48.68259" lon="2.49945">
        <ele>137.727</ele>
        <time>2018-11-01T07:55:24Z</time>
      </trkpt>
      <trkpt lat="48.68254" lon="2.49948">
        <ele>137.727</ele>
        <time>2018-11-01T07:55:28Z</time>
      </trkpt>
      <trkpt lat="48.6825" lon="2.49953">
        <ele>137.728</ele>
        <time>2018-11-01T07:55:31Z</time>
      </trkpt>
      <trkpt lat="48.68248" lon="2.49956">
        <ele>137.729</ele>
        <time>2018-11-01T07:55:33Z</time>
      </trkpt>
      <trkpt lat="48.68245" lon="2.4996">
        <ele>137.731</ele>
        <time>2018-11-01T07:55:35Z</time>
      </trkpt>
      <trkpt lat="48.68243" lon="2.49963">
        <ele>137.733</ele>
        <time>2018-11-01T07:55:37Z</time>
      </trkpt>
      <trkpt lat="48.68241" lon="2.49966">
        <ele>137.734</ele>
        <time>2018-11-01T07:55:39Z</time>
      </trkpt>
      <trkpt lat="48.68238" lon="2.49968">
        <ele>137.736</ele>
        <time>2018-11-01T07:55:41Z</time>
      </trkpt>
      <trkpt lat="48.68236" lon="2.49971">
        <ele>137.738</ele>
        <time>2018-11-01T07:55:43Z</time>
      </trkpt>
      <trkpt lat="48.68233" lon="2.49976">
        <ele>137.742</ele>
        <time>2018-11-01T07:55:46Z</time>
      </trkpt>
      <trkpt lat="48.68231" lon="2.49978">
        <ele>137.745</ele>
        <time>2018-11-01T07:55:48Z</time>
      </trkpt>
      <trkpt lat="48.68226" lon="2.49982">
        <ele>137.753</ele>
        <time>2018-11-01T07:55:52Z</time>
      </trkpt>
      <trkpt lat="48.68222" lon="2.49988">
        <ele>137.762</ele>
        <time>2018-11-01T07:55:56Z</time>
      </trkpt>
      <trkpt lat="48.6822" lon="2.49991">
        <ele>137.767</ele>
        <time>2018-11-01T07:55:58Z</time>
      </trkpt>
      <trkpt lat="48.68218" lon="2.49994">
        <ele>137.772</ele>
        <time>2018-11-01T07:56:00Z</time>
      </trkpt>
      <trkpt lat="48.68215" lon="2.49998">
        <ele>137.777</ele>
        <time>2018-11-01T07:56:02Z</time>
      </trkpt>
      <trkpt lat="48.68212" lon="2.50001">
        <ele>137.781</ele>
        <time>2018-11-01T07:56:04Z</time>
      </trkpt>
      <trkpt lat="48.68209" lon="2.50004">
        <ele>137.786</ele>
        <time>2018-11-01T07:56:06Z</time>
      </trkpt>
      <trkpt lat="48.68204" lon="2.50007">
        <ele>137.791</ele>
        <time>2018-11-01T07:56:09Z</time>
      </trkpt>
      <trkpt lat="48.682" lon="2.50013">
        <ele>137.796</ele>
        <time>2018-11-01T07:56:12Z</time>
      </trkpt>
      <trkpt lat="48.68197" lon="2.50019">
        <ele>137.799</ele>
        <time>2018-11-01T07:56:15Z</time>
      </trkpt>
      <trkpt lat="48.68195" lon="2.50023">
        <ele>137.802</ele>
        <time>2018-11-01T07:56:19Z</time>
      </trkpt>
      <trkpt lat="48.68192" lon="2.50028">
        <ele>137.806</ele>
        <time>2018-11-01T07:56:22Z</time>
      </trkpt>
      <trkpt lat="48.68189" lon="2.50031">
        <ele>137.809</ele>
        <time>2018-11-01T07:56:24Z</time>
      </trkpt>
      <trkpt lat="48.68184" lon="2.50037">
        <ele>137.814</ele>
        <time>2018-11-01T07:56:28Z</time>
      </trkpt>
      <trkpt lat="48.6818" lon="2.50041">
        <ele>137.817</ele>
        <time>2018-11-01T07:56:30Z</time>
      </trkpt>
      <trkpt lat="48.68176" lon="2.50048">
        <ele>137.822</ele>
        <time>2018-11-01T07:56:32Z</time>
      </trkpt>
      <trkpt lat="48.68175" lon="2.50051">
        <ele>137.824</ele>
        <time>2018-11-01T07:56:33Z</time>
      </trkpt>
      <trkpt lat="48.68172" lon="2.50055">
        <ele>137.83</ele>
        <time>2018-11-01T07:56:35Z</time>
      </trkpt>
      <trkpt lat="48.6817" lon="2.50058">
        <ele>137.837</ele>
        <time>2018-11-01T07:56:37Z</time>
      </trkpt>
      <trkpt lat="48.68165" lon="2.50065">
        <ele>137.852</ele>
        <time>2018-11-01T07:56:41Z</time>
      </trkpt>
      <trkpt lat="48.68163" lon="2.50067">
        <ele>137.86</ele>
        <time>2018-11-01T07:56:43Z</time>
      </trkpt>
      <trkpt lat="48.68161" lon="2.50069">
        <ele>137.866</ele>
        <time>2018-11-01T07:56:45Z</time>
      </trkpt>
      <trkpt lat="48.68159" lon="2.50075">
        <ele>137.875</ele>
        <time>2018-11-01T07:56:48Z</time>
      </trkpt>
      <trkpt lat="48.68156" lon="2.5008">
        <ele>137.885</ele>
        <time>2018-11-01T07:56:52Z</time>
      </trkpt>
      <trkpt lat="48.68152" lon="2.50085">
        <ele>137.898</ele>
        <time>2018-11-01T07:56:56Z</time>
      </trkpt>
      <trkpt lat="48.6815" lon="2.50089">
        <ele>137.905</ele>
        <time>2018-11-01T07:56:59Z</time>
      </trkpt>
      <trkpt lat="48.68146" lon="2.50096">
        <ele>137.91</ele>
        <time>2018-11-01T07:57:03Z</time>
      </trkpt>
      <trkpt lat="48.68144" lon="2.50101">
        <ele>137.912</ele>
        <time>2018-11-01T07:57:05Z</time>
      </trkpt>
      <trkpt lat="48.68142" lon="2.50105">
        <ele>137.914</ele>
        <time>2018-11-01T07:57:07Z</time>
      </trkpt>
      <trkpt lat="48.6814" lon="2.50109">
        <ele>137.916</ele>
        <time>2018-11-01T07:57:09Z</time>
      </trkpt>
      <trkpt lat="48.68136" lon="2.50116">
        <ele>137.917</ele>
        <time>2018-11-01T07:57:12Z</time>
      </trkpt>
      <trkpt lat="48.68132" lon="2.50122">
        <ele>137.918</ele>
        <time>2018-11-01T07:57:15Z</time>
      </trkpt>
      <trkpt lat="48.6813" lon="2.50126">
        <ele>137.918</ele>
        <time>2018-11-01T07:57:17Z</time>
      </trkpt>
      <trkpt lat="48.68129" lon="2.50128">
        <ele>137.918</ele>
        <time>2018-11-01T07:57:19Z</time>
      </trkpt>
      <trkpt lat="48.68125" lon="2.50132">
        <ele>137.918</ele>
        <time>2018-11-01T07:57:23Z</time>
      </trkpt>
      <trkpt lat="48.68122" lon="2.50136">
        <ele>137.919</ele>
        <time>2018-11-01T07:57:25Z</time>
      </trkpt>
      <trkpt lat="48.68117" lon="2.50139">
        <ele>137.92</ele>
        <time>2018-11-01T07:57:28Z</time>
      </trkpt>
      <trkpt lat="48.68112" lon="2.50142">
        <ele>137.919</ele>
        <time>2018-11-01T07:57:32Z</time>
      </trkpt>
      <trkpt lat="48.68109" lon="2.50148">
        <ele>137.918</ele>
        <time>2018-11-01T07:57:35Z</time>
      </trkpt>
      <trkpt lat="48.68106" lon="2.50153">
        <ele>137.917</ele>
        <time>2018-11-01T07:57:38Z</time>
      </trkpt>
      <trkpt lat="48.68103" lon="2.50156">
        <ele>137.917</ele>
        <time>2018-11-01T07:57:40Z</time>
      </trkpt>
      <trkpt lat="48.681" lon="2.5016">
        <ele>137.919</ele>
        <time>2018-11-01T07:57:42Z</time>
      </trkpt>
      <trkpt lat="48.68096" lon="2.50165">
        <ele>137.923</ele>
        <time>2018-11-01T07:57:46Z</time>
      </trkpt>
      <trkpt lat="48.68093" lon="2.50168">
        <ele>137.926</ele>
        <time>2018-11-01T07:57:48Z</time>
      </trkpt>
      <trkpt lat="48.68091" lon="2.50171">
        <ele>137.93</ele>
        <time>2018-11-01T07:57:50Z</time>
      </trkpt>
      <trkpt lat="48.68086" lon="2.50177">
        <ele>137.942</ele>
        <time>2018-11-01T07:57:54Z</time>
      </trkpt>
      <trkpt lat="48.68083" lon="2.50179">
        <ele>137.95</ele>
        <time>2018-11-01T07:57:56Z</time>
      </trkpt>
      <trkpt lat="48.6808" lon="2.50184">
        <ele>137.963</ele>
        <time>2018-11-01T07:57:59Z</time>
      </trkpt>
      <trkpt lat="48.68078" lon="2.50187">
        <ele>137.977</ele>
        <time>2018-11-01T07:58:02Z</time>
      </trkpt>
      <trkpt lat="48.68075" lon="2.50191">
        <ele>137.989</ele>
        <time>2018-11-01T07:58:05Z</time>
      </trkpt>
      <trkpt lat="48.68071" lon="2.50197">
        <ele>138.006</ele>
        <time>2018-11-01T07:58:09Z</time>
      </trkpt>
      <trkpt lat="48.68068" lon="2.502">
        <ele>138.015</ele>
        <time>2018-11-01T07:58:11Z</time>
      </trkpt>
      <trkpt lat="48.68064" lon="2.50207">
        <ele>138.032</ele>
        <time>2018-11-01T07:58:14Z</time>
      </trkpt>
      <trkpt lat="48.68062" lon="2.50209">
        <ele>138.046</ele>
        <time>2018-11-01T07:58:16Z</time>
      </trkpt>
      <trkpt lat="48.6806" lon="2.50212">
        <ele>138.054</ele>
        <time>2018-11-01T07:58:17Z</time>
      </trkpt>
      <trkpt lat="48.68057" lon="2.50217">
        <ele>138.071</ele>
        <time>2018-11-01T07:58:19Z</time>
      </trkpt>
      <trkpt lat="48.68055" lon="2.50222">
        <ele>138.089</ele>
        <time>2018-11-01T07:58:21Z</time>
      </trkpt>
      <trkpt lat="48.6805" lon="2.50227">
        <ele>138.119</ele>
        <time>2018-11-01T07:58:24Z</time>
      </trkpt>
      <trkpt lat="48.68048" lon="2.5023">
        <ele>138.139</ele>
        <time>2018-11-01T07:58:26Z</time>
      </trkpt>
      <trkpt lat="48.68046" lon="2.50233">
        <ele>138.158</ele>
        <time>2018-11-01T07:58:28Z</time>
      </trkpt>
      <trkpt lat="48.68042" lon="2.50238">
        <ele>138.191</ele>
        <time>2018-11-01T07:58:32Z</time>
      </trkpt>
      <trkpt lat="48.68038" lon="2.50243">
        <ele>138.218</ele>
        <time>2018-11-01T07:58:36Z</time>
      </trkpt>
      <trkpt lat="48.68036" lon="2.50245">
        <ele>138.228</ele>
        <time>2018-11-01T07:58:38Z</time>
      </trkpt>
      <trkpt lat="48.68034" lon="2.50249">
        <ele>138.242</ele>
        <time>2018-11-01T07:58:41Z</time>
      </trkpt>
      <trkpt lat="48.68031" lon="2.50252">
        <ele>138.249</ele>
        <time>2018-11-01T07:58:43Z</time>
      </trkpt>
      <trkpt lat="48.68029" lon="2.50255">
        <ele>138.256</ele>
        <time>2018-11-01T07:58:45Z</time>
      </trkpt>
      <trkpt lat="48.68026" lon="2.50258">
        <ele>138.26</ele>
        <time>2018-11-01T07:58:47Z</time>
      </trkpt>
      <trkpt lat="48.68022" lon="2.50264">
        <ele>138.263</ele>
        <time>2018-11-01T07:58:51Z</time>
      </trkpt>
      <trkpt lat="48.6802" lon="2.50267">
        <ele>138.264</ele>
        <time>2018-11-01T07:58:53Z</time>
      </trkpt>
      <trkpt lat="48.68018" lon="2.50271">
        <ele>138.265</ele>
        <time>2018-11-01T07:58:55Z</time>
      </trkpt>
      <trkpt lat="48.68013" lon="2.50276">
        <ele>138.266</ele>
        <time>2018-11-01T07:58:58Z</time>
      </trkpt>
      <trkpt lat="48.6801" lon="2.5028">
        <ele>138.267</ele>
        <time>2018-11-01T07:59:00Z</time>
      </trkpt>
      <trkpt lat="48.68009" lon="2.50283">
        <ele>138.267</ele>
        <time>2018-11-01T07:59:01Z</time>
      </trkpt>
      <trkpt lat="48.68006" lon="2.50287">
        <ele>138.268</ele>
        <time>2018-11-01T07:59:03Z</time>
      </trkpt>
      <trkpt lat="48.68004" lon="2.50291">
        <ele>138.269</ele>
        <time>2018-11-01T07:59:05Z</time>
      </trkpt>
      <trkpt lat="48.68002" lon="2.50294">
        <ele>138.268</ele>
        <time>2018-11-01T07:59:07Z</time>
      </trkpt>
      <trkpt lat="48.67998" lon="2.50299">
        <ele>138.266</ele>
        <time>2018-11-01T07:59:10Z</time>
      </trkpt>
      <trkpt lat="48.67996" lon="2.50303">
        <ele>138.262</ele>
        <time>2018-11-01T07:59:12Z</time>
      </trkpt>
      <trkpt lat="48.67993" lon="2.50306">
        <ele>138.257</ele>
        <time>2018-11-01T07:59:14Z</time>
      </trkpt>
      <trkpt lat="48.6799" lon="2.50309">
        <ele>138.253</ele>
        <time>2018-11-01T07:59:16Z</time>
      </trkpt>
      <trkpt lat="48.67987" lon="2.50312">
        <ele>138.247</ele>
        <time>2018-11-01T07:59:18Z</time>
      </trkpt>
      <trkpt lat="48.67985" lon="2.50314">
        <ele>138.24</ele>
        <time>2018-11-01T07:59:20Z</time>
      </trkpt>
      <trkpt lat="48.67982" lon="2.50318">
        <ele>138.228</ele>
        <time>2018-11-01T07:59:23Z</time>
      </trkpt>
      <trkpt lat="48.67978" lon="2.50323">
        <ele>138.215</ele>
        <time>2018-11-01T07:59:26Z</time>
      </trkpt>
      <trkpt lat="48.67975" lon="2.50328">
        <ele>138.205</ele>
        <time>2018-11-01T07:59:29Z</time>
      </trkpt>
      <trkpt lat="48.67971" lon="2.50334">
        <ele>138.2</ele>
        <time>2018-11-01T07:59:32Z</time>
      </trkpt>
      <trkpt lat="48.67969" lon="2.50338">
        <ele>138.199</ele>
        <time>2018-11-01T07:59:34Z</time>
      </trkpt>
      <trkpt lat="48.67965" lon="2.50343">
        <ele>138.201</ele>
        <time>2018-11-01T07:59:37Z</time>
      </trkpt>
      <trkpt lat="48.6796" lon="2.50348">
        <ele>138.208</ele>
        <time>2018-11-01T07:59:41Z</time>
      </trkpt>
      <trkpt lat="48.67958" lon="2.50351">
        <ele>138.214</ele>
        <time>2018-11-01T07:59:43Z</time>
      </trkpt>
      <trkpt lat="48.67954" lon="2.50356">
        <ele>138.222</ele>
        <time>2018-11-01T07:59:46Z</time>
      </trkpt>
      <trkpt lat="48.67951" lon="2.50359">
        <ele>138.229</ele>
        <time>2018-11-01T07:59:48Z</time>
      </trkpt>
      <trkpt lat="48.67948" lon="2.50363">
        <ele>138.235</ele>
        <time>2018-11-01T07:59:50Z</time>
      </trkpt>
      <trkpt lat="48.67946" lon="2.50367">
        <ele>138.242</ele>
        <time>2018-11-01T07:59:52Z</time>
      </trkpt>
      <trkpt lat="48.67943" lon="2.5037">
        <ele>138.247</ele>
        <time>2018-11-01T07:59:54Z</time>
      </trkpt>
      <trkpt lat="48.67939" lon="2.50376">
        <ele>138.255</ele>
        <time>2018-11-01T07:59:57Z</time>
      </trkpt>
      <trkpt lat="48.67936" lon="2.5038">
        <ele>138.261</ele>
        <time>2018-11-01T07:59:59Z</time>
      </trkpt>
      <trkpt lat="48.67933" lon="2.50383">
        <ele>138.267</ele>
        <time>2018-11-01T08:00:01Z</time>
      </trkpt>
      <trkpt lat="48.67931" lon="2.50386">
        <ele>138.272</ele>
        <time>2018-11-01T08:00:03Z</time>
      </trkpt>
      <trkpt lat="48.67929" lon="2.50389">
        <ele>138.277</ele>
        <time>2018-11-01T08:00:05Z</time>
      </trkpt>
      <trkpt lat="48.67926" lon="2.50392">
        <ele>138.282</ele>
        <time>2018-11-01T08:00:07Z</time>
      </trkpt>
      <trkpt lat="48.67924" lon="2.50398">
        <ele>138.29</ele>
        <time>2018-11-01T08:00:09Z</time>
      </trkpt>
      <trkpt lat="48.67919" lon="2.50404">
        <ele>138.308</ele>
        <time>2018-11-01T08:00:13Z</time>
      </trkpt>
      <trkpt lat="48.67916" lon="2.50408">
        <ele>138.32</ele>
        <time>2018-11-01T08:00:15Z</time>
      </trkpt>
      <trkpt lat="48.67912" lon="2.50413">
        <ele>138.35</ele>
        <time>2018-11-01T08:00:20Z</time>
      </trkpt>
      <trkpt lat="48.67908" lon="2.50418">
        <ele>138.368</ele>
        <time>2018-11-01T08:00:23Z</time>
      </trkpt>
      <trkpt lat="48.67905" lon="2.50426">
        <ele>138.389</ele>
        <time>2018-11-01T08:00:26Z</time>
      </trkpt>
      <trkpt lat="48.67901" lon="2.50431">
        <ele>138.413</ele>
        <time>2018-11-01T08:00:29Z</time>
      </trkpt>
      <trkpt lat="48.67896" lon="2.50435">
        <ele>138.447</ele>
        <time>2018-11-01T08:00:33Z</time>
      </trkpt>
      <trkpt lat="48.67894" lon="2.50437">
        <ele>138.465</ele>
        <time>2018-11-01T08:00:35Z</time>
      </trkpt>
      <trkpt lat="48.67891" lon="2.5044">
        <ele>138.482</ele>
        <time>2018-11-01T08:00:37Z</time>
      </trkpt>
      <trkpt lat="48.67887" lon="2.50446">
        <ele>138.505</ele>
        <time>2018-11-01T08:00:40Z</time>
      </trkpt>
      <trkpt lat="48.67885" lon="2.50449">
        <ele>138.518</ele>
        <time>2018-11-01T08:00:42Z</time>
      </trkpt>
      <trkpt lat="48.67883" lon="2.50451">
        <ele>138.531</ele>
        <time>2018-11-01T08:00:44Z</time>
      </trkpt>
      <trkpt lat="48.67881" lon="2.50454">
        <ele>138.543</ele>
        <time>2018-11-01T08:00:46Z</time>
      </trkpt>
      <trkpt lat="48.67878" lon="2.50457">
        <ele>138.555</ele>
        <time>2018-11-01T08:00:48Z</time>
      </trkpt>
      <trkpt lat="48.67876" lon="2.5046">
        <ele>138.565</ele>
        <time>2018-11-01T08:00:50Z</time>
      </trkpt>
      <trkpt lat="48.67874" lon="2.50462">
        <ele>138.574</ele>
        <time>2018-11-01T08:00:52Z</time>
      </trkpt>
      <trkpt lat="48.67871" lon="2.50465">
        <ele>138.582</ele>
        <time>2018-11-01T08:00:54Z</time>
      </trkpt>
      <trkpt lat="48.67868" lon="2.50469">
        <ele>138.59</ele>
        <time>2018-11-01T08:00:56Z</time>
      </trkpt>
      <trkpt lat="48.67865" lon="2.50475">
        <ele>138.603</ele>
        <time>2018-11-01T08:00:59Z</time>
      </trkpt>
      <trkpt lat="48.67862" lon="2.50481">
        <ele>138.613</ele>
        <time>2018-11-01T08:01:02Z</time>
      </trkpt>
      <trkpt lat="48.67857" lon="2.50485">
        <ele>138.623</ele>
        <time>2018-11-01T08:01:06Z</time>
      </trkpt>
      <trkpt lat="48.67857" lon="2.50485">
        <ele>84.1</ele>
        <time>2018-11-01T08:01:11Z</time>
      </trkpt>
      <trkpt lat="48.67857" lon="2.50485">
        <ele>84.1</ele>
        <time>2018-11-01T08:01:18Z</time>
      </trkpt>
      <trkpt lat="48.67851" lon="2.50497">
        <ele>138.641</ele>
        <time>2018-11-01T08:01:18Z</time>
      </trkpt>
      <trkpt lat="48.67848" lon="2.50501">
        <ele>138.655</ele>
        <time>2018-11-01T08:01:21Z</time>
      </trkpt>
      <trkpt lat="48.67844" lon="2.50506">
        <ele>138.671</ele>
        <time>2018-11-01T08:01:24Z</time>
      </trkpt>
      <trkpt lat="48.67842" lon="2.50508">
        <ele>138.677</ele>
        <time>2018-11-01T08:01:25Z</time>
      </trkpt>
      <trkpt lat="48.6784" lon="2.50511">
        <ele>138.689</ele>
        <time>2018-11-01T08:01:27Z</time>
      </trkpt>
      <trkpt lat="48.67838" lon="2.50514">
        <ele>138.7</ele>
        <time>2018-11-01T08:01:29Z</time>
      </trkpt>
      <trkpt lat="48.67835" lon="2.50518">
        <ele>138.712</ele>
        <time>2018-11-01T08:01:31Z</time>
      </trkpt>
      <trkpt lat="48.67831" lon="2.50524">
        <ele>138.729</ele>
        <time>2018-11-01T08:01:34Z</time>
      </trkpt>
      <trkpt lat="48.67827" lon="2.50529">
        <ele>138.753</ele>
        <time>2018-11-01T08:01:37Z</time>
      </trkpt>
      <trkpt lat="48.67824" lon="2.50531">
        <ele>138.78</ele>
        <time>2018-11-01T08:01:40Z</time>
      </trkpt>
      <trkpt lat="48.67821" lon="2.50536">
        <ele>138.806</ele>
        <time>2018-11-01T08:01:43Z</time>
      </trkpt>
      <trkpt lat="48.67817" lon="2.50541">
        <ele>138.833</ele>
        <time>2018-11-01T08:01:46Z</time>
      </trkpt>
      <trkpt lat="48.67815" lon="2.50547">
        <ele>138.859</ele>
        <time>2018-11-01T08:01:50Z</time>
      </trkpt>
      <trkpt lat="48.67815" lon="2.50547">
        <ele>84.2</ele>
        <time>2018-11-01T08:01:58Z</time>
      </trkpt>
      <trkpt lat="48.67815" lon="2.50547">
        <ele>84.2</ele>
        <time>2018-11-01T08:02:02Z</time>
      </trkpt>
      <trkpt lat="48.67811" lon="2.50553">
        <ele>138.908</ele>
        <time>2018-11-01T08:02:02Z</time>
      </trkpt>
      <trkpt lat="48.67807" lon="2.50559">
        <ele>138.934</ele>
        <time>2018-11-01T08:02:05Z</time>
      </trkpt>
      <trkpt lat="48.67806" lon="2.50562">
        <ele>138.943</ele>
        <time>2018-11-01T08:02:06Z</time>
      </trkpt>
      <trkpt lat="48.67802" lon="2.50565">
        <ele>138.961</ele>
        <time>2018-11-01T08:02:08Z</time>
      </trkpt>
      <trkpt lat="48.67799" lon="2.50566">
        <ele>138.97</ele>
        <time>2018-11-01T08:02:09Z</time>
      </trkpt>
      <trkpt lat="48.67796" lon="2.50569">
        <ele>138.988</ele>
        <time>2018-11-01T08:02:11Z</time>
      </trkpt>
      <trkpt lat="48.67794" lon="2.50571">
        <ele>139.006</ele>
        <time>2018-11-01T08:02:13Z</time>
      </trkpt>
      <trkpt lat="48.67792" lon="2.50574">
        <ele>139.024</ele>
        <time>2018-11-01T08:02:15Z</time>
      </trkpt>
      <trkpt lat="48.67788" lon="2.5058">
        <ele>139.049</ele>
        <time>2018-11-01T08:02:18Z</time>
      </trkpt>
      <trkpt lat="48.67785" lon="2.50584">
        <ele>139.064</ele>
        <time>2018-11-01T08:02:20Z</time>
      </trkpt>
      <trkpt lat="48.67783" lon="2.50586">
        <ele>139.078</ele>
        <time>2018-11-01T08:02:22Z</time>
      </trkpt>
      <trkpt lat="48.67778" lon="2.50592">
        <ele>139.103</ele>
        <time>2018-11-01T08:02:26Z</time>
      </trkpt>
      <trkpt lat="48.67774" lon="2.50596">
        <ele>139.12</ele>
        <time>2018-11-01T08:02:29Z</time>
      </trkpt>
      <trkpt lat="48.6777" lon="2.50601">
        <ele>139.141</ele>
        <time>2018-11-01T08:02:32Z</time>
      </trkpt>
      <trkpt lat="48.67766" lon="2.50606">
        <ele>139.169</ele>
        <time>2018-11-01T08:02:36Z</time>
      </trkpt>
      <trkpt lat="48.67762" lon="2.50611">
        <ele>139.193</ele>
        <time>2018-11-01T08:02:39Z</time>
      </trkpt>
      <trkpt lat="48.6776" lon="2.50614">
        <ele>139.208</ele>
        <time>2018-11-01T08:02:41Z</time>
      </trkpt>
      <trkpt lat="48.67758" lon="2.50617">
        <ele>139.224</ele>
        <time>2018-11-01T08:02:43Z</time>
      </trkpt>
      <trkpt lat="48.67755" lon="2.50623">
        <ele>139.249</ele>
        <time>2018-11-01T08:02:46Z</time>
      </trkpt>
      <trkpt lat="48.67751" lon="2.50628">
        <ele>139.281</ele>
        <time>2018-11-01T08:02:50Z</time>
      </trkpt>
      <trkpt lat="48.67749" lon="2.50631">
        <ele>139.296</ele>
        <time>2018-11-01T08:02:52Z</time>
      </trkpt>
      <trkpt lat="48.67746" lon="2.50634">
        <ele>139.31</ele>
        <time>2018-11-01T08:02:54Z</time>
      </trkpt>
      <trkpt lat="48.67743" lon="2.50641">
        <ele>139.336</ele>
        <time>2018-11-01T08:02:58Z</time>
      </trkpt>
      <trkpt lat="48.67738" lon="2.50647">
        <ele>139.358</ele>
        <time>2018-11-01T08:03:02Z</time>
      </trkpt>
      <trkpt lat="48.67737" lon="2.5065">
        <ele>139.363</ele>
        <time>2018-11-01T08:03:03Z</time>
      </trkpt>
      <trkpt lat="48.67734" lon="2.50654">
        <ele>139.373</ele>
        <time>2018-11-01T08:03:05Z</time>
      </trkpt>
      <trkpt lat="48.67731" lon="2.50658">
        <ele>139.383</ele>
        <time>2018-11-01T08:03:07Z</time>
      </trkpt>
      <trkpt lat="48.67728" lon="2.50664">
        <ele>139.397</ele>
        <time>2018-11-01T08:03:10Z</time>
      </trkpt>
      <trkpt lat="48.67723" lon="2.5067">
        <ele>139.416</ele>
        <time>2018-11-01T08:03:14Z</time>
      </trkpt>
      <trkpt lat="48.6772" lon="2.50673">
        <ele>139.425</ele>
        <time>2018-11-01T08:03:16Z</time>
      </trkpt>
      <trkpt lat="48.67716" lon="2.50676">
        <ele>139.437</ele>
        <time>2018-11-01T08:03:19Z</time>
      </trkpt>
      <trkpt lat="48.67712" lon="2.50681">
        <ele>139.449</ele>
        <time>2018-11-01T08:03:23Z</time>
      </trkpt>
      <trkpt lat="48.6771" lon="2.50684">
        <ele>139.452</ele>
        <time>2018-11-01T08:03:25Z</time>
      </trkpt>
      <trkpt lat="48.67708" lon="2.50687">
        <ele>139.455</ele>
        <time>2018-11-01T08:03:27Z</time>
      </trkpt>
      <trkpt lat="48.67705" lon="2.5069">
        <ele>139.458</ele>
        <time>2018-11-01T08:03:29Z</time>
      </trkpt>
      <trkpt lat="48.67704" lon="2.50693">
        <ele>139.459</ele>
        <time>2018-11-01T08:03:30Z</time>
      </trkpt>
      <trkpt lat="48.67701" lon="2.50697">
        <ele>139.462</ele>
        <time>2018-11-01T08:03:32Z</time>
      </trkpt>
      <trkpt lat="48.67697" lon="2.50702">
        <ele>139.466</ele>
        <time>2018-11-01T08:03:35Z</time>
      </trkpt>
      <trkpt lat="48.67694" lon="2.50707">
        <ele>139.468</ele>
        <time>2018-11-01T08:03:37Z</time>
      </trkpt>
      <trkpt lat="48.67689" lon="2.50714">
        <ele>139.469</ele>
        <time>2018-11-01T08:03:40Z</time>
      </trkpt>
      <trkpt lat="48.67685" lon="2.50718">
        <ele>139.469</ele>
        <time>2018-11-01T08:03:42Z</time>
      </trkpt>
      <trkpt lat="48.67683" lon="2.50721">
        <ele>139.469</ele>
        <time>2018-11-01T08:03:44Z</time>
      </trkpt>
      <trkpt lat="48.67681" lon="2.50724">
        <ele>139.468</ele>
        <time>2018-11-01T08:03:46Z</time>
      </trkpt>
      <trkpt lat="48.67679" lon="2.50726">
        <ele>139.466</ele>
        <time>2018-11-01T08:03:48Z</time>
      </trkpt>
      <trkpt lat="48.67675" lon="2.5073">
        <ele>139.461</ele>
        <time>2018-11-01T08:03:52Z</time>
      </trkpt>
      <trkpt lat="48.67673" lon="2.50733">
        <ele>139.459</ele>
        <time>2018-11-01T08:03:54Z</time>
      </trkpt>
      <trkpt lat="48.67671" lon="2.50735">
        <ele>139.456</ele>
        <time>2018-11-01T08:03:56Z</time>
      </trkpt>
      <trkpt lat="48.67668" lon="2.50742">
        <ele>139.45</ele>
        <time>2018-11-01T08:04:00Z</time>
      </trkpt>
      <trkpt lat="48.67665" lon="2.50748">
        <ele>139.448</ele>
        <time>2018-11-01T08:04:02Z</time>
      </trkpt>
      <trkpt lat="48.67662" lon="2.50753">
        <ele>139.446</ele>
        <time>2018-11-01T08:04:05Z</time>
      </trkpt>
      <trkpt lat="48.67658" lon="2.50756">
        <ele>139.444</ele>
        <time>2018-11-01T08:04:08Z</time>
      </trkpt>
      <trkpt lat="48.67653" lon="2.5076">
        <ele>139.442</ele>
        <time>2018-11-01T08:04:11Z</time>
      </trkpt>
      <trkpt lat="48.67648" lon="2.50765">
        <ele>139.441</ele>
        <time>2018-11-01T08:04:14Z</time>
      </trkpt>
      <trkpt lat="48.67646" lon="2.50767">
        <ele>139.441</ele>
        <time>2018-11-01T08:04:16Z</time>
      </trkpt>
      <trkpt lat="48.67643" lon="2.50769">
        <ele>139.44</ele>
        <time>2018-11-01T08:04:18Z</time>
      </trkpt>
      <trkpt lat="48.67639" lon="2.50775">
        <ele>139.44</ele>
        <time>2018-11-01T08:04:21Z</time>
      </trkpt>
      <trkpt lat="48.67634" lon="2.50781">
        <ele>139.44</ele>
        <time>2018-11-01T08:04:25Z</time>
      </trkpt>
      <trkpt lat="48.67632" lon="2.50783">
        <ele>139.439</ele>
        <time>2018-11-01T08:04:27Z</time>
      </trkpt>
      <trkpt lat="48.6763" lon="2.50786">
        <ele>139.438</ele>
        <time>2018-11-01T08:04:29Z</time>
      </trkpt>
      <trkpt lat="48.67628" lon="2.50788">
        <ele>139.436</ele>
        <time>2018-11-01T08:04:31Z</time>
      </trkpt>
      <trkpt lat="48.67624" lon="2.50795">
        <ele>139.434</ele>
        <time>2018-11-01T08:04:34Z</time>
      </trkpt>
      <trkpt lat="48.67622" lon="2.50798">
        <ele>139.433</ele>
        <time>2018-11-01T08:04:35Z</time>
      </trkpt>
      <trkpt lat="48.67619" lon="2.50801">
        <ele>139.433</ele>
        <time>2018-11-01T08:04:37Z</time>
      </trkpt>
      <trkpt lat="48.67617" lon="2.50807">
        <ele>139.434</ele>
        <time>2018-11-01T08:04:40Z</time>
      </trkpt>
      <trkpt lat="48.67615" lon="2.50813">
        <ele>139.436</ele>
        <time>2018-11-01T08:04:43Z</time>
      </trkpt>
      <trkpt lat="48.67613" lon="2.50817">
        <ele>139.438</ele>
        <time>2018-11-01T08:04:45Z</time>
      </trkpt>
      <trkpt lat="48.67611" lon="2.50823">
        <ele>139.441</ele>
        <time>2018-11-01T08:04:48Z</time>
      </trkpt>
      <trkpt lat="48.67608" lon="2.50828">
        <ele>139.444</ele>
        <time>2018-11-01T08:04:51Z</time>
      </trkpt>
      <trkpt lat="48.67606" lon="2.50832">
        <ele>139.447</ele>
        <time>2018-11-01T08:04:53Z</time>
      </trkpt>
      <trkpt lat="48.67603" lon="2.50838">
        <ele>139.452</ele>
        <time>2018-11-01T08:04:56Z</time>
      </trkpt>
      <trkpt lat="48.67598" lon="2.50842">
        <ele>139.457</ele>
        <time>2018-11-01T08:04:59Z</time>
      </trkpt>
      <trkpt lat="48.67594" lon="2.50848">
        <ele>139.461</ele>
        <time>2018-11-01T08:05:01Z</time>
      </trkpt>
      <trkpt lat="48.67591" lon="2.50853">
        <ele>139.468</ele>
        <time>2018-11-01T08:05:03Z</time>
      </trkpt>
      <trkpt lat="48.6759" lon="2.50856">
        <ele>139.472</ele>
        <time>2018-11-01T08:05:04Z</time>
      </trkpt>
      <trkpt lat="48.67586" lon="2.50861">
        <ele>139.486</ele>
        <time>2018-11-01T08:05:07Z</time>
      </trkpt>
      <trkpt lat="48.67584" lon="2.50864">
        <ele>139.496</ele>
        <time>2018-11-01T08:05:09Z</time>
      </trkpt>
      <trkpt lat="48.67582" lon="2.50867">
        <ele>139.506</ele>
        <time>2018-11-01T08:05:11Z</time>
      </trkpt>
      <trkpt lat="48.6758" lon="2.5087">
        <ele>139.515</ele>
        <time>2018-11-01T08:05:13Z</time>
      </trkpt>
      <trkpt lat="48.67575" lon="2.50875">
        <ele>139.531</ele>
        <time>2018-11-01T08:05:17Z</time>
      </trkpt>
      <trkpt lat="48.67572" lon="2.50877">
        <ele>139.539</ele>
        <time>2018-11-01T08:05:19Z</time>
      </trkpt>
      <trkpt lat="48.67566" lon="2.50882">
        <ele>139.553</ele>
        <time>2018-11-01T08:05:23Z</time>
      </trkpt>
      <trkpt lat="48.67563" lon="2.50886">
        <ele>139.563</ele>
        <time>2018-11-01T08:05:26Z</time>
      </trkpt>
      <trkpt lat="48.67559" lon="2.5089">
        <ele>139.573</ele>
        <time>2018-11-01T08:05:29Z</time>
      </trkpt>
      <trkpt lat="48.67554" lon="2.50897">
        <ele>139.588</ele>
        <time>2018-11-01T08:05:33Z</time>
      </trkpt>
      <trkpt lat="48.6755" lon="2.50902">
        <ele>139.602</ele>
        <time>2018-11-01T08:05:36Z</time>
      </trkpt>
      <trkpt lat="48.67548" lon="2.50905">
        <ele>139.612</ele>
        <time>2018-11-01T08:05:38Z</time>
      </trkpt>
      <trkpt lat="48.67546" lon="2.50907">
        <ele>139.621</ele>
        <time>2018-11-01T08:05:40Z</time>
      </trkpt>
      <trkpt lat="48.67543" lon="2.50912">
        <ele>139.634</ele>
        <time>2018-11-01T08:05:43Z</time>
      </trkpt>
      <trkpt lat="48.6754" lon="2.50916">
        <ele>139.642</ele>
        <time>2018-11-01T08:05:45Z</time>
      </trkpt>
      <trkpt lat="48.67537" lon="2.5092">
        <ele>139.651</ele>
        <time>2018-11-01T08:05:47Z</time>
      </trkpt>
      <trkpt lat="48.67534" lon="2.50926">
        <ele>139.668</ele>
        <time>2018-11-01T08:05:51Z</time>
      </trkpt>
      <trkpt lat="48.67532" lon="2.5093">
        <ele>139.677</ele>
        <time>2018-11-01T08:05:53Z</time>
      </trkpt>
      <trkpt lat="48.67528" lon="2.50936">
        <ele>139.697</ele>
        <time>2018-11-01T08:05:57Z</time>
      </trkpt>
      <trkpt lat="48.67526" lon="2.50939">
        <ele>139.708</ele>
        <time>2018-11-01T08:05:59Z</time>
      </trkpt>
      <trkpt lat="48.67521" lon="2.50943">
        <ele>139.727</ele>
        <time>2018-11-01T08:06:03Z</time>
      </trkpt>
      <trkpt lat="48.67518" lon="2.50948">
        <ele>139.741</ele>
        <time>2018-11-01T08:06:06Z</time>
      </trkpt>
      <trkpt lat="48.67516" lon="2.50952">
        <ele>139.751</ele>
        <time>2018-11-01T08:06:08Z</time>
      </trkpt>
      <trkpt lat="48.67512" lon="2.50956">
        <ele>139.77</ele>
        <time>2018-11-01T08:06:11Z</time>
      </trkpt>
      <trkpt lat="48.67507" lon="2.50962">
        <ele>139.798</ele>
        <time>2018-11-01T08:06:15Z</time>
      </trkpt>
      <trkpt lat="48.67503" lon="2.50966">
        <ele>139.82</ele>
        <time>2018-11-01T08:06:18Z</time>
      </trkpt>
      <trkpt lat="48.675" lon="2.50969">
        <ele>139.836</ele>
        <time>2018-11-01T08:06:20Z</time>
      </trkpt>
      <trkpt lat="48.67497" lon="2.50972">
        <ele>139.852</ele>
        <time>2018-11-01T08:06:22Z</time>
      </trkpt>
      <trkpt lat="48.67493" lon="2.50978">
        <ele>139.879</ele>
        <time>2018-11-01T08:06:25Z</time>
      </trkpt>
      <trkpt lat="48.67491" lon="2.50982">
        <ele>139.897</ele>
        <time>2018-11-01T08:06:27Z</time>
      </trkpt>
      <trkpt lat="48.67489" lon="2.50986">
        <ele>139.915</ele>
        <time>2018-11-01T08:06:29Z</time>
      </trkpt>
      <trkpt lat="48.67485" lon="2.50991">
        <ele>139.941</ele>
        <time>2018-11-01T08:06:32Z</time>
      </trkpt>
      <trkpt lat="48.67483" lon="2.50995">
        <ele>139.957</ele>
        <time>2018-11-01T08:06:34Z</time>
      </trkpt>
      <trkpt lat="48.67478" lon="2.50999">
        <ele>139.98</ele>
        <time>2018-11-01T08:06:37Z</time>
      </trkpt>
      <trkpt lat="48.67474" lon="2.51002">
        <ele>139.997</ele>
        <time>2018-11-01T08:06:40Z</time>
      </trkpt>
      <trkpt lat="48.6747" lon="2.51007">
        <ele>140.014</ele>
        <time>2018-11-01T08:06:44Z</time>
      </trkpt>
      <trkpt lat="48.67467" lon="2.51013">
        <ele>140.024</ele>
        <time>2018-11-01T08:06:47Z</time>
      </trkpt>
      <trkpt lat="48.67465" lon="2.51016">
        <ele>140.031</ele>
        <time>2018-11-01T08:06:49Z</time>
      </trkpt>
      <trkpt lat="48.67463" lon="2.51019">
        <ele>140.04</ele>
        <time>2018-11-01T08:06:51Z</time>
      </trkpt>
      <trkpt lat="48.67458" lon="2.51027">
        <ele>140.059</ele>
        <time>2018-11-01T08:06:55Z</time>
      </trkpt>
      <trkpt lat="48.67454" lon="2.51033">
        <ele>140.074</ele>
        <time>2018-11-01T08:06:58Z</time>
      </trkpt>
      <trkpt lat="48.67452" lon="2.51036">
        <ele>140.078</ele>
        <time>2018-11-01T08:06:59Z</time>
      </trkpt>
      <trkpt lat="48.67448" lon="2.5104">
        <ele>140.086</ele>
        <time>2018-11-01T08:07:02Z</time>
      </trkpt>
      <trkpt lat="48.67446" lon="2.51043">
        <ele>140.089</ele>
        <time>2018-11-01T08:07:04Z</time>
      </trkpt>
      <trkpt lat="48.67442" lon="2.51046">
        <ele>140.093</ele>
        <time>2018-11-01T08:07:07Z</time>
      </trkpt>
      <trkpt lat="48.67438" lon="2.5105">
        <ele>140.096</ele>
        <time>2018-11-01T08:07:10Z</time>
      </trkpt>
      <trkpt lat="48.67436" lon="2.51052">
        <ele>140.097</ele>
        <time>2018-11-01T08:07:12Z</time>
      </trkpt>
      <trkpt lat="48.67433" lon="2.51057">
        <ele>140.098</ele>
        <time>2018-11-01T08:07:16Z</time>
      </trkpt>
      <trkpt lat="48.67431" lon="2.51065">
        <ele>140.097</ele>
        <time>2018-11-01T08:07:19Z</time>
      </trkpt>
      <trkpt lat="48.67426" lon="2.51068">
        <ele>140.097</ele>
        <time>2018-11-01T08:07:23Z</time>
      </trkpt>
      <trkpt lat="48.67421" lon="2.51075">
        <ele>140.094</ele>
        <time>2018-11-01T08:07:27Z</time>
      </trkpt>
      <trkpt lat="48.67419" lon="2.51078">
        <ele>140.091</ele>
        <time>2018-11-01T08:07:29Z</time>
      </trkpt>
      <trkpt lat="48.67415" lon="2.51082">
        <ele>140.084</ele>
        <time>2018-11-01T08:07:32Z</time>
      </trkpt>
      <trkpt lat="48.67412" lon="2.51086">
        <ele>140.078</ele>
        <time>2018-11-01T08:07:34Z</time>
      </trkpt>
      <trkpt lat="48.6741" lon="2.51088">
        <ele>140.073</ele>
        <time>2018-11-01T08:07:36Z</time>
      </trkpt>
      <trkpt lat="48.67408" lon="2.51091">
        <ele>140.068</ele>
        <time>2018-11-01T08:07:38Z</time>
      </trkpt>
      <trkpt lat="48.67403" lon="2.51096">
        <ele>140.057</ele>
        <time>2018-11-01T08:07:42Z</time>
      </trkpt>
      <trkpt lat="48.674" lon="2.51101">
        <ele>140.051</ele>
        <time>2018-11-01T08:07:45Z</time>
      </trkpt>
      <trkpt lat="48.67396" lon="2.51105">
        <ele>140.048</ele>
        <time>2018-11-01T08:07:48Z</time>
      </trkpt>
      <trkpt lat="48.67393" lon="2.51111">
        <ele>140.045</ele>
        <time>2018-11-01T08:07:51Z</time>
      </trkpt>
      <trkpt lat="48.67389" lon="2.51116">
        <ele>140.041</ele>
        <time>2018-11-01T08:07:54Z</time>
      </trkpt>
      <trkpt lat="48.67386" lon="2.51121">
        <ele>140.035</ele>
        <time>2018-11-01T08:07:57Z</time>
      </trkpt>
      <trkpt lat="48.67382" lon="2.51125">
        <ele>140.026</ele>
        <time>2018-11-01T08:08:00Z</time>
      </trkpt>
      <trkpt lat="48.67378" lon="2.51131">
        <ele>140.016</ele>
        <time>2018-11-01T08:08:03Z</time>
      </trkpt>
      <trkpt lat="48.67375" lon="2.51135">
        <ele>140.009</ele>
        <time>2018-11-01T08:08:05Z</time>
      </trkpt>
      <trkpt lat="48.67372" lon="2.51139">
        <ele>139.994</ele>
        <time>2018-11-01T08:08:08Z</time>
      </trkpt>
      <trkpt lat="48.67368" lon="2.51145">
        <ele>139.968</ele>
        <time>2018-11-01T08:08:12Z</time>
      </trkpt>
      <trkpt lat="48.67364" lon="2.5115">
        <ele>139.941</ele>
        <time>2018-11-01T08:08:15Z</time>
      </trkpt>
      <trkpt lat="48.67361" lon="2.51154">
        <ele>139.919</ele>
        <time>2018-11-01T08:08:17Z</time>
      </trkpt>
      <trkpt lat="48.67357" lon="2.51158">
        <ele>139.872</ele>
        <time>2018-11-01T08:08:21Z</time>
      </trkpt>
      <trkpt lat="48.67352" lon="2.51164">
        <ele>139.819</ele>
        <time>2018-11-01T08:08:25Z</time>
      </trkpt>
      <trkpt lat="48.67349" lon="2.51168">
        <ele>139.791</ele>
        <time>2018-11-01T08:08:27Z</time>
      </trkpt>
      <trkpt lat="48.67347" lon="2.51171">
        <ele>139.764</ele>
        <time>2018-11-01T08:08:29Z</time>
      </trkpt>
      <trkpt lat="48.67342" lon="2.51175">
        <ele>139.721</ele>
        <time>2018-11-01T08:08:32Z</time>
      </trkpt>
      <trkpt lat="48.67337" lon="2.51181">
        <ele>139.676</ele>
        <time>2018-11-01T08:08:35Z</time>
      </trkpt>
      <trkpt lat="48.67335" lon="2.51183">
        <ele>139.645</ele>
        <time>2018-11-01T08:08:37Z</time>
      </trkpt>
      <trkpt lat="48.67331" lon="2.51189">
        <ele>139.602</ele>
        <time>2018-11-01T08:08:40Z</time>
      </trkpt>
      <trkpt lat="48.6733" lon="2.51192">
        <ele>139.574</ele>
        <time>2018-11-01T08:08:42Z</time>
      </trkpt>
      <trkpt lat="48.67327" lon="2.51199">
        <ele>139.52</ele>
        <time>2018-11-01T08:08:46Z</time>
      </trkpt>
      <trkpt lat="48.67323" lon="2.51204">
        <ele>139.481</ele>
        <time>2018-11-01T08:08:49Z</time>
      </trkpt>
      <trkpt lat="48.67321" lon="2.51208">
        <ele>139.455</ele>
        <time>2018-11-01T08:08:51Z</time>
      </trkpt>
      <trkpt lat="48.67318" lon="2.51212">
        <ele>139.415</ele>
        <time>2018-11-01T08:08:54Z</time>
      </trkpt>
      <trkpt lat="48.67316" lon="2.51215">
        <ele>139.387</ele>
        <time>2018-11-01T08:08:56Z</time>
      </trkpt>
      <trkpt lat="48.67314" lon="2.51218">
        <ele>139.361</ele>
        <time>2018-11-01T08:08:58Z</time>
      </trkpt>
      <trkpt lat="48.67312" lon="2.51222">
        <ele>139.322</ele>
        <time>2018-11-01T08:09:01Z</time>
      </trkpt>
      <trkpt lat="48.67308" lon="2.51227">
        <ele>139.284</ele>
        <time>2018-11-01T08:09:04Z</time>
      </trkpt>
      <trkpt lat="48.67306" lon="2.5123">
        <ele>139.259</ele>
        <time>2018-11-01T08:09:06Z</time>
      </trkpt>
      <trkpt lat="48.67302" lon="2.51234">
        <ele>139.221</ele>
        <time>2018-11-01T08:09:09Z</time>
      </trkpt>
      <trkpt lat="48.673" lon="2.51237">
        <ele>139.195</ele>
        <time>2018-11-01T08:09:11Z</time>
      </trkpt>
      <trkpt lat="48.67297" lon="2.51242">
        <ele>139.155</ele>
        <time>2018-11-01T08:09:14Z</time>
      </trkpt>
      <trkpt lat="48.67292" lon="2.51248">
        <ele>139.115</ele>
        <time>2018-11-01T08:09:17Z</time>
      </trkpt>
      <trkpt lat="48.6729" lon="2.51251">
        <ele>139.088</ele>
        <time>2018-11-01T08:09:19Z</time>
      </trkpt>
      <trkpt lat="48.67286" lon="2.51257">
        <ele>139.036</ele>
        <time>2018-11-01T08:09:23Z</time>
      </trkpt>
      <trkpt lat="48.67283" lon="2.5126">
        <ele>139.01</ele>
        <time>2018-11-01T08:09:25Z</time>
      </trkpt>
      <trkpt lat="48.67279" lon="2.51264">
        <ele>138.971</ele>
        <time>2018-11-01T08:09:28Z</time>
      </trkpt>
      <trkpt lat="48.67276" lon="2.51268">
        <ele>138.944</ele>
        <time>2018-11-01T08:09:30Z</time>
      </trkpt>
      <trkpt lat="48.67274" lon="2.51271">
        <ele>138.918</ele>
        <time>2018-11-01T08:09:32Z</time>
      </trkpt>
      <trkpt lat="48.6727" lon="2.51276">
        <ele>138.865</ele>
        <time>2018-11-01T08:09:36Z</time>
      </trkpt>
      <trkpt lat="48.67268" lon="2.51279">
        <ele>138.839</ele>
        <time>2018-11-01T08:09:38Z</time>
      </trkpt>
      <trkpt lat="48.67265" lon="2.51284">
        <ele>138.803</ele>
        <time>2018-11-01T08:09:41Z</time>
      </trkpt>
      <trkpt lat="48.67263" lon="2.51287">
        <ele>138.782</ele>
        <time>2018-11-01T08:09:43Z</time>
      </trkpt>
      <trkpt lat="48.67261" lon="2.5129">
        <ele>138.761</ele>
        <time>2018-11-01T08:09:45Z</time>
      </trkpt>
      <trkpt lat="48.67256" lon="2.51294">
        <ele>138.722</ele>
        <time>2018-11-01T08:09:49Z</time>
      </trkpt>
      <trkpt lat="48.67253" lon="2.51296">
        <ele>138.703</ele>
        <time>2018-11-01T08:09:51Z</time>
      </trkpt>
      <trkpt lat="48.67248" lon="2.51301">
        <ele>138.676</ele>
        <time>2018-11-01T08:09:54Z</time>
      </trkpt>
      <trkpt lat="48.67245" lon="2.51306">
        <ele>138.651</ele>
        <time>2018-11-01T08:09:57Z</time>
      </trkpt>
      <trkpt lat="48.67242" lon="2.51309">
        <ele>138.634</ele>
        <time>2018-11-01T08:09:59Z</time>
      </trkpt>
      <trkpt lat="48.6724" lon="2.51312">
        <ele>138.615</ele>
        <time>2018-11-01T08:10:01Z</time>
      </trkpt>
      <trkpt lat="48.67238" lon="2.51315">
        <ele>138.597</ele>
        <time>2018-11-01T08:10:03Z</time>
      </trkpt>
      <trkpt lat="48.67235" lon="2.51319">
        <ele>138.577</ele>
        <time>2018-11-01T08:10:05Z</time>
      </trkpt>
      <trkpt lat="48.67233" lon="2.51323">
        <ele>138.557</ele>
        <time>2018-11-01T08:10:07Z</time>
      </trkpt>
      <trkpt lat="48.67233" lon="2.51323">
        <ele>84</ele>
        <time>2018-11-01T08:10:15Z</time>
      </trkpt>
      <trkpt lat="48.67233" lon="2.51323">
        <ele>84</ele>
        <time>2018-11-01T08:10:19Z</time>
      </trkpt>
      <trkpt lat="48.67227" lon="2.51333">
        <ele>138.478</ele>
        <time>2018-11-01T08:10:19Z</time>
      </trkpt>
      <trkpt lat="48.67223" lon="2.5134">
        <ele>138.452</ele>
        <time>2018-11-01T08:10:22Z</time>
      </trkpt>
      <trkpt lat="48.67219" lon="2.51346">
        <ele>138.416</ele>
        <time>2018-11-01T08:10:26Z</time>
      </trkpt>
      <trkpt lat="48.67215" lon="2.51351">
        <ele>138.385</ele>
        <time>2018-11-01T08:10:29Z</time>
      </trkpt>
      <trkpt lat="48.67212" lon="2.51355">
        <ele>138.362</ele>
        <time>2018-11-01T08:10:31Z</time>
      </trkpt>
      <trkpt lat="48.67208" lon="2.51361">
        <ele>138.325</ele>
        <time>2018-11-01T08:10:34Z</time>
      </trkpt>
      <trkpt lat="48.67204" lon="2.51368">
        <ele>138.286</ele>
        <time>2018-11-01T08:10:37Z</time>
      </trkpt>
      <trkpt lat="48.67201" lon="2.51373">
        <ele>138.247</ele>
        <time>2018-11-01T08:10:40Z</time>
      </trkpt>
      <trkpt lat="48.67199" lon="2.51377">
        <ele>138.22</ele>
        <time>2018-11-01T08:10:42Z</time>
      </trkpt>
      <trkpt lat="48.67196" lon="2.5138">
        <ele>138.194</ele>
        <time>2018-11-01T08:10:44Z</time>
      </trkpt>
      <trkpt lat="48.67193" lon="2.51384">
        <ele>138.156</ele>
        <time>2018-11-01T08:10:47Z</time>
      </trkpt>
      <trkpt lat="48.67189" lon="2.51388">
        <ele>138.12</ele>
        <time>2018-11-01T08:10:50Z</time>
      </trkpt>
      <trkpt lat="48.67185" lon="2.51394">
        <ele>138.084</ele>
        <time>2018-11-01T08:10:53Z</time>
      </trkpt>
      <trkpt lat="48.67183" lon="2.51397">
        <ele>138.061</ele>
        <time>2018-11-01T08:10:55Z</time>
      </trkpt>
      <trkpt lat="48.67178" lon="2.51401">
        <ele>138.015</ele>
        <time>2018-11-01T08:10:59Z</time>
      </trkpt>
      <trkpt lat="48.67175" lon="2.51404">
        <ele>137.992</ele>
        <time>2018-11-01T08:11:01Z</time>
      </trkpt>
      <trkpt lat="48.6717" lon="2.51409">
        <ele>137.959</ele>
        <time>2018-11-01T08:11:04Z</time>
      </trkpt>
      <trkpt lat="48.67167" lon="2.51412">
        <ele>137.94</ele>
        <time>2018-11-01T08:11:06Z</time>
      </trkpt>
      <trkpt lat="48.67163" lon="2.51416">
        <ele>137.915</ele>
        <time>2018-11-01T08:11:09Z</time>
      </trkpt>
      <trkpt lat="48.67161" lon="2.51419">
        <ele>137.899</ele>
        <time>2018-11-01T08:11:11Z</time>
      </trkpt>
      <trkpt lat="48.67158" lon="2.51422">
        <ele>137.884</ele>
        <time>2018-11-01T08:11:13Z</time>
      </trkpt>
      <trkpt lat="48.67154" lon="2.51427">
        <ele>137.866</ele>
        <time>2018-11-01T08:11:16Z</time>
      </trkpt>
      <trkpt lat="48.67151" lon="2.5143">
        <ele>137.856</ele>
        <time>2018-11-01T08:11:18Z</time>
      </trkpt>
      <trkpt lat="48.67149" lon="2.51434">
        <ele>137.846</ele>
        <time>2018-11-01T08:11:20Z</time>
      </trkpt>
      <trkpt lat="48.67145" lon="2.51438">
        <ele>137.832</ele>
        <time>2018-11-01T08:11:23Z</time>
      </trkpt>
      <trkpt lat="48.67143" lon="2.51441">
        <ele>137.824</ele>
        <time>2018-11-01T08:11:25Z</time>
      </trkpt>
      <trkpt lat="48.67141" lon="2.51443">
        <ele>137.817</ele>
        <time>2018-11-01T08:11:27Z</time>
      </trkpt>
      <trkpt lat="48.67139" lon="2.51447">
        <ele>137.813</ele>
        <time>2018-11-01T08:11:29Z</time>
      </trkpt>
      <trkpt lat="48.67135" lon="2.51452">
        <ele>137.811</ele>
        <time>2018-11-01T08:11:31Z</time>
      </trkpt>
      <trkpt lat="48.67131" lon="2.51459">
        <ele>137.808</ele>
        <time>2018-11-01T08:11:35Z</time>
      </trkpt>
      <trkpt lat="48.67128" lon="2.51465">
        <ele>137.807</ele>
        <time>2018-11-01T08:11:39Z</time>
      </trkpt>
      <trkpt lat="48.67124" lon="2.51471">
        <ele>137.808</ele>
        <time>2018-11-01T08:11:43Z</time>
      </trkpt>
      <trkpt lat="48.67121" lon="2.51476">
        <ele>137.809</ele>
        <time>2018-11-01T08:11:46Z</time>
      </trkpt>
      <trkpt lat="48.67119" lon="2.51479">
        <ele>137.81</ele>
        <time>2018-11-01T08:11:48Z</time>
      </trkpt>
      <trkpt lat="48.67116" lon="2.51483">
        <ele>137.812</ele>
        <time>2018-11-01T08:11:50Z</time>
      </trkpt>
      <trkpt lat="48.67113" lon="2.51487">
        <ele>137.813</ele>
        <time>2018-11-01T08:11:52Z</time>
      </trkpt>
      <trkpt lat="48.6711" lon="2.51491">
        <ele>137.814</ele>
        <time>2018-11-01T08:11:54Z</time>
      </trkpt>
      <trkpt lat="48.67108" lon="2.51494">
        <ele>137.814</ele>
        <time>2018-11-01T08:11:56Z</time>
      </trkpt>
      <trkpt lat="48.67105" lon="2.51496">
        <ele>137.812</ele>
        <time>2018-11-01T08:11:58Z</time>
      </trkpt>
      <trkpt lat="48.67103" lon="2.51499">
        <ele>137.81</ele>
        <time>2018-11-01T08:12:00Z</time>
      </trkpt>
      <trkpt lat="48.67101" lon="2.51501">
        <ele>137.806</ele>
        <time>2018-11-01T08:12:02Z</time>
      </trkpt>
      <trkpt lat="48.67097" lon="2.51507">
        <ele>137.796</ele>
        <time>2018-11-01T08:12:05Z</time>
      </trkpt>
      <trkpt lat="48.67095" lon="2.51512">
        <ele>137.789</ele>
        <time>2018-11-01T08:12:07Z</time>
      </trkpt>
      <trkpt lat="48.6709" lon="2.51519">
        <ele>137.775</ele>
        <time>2018-11-01T08:12:10Z</time>
      </trkpt>
      <trkpt lat="48.67088" lon="2.51523">
        <ele>137.764</ele>
        <time>2018-11-01T08:12:12Z</time>
      </trkpt>
      <trkpt lat="48.67085" lon="2.51529">
        <ele>137.746</ele>
        <time>2018-11-01T08:12:15Z</time>
      </trkpt>
      <trkpt lat="48.67082" lon="2.51535">
        <ele>137.718</ele>
        <time>2018-11-01T08:12:19Z</time>
      </trkpt>
      <trkpt lat="48.67078" lon="2.51539">
        <ele>137.688</ele>
        <time>2018-11-01T08:12:23Z</time>
      </trkpt>
      <trkpt lat="48.67075" lon="2.51545">
        <ele>137.667</ele>
        <time>2018-11-01T08:12:26Z</time>
      </trkpt>
      <trkpt lat="48.67072" lon="2.51549">
        <ele>137.652</ele>
        <time>2018-11-01T08:12:28Z</time>
      </trkpt>
      <trkpt lat="48.67067" lon="2.51555">
        <ele>137.631</ele>
        <time>2018-11-01T08:12:31Z</time>
      </trkpt>
      <trkpt lat="48.67063" lon="2.51559">
        <ele>137.608</ele>
        <time>2018-11-01T08:12:34Z</time>
      </trkpt>
      <trkpt lat="48.67059" lon="2.51564">
        <ele>137.585</ele>
        <time>2018-11-01T08:12:37Z</time>
      </trkpt>
      <trkpt lat="48.67056" lon="2.51568">
        <ele>137.561</ele>
        <time>2018-11-01T08:12:40Z</time>
      </trkpt>
      <trkpt lat="48.67052" lon="2.51574">
        <ele>137.538</ele>
        <time>2018-11-01T08:12:43Z</time>
      </trkpt>
      <trkpt lat="48.67048" lon="2.51579">
        <ele>137.507</ele>
        <time>2018-11-01T08:12:47Z</time>
      </trkpt>
      <trkpt lat="48.67044" lon="2.51584">
        <ele>137.484</ele>
        <time>2018-11-01T08:12:50Z</time>
      </trkpt>
      <trkpt lat="48.67042" lon="2.51587">
        <ele>137.469</ele>
        <time>2018-11-01T08:12:52Z</time>
      </trkpt>
      <trkpt lat="48.67038" lon="2.51593">
        <ele>137.449</ele>
        <time>2018-11-01T08:12:55Z</time>
      </trkpt>
      <trkpt lat="48.67036" lon="2.51596">
        <ele>137.437</ele>
        <time>2018-11-01T08:12:57Z</time>
      </trkpt>
      <trkpt lat="48.67032" lon="2.516">
        <ele>137.414</ele>
        <time>2018-11-01T08:13:01Z</time>
      </trkpt>
      <trkpt lat="48.67027" lon="2.51606">
        <ele>137.393</ele>
        <time>2018-11-01T08:13:05Z</time>
      </trkpt>
      <trkpt lat="48.67023" lon="2.51611">
        <ele>137.372</ele>
        <time>2018-11-01T08:13:09Z</time>
      </trkpt>
      <trkpt lat="48.67019" lon="2.51616">
        <ele>137.362</ele>
        <time>2018-11-01T08:13:11Z</time>
      </trkpt>
      <trkpt lat="48.67016" lon="2.5162">
        <ele>137.348</ele>
        <time>2018-11-01T08:13:14Z</time>
      </trkpt>
      <trkpt lat="48.67013" lon="2.51623">
        <ele>137.339</ele>
        <time>2018-11-01T08:13:16Z</time>
      </trkpt>
      <trkpt lat="48.6701" lon="2.51628">
        <ele>137.327</ele>
        <time>2018-11-01T08:13:19Z</time>
      </trkpt>
      <trkpt lat="48.67007" lon="2.51631">
        <ele>137.32</ele>
        <time>2018-11-01T08:13:21Z</time>
      </trkpt>
      <trkpt lat="48.67005" lon="2.51635">
        <ele>137.312</ele>
        <time>2018-11-01T08:13:23Z</time>
      </trkpt>
      <trkpt lat="48.67001" lon="2.51639">
        <ele>137.3</ele>
        <time>2018-11-01T08:13:26Z</time>
      </trkpt>
      <trkpt lat="48.66996" lon="2.51644">
        <ele>137.287</ele>
        <time>2018-11-01T08:13:29Z</time>
      </trkpt>
      <trkpt lat="48.66994" lon="2.51647">
        <ele>137.277</ele>
        <time>2018-11-01T08:13:31Z</time>
      </trkpt>
      <trkpt lat="48.66992" lon="2.51649">
        <ele>137.268</ele>
        <time>2018-11-01T08:13:33Z</time>
      </trkpt>
      <trkpt lat="48.66989" lon="2.51651">
        <ele>137.259</ele>
        <time>2018-11-01T08:13:35Z</time>
      </trkpt>
      <trkpt lat="48.66986" lon="2.51654">
        <ele>137.251</ele>
        <time>2018-11-01T08:13:37Z</time>
      </trkpt>
      <trkpt lat="48.66984" lon="2.51658">
        <ele>137.244</ele>
        <time>2018-11-01T08:13:39Z</time>
      </trkpt>
      <trkpt lat="48.6698" lon="2.51665">
        <ele>137.233</ele>
        <time>2018-11-01T08:13:43Z</time>
      </trkpt>
      <trkpt lat="48.66978" lon="2.51669">
        <ele>137.228</ele>
        <time>2018-11-01T08:13:45Z</time>
      </trkpt>
      <trkpt lat="48.66974" lon="2.51674">
        <ele>137.223</ele>
        <time>2018-11-01T08:13:48Z</time>
      </trkpt>
      <trkpt lat="48.66972" lon="2.51677">
        <ele>137.219</ele>
        <time>2018-11-01T08:13:50Z</time>
      </trkpt>
      <trkpt lat="48.66969" lon="2.51681">
        <ele>137.214</ele>
        <time>2018-11-01T08:13:53Z</time>
      </trkpt>
      <trkpt lat="48.66967" lon="2.51685">
        <ele>137.211</ele>
        <time>2018-11-01T08:13:55Z</time>
      </trkpt>
      <trkpt lat="48.66963" lon="2.51689">
        <ele>137.206</ele>
        <time>2018-11-01T08:13:58Z</time>
      </trkpt>
      <trkpt lat="48.6696" lon="2.51691">
        <ele>137.204</ele>
        <time>2018-11-01T08:14:00Z</time>
      </trkpt>
      <trkpt lat="48.66957" lon="2.51697">
        <ele>137.202</ele>
        <time>2018-11-01T08:14:03Z</time>
      </trkpt>
      <trkpt lat="48.66953" lon="2.51704">
        <ele>137.2</ele>
        <time>2018-11-01T08:14:06Z</time>
      </trkpt>
      <trkpt lat="48.66952" lon="2.51709">
        <ele>137.2</ele>
        <time>2018-11-01T08:14:08Z</time>
      </trkpt>
      <trkpt lat="48.66947" lon="2.51715">
        <ele>137.2</ele>
        <time>2018-11-01T08:14:11Z</time>
      </trkpt>
      <trkpt lat="48.66945" lon="2.51718">
        <ele>137.2</ele>
        <time>2018-11-01T08:14:13Z</time>
      </trkpt>
      <trkpt lat="48.66941" lon="2.51722">
        <ele>137.201</ele>
        <time>2018-11-01T08:14:16Z</time>
      </trkpt>
      <trkpt lat="48.66939" lon="2.51724">
        <ele>137.202</ele>
        <time>2018-11-01T08:14:18Z</time>
      </trkpt>
      <trkpt lat="48.66935" lon="2.51728">
        <ele>137.203</ele>
        <time>2018-11-01T08:14:21Z</time>
      </trkpt>
      <trkpt lat="48.66931" lon="2.51731">
        <ele>137.203</ele>
        <time>2018-11-01T08:14:24Z</time>
      </trkpt>
      <trkpt lat="48.66928" lon="2.51734">
        <ele>137.202</ele>
        <time>2018-11-01T08:14:26Z</time>
      </trkpt>
      <trkpt lat="48.66925" lon="2.51738">
        <ele>137.2</ele>
        <time>2018-11-01T08:14:29Z</time>
      </trkpt>
      <trkpt lat="48.66922" lon="2.51742">
        <ele>137.197</ele>
        <time>2018-11-01T08:14:31Z</time>
      </trkpt>
      <trkpt lat="48.66918" lon="2.51747">
        <ele>137.194</ele>
        <time>2018-11-01T08:14:34Z</time>
      </trkpt>
      <trkpt lat="48.66913" lon="2.51754">
        <ele>137.192</ele>
        <time>2018-11-01T08:14:37Z</time>
      </trkpt>
      <trkpt lat="48.66909" lon="2.51759">
        <ele>137.191</ele>
        <time>2018-11-01T08:14:40Z</time>
      </trkpt>
      <trkpt lat="48.66906" lon="2.51763">
        <ele>137.191</ele>
        <time>2018-11-01T08:14:42Z</time>
      </trkpt>
      <trkpt lat="48.66903" lon="2.51765">
        <ele>137.191</ele>
        <time>2018-11-01T08:14:44Z</time>
      </trkpt>
      <trkpt lat="48.66899" lon="2.51769">
        <ele>137.191</ele>
        <time>2018-11-01T08:14:47Z</time>
      </trkpt>
      <trkpt lat="48.66895" lon="2.51774">
        <ele>137.189</ele>
        <time>2018-11-01T08:14:50Z</time>
      </trkpt>
      <trkpt lat="48.66892" lon="2.51781">
        <ele>137.184</ele>
        <time>2018-11-01T08:14:53Z</time>
      </trkpt>
      <trkpt lat="48.6689" lon="2.51785">
        <ele>137.179</ele>
        <time>2018-11-01T08:14:55Z</time>
      </trkpt>
      <trkpt lat="48.66888" lon="2.51789">
        <ele>137.175</ele>
        <time>2018-11-01T08:14:57Z</time>
      </trkpt>
      <trkpt lat="48.66885" lon="2.51795">
        <ele>137.167</ele>
        <time>2018-11-01T08:15:00Z</time>
      </trkpt>
      <trkpt lat="48.66884" lon="2.51799">
        <ele>137.16</ele>
        <time>2018-11-01T08:15:02Z</time>
      </trkpt>
      <trkpt lat="48.66879" lon="2.51805">
        <ele>137.146</ele>
        <time>2018-11-01T08:15:06Z</time>
      </trkpt>
      <trkpt lat="48.66876" lon="2.5181">
        <ele>137.13</ele>
        <time>2018-11-01T08:15:10Z</time>
      </trkpt>
      <trkpt lat="48.66874" lon="2.51814">
        <ele>137.119</ele>
        <time>2018-11-01T08:15:13Z</time>
      </trkpt>
      <trkpt lat="48.6687" lon="2.51819">
        <ele>137.104</ele>
        <time>2018-11-01T08:15:17Z</time>
      </trkpt>
      <trkpt lat="48.66868" lon="2.51823">
        <ele>137.096</ele>
        <time>2018-11-01T08:15:19Z</time>
      </trkpt>
      <trkpt lat="48.66865" lon="2.51826">
        <ele>137.088</ele>
        <time>2018-11-01T08:15:21Z</time>
      </trkpt>
      <trkpt lat="48.66862" lon="2.51829">
        <ele>137.079</ele>
        <time>2018-11-01T08:15:23Z</time>
      </trkpt>
      <trkpt lat="48.66857" lon="2.51834">
        <ele>137.061</ele>
        <time>2018-11-01T08:15:27Z</time>
      </trkpt>
      <trkpt lat="48.66854" lon="2.51837">
        <ele>137.051</ele>
        <time>2018-11-01T08:15:29Z</time>
      </trkpt>
      <trkpt lat="48.6685" lon="2.51844">
        <ele>137.036</ele>
        <time>2018-11-01T08:15:32Z</time>
      </trkpt>
      <trkpt lat="48.66847" lon="2.51848">
        <ele>137.028</ele>
        <time>2018-11-01T08:15:34Z</time>
      </trkpt>
      <trkpt lat="48.66845" lon="2.51851">
        <ele>137.019</ele>
        <time>2018-11-01T08:15:36Z</time>
      </trkpt>
      <trkpt lat="48.6684" lon="2.51856">
        <ele>137.006</ele>
        <time>2018-11-01T08:15:40Z</time>
      </trkpt>
      <trkpt lat="48.66837" lon="2.51858">
        <ele>137.001</ele>
        <time>2018-11-01T08:15:42Z</time>
      </trkpt>
      <trkpt lat="48.66833" lon="2.51864">
        <ele>136.995</ele>
        <time>2018-11-01T08:15:46Z</time>
      </trkpt>
      <trkpt lat="48.66831" lon="2.51868">
        <ele>136.994</ele>
        <time>2018-11-01T08:15:48Z</time>
      </trkpt>
      <trkpt lat="48.66828" lon="2.51872">
        <ele>136.994</ele>
        <time>2018-11-01T08:15:50Z</time>
      </trkpt>
      <trkpt lat="48.66826" lon="2.51876">
        <ele>136.996</ele>
        <time>2018-11-01T08:15:52Z</time>
      </trkpt>
      <trkpt lat="48.66824" lon="2.51879">
        <ele>137</ele>
        <time>2018-11-01T08:15:54Z</time>
      </trkpt>
      <trkpt lat="48.66822" lon="2.51882">
        <ele>137.005</ele>
        <time>2018-11-01T08:15:56Z</time>
      </trkpt>
      <trkpt lat="48.66817" lon="2.51886">
        <ele>137.008</ele>
        <time>2018-11-01T08:15:59Z</time>
      </trkpt>
      <trkpt lat="48.66813" lon="2.51891">
        <ele>137.01</ele>
        <time>2018-11-01T08:16:02Z</time>
      </trkpt>
      <trkpt lat="48.66811" lon="2.51894">
        <ele>137.011</ele>
        <time>2018-11-01T08:16:04Z</time>
      </trkpt>
      <trkpt lat="48.66808" lon="2.51898">
        <ele>137.012</ele>
        <time>2018-11-01T08:16:07Z</time>
      </trkpt>
      <trkpt lat="48.66806" lon="2.51902">
        <ele>137.014</ele>
        <time>2018-11-01T08:16:09Z</time>
      </trkpt>
      <trkpt lat="48.66803" lon="2.51905">
        <ele>137.016</ele>
        <time>2018-11-01T08:16:11Z</time>
      </trkpt>
      <trkpt lat="48.66799" lon="2.51912">
        <ele>137.018</ele>
        <time>2018-11-01T08:16:13Z</time>
      </trkpt>
      <trkpt lat="48.66797" lon="2.51916">
        <ele>137.022</ele>
        <time>2018-11-01T08:16:15Z</time>
      </trkpt>
      <trkpt lat="48.66792" lon="2.51921">
        <ele>137.03</ele>
        <time>2018-11-01T08:16:19Z</time>
      </trkpt>
      <trkpt lat="48.6679" lon="2.51924">
        <ele>137.039</ele>
        <time>2018-11-01T08:16:22Z</time>
      </trkpt>
      <trkpt lat="48.66786" lon="2.51927">
        <ele>137.049</ele>
        <time>2018-11-01T08:16:25Z</time>
      </trkpt>
      <trkpt lat="48.66781" lon="2.51932">
        <ele>137.06</ele>
        <time>2018-11-01T08:16:28Z</time>
      </trkpt>
      <trkpt lat="48.66777" lon="2.51935">
        <ele>137.07</ele>
        <time>2018-11-01T08:16:31Z</time>
      </trkpt>
      <trkpt lat="48.66772" lon="2.51941">
        <ele>137.081</ele>
        <time>2018-11-01T08:16:34Z</time>
      </trkpt>
      <trkpt lat="48.66769" lon="2.51944">
        <ele>137.088</ele>
        <time>2018-11-01T08:16:36Z</time>
      </trkpt>
      <trkpt lat="48.66765" lon="2.51949">
        <ele>137.102</ele>
        <time>2018-11-01T08:16:40Z</time>
      </trkpt>
      <trkpt lat="48.66762" lon="2.51956">
        <ele>137.117</ele>
        <time>2018-11-01T08:16:44Z</time>
      </trkpt>
      <trkpt lat="48.6676" lon="2.51962">
        <ele>137.132</ele>
        <time>2018-11-01T08:16:47Z</time>
      </trkpt>
      <trkpt lat="48.66755" lon="2.51967">
        <ele>137.155</ele>
        <time>2018-11-01T08:16:51Z</time>
      </trkpt>
      <trkpt lat="48.66753" lon="2.5197">
        <ele>137.167</ele>
        <time>2018-11-01T08:16:53Z</time>
      </trkpt>
      <trkpt lat="48.66749" lon="2.51975">
        <ele>137.19</ele>
        <time>2018-11-01T08:16:57Z</time>
      </trkpt>
      <trkpt lat="48.66745" lon="2.51981">
        <ele>137.206</ele>
        <time>2018-11-01T08:17:00Z</time>
      </trkpt>
      <trkpt lat="48.66741" lon="2.51985">
        <ele>137.222</ele>
        <time>2018-11-01T08:17:03Z</time>
      </trkpt>
      <trkpt lat="48.66738" lon="2.51988">
        <ele>137.231</ele>
        <time>2018-11-01T08:17:05Z</time>
      </trkpt>
      <trkpt lat="48.66734" lon="2.51994">
        <ele>137.244</ele>
        <time>2018-11-01T08:17:08Z</time>
      </trkpt>
      <trkpt lat="48.6673" lon="2.51998">
        <ele>137.258</ele>
        <time>2018-11-01T08:17:11Z</time>
      </trkpt>
      <trkpt lat="48.66728" lon="2.52001">
        <ele>137.263</ele>
        <time>2018-11-01T08:17:12Z</time>
      </trkpt>
      <trkpt lat="48.66725" lon="2.52004">
        <ele>137.272</ele>
        <time>2018-11-01T08:17:14Z</time>
      </trkpt>
      <trkpt lat="48.66722" lon="2.52008">
        <ele>137.28</ele>
        <time>2018-11-01T08:17:16Z</time>
      </trkpt>
      <trkpt lat="48.66719" lon="2.52011">
        <ele>137.287</ele>
        <time>2018-11-01T08:17:18Z</time>
      </trkpt>
      <trkpt lat="48.66717" lon="2.52014">
        <ele>137.293</ele>
        <time>2018-11-01T08:17:20Z</time>
      </trkpt>
      <trkpt lat="48.66714" lon="2.52016">
        <ele>137.298</ele>
        <time>2018-11-01T08:17:22Z</time>
      </trkpt>
      <trkpt lat="48.66712" lon="2.52018">
        <ele>137.302</ele>
        <time>2018-11-01T08:17:24Z</time>
      </trkpt>
      <trkpt lat="48.66707" lon="2.52022">
        <ele>137.305</ele>
        <time>2018-11-01T08:17:28Z</time>
      </trkpt>
      <trkpt lat="48.66704" lon="2.52028">
        <ele>137.305</ele>
        <time>2018-11-01T08:17:31Z</time>
      </trkpt>
      <trkpt lat="48.66702" lon="2.52031">
        <ele>137.305</ele>
        <time>2018-11-01T08:17:32Z</time>
      </trkpt>
      <trkpt lat="48.667" lon="2.52035">
        <ele>137.305</ele>
        <time>2018-11-01T08:17:34Z</time>
      </trkpt>
      <trkpt lat="48.66697" lon="2.52038">
        <ele>137.304</ele>
        <time>2018-11-01T08:17:36Z</time>
      </trkpt>
      <trkpt lat="48.66695" lon="2.52041">
        <ele>137.304</ele>
        <time>2018-11-01T08:17:38Z</time>
      </trkpt>
      <trkpt lat="48.66692" lon="2.52045">
        <ele>137.302</ele>
        <time>2018-11-01T08:17:40Z</time>
      </trkpt>
      <trkpt lat="48.66689" lon="2.52051">
        <ele>137.3</ele>
        <time>2018-11-01T08:17:42Z</time>
      </trkpt>
      <trkpt lat="48.66685" lon="2.52056">
        <ele>137.295</ele>
        <time>2018-11-01T08:17:45Z</time>
      </trkpt>
      <trkpt lat="48.66681" lon="2.52061">
        <ele>137.29</ele>
        <time>2018-11-01T08:17:48Z</time>
      </trkpt>
      <trkpt lat="48.66678" lon="2.52067">
        <ele>137.286</ele>
        <time>2018-11-01T08:17:51Z</time>
      </trkpt>
      <trkpt lat="48.66675" lon="2.52071">
        <ele>137.282</ele>
        <time>2018-11-01T08:17:54Z</time>
      </trkpt>
      <trkpt lat="48.66672" lon="2.52077">
        <ele>137.277</ele>
        <time>2018-11-01T08:17:57Z</time>
      </trkpt>
      <trkpt lat="48.66667" lon="2.52081">
        <ele>137.265</ele>
        <time>2018-11-01T08:18:02Z</time>
      </trkpt>
      <trkpt lat="48.66663" lon="2.52087">
        <ele>137.255</ele>
        <time>2018-11-01T08:18:05Z</time>
      </trkpt>
      <trkpt lat="48.6666" lon="2.52091">
        <ele>137.246</ele>
        <time>2018-11-01T08:18:08Z</time>
      </trkpt>
      <trkpt lat="48.66658" lon="2.52093">
        <ele>137.24</ele>
        <time>2018-11-01T08:18:10Z</time>
      </trkpt>
      <trkpt lat="48.66655" lon="2.52097">
        <ele>137.234</ele>
        <time>2018-11-01T08:18:12Z</time>
      </trkpt>
      <trkpt lat="48.66652" lon="2.52101">
        <ele>137.227</ele>
        <time>2018-11-01T08:18:14Z</time>
      </trkpt>
      <trkpt lat="48.66649" lon="2.52105">
        <ele>137.221</ele>
        <time>2018-11-01T08:18:16Z</time>
      </trkpt>
      <trkpt lat="48.66646" lon="2.52108">
        <ele>137.213</ele>
        <time>2018-11-01T08:18:18Z</time>
      </trkpt>
      <trkpt lat="48.66643" lon="2.52111">
        <ele>137.204</ele>
        <time>2018-11-01T08:18:20Z</time>
      </trkpt>
      <trkpt lat="48.6664" lon="2.52114">
        <ele>137.195</ele>
        <time>2018-11-01T08:18:22Z</time>
      </trkpt>
      <trkpt lat="48.66637" lon="2.52117">
        <ele>137.184</ele>
        <time>2018-11-01T08:18:24Z</time>
      </trkpt>
      <trkpt lat="48.66633" lon="2.52123">
        <ele>137.165</ele>
        <time>2018-11-01T08:18:27Z</time>
      </trkpt>
      <trkpt lat="48.66631" lon="2.52125">
        <ele>137.158</ele>
        <time>2018-11-01T08:18:28Z</time>
      </trkpt>
      <trkpt lat="48.6663" lon="2.52128">
        <ele>137.15</ele>
        <time>2018-11-01T08:18:29Z</time>
      </trkpt>
      <trkpt lat="48.66627" lon="2.52131">
        <ele>137.133</ele>
        <time>2018-11-01T08:18:31Z</time>
      </trkpt>
      <trkpt lat="48.66625" lon="2.52134">
        <ele>137.113</ele>
        <time>2018-11-01T08:18:33Z</time>
      </trkpt>
      <trkpt lat="48.66622" lon="2.5214">
        <ele>137.081</ele>
        <time>2018-11-01T08:18:36Z</time>
      </trkpt>
      <trkpt lat="48.66618" lon="2.52145">
        <ele>137.045</ele>
        <time>2018-11-01T08:18:39Z</time>
      </trkpt>
      <trkpt lat="48.66615" lon="2.52149">
        <ele>137.018</ele>
        <time>2018-11-01T08:18:41Z</time>
      </trkpt>
      <trkpt lat="48.66612" lon="2.52156">
        <ele>136.976</ele>
        <time>2018-11-01T08:18:44Z</time>
      </trkpt>
      <trkpt lat="48.66607" lon="2.5216">
        <ele>136.931</ele>
        <time>2018-11-01T08:18:47Z</time>
      </trkpt>
      <trkpt lat="48.66604" lon="2.52167">
        <ele>136.873</ele>
        <time>2018-11-01T08:18:51Z</time>
      </trkpt>
      <trkpt lat="48.66599" lon="2.52173">
        <ele>136.818</ele>
        <time>2018-11-01T08:18:55Z</time>
      </trkpt>
      <trkpt lat="48.66597" lon="2.52176">
        <ele>136.791</ele>
        <time>2018-11-01T08:18:57Z</time>
      </trkpt>
      <trkpt lat="48.66594" lon="2.5218">
        <ele>136.766</ele>
        <time>2018-11-01T08:18:59Z</time>
      </trkpt>
      <trkpt lat="48.66591" lon="2.52184">
        <ele>136.731</ele>
        <time>2018-11-01T08:19:02Z</time>
      </trkpt>
      <trkpt lat="48.66587" lon="2.52188">
        <ele>136.685</ele>
        <time>2018-11-01T08:19:06Z</time>
      </trkpt>
      <trkpt lat="48.66585" lon="2.5219">
        <ele>136.662</ele>
        <time>2018-11-01T08:19:08Z</time>
      </trkpt>
      <trkpt lat="48.66581" lon="2.52192">
        <ele>136.639</ele>
        <time>2018-11-01T08:19:10Z</time>
      </trkpt>
      <trkpt lat="48.66578" lon="2.52195">
        <ele>136.617</ele>
        <time>2018-11-01T08:19:12Z</time>
      </trkpt>
      <trkpt lat="48.66574" lon="2.52199">
        <ele>136.586</ele>
        <time>2018-11-01T08:19:15Z</time>
      </trkpt>
      <trkpt lat="48.6657" lon="2.52204">
        <ele>136.559</ele>
        <time>2018-11-01T08:19:18Z</time>
      </trkpt>
      <trkpt lat="48.66566" lon="2.52209">
        <ele>136.534</ele>
        <time>2018-11-01T08:19:21Z</time>
      </trkpt>
      <trkpt lat="48.66563" lon="2.52214">
        <ele>136.513</ele>
        <time>2018-11-01T08:19:24Z</time>
      </trkpt>
      <trkpt lat="48.6656" lon="2.52218">
        <ele>136.501</ele>
        <time>2018-11-01T08:19:26Z</time>
      </trkpt>
      <trkpt lat="48.66557" lon="2.52222">
        <ele>136.491</ele>
        <time>2018-11-01T08:19:28Z</time>
      </trkpt>
      <trkpt lat="48.66554" lon="2.52228">
        <ele>136.476</ele>
        <time>2018-11-01T08:19:32Z</time>
      </trkpt>
      <trkpt lat="48.66552" lon="2.52232">
        <ele>136.471</ele>
        <time>2018-11-01T08:19:34Z</time>
      </trkpt>
      <trkpt lat="48.66549" lon="2.52237">
        <ele>136.465</ele>
        <time>2018-11-01T08:19:37Z</time>
      </trkpt>
      <trkpt lat="48.66545" lon="2.52241">
        <ele>136.463</ele>
        <time>2018-11-01T08:19:39Z</time>
      </trkpt>
      <trkpt lat="48.66542" lon="2.52245">
        <ele>136.462</ele>
        <time>2018-11-01T08:19:41Z</time>
      </trkpt>
      <trkpt lat="48.66537" lon="2.5225">
        <ele>136.461</ele>
        <time>2018-11-01T08:19:44Z</time>
      </trkpt>
      <trkpt lat="48.66533" lon="2.52255">
        <ele>136.46</ele>
        <time>2018-11-01T08:19:47Z</time>
      </trkpt>
      <trkpt lat="48.66529" lon="2.5226">
        <ele>136.459</ele>
        <time>2018-11-01T08:19:50Z</time>
      </trkpt>
      <trkpt lat="48.66526" lon="2.52263">
        <ele>136.458</ele>
        <time>2018-11-01T08:19:52Z</time>
      </trkpt>
      <trkpt lat="48.66523" lon="2.52268">
        <ele>136.458</ele>
        <time>2018-11-01T08:19:55Z</time>
      </trkpt>
      <trkpt lat="48.6652" lon="2.52271">
        <ele>136.457</ele>
        <time>2018-11-01T08:19:57Z</time>
      </trkpt>
      <trkpt lat="48.66515" lon="2.52276">
        <ele>136.459</ele>
        <time>2018-11-01T08:20:01Z</time>
      </trkpt>
      <trkpt lat="48.66512" lon="2.52278">
        <ele>136.459</ele>
        <time>2018-11-01T08:20:03Z</time>
      </trkpt>
      <trkpt lat="48.66508" lon="2.52283">
        <ele>136.454</ele>
        <time>2018-11-01T08:20:07Z</time>
      </trkpt>
      <trkpt lat="48.66505" lon="2.52289">
        <ele>136.448</ele>
        <time>2018-11-01T08:20:10Z</time>
      </trkpt>
      <trkpt lat="48.66503" lon="2.52293">
        <ele>136.444</ele>
        <time>2018-11-01T08:20:12Z</time>
      </trkpt>
      <trkpt lat="48.66501" lon="2.52297">
        <ele>136.44</ele>
        <time>2018-11-01T08:20:14Z</time>
      </trkpt>
      <trkpt lat="48.665" lon="2.523">
        <ele>136.436</ele>
        <time>2018-11-01T08:20:16Z</time>
      </trkpt>
      <trkpt lat="48.66496" lon="2.52307">
        <ele>136.43</ele>
        <time>2018-11-01T08:20:19Z</time>
      </trkpt>
      <trkpt lat="48.66494" lon="2.52311">
        <ele>136.427</ele>
        <time>2018-11-01T08:20:21Z</time>
      </trkpt>
      <trkpt lat="48.66492" lon="2.52317">
        <ele>136.423</ele>
        <time>2018-11-01T08:20:24Z</time>
      </trkpt>
      <trkpt lat="48.66489" lon="2.52323">
        <ele>136.42</ele>
        <time>2018-11-01T08:20:27Z</time>
      </trkpt>
      <trkpt lat="48.66486" lon="2.52329">
        <ele>136.42</ele>
        <time>2018-11-01T08:20:30Z</time>
      </trkpt>
      <trkpt lat="48.66482" lon="2.52334">
        <ele>136.423</ele>
        <time>2018-11-01T08:20:33Z</time>
      </trkpt>
      <trkpt lat="48.66477" lon="2.52338">
        <ele>136.43</ele>
        <time>2018-11-01T08:20:36Z</time>
      </trkpt>
      <trkpt lat="48.66475" lon="2.5234">
        <ele>136.435</ele>
        <time>2018-11-01T08:20:38Z</time>
      </trkpt>
      <trkpt lat="48.66472" lon="2.52342">
        <ele>136.44</ele>
        <time>2018-11-01T08:20:40Z</time>
      </trkpt>
      <trkpt lat="48.66469" lon="2.52344">
        <ele>136.445</ele>
        <time>2018-11-01T08:20:42Z</time>
      </trkpt>
      <trkpt lat="48.66465" lon="2.52349">
        <ele>136.451</ele>
        <time>2018-11-01T08:20:45Z</time>
      </trkpt>
      <trkpt lat="48.66463" lon="2.52351">
        <ele>136.455</ele>
        <time>2018-11-01T08:20:47Z</time>
      </trkpt>
      <trkpt lat="48.66458" lon="2.52356">
        <ele>136.465</ele>
        <time>2018-11-01T08:20:51Z</time>
      </trkpt>
      <trkpt lat="48.66454" lon="2.5236">
        <ele>136.475</ele>
        <time>2018-11-01T08:20:54Z</time>
      </trkpt>
      <trkpt lat="48.66452" lon="2.52363">
        <ele>136.483</ele>
        <time>2018-11-01T08:20:56Z</time>
      </trkpt>
      <trkpt lat="48.66448" lon="2.52368">
        <ele>136.495</ele>
        <time>2018-11-01T08:20:59Z</time>
      </trkpt>
      <trkpt lat="48.66446" lon="2.52371">
        <ele>136.503</ele>
        <time>2018-11-01T08:21:01Z</time>
      </trkpt>
      <trkpt lat="48.66441" lon="2.52376">
        <ele>136.516</ele>
        <time>2018-11-01T08:21:04Z</time>
      </trkpt>
      <trkpt lat="48.66437" lon="2.52381">
        <ele>136.536</ele>
        <time>2018-11-01T08:21:09Z</time>
      </trkpt>
      <trkpt lat="48.66434" lon="2.52387">
        <ele>136.549</ele>
        <time>2018-11-01T08:21:12Z</time>
      </trkpt>
      <trkpt lat="48.6643" lon="2.52392">
        <ele>136.564</ele>
        <time>2018-11-01T08:21:15Z</time>
      </trkpt>
      <trkpt lat="48.66427" lon="2.52397">
        <ele>136.581</ele>
        <time>2018-11-01T08:21:18Z</time>
      </trkpt>
      <trkpt lat="48.66424" lon="2.52401">
        <ele>136.592</ele>
        <time>2018-11-01T08:21:20Z</time>
      </trkpt>
      <trkpt lat="48.66419" lon="2.52406">
        <ele>136.608</ele>
        <time>2018-11-01T08:21:23Z</time>
      </trkpt>
      <trkpt lat="48.66416" lon="2.52409">
        <ele>136.617</ele>
        <time>2018-11-01T08:21:25Z</time>
      </trkpt>
      <trkpt lat="48.66411" lon="2.52415">
        <ele>136.629</ele>
        <time>2018-11-01T08:21:28Z</time>
      </trkpt>
      <trkpt lat="48.66409" lon="2.52418">
        <ele>136.634</ele>
        <time>2018-11-01T08:21:30Z</time>
      </trkpt>
      <trkpt lat="48.66406" lon="2.52422">
        <ele>136.638</ele>
        <time>2018-11-01T08:21:32Z</time>
      </trkpt>
      <trkpt lat="48.66404" lon="2.52426">
        <ele>136.641</ele>
        <time>2018-11-01T08:21:34Z</time>
      </trkpt>
      <trkpt lat="48.66402" lon="2.52433">
        <ele>136.642</ele>
        <time>2018-11-01T08:21:39Z</time>
      </trkpt>
      <trkpt lat="48.66402" lon="2.52433">
        <ele>136.642</ele>
        <time>2018-11-01T08:21:46Z</time>
      </trkpt>
      <trkpt lat="48.66402" lon="2.52433">
        <ele>86</ele>
        <time>2018-11-01T08:21:46Z</time>
      </trkpt>
      <trkpt lat="48.66402" lon="2.52433">
        <ele>86</ele>
        <time>2018-11-01T08:21:54Z</time>
      </trkpt>
      <trkpt lat="48.66405" lon="2.52452">
        <ele>136.598</ele>
        <time>2018-11-01T08:21:54Z</time>
      </trkpt>
      <trkpt lat="48.66408" lon="2.52455">
        <ele>136.589</ele>
        <time>2018-11-01T08:21:56Z</time>
      </trkpt>
      <trkpt lat="48.66408" lon="2.52455">
        <ele>86</ele>
        <time>2018-11-01T08:22:03Z</time>
      </trkpt>
      <trkpt lat="48.66408" lon="2.52455">
        <ele>86</ele>
        <time>2018-11-01T08:22:14Z</time>
      </trkpt>
      <trkpt lat="48.66383" lon="2.5245">
        <ele>136.504</ele>
        <time>2018-11-01T08:22:14Z</time>
      </trkpt>
      <trkpt lat="48.66381" lon="2.52453">
        <ele>136.495</ele>
        <time>2018-11-01T08:22:16Z</time>
      </trkpt>
      <trkpt lat="48.66377" lon="2.52461">
        <ele>136.479</ele>
        <time>2018-11-01T08:22:19Z</time>
      </trkpt>
      <trkpt lat="48.66373" lon="2.52466">
        <ele>136.464</ele>
        <time>2018-11-01T08:22:22Z</time>
      </trkpt>
      <trkpt lat="48.6637" lon="2.52471">
        <ele>136.452</ele>
        <time>2018-11-01T08:22:25Z</time>
      </trkpt>
      <trkpt lat="48.66366" lon="2.52476">
        <ele>136.442</ele>
        <time>2018-11-01T08:22:28Z</time>
      </trkpt>
      <trkpt lat="48.66362" lon="2.52479">
        <ele>136.434</ele>
        <time>2018-11-01T08:22:31Z</time>
      </trkpt>
      <trkpt lat="48.66359" lon="2.52482">
        <ele>136.429</ele>
        <time>2018-11-01T08:22:34Z</time>
      </trkpt>
      <trkpt lat="48.66356" lon="2.52486">
        <ele>136.425</ele>
        <time>2018-11-01T08:22:37Z</time>
      </trkpt>
      <trkpt lat="48.66354" lon="2.52488">
        <ele>136.423</ele>
        <time>2018-11-01T08:22:39Z</time>
      </trkpt>
      <trkpt lat="48.66352" lon="2.52491">
        <ele>136.421</ele>
        <time>2018-11-01T08:22:41Z</time>
      </trkpt>
      <trkpt lat="48.66349" lon="2.52493">
        <ele>136.418</ele>
        <time>2018-11-01T08:22:43Z</time>
      </trkpt>
      <trkpt lat="48.66346" lon="2.52498">
        <ele>136.414</ele>
        <time>2018-11-01T08:22:46Z</time>
      </trkpt>
      <trkpt lat="48.66344" lon="2.525">
        <ele>136.412</ele>
        <time>2018-11-01T08:22:48Z</time>
      </trkpt>
      <trkpt lat="48.66342" lon="2.52504">
        <ele>136.407</ele>
        <time>2018-11-01T08:22:51Z</time>
      </trkpt>
      <trkpt lat="48.66337" lon="2.52509">
        <ele>136.401</ele>
        <time>2018-11-01T08:22:55Z</time>
      </trkpt>
      <trkpt lat="48.66334" lon="2.52515">
        <ele>136.398</ele>
        <time>2018-11-01T08:22:58Z</time>
      </trkpt>
      <trkpt lat="48.66334" lon="2.52515">
        <ele>87</ele>
        <time>2018-11-01T08:23:07Z</time>
      </trkpt>
      <trkpt lat="48.66334" lon="2.52515">
        <ele>87</ele>
        <time>2018-11-01T08:23:10Z</time>
      </trkpt>
      <trkpt lat="48.66331" lon="2.52524">
        <ele>136.423</ele>
        <time>2018-11-01T08:23:10Z</time>
      </trkpt>
      <trkpt lat="48.66325" lon="2.52531">
        <ele>136.441</ele>
        <time>2018-11-01T08:23:15Z</time>
      </trkpt>
      <trkpt lat="48.66322" lon="2.52534">
        <ele>136.448</ele>
        <time>2018-11-01T08:23:17Z</time>
      </trkpt>
      <trkpt lat="48.66319" lon="2.5254">
        <ele>136.458</ele>
        <time>2018-11-01T08:23:20Z</time>
      </trkpt>
      <trkpt lat="48.66317" lon="2.52545">
        <ele>136.464</ele>
        <time>2018-11-01T08:23:22Z</time>
      </trkpt>
      <trkpt lat="48.66315" lon="2.52548">
        <ele>136.468</ele>
        <time>2018-11-01T08:23:23Z</time>
      </trkpt>
      <trkpt lat="48.6631" lon="2.52554">
        <ele>136.48</ele>
        <time>2018-11-01T08:23:27Z</time>
      </trkpt>
      <trkpt lat="48.66306" lon="2.52558">
        <ele>136.488</ele>
        <time>2018-11-01T08:23:30Z</time>
      </trkpt>
      <trkpt lat="48.66302" lon="2.52563">
        <ele>136.495</ele>
        <time>2018-11-01T08:23:33Z</time>
      </trkpt>
      <trkpt lat="48.66299" lon="2.52565">
        <ele>136.501</ele>
        <time>2018-11-01T08:23:35Z</time>
      </trkpt>
      <trkpt lat="48.66296" lon="2.5257">
        <ele>136.512</ele>
        <time>2018-11-01T08:23:38Z</time>
      </trkpt>
      <trkpt lat="48.66294" lon="2.52574">
        <ele>136.52</ele>
        <time>2018-11-01T08:23:40Z</time>
      </trkpt>
      <trkpt lat="48.66291" lon="2.52578">
        <ele>136.533</ele>
        <time>2018-11-01T08:23:43Z</time>
      </trkpt>
      <trkpt lat="48.66288" lon="2.52581">
        <ele>136.541</ele>
        <time>2018-11-01T08:23:45Z</time>
      </trkpt>
      <trkpt lat="48.66285" lon="2.52585">
        <ele>136.548</ele>
        <time>2018-11-01T08:23:47Z</time>
      </trkpt>
      <trkpt lat="48.66281" lon="2.52592">
        <ele>136.556</ele>
        <time>2018-11-01T08:23:50Z</time>
      </trkpt>
      <trkpt lat="48.66277" lon="2.52599">
        <ele>136.564</ele>
        <time>2018-11-01T08:23:53Z</time>
      </trkpt>
      <trkpt lat="48.66272" lon="2.52603">
        <ele>136.571</ele>
        <time>2018-11-01T08:23:56Z</time>
      </trkpt>
      <trkpt lat="48.6627" lon="2.52605">
        <ele>136.575</ele>
        <time>2018-11-01T08:23:58Z</time>
      </trkpt>
      <trkpt lat="48.66266" lon="2.5261">
        <ele>136.579</ele>
        <time>2018-11-01T08:24:01Z</time>
      </trkpt>
      <trkpt lat="48.66262" lon="2.52614">
        <ele>136.581</ele>
        <time>2018-11-01T08:24:04Z</time>
      </trkpt>
      <trkpt lat="48.66258" lon="2.5262">
        <ele>136.583</ele>
        <time>2018-11-01T08:24:07Z</time>
      </trkpt>
      <trkpt lat="48.66254" lon="2.52624">
        <ele>136.587</ele>
        <time>2018-11-01T08:24:11Z</time>
      </trkpt>
      <trkpt lat="48.6625" lon="2.52629">
        <ele>136.591</ele>
        <time>2018-11-01T08:24:14Z</time>
      </trkpt>
      <trkpt lat="48.66247" lon="2.52635">
        <ele>136.598</ele>
        <time>2018-11-01T08:24:18Z</time>
      </trkpt>
      <trkpt lat="48.6624" lon="2.52643">
        <ele>136.61</ele>
        <time>2018-11-01T08:24:23Z</time>
      </trkpt>
      <trkpt lat="48.66238" lon="2.52646">
        <ele>136.616</ele>
        <time>2018-11-01T08:24:25Z</time>
      </trkpt>
      <trkpt lat="48.66236" lon="2.52648">
        <ele>136.622</ele>
        <time>2018-11-01T08:24:27Z</time>
      </trkpt>
      <trkpt lat="48.66233" lon="2.52656">
        <ele>136.638</ele>
        <time>2018-11-01T08:24:31Z</time>
      </trkpt>
      <trkpt lat="48.66229" lon="2.52661">
        <ele>136.652</ele>
        <time>2018-11-01T08:24:34Z</time>
      </trkpt>
      <trkpt lat="48.66226" lon="2.52668">
        <ele>136.673</ele>
        <time>2018-11-01T08:24:38Z</time>
      </trkpt>
      <trkpt lat="48.66222" lon="2.52674">
        <ele>136.69</ele>
        <time>2018-11-01T08:24:41Z</time>
      </trkpt>
      <trkpt lat="48.66217" lon="2.5268">
        <ele>136.712</ele>
        <time>2018-11-01T08:24:45Z</time>
      </trkpt>
      <trkpt lat="48.66215" lon="2.52683">
        <ele>136.723</ele>
        <time>2018-11-01T08:24:47Z</time>
      </trkpt>
      <trkpt lat="48.66212" lon="2.52687">
        <ele>136.731</ele>
        <time>2018-11-01T08:24:49Z</time>
      </trkpt>
      <trkpt lat="48.66208" lon="2.52693">
        <ele>136.741</ele>
        <time>2018-11-01T08:24:52Z</time>
      </trkpt>
      <trkpt lat="48.66204" lon="2.52696">
        <ele>136.747</ele>
        <time>2018-11-01T08:24:55Z</time>
      </trkpt>
      <trkpt lat="48.662" lon="2.52699">
        <ele>136.75</ele>
        <time>2018-11-01T08:24:57Z</time>
      </trkpt>
      <trkpt lat="48.66196" lon="2.52706">
        <ele>136.753</ele>
        <time>2018-11-01T08:25:00Z</time>
      </trkpt>
      <trkpt lat="48.66193" lon="2.52709">
        <ele>136.754</ele>
        <time>2018-11-01T08:25:02Z</time>
      </trkpt>
      <trkpt lat="48.66191" lon="2.52713">
        <ele>136.754</ele>
        <time>2018-11-01T08:25:04Z</time>
      </trkpt>
      <trkpt lat="48.66189" lon="2.52715">
        <ele>136.753</ele>
        <time>2018-11-01T08:25:06Z</time>
      </trkpt>
      <trkpt lat="48.66186" lon="2.52718">
        <ele>136.751</ele>
        <time>2018-11-01T08:25:08Z</time>
      </trkpt>
      <trkpt lat="48.66183" lon="2.52723">
        <ele>136.745</ele>
        <time>2018-11-01T08:25:12Z</time>
      </trkpt>
      <trkpt lat="48.6618" lon="2.52727">
        <ele>136.74</ele>
        <time>2018-11-01T08:25:15Z</time>
      </trkpt>
      <trkpt lat="48.66175" lon="2.52734">
        <ele>136.735</ele>
        <time>2018-11-01T08:25:19Z</time>
      </trkpt>
      <trkpt lat="48.66172" lon="2.52739">
        <ele>136.733</ele>
        <time>2018-11-01T08:25:21Z</time>
      </trkpt>
      <trkpt lat="48.66169" lon="2.52743">
        <ele>136.73</ele>
        <time>2018-11-01T08:25:23Z</time>
      </trkpt>
      <trkpt lat="48.66167" lon="2.52746">
        <ele>136.727</ele>
        <time>2018-11-01T08:25:25Z</time>
      </trkpt>
      <trkpt lat="48.66163" lon="2.5275">
        <ele>136.721</ele>
        <time>2018-11-01T08:25:28Z</time>
      </trkpt>
      <trkpt lat="48.6616" lon="2.52754">
        <ele>136.714</ele>
        <time>2018-11-01T08:25:31Z</time>
      </trkpt>
      <trkpt lat="48.66158" lon="2.52756">
        <ele>136.709</ele>
        <time>2018-11-01T08:25:33Z</time>
      </trkpt>
      <trkpt lat="48.66156" lon="2.5276">
        <ele>136.703</ele>
        <time>2018-11-01T08:25:35Z</time>
      </trkpt>
      <trkpt lat="48.66152" lon="2.52766">
        <ele>136.694</ele>
        <time>2018-11-01T08:25:39Z</time>
      </trkpt>
      <trkpt lat="48.66147" lon="2.5277">
        <ele>136.685</ele>
        <time>2018-11-01T08:25:42Z</time>
      </trkpt>
      <trkpt lat="48.66144" lon="2.52776">
        <ele>136.673</ele>
        <time>2018-11-01T08:25:45Z</time>
      </trkpt>
      <trkpt lat="48.66142" lon="2.5278">
        <ele>136.665</ele>
        <time>2018-11-01T08:25:47Z</time>
      </trkpt>
      <trkpt lat="48.66138" lon="2.52785">
        <ele>136.651</ele>
        <time>2018-11-01T08:25:50Z</time>
      </trkpt>
      <trkpt lat="48.66136" lon="2.52789">
        <ele>136.64</ele>
        <time>2018-11-01T08:25:52Z</time>
      </trkpt>
      <trkpt lat="48.66133" lon="2.52793">
        <ele>136.63</ele>
        <time>2018-11-01T08:25:54Z</time>
      </trkpt>
      <trkpt lat="48.6613" lon="2.52799">
        <ele>136.613</ele>
        <time>2018-11-01T08:25:57Z</time>
      </trkpt>
      <trkpt lat="48.66127" lon="2.52804">
        <ele>136.601</ele>
        <time>2018-11-01T08:25:59Z</time>
      </trkpt>
      <trkpt lat="48.66123" lon="2.5281">
        <ele>136.584</ele>
        <time>2018-11-01T08:26:02Z</time>
      </trkpt>
      <trkpt lat="48.66118" lon="2.52814">
        <ele>136.563</ele>
        <time>2018-11-01T08:26:06Z</time>
      </trkpt>
      <trkpt lat="48.66114" lon="2.52818">
        <ele>136.542</ele>
        <time>2018-11-01T08:26:10Z</time>
      </trkpt>
      <trkpt lat="48.66111" lon="2.52821">
        <ele>136.531</ele>
        <time>2018-11-01T08:26:12Z</time>
      </trkpt>
      <trkpt lat="48.66106" lon="2.52825">
        <ele>136.515</ele>
        <time>2018-11-01T08:26:15Z</time>
      </trkpt>
      <trkpt lat="48.66102" lon="2.52828">
        <ele>136.498</ele>
        <time>2018-11-01T08:26:18Z</time>
      </trkpt>
      <trkpt lat="48.66098" lon="2.52834">
        <ele>136.482</ele>
        <time>2018-11-01T08:26:21Z</time>
      </trkpt>
      <trkpt lat="48.66096" lon="2.52836">
        <ele>136.47</ele>
        <time>2018-11-01T08:26:23Z</time>
      </trkpt>
      <trkpt lat="48.66092" lon="2.52843">
        <ele>136.447</ele>
        <time>2018-11-01T08:26:27Z</time>
      </trkpt>
      <trkpt lat="48.66088" lon="2.52848">
        <ele>136.428</ele>
        <time>2018-11-01T08:26:30Z</time>
      </trkpt>
      <trkpt lat="48.66085" lon="2.52851">
        <ele>136.416</ele>
        <time>2018-11-01T08:26:32Z</time>
      </trkpt>
      <trkpt lat="48.66082" lon="2.52857">
        <ele>136.397</ele>
        <time>2018-11-01T08:26:35Z</time>
      </trkpt>
      <trkpt lat="48.6608" lon="2.52862">
        <ele>136.385</ele>
        <time>2018-11-01T08:26:37Z</time>
      </trkpt>
      <trkpt lat="48.66077" lon="2.52867">
        <ele>136.373</ele>
        <time>2018-11-01T08:26:39Z</time>
      </trkpt>
      <trkpt lat="48.66075" lon="2.52871">
        <ele>136.361</ele>
        <time>2018-11-01T08:26:41Z</time>
      </trkpt>
      <trkpt lat="48.66072" lon="2.52875">
        <ele>136.342</ele>
        <time>2018-11-01T08:26:44Z</time>
      </trkpt>
      <trkpt lat="48.66069" lon="2.52882">
        <ele>136.321</ele>
        <time>2018-11-01T08:26:47Z</time>
      </trkpt>
      <trkpt lat="48.66065" lon="2.52888">
        <ele>136.3</ele>
        <time>2018-11-01T08:26:50Z</time>
      </trkpt>
      <trkpt lat="48.66062" lon="2.52891">
        <ele>136.285</ele>
        <time>2018-11-01T08:26:52Z</time>
      </trkpt>
      <trkpt lat="48.66059" lon="2.52895">
        <ele>136.261</ele>
        <time>2018-11-01T08:26:55Z</time>
      </trkpt>
      <trkpt lat="48.66055" lon="2.52901">
        <ele>136.235</ele>
        <time>2018-11-01T08:26:58Z</time>
      </trkpt>
      <trkpt lat="48.66051" lon="2.52905">
        <ele>136.207</ele>
        <time>2018-11-01T08:27:01Z</time>
      </trkpt>
      <trkpt lat="48.66047" lon="2.5291">
        <ele>136.17</ele>
        <time>2018-11-01T08:27:05Z</time>
      </trkpt>
      <trkpt lat="48.66043" lon="2.52915">
        <ele>136.142</ele>
        <time>2018-11-01T08:27:08Z</time>
      </trkpt>
      <trkpt lat="48.66041" lon="2.52918">
        <ele>136.124</ele>
        <time>2018-11-01T08:27:10Z</time>
      </trkpt>
      <trkpt lat="48.66038" lon="2.52922">
        <ele>136.105</ele>
        <time>2018-11-01T08:27:12Z</time>
      </trkpt>
      <trkpt lat="48.66036" lon="2.52926">
        <ele>136.088</ele>
        <time>2018-11-01T08:27:14Z</time>
      </trkpt>
      <trkpt lat="48.66034" lon="2.52929">
        <ele>136.07</ele>
        <time>2018-11-01T08:27:16Z</time>
      </trkpt>
      <trkpt lat="48.66032" lon="2.52932">
        <ele>136.053</ele>
        <time>2018-11-01T08:27:18Z</time>
      </trkpt>
      <trkpt lat="48.6603" lon="2.52935">
        <ele>136.035</ele>
        <time>2018-11-01T08:27:20Z</time>
      </trkpt>
      <trkpt lat="48.66026" lon="2.52941">
        <ele>136.001</ele>
        <time>2018-11-01T08:27:24Z</time>
      </trkpt>
      <trkpt lat="48.66022" lon="2.52945">
        <ele>135.978</ele>
        <time>2018-11-01T08:27:27Z</time>
      </trkpt>
      <trkpt lat="48.66019" lon="2.52948">
        <ele>135.963</ele>
        <time>2018-11-01T08:27:29Z</time>
      </trkpt>
      <trkpt lat="48.66015" lon="2.52952">
        <ele>135.942</ele>
        <time>2018-11-01T08:27:32Z</time>
      </trkpt>
      <trkpt lat="48.66013" lon="2.52955">
        <ele>135.929</ele>
        <time>2018-11-01T08:27:34Z</time>
      </trkpt>
      <trkpt lat="48.66011" lon="2.52958">
        <ele>135.916</ele>
        <time>2018-11-01T08:27:36Z</time>
      </trkpt>
      <trkpt lat="48.66008" lon="2.52961">
        <ele>135.905</ele>
        <time>2018-11-01T08:27:38Z</time>
      </trkpt>
      <trkpt lat="48.66005" lon="2.52964">
        <ele>135.895</ele>
        <time>2018-11-01T08:27:40Z</time>
      </trkpt>
      <trkpt lat="48.66003" lon="2.52967">
        <ele>135.884</ele>
        <time>2018-11-01T08:27:42Z</time>
      </trkpt>
      <trkpt lat="48.66" lon="2.52971">
        <ele>135.87</ele>
        <time>2018-11-01T08:27:45Z</time>
      </trkpt>
      <trkpt lat="48.65996" lon="2.52977">
        <ele>135.859</ele>
        <time>2018-11-01T08:27:49Z</time>
      </trkpt>
      <trkpt lat="48.65993" lon="2.52981">
        <ele>135.856</ele>
        <time>2018-11-01T08:27:51Z</time>
      </trkpt>
      <trkpt lat="48.65988" lon="2.52985">
        <ele>135.853</ele>
        <time>2018-11-01T08:27:54Z</time>
      </trkpt>
      <trkpt lat="48.65985" lon="2.52988">
        <ele>135.85</ele>
        <time>2018-11-01T08:27:56Z</time>
      </trkpt>
      <trkpt lat="48.65982" lon="2.52991">
        <ele>135.847</ele>
        <time>2018-11-01T08:27:58Z</time>
      </trkpt>
      <trkpt lat="48.65978" lon="2.52995">
        <ele>135.842</ele>
        <time>2018-11-01T08:28:01Z</time>
      </trkpt>
      <trkpt lat="48.65975" lon="2.53">
        <ele>135.836</ele>
        <time>2018-11-01T08:28:04Z</time>
      </trkpt>
      <trkpt lat="48.6597" lon="2.53005">
        <ele>135.827</ele>
        <time>2018-11-01T08:28:08Z</time>
      </trkpt>
      <trkpt lat="48.65966" lon="2.53011">
        <ele>135.817</ele>
        <time>2018-11-01T08:28:11Z</time>
      </trkpt>
      <trkpt lat="48.65962" lon="2.53017">
        <ele>135.807</ele>
        <time>2018-11-01T08:28:14Z</time>
      </trkpt>
      <trkpt lat="48.65959" lon="2.53024">
        <ele>135.796</ele>
        <time>2018-11-01T08:28:17Z</time>
      </trkpt>
      <trkpt lat="48.65956" lon="2.53028">
        <ele>135.789</ele>
        <time>2018-11-01T08:28:19Z</time>
      </trkpt>
      <trkpt lat="48.65954" lon="2.53031">
        <ele>135.781</ele>
        <time>2018-11-01T08:28:21Z</time>
      </trkpt>
      <trkpt lat="48.65952" lon="2.53035">
        <ele>135.773</ele>
        <time>2018-11-01T08:28:23Z</time>
      </trkpt>
      <trkpt lat="48.6595" lon="2.53038">
        <ele>135.765</ele>
        <time>2018-11-01T08:28:25Z</time>
      </trkpt>
      <trkpt lat="48.65947" lon="2.53044">
        <ele>135.752</ele>
        <time>2018-11-01T08:28:28Z</time>
      </trkpt>
      <trkpt lat="48.65945" lon="2.53047">
        <ele>135.743</ele>
        <time>2018-11-01T08:28:30Z</time>
      </trkpt>
      <trkpt lat="48.65942" lon="2.5305">
        <ele>135.733</ele>
        <time>2018-11-01T08:28:32Z</time>
      </trkpt>
      <trkpt lat="48.65939" lon="2.53054">
        <ele>135.716</ele>
        <time>2018-11-01T08:28:35Z</time>
      </trkpt>
      <trkpt lat="48.65935" lon="2.53058">
        <ele>135.696</ele>
        <time>2018-11-01T08:28:38Z</time>
      </trkpt>
      <trkpt lat="48.65933" lon="2.5306">
        <ele>135.682</ele>
        <time>2018-11-01T08:28:40Z</time>
      </trkpt>
      <trkpt lat="48.65929" lon="2.53063">
        <ele>135.656</ele>
        <time>2018-11-01T08:28:43Z</time>
      </trkpt>
      <trkpt lat="48.65925" lon="2.53069">
        <ele>135.619</ele>
        <time>2018-11-01T08:28:47Z</time>
      </trkpt>
      <trkpt lat="48.65922" lon="2.53073">
        <ele>135.6</ele>
        <time>2018-11-01T08:28:49Z</time>
      </trkpt>
      <trkpt lat="48.65919" lon="2.53079">
        <ele>135.569</ele>
        <time>2018-11-01T08:28:52Z</time>
      </trkpt>
      <trkpt lat="48.65917" lon="2.53083">
        <ele>135.548</ele>
        <time>2018-11-01T08:28:54Z</time>
      </trkpt>
      <trkpt lat="48.65914" lon="2.53088">
        <ele>135.527</ele>
        <time>2018-11-01T08:28:56Z</time>
      </trkpt>
      <trkpt lat="48.65912" lon="2.53091">
        <ele>135.505</ele>
        <time>2018-11-01T08:28:58Z</time>
      </trkpt>
      <trkpt lat="48.6591" lon="2.53094">
        <ele>135.482</ele>
        <time>2018-11-01T08:29:00Z</time>
      </trkpt>
      <trkpt lat="48.65906" lon="2.53099">
        <ele>135.436</ele>
        <time>2018-11-01T08:29:04Z</time>
      </trkpt>
      <trkpt lat="48.65902" lon="2.53105">
        <ele>135.401</ele>
        <time>2018-11-01T08:29:07Z</time>
      </trkpt>
      <trkpt lat="48.65898" lon="2.53111">
        <ele>135.364</ele>
        <time>2018-11-01T08:29:10Z</time>
      </trkpt>
      <trkpt lat="48.65896" lon="2.53113">
        <ele>135.351</ele>
        <time>2018-11-01T08:29:11Z</time>
      </trkpt>
      <trkpt lat="48.65894" lon="2.53116">
        <ele>135.338</ele>
        <time>2018-11-01T08:29:12Z</time>
      </trkpt>
      <trkpt lat="48.65892" lon="2.53119">
        <ele>135.313</ele>
        <time>2018-11-01T08:29:14Z</time>
      </trkpt>
      <trkpt lat="48.65889" lon="2.53122">
        <ele>135.289</ele>
        <time>2018-11-01T08:29:16Z</time>
      </trkpt>
      <trkpt lat="48.65887" lon="2.53125">
        <ele>135.264</ele>
        <time>2018-11-01T08:29:18Z</time>
      </trkpt>
      <trkpt lat="48.65883" lon="2.5313">
        <ele>135.227</ele>
        <time>2018-11-01T08:29:21Z</time>
      </trkpt>
      <trkpt lat="48.6588" lon="2.53136">
        <ele>135.193</ele>
        <time>2018-11-01T08:29:24Z</time>
      </trkpt>
      <trkpt lat="48.65876" lon="2.5314">
        <ele>135.162</ele>
        <time>2018-11-01T08:29:27Z</time>
      </trkpt>
      <trkpt lat="48.65873" lon="2.53147">
        <ele>135.122</ele>
        <time>2018-11-01T08:29:31Z</time>
      </trkpt>
      <trkpt lat="48.65869" lon="2.53152">
        <ele>135.095</ele>
        <time>2018-11-01T08:29:34Z</time>
      </trkpt>
      <trkpt lat="48.65866" lon="2.53156">
        <ele>135.077</ele>
        <time>2018-11-01T08:29:36Z</time>
      </trkpt>
      <trkpt lat="48.65864" lon="2.53159">
        <ele>135.058</ele>
        <time>2018-11-01T08:29:38Z</time>
      </trkpt>
      <trkpt lat="48.65862" lon="2.53162">
        <ele>135.04</ele>
        <time>2018-11-01T08:29:40Z</time>
      </trkpt>
      <trkpt lat="48.65858" lon="2.53166">
        <ele>135.001</ele>
        <time>2018-11-01T08:29:44Z</time>
      </trkpt>
      <trkpt lat="48.65854" lon="2.53171">
        <ele>134.973</ele>
        <time>2018-11-01T08:29:47Z</time>
      </trkpt>
      <trkpt lat="48.6585" lon="2.53174">
        <ele>134.955</ele>
        <time>2018-11-01T08:29:49Z</time>
      </trkpt>
      <trkpt lat="48.65848" lon="2.53176">
        <ele>134.936</ele>
        <time>2018-11-01T08:29:51Z</time>
      </trkpt>
      <trkpt lat="48.65844" lon="2.53182">
        <ele>134.907</ele>
        <time>2018-11-01T08:29:54Z</time>
      </trkpt>
      <trkpt lat="48.65841" lon="2.53186">
        <ele>134.886</ele>
        <time>2018-11-01T08:29:56Z</time>
      </trkpt>
      <trkpt lat="48.65837" lon="2.5319">
        <ele>134.854</ele>
        <time>2018-11-01T08:29:59Z</time>
      </trkpt>
      <trkpt lat="48.65833" lon="2.53195">
        <ele>134.821</ele>
        <time>2018-11-01T08:30:02Z</time>
      </trkpt>
      <trkpt lat="48.65829" lon="2.53199">
        <ele>134.787</ele>
        <time>2018-11-01T08:30:05Z</time>
      </trkpt>
      <trkpt lat="48.65824" lon="2.53204">
        <ele>134.752</ele>
        <time>2018-11-01T08:30:08Z</time>
      </trkpt>
      <trkpt lat="48.65821" lon="2.5321">
        <ele>134.718</ele>
        <time>2018-11-01T08:30:11Z</time>
      </trkpt>
      <trkpt lat="48.65819" lon="2.53213">
        <ele>134.695</ele>
        <time>2018-11-01T08:30:13Z</time>
      </trkpt>
      <trkpt lat="48.65817" lon="2.53217">
        <ele>134.671</ele>
        <time>2018-11-01T08:30:15Z</time>
      </trkpt>
      <trkpt lat="48.65812" lon="2.53222">
        <ele>134.624</ele>
        <time>2018-11-01T08:30:19Z</time>
      </trkpt>
      <trkpt lat="48.65808" lon="2.53227">
        <ele>134.589</ele>
        <time>2018-11-01T08:30:22Z</time>
      </trkpt>
      <trkpt lat="48.65805" lon="2.53231">
        <ele>134.553</ele>
        <time>2018-11-01T08:30:25Z</time>
      </trkpt>
      <trkpt lat="48.65802" lon="2.53238">
        <ele>134.52</ele>
        <time>2018-11-01T08:30:28Z</time>
      </trkpt>
      <trkpt lat="48.65799" lon="2.53243">
        <ele>134.487</ele>
        <time>2018-11-01T08:30:31Z</time>
      </trkpt>
      <trkpt lat="48.65796" lon="2.53247">
        <ele>134.458</ele>
        <time>2018-11-01T08:30:34Z</time>
      </trkpt>
      <trkpt lat="48.65793" lon="2.53251">
        <ele>134.438</ele>
        <time>2018-11-01T08:30:36Z</time>
      </trkpt>
      <trkpt lat="48.65789" lon="2.53255">
        <ele>134.41</ele>
        <time>2018-11-01T08:30:39Z</time>
      </trkpt>
      <trkpt lat="48.65787" lon="2.53257">
        <ele>134.39</ele>
        <time>2018-11-01T08:30:41Z</time>
      </trkpt>
      <trkpt lat="48.65784" lon="2.5326">
        <ele>134.37</ele>
        <time>2018-11-01T08:30:43Z</time>
      </trkpt>
      <trkpt lat="48.6578" lon="2.53266">
        <ele>134.341</ele>
        <time>2018-11-01T08:30:46Z</time>
      </trkpt>
      <trkpt lat="48.65778" lon="2.5327">
        <ele>134.323</ele>
        <time>2018-11-01T08:30:48Z</time>
      </trkpt>
      <trkpt lat="48.65774" lon="2.53274">
        <ele>134.298</ele>
        <time>2018-11-01T08:30:51Z</time>
      </trkpt>
      <trkpt lat="48.65771" lon="2.5328">
        <ele>134.278</ele>
        <time>2018-11-01T08:30:54Z</time>
      </trkpt>
      <trkpt lat="48.65767" lon="2.53285">
        <ele>134.26</ele>
        <time>2018-11-01T08:30:57Z</time>
      </trkpt>
      <trkpt lat="48.65765" lon="2.53288">
        <ele>134.25</ele>
        <time>2018-11-01T08:30:59Z</time>
      </trkpt>
      <trkpt lat="48.65762" lon="2.53292">
        <ele>134.24</ele>
        <time>2018-11-01T08:31:01Z</time>
      </trkpt>
      <trkpt lat="48.65759" lon="2.53297">
        <ele>134.224</ele>
        <time>2018-11-01T08:31:04Z</time>
      </trkpt>
      <trkpt lat="48.65755" lon="2.53302">
        <ele>134.202</ele>
        <time>2018-11-01T08:31:08Z</time>
      </trkpt>
      <trkpt lat="48.65751" lon="2.53307">
        <ele>134.184</ele>
        <time>2018-11-01T08:31:11Z</time>
      </trkpt>
      <trkpt lat="48.65748" lon="2.5331">
        <ele>134.173</ele>
        <time>2018-11-01T08:31:13Z</time>
      </trkpt>
      <trkpt lat="48.65745" lon="2.53313">
        <ele>134.163</ele>
        <time>2018-11-01T08:31:15Z</time>
      </trkpt>
      <trkpt lat="48.65742" lon="2.53317">
        <ele>134.153</ele>
        <time>2018-11-01T08:31:17Z</time>
      </trkpt>
      <trkpt lat="48.65739" lon="2.53319">
        <ele>134.143</ele>
        <time>2018-11-01T08:31:19Z</time>
      </trkpt>
      <trkpt lat="48.65737" lon="2.53322">
        <ele>134.134</ele>
        <time>2018-11-01T08:31:21Z</time>
      </trkpt>
      <trkpt lat="48.65733" lon="2.53328">
        <ele>134.113</ele>
        <time>2018-11-01T08:31:25Z</time>
      </trkpt>
      <trkpt lat="48.6573" lon="2.53334">
        <ele>134.096</ele>
        <time>2018-11-01T08:31:28Z</time>
      </trkpt>
      <trkpt lat="48.65726" lon="2.5334">
        <ele>134.082</ele>
        <time>2018-11-01T08:31:31Z</time>
      </trkpt>
      <trkpt lat="48.65722" lon="2.53345">
        <ele>134.069</ele>
        <time>2018-11-01T08:31:34Z</time>
      </trkpt>
      <trkpt lat="48.6572" lon="2.53349">
        <ele>134.062</ele>
        <time>2018-11-01T08:31:36Z</time>
      </trkpt>
      <trkpt lat="48.65716" lon="2.53354">
        <ele>134.052</ele>
        <time>2018-11-01T08:31:40Z</time>
      </trkpt>
      <trkpt lat="48.65712" lon="2.5336">
        <ele>134.046</ele>
        <time>2018-11-01T08:31:43Z</time>
      </trkpt>
      <trkpt lat="48.65709" lon="2.53364">
        <ele>134.043</ele>
        <time>2018-11-01T08:31:45Z</time>
      </trkpt>
      <trkpt lat="48.65706" lon="2.53367">
        <ele>134.04</ele>
        <time>2018-11-01T08:31:47Z</time>
      </trkpt>
      <trkpt lat="48.65704" lon="2.53369">
        <ele>134.038</ele>
        <time>2018-11-01T08:31:49Z</time>
      </trkpt>
      <trkpt lat="48.657" lon="2.53375">
        <ele>134.032</ele>
        <time>2018-11-01T08:31:53Z</time>
      </trkpt>
      <trkpt lat="48.65696" lon="2.53381">
        <ele>134.028</ele>
        <time>2018-11-01T08:31:56Z</time>
      </trkpt>
      <trkpt lat="48.65694" lon="2.53387">
        <ele>134.024</ele>
        <time>2018-11-01T08:31:59Z</time>
      </trkpt>
      <trkpt lat="48.65692" lon="2.53391">
        <ele>134.021</ele>
        <time>2018-11-01T08:32:01Z</time>
      </trkpt>
      <trkpt lat="48.65688" lon="2.53396">
        <ele>134.017</ele>
        <time>2018-11-01T08:32:05Z</time>
      </trkpt>
      <trkpt lat="48.65685" lon="2.534">
        <ele>134.015</ele>
        <time>2018-11-01T08:32:08Z</time>
      </trkpt>
      <trkpt lat="48.65683" lon="2.53403">
        <ele>134.014</ele>
        <time>2018-11-01T08:32:11Z</time>
      </trkpt>
      <trkpt lat="48.65682" lon="2.53405">
        <ele>134.015</ele>
        <time>2018-11-01T08:32:14Z</time>
      </trkpt>
      <trkpt lat="48.65678" lon="2.53412">
        <ele>134.015</ele>
        <time>2018-11-01T08:32:18Z</time>
      </trkpt>
      <trkpt lat="48.65672" lon="2.53416">
        <ele>134.015</ele>
        <time>2018-11-01T08:32:22Z</time>
      </trkpt>
      <trkpt lat="48.65668" lon="2.5342">
        <ele>134.015</ele>
        <time>2018-11-01T08:32:25Z</time>
      </trkpt>
      <trkpt lat="48.65664" lon="2.53424">
        <ele>134.013</ele>
        <time>2018-11-01T08:32:28Z</time>
      </trkpt>
      <trkpt lat="48.65661" lon="2.53429">
        <ele>134.009</ele>
        <time>2018-11-01T08:32:31Z</time>
      </trkpt>
      <trkpt lat="48.65658" lon="2.53433">
        <ele>134.005</ele>
        <time>2018-11-01T08:32:34Z</time>
      </trkpt>
      <trkpt lat="48.65655" lon="2.5344">
        <ele>133.999</ele>
        <time>2018-11-01T08:32:39Z</time>
      </trkpt>
      <trkpt lat="48.65651" lon="2.53447">
        <ele>133.997</ele>
        <time>2018-11-01T08:32:43Z</time>
      </trkpt>
      <trkpt lat="48.65647" lon="2.53453">
        <ele>133.996</ele>
        <time>2018-11-01T08:32:46Z</time>
      </trkpt>
      <trkpt lat="48.65641" lon="2.53459">
        <ele>133.996</ele>
        <time>2018-11-01T08:32:50Z</time>
      </trkpt>
      <trkpt lat="48.65638" lon="2.53463">
        <ele>133.993</ele>
        <time>2018-11-01T08:32:53Z</time>
      </trkpt>
      <trkpt lat="48.65635" lon="2.53467">
        <ele>133.991</ele>
        <time>2018-11-01T08:32:55Z</time>
      </trkpt>
      <trkpt lat="48.6563" lon="2.53473">
        <ele>133.988</ele>
        <time>2018-11-01T08:32:58Z</time>
      </trkpt>
      <trkpt lat="48.65628" lon="2.53477">
        <ele>133.988</ele>
        <time>2018-11-01T08:33:00Z</time>
      </trkpt>
      <trkpt lat="48.65624" lon="2.53482">
        <ele>133.988</ele>
        <time>2018-11-01T08:33:03Z</time>
      </trkpt>
      <trkpt lat="48.65622" lon="2.53486">
        <ele>133.989</ele>
        <time>2018-11-01T08:33:05Z</time>
      </trkpt>
      <trkpt lat="48.65618" lon="2.53491">
        <ele>133.993</ele>
        <time>2018-11-01T08:33:08Z</time>
      </trkpt>
      <trkpt lat="48.65614" lon="2.53497">
        <ele>134</ele>
        <time>2018-11-01T08:33:12Z</time>
      </trkpt>
      <trkpt lat="48.65612" lon="2.535">
        <ele>134.009</ele>
        <time>2018-11-01T08:33:15Z</time>
      </trkpt>
      <trkpt lat="48.65608" lon="2.53504">
        <ele>134.02</ele>
        <time>2018-11-01T08:33:18Z</time>
      </trkpt>
      <trkpt lat="48.65605" lon="2.53507">
        <ele>134.027</ele>
        <time>2018-11-01T08:33:20Z</time>
      </trkpt>
      <trkpt lat="48.65603" lon="2.5351">
        <ele>134.034</ele>
        <time>2018-11-01T08:33:22Z</time>
      </trkpt>
      <trkpt lat="48.656" lon="2.53513">
        <ele>134.041</ele>
        <time>2018-11-01T08:33:24Z</time>
      </trkpt>
      <trkpt lat="48.65596" lon="2.53519">
        <ele>134.052</ele>
        <time>2018-11-01T08:33:28Z</time>
      </trkpt>
      <trkpt lat="48.65592" lon="2.53525">
        <ele>134.061</ele>
        <time>2018-11-01T08:33:32Z</time>
      </trkpt>
      <trkpt lat="48.65589" lon="2.53529">
        <ele>134.064</ele>
        <time>2018-11-01T08:33:35Z</time>
      </trkpt>
      <trkpt lat="48.65584" lon="2.53535">
        <ele>134.066</ele>
        <time>2018-11-01T08:33:38Z</time>
      </trkpt>
      <trkpt lat="48.65581" lon="2.53541">
        <ele>134.068</ele>
        <time>2018-11-01T08:33:41Z</time>
      </trkpt>
      <trkpt lat="48.65579" lon="2.53545">
        <ele>134.068</ele>
        <time>2018-11-01T08:33:43Z</time>
      </trkpt>
      <trkpt lat="48.65576" lon="2.53548">
        <ele>134.069</ele>
        <time>2018-11-01T08:33:45Z</time>
      </trkpt>
      <trkpt lat="48.65572" lon="2.53553">
        <ele>134.068</ele>
        <time>2018-11-01T08:33:49Z</time>
      </trkpt>
      <trkpt lat="48.65568" lon="2.53558">
        <ele>134.066</ele>
        <time>2018-11-01T08:33:52Z</time>
      </trkpt>
      <trkpt lat="48.65563" lon="2.53563">
        <ele>134.063</ele>
        <time>2018-11-01T08:33:55Z</time>
      </trkpt>
      <trkpt lat="48.65559" lon="2.53567">
        <ele>134.057</ele>
        <time>2018-11-01T08:33:58Z</time>
      </trkpt>
      <trkpt lat="48.65555" lon="2.53571">
        <ele>134.048</ele>
        <time>2018-11-01T08:34:01Z</time>
      </trkpt>
      <trkpt lat="48.65553" lon="2.53575">
        <ele>134.041</ele>
        <time>2018-11-01T08:34:03Z</time>
      </trkpt>
      <trkpt lat="48.6555" lon="2.53581">
        <ele>134.031</ele>
        <time>2018-11-01T08:34:06Z</time>
      </trkpt>
      <trkpt lat="48.65548" lon="2.53584">
        <ele>134.025</ele>
        <time>2018-11-01T08:34:08Z</time>
      </trkpt>
      <trkpt lat="48.65544" lon="2.53589">
        <ele>134.018</ele>
        <time>2018-11-01T08:34:11Z</time>
      </trkpt>
      <trkpt lat="48.65542" lon="2.53592">
        <ele>134.014</ele>
        <time>2018-11-01T08:34:13Z</time>
      </trkpt>
      <trkpt lat="48.65539" lon="2.53596">
        <ele>134.01</ele>
        <time>2018-11-01T08:34:15Z</time>
      </trkpt>
      <trkpt lat="48.65537" lon="2.536">
        <ele>134.005</ele>
        <time>2018-11-01T08:34:17Z</time>
      </trkpt>
      <trkpt lat="48.65535" lon="2.53603">
        <ele>134.002</ele>
        <time>2018-11-01T08:34:18Z</time>
      </trkpt>
      <trkpt lat="48.65531" lon="2.53609">
        <ele>133.996</ele>
        <time>2018-11-01T08:34:21Z</time>
      </trkpt>
      <trkpt lat="48.65528" lon="2.53612">
        <ele>133.991</ele>
        <time>2018-11-01T08:34:23Z</time>
      </trkpt>
      <trkpt lat="48.65525" lon="2.53617">
        <ele>133.983</ele>
        <time>2018-11-01T08:34:26Z</time>
      </trkpt>
      <trkpt lat="48.65523" lon="2.5362">
        <ele>133.978</ele>
        <time>2018-11-01T08:34:28Z</time>
      </trkpt>
      <trkpt lat="48.65519" lon="2.53626">
        <ele>133.969</ele>
        <time>2018-11-01T08:34:32Z</time>
      </trkpt>
      <trkpt lat="48.65518" lon="2.5363">
        <ele>133.966</ele>
        <time>2018-11-01T08:34:34Z</time>
      </trkpt>
      <trkpt lat="48.65516" lon="2.53633">
        <ele>133.964</ele>
        <time>2018-11-01T08:34:36Z</time>
      </trkpt>
      <trkpt lat="48.65514" lon="2.53636">
        <ele>133.962</ele>
        <time>2018-11-01T08:34:38Z</time>
      </trkpt>
      <trkpt lat="48.6551" lon="2.53641">
        <ele>133.961</ele>
        <time>2018-11-01T08:34:41Z</time>
      </trkpt>
      <trkpt lat="48.65507" lon="2.53645">
        <ele>133.963</ele>
        <time>2018-11-01T08:34:43Z</time>
      </trkpt>
      <trkpt lat="48.65505" lon="2.53649">
        <ele>133.966</ele>
        <time>2018-11-01T08:34:45Z</time>
      </trkpt>
      <trkpt lat="48.65502" lon="2.53652">
        <ele>133.971</ele>
        <time>2018-11-01T08:34:47Z</time>
      </trkpt>
      <trkpt lat="48.65499" lon="2.53655">
        <ele>133.978</ele>
        <time>2018-11-01T08:34:49Z</time>
      </trkpt>
      <trkpt lat="48.65495" lon="2.53658">
        <ele>133.99</ele>
        <time>2018-11-01T08:34:52Z</time>
      </trkpt>
      <trkpt lat="48.65491" lon="2.53663">
        <ele>134.001</ele>
        <time>2018-11-01T08:34:55Z</time>
      </trkpt>
      <trkpt lat="48.65488" lon="2.53666">
        <ele>134.008</ele>
        <time>2018-11-01T08:34:57Z</time>
      </trkpt>
      <trkpt lat="48.65486" lon="2.5367">
        <ele>134.015</ele>
        <time>2018-11-01T08:34:59Z</time>
      </trkpt>
      <trkpt lat="48.65481" lon="2.53675">
        <ele>134.025</ele>
        <time>2018-11-01T08:35:02Z</time>
      </trkpt>
      <trkpt lat="48.65478" lon="2.53681">
        <ele>134.035</ele>
        <time>2018-11-01T08:35:05Z</time>
      </trkpt>
      <trkpt lat="48.65475" lon="2.53684">
        <ele>134.041</ele>
        <time>2018-11-01T08:35:07Z</time>
      </trkpt>
      <trkpt lat="48.65473" lon="2.53688">
        <ele>134.047</ele>
        <time>2018-11-01T08:35:09Z</time>
      </trkpt>
      <trkpt lat="48.6547" lon="2.53693">
        <ele>134.056</ele>
        <time>2018-11-01T08:35:12Z</time>
      </trkpt>
      <trkpt lat="48.65467" lon="2.53697">
        <ele>134.063</ele>
        <time>2018-11-01T08:35:14Z</time>
      </trkpt>
      <trkpt lat="48.65465" lon="2.53701">
        <ele>134.071</ele>
        <time>2018-11-01T08:35:16Z</time>
      </trkpt>
      <trkpt lat="48.65461" lon="2.53704">
        <ele>134.083</ele>
        <time>2018-11-01T08:35:19Z</time>
      </trkpt>
      <trkpt lat="48.65458" lon="2.53707">
        <ele>134.091</ele>
        <time>2018-11-01T08:35:21Z</time>
      </trkpt>
      <trkpt lat="48.65455" lon="2.53711">
        <ele>134.098</ele>
        <time>2018-11-01T08:35:23Z</time>
      </trkpt>
      <trkpt lat="48.65452" lon="2.53716">
        <ele>134.11</ele>
        <time>2018-11-01T08:35:26Z</time>
      </trkpt>
      <trkpt lat="48.65449" lon="2.5372">
        <ele>134.118</ele>
        <time>2018-11-01T08:35:28Z</time>
      </trkpt>
      <trkpt lat="48.65446" lon="2.53725">
        <ele>134.13</ele>
        <time>2018-11-01T08:35:31Z</time>
      </trkpt>
      <trkpt lat="48.65441" lon="2.5373">
        <ele>134.148</ele>
        <time>2018-11-01T08:35:35Z</time>
      </trkpt>
      <trkpt lat="48.65438" lon="2.53736">
        <ele>134.169</ele>
        <time>2018-11-01T08:35:39Z</time>
      </trkpt>
      <trkpt lat="48.65436" lon="2.5374">
        <ele>134.182</ele>
        <time>2018-11-01T08:35:41Z</time>
      </trkpt>
      <trkpt lat="48.65433" lon="2.53744">
        <ele>134.195</ele>
        <time>2018-11-01T08:35:43Z</time>
      </trkpt>
      <trkpt lat="48.65431" lon="2.53749">
        <ele>134.21</ele>
        <time>2018-11-01T08:35:45Z</time>
      </trkpt>
      <trkpt lat="48.65428" lon="2.53752">
        <ele>134.225</ele>
        <time>2018-11-01T08:35:47Z</time>
      </trkpt>
      <trkpt lat="48.65426" lon="2.53756">
        <ele>134.241</ele>
        <time>2018-11-01T08:35:49Z</time>
      </trkpt>
      <trkpt lat="48.65424" lon="2.53758">
        <ele>134.257</ele>
        <time>2018-11-01T08:35:51Z</time>
      </trkpt>
      <trkpt lat="48.65421" lon="2.53761">
        <ele>134.273</ele>
        <time>2018-11-01T08:35:53Z</time>
      </trkpt>
      <trkpt lat="48.65417" lon="2.53766">
        <ele>134.298</ele>
        <time>2018-11-01T08:35:56Z</time>
      </trkpt>
      <trkpt lat="48.65414" lon="2.53771">
        <ele>134.323</ele>
        <time>2018-11-01T08:35:59Z</time>
      </trkpt>
      <trkpt lat="48.65412" lon="2.53775">
        <ele>134.34</ele>
        <time>2018-11-01T08:36:01Z</time>
      </trkpt>
      <trkpt lat="48.65407" lon="2.5378">
        <ele>134.365</ele>
        <time>2018-11-01T08:36:04Z</time>
      </trkpt>
      <trkpt lat="48.65403" lon="2.53785">
        <ele>134.387</ele>
        <time>2018-11-01T08:36:07Z</time>
      </trkpt>
      <trkpt lat="48.65401" lon="2.53789">
        <ele>134.401</ele>
        <time>2018-11-01T08:36:09Z</time>
      </trkpt>
      <trkpt lat="48.65398" lon="2.53793">
        <ele>134.414</ele>
        <time>2018-11-01T08:36:11Z</time>
      </trkpt>
      <trkpt lat="48.65394" lon="2.53799">
        <ele>134.433</ele>
        <time>2018-11-01T08:36:14Z</time>
      </trkpt>
      <trkpt lat="48.65392" lon="2.53803">
        <ele>134.445</ele>
        <time>2018-11-01T08:36:16Z</time>
      </trkpt>
      <trkpt lat="48.6539" lon="2.53806">
        <ele>134.454</ele>
        <time>2018-11-01T08:36:18Z</time>
      </trkpt>
      <trkpt lat="48.65385" lon="2.53811">
        <ele>134.47</ele>
        <time>2018-11-01T08:36:22Z</time>
      </trkpt>
      <trkpt lat="48.65382" lon="2.53814">
        <ele>134.473</ele>
        <time>2018-11-01T08:36:24Z</time>
      </trkpt>
      <trkpt lat="48.65382" lon="2.53814">
        <ele>86</ele>
        <time>2018-11-01T08:36:32Z</time>
      </trkpt>
      <trkpt lat="48.65382" lon="2.53814">
        <ele>86</ele>
        <time>2018-11-01T08:37:15Z</time>
      </trkpt>
      <trkpt lat="48.65366" lon="2.53828">
        <ele>134.51</ele>
        <time>2018-11-01T08:37:15Z</time>
      </trkpt>
      <trkpt lat="48.65362" lon="2.53835">
        <ele>134.518</ele>
        <time>2018-11-01T08:37:18Z</time>
      </trkpt>
      <trkpt lat="48.65359" lon="2.53839">
        <ele>134.527</ele>
        <time>2018-11-01T08:37:21Z</time>
      </trkpt>
      <trkpt lat="48.65355" lon="2.53843">
        <ele>134.535</ele>
        <time>2018-11-01T08:37:24Z</time>
      </trkpt>
      <trkpt lat="48.65353" lon="2.53846">
        <ele>134.547</ele>
        <time>2018-11-01T08:37:27Z</time>
      </trkpt>
      <trkpt lat="48.65349" lon="2.53852">
        <ele>134.565</ele>
        <time>2018-11-01T08:37:31Z</time>
      </trkpt>
      <trkpt lat="48.65348" lon="2.53854">
        <ele>134.575</ele>
        <time>2018-11-01T08:37:33Z</time>
      </trkpt>
      <trkpt lat="48.65344" lon="2.53863">
        <ele>134.604</ele>
        <time>2018-11-01T08:37:38Z</time>
      </trkpt>
      <trkpt lat="48.65342" lon="2.53868">
        <ele>134.618</ele>
        <time>2018-11-01T08:37:40Z</time>
      </trkpt>
      <trkpt lat="48.65338" lon="2.53873">
        <ele>134.64</ele>
        <time>2018-11-01T08:37:43Z</time>
      </trkpt>
      <trkpt lat="48.65334" lon="2.53879">
        <ele>134.668</ele>
        <time>2018-11-01T08:37:47Z</time>
      </trkpt>
      <trkpt lat="48.65332" lon="2.53882">
        <ele>134.681</ele>
        <time>2018-11-01T08:37:49Z</time>
      </trkpt>
      <trkpt lat="48.6533" lon="2.53885">
        <ele>134.695</ele>
        <time>2018-11-01T08:37:51Z</time>
      </trkpt>
      <trkpt lat="48.65328" lon="2.53887">
        <ele>134.709</ele>
        <time>2018-11-01T08:37:53Z</time>
      </trkpt>
      <trkpt lat="48.65326" lon="2.5389">
        <ele>134.722</ele>
        <time>2018-11-01T08:37:55Z</time>
      </trkpt>
      <trkpt lat="48.65322" lon="2.53893">
        <ele>134.741</ele>
        <time>2018-11-01T08:37:58Z</time>
      </trkpt>
      <trkpt lat="48.65318" lon="2.53898">
        <ele>134.757</ele>
        <time>2018-11-01T08:38:01Z</time>
      </trkpt>
      <trkpt lat="48.65313" lon="2.53902">
        <ele>134.781</ele>
        <time>2018-11-01T08:38:06Z</time>
      </trkpt>
      <trkpt lat="48.65308" lon="2.53904">
        <ele>134.789</ele>
        <time>2018-11-01T08:38:08Z</time>
      </trkpt>
      <trkpt lat="48.65302" lon="2.53904">
        <ele>134.8</ele>
        <time>2018-11-01T08:38:11Z</time>
      </trkpt>
      <trkpt lat="48.65299" lon="2.53904">
        <ele>134.805</ele>
        <time>2018-11-01T08:38:13Z</time>
      </trkpt>
      <trkpt lat="48.65294" lon="2.539">
        <ele>134.814</ele>
        <time>2018-11-01T08:38:17Z</time>
      </trkpt>
      <trkpt lat="48.65292" lon="2.53898">
        <ele>134.818</ele>
        <time>2018-11-01T08:38:19Z</time>
      </trkpt>
      <trkpt lat="48.65287" lon="2.53896">
        <ele>134.824</ele>
        <time>2018-11-01T08:38:22Z</time>
      </trkpt>
      <trkpt lat="48.65283" lon="2.53894">
        <ele>134.829</ele>
        <time>2018-11-01T08:38:25Z</time>
      </trkpt>
      <trkpt lat="48.65279" lon="2.5389">
        <ele>134.834</ele>
        <time>2018-11-01T08:38:28Z</time>
      </trkpt>
      <trkpt lat="48.65276" lon="2.53888">
        <ele>134.836</ele>
        <time>2018-11-01T08:38:30Z</time>
      </trkpt>
      <trkpt lat="48.65274" lon="2.53886">
        <ele>134.837</ele>
        <time>2018-11-01T08:38:32Z</time>
      </trkpt>
      <trkpt lat="48.65271" lon="2.53884">
        <ele>134.837</ele>
        <time>2018-11-01T08:38:34Z</time>
      </trkpt>
      <trkpt lat="48.65268" lon="2.53881">
        <ele>134.836</ele>
        <time>2018-11-01T08:38:36Z</time>
      </trkpt>
      <trkpt lat="48.65266" lon="2.53879">
        <ele>134.834</ele>
        <time>2018-11-01T08:38:38Z</time>
      </trkpt>
      <trkpt lat="48.65263" lon="2.53876">
        <ele>134.83</ele>
        <time>2018-11-01T08:38:40Z</time>
      </trkpt>
      <trkpt lat="48.6526" lon="2.53874">
        <ele>134.825</ele>
        <time>2018-11-01T08:38:42Z</time>
      </trkpt>
      <trkpt lat="48.65258" lon="2.53872">
        <ele>134.819</ele>
        <time>2018-11-01T08:38:44Z</time>
      </trkpt>
      <trkpt lat="48.65254" lon="2.53868">
        <ele>134.809</ele>
        <time>2018-11-01T08:38:47Z</time>
      </trkpt>
      <trkpt lat="48.6525" lon="2.53866">
        <ele>134.797</ele>
        <time>2018-11-01T08:38:50Z</time>
      </trkpt>
      <trkpt lat="48.65246" lon="2.53864">
        <ele>134.788</ele>
        <time>2018-11-01T08:38:52Z</time>
      </trkpt>
      <trkpt lat="48.65243" lon="2.53862">
        <ele>134.778</ele>
        <time>2018-11-01T08:38:54Z</time>
      </trkpt>
      <trkpt lat="48.65239" lon="2.5386">
        <ele>134.769</ele>
        <time>2018-11-01T08:38:56Z</time>
      </trkpt>
      <trkpt lat="48.65235" lon="2.53858">
        <ele>134.76</ele>
        <time>2018-11-01T08:38:58Z</time>
      </trkpt>
      <trkpt lat="48.65232" lon="2.53856">
        <ele>134.75</ele>
        <time>2018-11-01T08:39:00Z</time>
      </trkpt>
      <trkpt lat="48.65229" lon="2.53855">
        <ele>134.741</ele>
        <time>2018-11-01T08:39:02Z</time>
      </trkpt>
      <trkpt lat="48.65226" lon="2.53853">
        <ele>134.732</ele>
        <time>2018-11-01T08:39:04Z</time>
      </trkpt>
      <trkpt lat="48.65221" lon="2.5385">
        <ele>134.717</ele>
        <time>2018-11-01T08:39:07Z</time>
      </trkpt>
      <trkpt lat="48.65216" lon="2.53845">
        <ele>134.701</ele>
        <time>2018-11-01T08:39:10Z</time>
      </trkpt>
      <trkpt lat="48.65214" lon="2.53843">
        <ele>134.69</ele>
        <time>2018-11-01T08:39:12Z</time>
      </trkpt>
      <trkpt lat="48.65211" lon="2.5384">
        <ele>134.679</ele>
        <time>2018-11-01T08:39:14Z</time>
      </trkpt>
      <trkpt lat="48.65208" lon="2.53838">
        <ele>134.668</ele>
        <time>2018-11-01T08:39:16Z</time>
      </trkpt>
      <trkpt lat="48.65205" lon="2.53836">
        <ele>134.656</ele>
        <time>2018-11-01T08:39:18Z</time>
      </trkpt>
      <trkpt lat="48.65202" lon="2.53833">
        <ele>134.644</ele>
        <time>2018-11-01T08:39:20Z</time>
      </trkpt>
      <trkpt lat="48.65198" lon="2.5383">
        <ele>134.624</ele>
        <time>2018-11-01T08:39:23Z</time>
      </trkpt>
      <trkpt lat="48.65193" lon="2.53828">
        <ele>134.604</ele>
        <time>2018-11-01T08:39:26Z</time>
      </trkpt>
      <trkpt lat="48.6519" lon="2.53826">
        <ele>134.591</ele>
        <time>2018-11-01T08:39:28Z</time>
      </trkpt>
      <trkpt lat="48.65186" lon="2.53823">
        <ele>134.569</ele>
        <time>2018-11-01T08:39:31Z</time>
      </trkpt>
      <trkpt lat="48.65181" lon="2.53817">
        <ele>134.541</ele>
        <time>2018-11-01T08:39:35Z</time>
      </trkpt>
      <trkpt lat="48.65179" lon="2.53815">
        <ele>134.527</ele>
        <time>2018-11-01T08:39:37Z</time>
      </trkpt>
      <trkpt lat="48.65174" lon="2.53811">
        <ele>134.506</ele>
        <time>2018-11-01T08:39:40Z</time>
      </trkpt>
      <trkpt lat="48.65171" lon="2.53808">
        <ele>134.493</ele>
        <time>2018-11-01T08:39:42Z</time>
      </trkpt>
      <trkpt lat="48.65166" lon="2.53805">
        <ele>134.469</ele>
        <time>2018-11-01T08:39:46Z</time>
      </trkpt>
      <trkpt lat="48.65162" lon="2.53802">
        <ele>134.457</ele>
        <time>2018-11-01T08:39:48Z</time>
      </trkpt>
      <trkpt lat="48.65159" lon="2.538">
        <ele>134.447</ele>
        <time>2018-11-01T08:39:50Z</time>
      </trkpt>
      <trkpt lat="48.65155" lon="2.53798">
        <ele>134.437</ele>
        <time>2018-11-01T08:39:52Z</time>
      </trkpt>
      <trkpt lat="48.65152" lon="2.53795">
        <ele>134.429</ele>
        <time>2018-11-01T08:39:54Z</time>
      </trkpt>
      <trkpt lat="48.65148" lon="2.53791">
        <ele>134.417</ele>
        <time>2018-11-01T08:39:57Z</time>
      </trkpt>
      <trkpt lat="48.65146" lon="2.53789">
        <ele>134.409</ele>
        <time>2018-11-01T08:39:59Z</time>
      </trkpt>
      <trkpt lat="48.65143" lon="2.53787">
        <ele>134.401</ele>
        <time>2018-11-01T08:40:01Z</time>
      </trkpt>
      <trkpt lat="48.65139" lon="2.53783">
        <ele>134.384</ele>
        <time>2018-11-01T08:40:05Z</time>
      </trkpt>
      <trkpt lat="48.65135" lon="2.53781">
        <ele>134.369</ele>
        <time>2018-11-01T08:40:08Z</time>
      </trkpt>
      <trkpt lat="48.6513" lon="2.53778">
        <ele>134.354</ele>
        <time>2018-11-01T08:40:11Z</time>
      </trkpt>
      <trkpt lat="48.65127" lon="2.53776">
        <ele>134.344</ele>
        <time>2018-11-01T08:40:13Z</time>
      </trkpt>
      <trkpt lat="48.65124" lon="2.53774">
        <ele>134.334</ele>
        <time>2018-11-01T08:40:15Z</time>
      </trkpt>
      <trkpt lat="48.65118" lon="2.53771">
        <ele>134.317</ele>
        <time>2018-11-01T08:40:18Z</time>
      </trkpt>
      <trkpt lat="48.65113" lon="2.53768">
        <ele>134.302</ele>
        <time>2018-11-01T08:40:21Z</time>
      </trkpt>
      <trkpt lat="48.65109" lon="2.53763">
        <ele>134.288</ele>
        <time>2018-11-01T08:40:24Z</time>
      </trkpt>
      <trkpt lat="48.65105" lon="2.5376">
        <ele>134.275</ele>
        <time>2018-11-01T08:40:27Z</time>
      </trkpt>
      <trkpt lat="48.65102" lon="2.53758">
        <ele>134.266</ele>
        <time>2018-11-01T08:40:29Z</time>
      </trkpt>
      <trkpt lat="48.65099" lon="2.53756">
        <ele>134.257</ele>
        <time>2018-11-01T08:40:31Z</time>
      </trkpt>
      <trkpt lat="48.65097" lon="2.53754">
        <ele>134.248</ele>
        <time>2018-11-01T08:40:33Z</time>
      </trkpt>
      <trkpt lat="48.65092" lon="2.53752">
        <ele>134.235</ele>
        <time>2018-11-01T08:40:36Z</time>
      </trkpt>
      <trkpt lat="48.65087" lon="2.53747">
        <ele>134.216</ele>
        <time>2018-11-01T08:40:40Z</time>
      </trkpt>
      <trkpt lat="48.65083" lon="2.53744">
        <ele>134.203</ele>
        <time>2018-11-01T08:40:43Z</time>
      </trkpt>
      <trkpt lat="48.65077" lon="2.53742">
        <ele>134.19</ele>
        <time>2018-11-01T08:40:46Z</time>
      </trkpt>
      <trkpt lat="48.65074" lon="2.53742">
        <ele>134.181</ele>
        <time>2018-11-01T08:40:48Z</time>
      </trkpt>
      <trkpt lat="48.6507" lon="2.53738">
        <ele>134.167</ele>
        <time>2018-11-01T08:40:51Z</time>
      </trkpt>
      <trkpt lat="48.65067" lon="2.53736">
        <ele>134.158</ele>
        <time>2018-11-01T08:40:53Z</time>
      </trkpt>
      <trkpt lat="48.65065" lon="2.53734">
        <ele>134.148</ele>
        <time>2018-11-01T08:40:55Z</time>
      </trkpt>
      <trkpt lat="48.65061" lon="2.5373">
        <ele>134.134</ele>
        <time>2018-11-01T08:40:58Z</time>
      </trkpt>
      <trkpt lat="48.65057" lon="2.53726">
        <ele>134.12</ele>
        <time>2018-11-01T08:41:01Z</time>
      </trkpt>
      <trkpt lat="48.65053" lon="2.53722">
        <ele>134.105</ele>
        <time>2018-11-01T08:41:04Z</time>
      </trkpt>
      <trkpt lat="48.65048" lon="2.53716">
        <ele>134.085</ele>
        <time>2018-11-01T08:41:08Z</time>
      </trkpt>
      <trkpt lat="48.65046" lon="2.53714">
        <ele>134.073</ele>
        <time>2018-11-01T08:41:10Z</time>
      </trkpt>
      <trkpt lat="48.65042" lon="2.53709">
        <ele>134.05</ele>
        <time>2018-11-01T08:41:14Z</time>
      </trkpt>
      <trkpt lat="48.65036" lon="2.53706">
        <ele>134.028</ele>
        <time>2018-11-01T08:41:18Z</time>
      </trkpt>
      <trkpt lat="48.65033" lon="2.53704">
        <ele>134.017</ele>
        <time>2018-11-01T08:41:20Z</time>
      </trkpt>
      <trkpt lat="48.65031" lon="2.53703">
        <ele>134.006</ele>
        <time>2018-11-01T08:41:22Z</time>
      </trkpt>
      <trkpt lat="48.65028" lon="2.53701">
        <ele>133.995</ele>
        <time>2018-11-01T08:41:24Z</time>
      </trkpt>
      <trkpt lat="48.65025" lon="2.537">
        <ele>133.984</ele>
        <time>2018-11-01T08:41:26Z</time>
      </trkpt>
      <trkpt lat="48.65022" lon="2.53698">
        <ele>133.97</ele>
        <time>2018-11-01T08:41:30Z</time>
      </trkpt>
      <trkpt lat="48.65018" lon="2.53695">
        <ele>133.948</ele>
        <time>2018-11-01T08:41:37Z</time>
      </trkpt>
      <trkpt lat="48.65013" lon="2.53692">
        <ele>133.939</ele>
        <time>2018-11-01T08:41:40Z</time>
      </trkpt>
      <trkpt lat="48.65009" lon="2.53687">
        <ele>133.931</ele>
        <time>2018-11-01T08:41:44Z</time>
      </trkpt>
      <trkpt lat="48.65004" lon="2.5369">
        <ele>133.928</ele>
        <time>2018-11-01T08:41:55Z</time>
      </trkpt>
      <trkpt lat="48.64998" lon="2.53691">
        <ele>133.933</ele>
        <time>2018-11-01T08:42:01Z</time>
      </trkpt>
      <trkpt lat="48.64993" lon="2.53688">
        <ele>133.939</ele>
        <time>2018-11-01T08:42:05Z</time>
      </trkpt>
      <trkpt lat="48.64989" lon="2.53683">
        <ele>133.944</ele>
        <time>2018-11-01T08:42:08Z</time>
      </trkpt>
      <trkpt lat="48.64986" lon="2.53681">
        <ele>133.948</ele>
        <time>2018-11-01T08:42:10Z</time>
      </trkpt>
      <trkpt lat="48.64983" lon="2.53678">
        <ele>133.951</ele>
        <time>2018-11-01T08:42:12Z</time>
      </trkpt>
      <trkpt lat="48.6498" lon="2.53675">
        <ele>133.954</ele>
        <time>2018-11-01T08:42:14Z</time>
      </trkpt>
      <trkpt lat="48.64978" lon="2.53672">
        <ele>133.956</ele>
        <time>2018-11-01T08:42:16Z</time>
      </trkpt>
      <trkpt lat="48.64976" lon="2.53669">
        <ele>133.957</ele>
        <time>2018-11-01T08:42:18Z</time>
      </trkpt>
      <trkpt lat="48.64972" lon="2.53665">
        <ele>133.958</ele>
        <time>2018-11-01T08:42:22Z</time>
      </trkpt>
      <trkpt lat="48.64967" lon="2.53662">
        <ele>133.957</ele>
        <time>2018-11-01T08:42:25Z</time>
      </trkpt>
      <trkpt lat="48.64964" lon="2.5366">
        <ele>133.955</ele>
        <time>2018-11-01T08:42:27Z</time>
      </trkpt>
      <trkpt lat="48.64961" lon="2.53658">
        <ele>133.954</ele>
        <time>2018-11-01T08:42:29Z</time>
      </trkpt>
      <trkpt lat="48.64957" lon="2.53655">
        <ele>133.95</ele>
        <time>2018-11-01T08:42:32Z</time>
      </trkpt>
      <trkpt lat="48.64952" lon="2.53652">
        <ele>133.947</ele>
        <time>2018-11-01T08:42:35Z</time>
      </trkpt>
      <trkpt lat="48.6495" lon="2.53649">
        <ele>133.945</ele>
        <time>2018-11-01T08:42:37Z</time>
      </trkpt>
      <trkpt lat="48.64948" lon="2.53647">
        <ele>133.944</ele>
        <time>2018-11-01T08:42:39Z</time>
      </trkpt>
      <trkpt lat="48.64945" lon="2.53645">
        <ele>133.942</ele>
        <time>2018-11-01T08:42:41Z</time>
      </trkpt>
      <trkpt lat="48.64942" lon="2.53642">
        <ele>133.941</ele>
        <time>2018-11-01T08:42:43Z</time>
      </trkpt>
      <trkpt lat="48.64938" lon="2.53638">
        <ele>133.941</ele>
        <time>2018-11-01T08:42:46Z</time>
      </trkpt>
      <trkpt lat="48.64935" lon="2.53636">
        <ele>133.941</ele>
        <time>2018-11-01T08:42:48Z</time>
      </trkpt>
      <trkpt lat="48.6493" lon="2.53633">
        <ele>133.942</ele>
        <time>2018-11-01T08:42:51Z</time>
      </trkpt>
      <trkpt lat="48.64927" lon="2.53631">
        <ele>133.943</ele>
        <time>2018-11-01T08:42:53Z</time>
      </trkpt>
      <trkpt lat="48.64924" lon="2.53628">
        <ele>133.944</ele>
        <time>2018-11-01T08:42:55Z</time>
      </trkpt>
      <trkpt lat="48.64921" lon="2.53626">
        <ele>133.946</ele>
        <time>2018-11-01T08:42:57Z</time>
      </trkpt>
      <trkpt lat="48.64918" lon="2.53624">
        <ele>133.947</ele>
        <time>2018-11-01T08:42:59Z</time>
      </trkpt>
      <trkpt lat="48.64914" lon="2.53619">
        <ele>133.949</ele>
        <time>2018-11-01T08:43:03Z</time>
      </trkpt>
      <trkpt lat="48.64909" lon="2.53615">
        <ele>133.948</ele>
        <time>2018-11-01T08:43:07Z</time>
      </trkpt>
      <trkpt lat="48.64906" lon="2.53613">
        <ele>133.947</ele>
        <time>2018-11-01T08:43:09Z</time>
      </trkpt>
      <trkpt lat="48.64901" lon="2.53611">
        <ele>133.946</ele>
        <time>2018-11-01T08:43:12Z</time>
      </trkpt>
      <trkpt lat="48.64898" lon="2.53609">
        <ele>133.946</ele>
        <time>2018-11-01T08:43:14Z</time>
      </trkpt>
      <trkpt lat="48.64892" lon="2.53604">
        <ele>133.947</ele>
        <time>2018-11-01T08:43:18Z</time>
      </trkpt>
      <trkpt lat="48.64889" lon="2.53601">
        <ele>133.948</ele>
        <time>2018-11-01T08:43:21Z</time>
      </trkpt>
      <trkpt lat="48.64886" lon="2.53598">
        <ele>133.948</ele>
        <time>2018-11-01T08:43:23Z</time>
      </trkpt>
      <trkpt lat="48.64883" lon="2.53596">
        <ele>133.949</ele>
        <time>2018-11-01T08:43:25Z</time>
      </trkpt>
      <trkpt lat="48.6488" lon="2.53594">
        <ele>133.95</ele>
        <time>2018-11-01T08:43:27Z</time>
      </trkpt>
      <trkpt lat="48.64877" lon="2.53592">
        <ele>133.953</ele>
        <time>2018-11-01T08:43:29Z</time>
      </trkpt>
      <trkpt lat="48.64873" lon="2.53589">
        <ele>133.955</ele>
        <time>2018-11-01T08:43:31Z</time>
      </trkpt>
      <trkpt lat="48.64869" lon="2.53586">
        <ele>133.959</ele>
        <time>2018-11-01T08:43:34Z</time>
      </trkpt>
      <trkpt lat="48.64864" lon="2.53583">
        <ele>133.962</ele>
        <time>2018-11-01T08:43:37Z</time>
      </trkpt>
      <trkpt lat="48.64861" lon="2.53581">
        <ele>133.964</ele>
        <time>2018-11-01T08:43:39Z</time>
      </trkpt>
      <trkpt lat="48.64856" lon="2.53578">
        <ele>133.968</ele>
        <time>2018-11-01T08:43:42Z</time>
      </trkpt>
      <trkpt lat="48.64853" lon="2.53576">
        <ele>133.971</ele>
        <time>2018-11-01T08:43:44Z</time>
      </trkpt>
      <trkpt lat="48.6485" lon="2.53574">
        <ele>133.975</ele>
        <time>2018-11-01T08:43:46Z</time>
      </trkpt>
      <trkpt lat="48.64848" lon="2.53572">
        <ele>133.98</ele>
        <time>2018-11-01T08:43:48Z</time>
      </trkpt>
      <trkpt lat="48.64842" lon="2.53568">
        <ele>133.991</ele>
        <time>2018-11-01T08:43:52Z</time>
      </trkpt>
      <trkpt lat="48.64839" lon="2.53566">
        <ele>133.997</ele>
        <time>2018-11-01T08:43:54Z</time>
      </trkpt>
      <trkpt lat="48.64837" lon="2.53565">
        <ele>134.003</ele>
        <time>2018-11-01T08:43:56Z</time>
      </trkpt>
      <trkpt lat="48.64833" lon="2.53563">
        <ele>134.008</ele>
        <time>2018-11-01T08:43:58Z</time>
      </trkpt>
      <trkpt lat="48.6483" lon="2.53561">
        <ele>134.013</ele>
        <time>2018-11-01T08:44:00Z</time>
      </trkpt>
      <trkpt lat="48.64826" lon="2.53557">
        <ele>134.02</ele>
        <time>2018-11-01T08:44:03Z</time>
      </trkpt>
      <trkpt lat="48.64824" lon="2.53554">
        <ele>134.024</ele>
        <time>2018-11-01T08:44:05Z</time>
      </trkpt>
      <trkpt lat="48.64821" lon="2.53551">
        <ele>134.027</ele>
        <time>2018-11-01T08:44:07Z</time>
      </trkpt>
      <trkpt lat="48.64817" lon="2.53546">
        <ele>134.034</ele>
        <time>2018-11-01T08:44:11Z</time>
      </trkpt>
      <trkpt lat="48.64812" lon="2.53542">
        <ele>134.039</ele>
        <time>2018-11-01T08:44:15Z</time>
      </trkpt>
      <trkpt lat="48.64809" lon="2.5354">
        <ele>134.04</ele>
        <time>2018-11-01T08:44:17Z</time>
      </trkpt>
      <trkpt lat="48.64804" lon="2.53538">
        <ele>134.041</ele>
        <time>2018-11-01T08:44:20Z</time>
      </trkpt>
      <trkpt lat="48.64801" lon="2.53536">
        <ele>134.041</ele>
        <time>2018-11-01T08:44:22Z</time>
      </trkpt>
      <trkpt lat="48.64798" lon="2.53533">
        <ele>134.04</ele>
        <time>2018-11-01T08:44:24Z</time>
      </trkpt>
      <trkpt lat="48.64794" lon="2.53531">
        <ele>134.039</ele>
        <time>2018-11-01T08:44:26Z</time>
      </trkpt>
      <trkpt lat="48.64789" lon="2.53526">
        <ele>134.037</ele>
        <time>2018-11-01T08:44:29Z</time>
      </trkpt>
      <trkpt lat="48.64783" lon="2.53521">
        <ele>134.035</ele>
        <time>2018-11-01T08:44:32Z</time>
      </trkpt>
      <trkpt lat="48.6478" lon="2.53518">
        <ele>134.033</ele>
        <time>2018-11-01T08:44:34Z</time>
      </trkpt>
      <trkpt lat="48.64775" lon="2.53515">
        <ele>134.028</ele>
        <time>2018-11-01T08:44:38Z</time>
      </trkpt>
      <trkpt lat="48.64771" lon="2.53511">
        <ele>134.023</ele>
        <time>2018-11-01T08:44:42Z</time>
      </trkpt>
      <trkpt lat="48.64766" lon="2.53507">
        <ele>134.016</ele>
        <time>2018-11-01T08:44:46Z</time>
      </trkpt>
      <trkpt lat="48.64763" lon="2.53505">
        <ele>134.011</ele>
        <time>2018-11-01T08:44:48Z</time>
      </trkpt>
      <trkpt lat="48.64759" lon="2.53503">
        <ele>134.004</ele>
        <time>2018-11-01T08:44:51Z</time>
      </trkpt>
      <trkpt lat="48.64754" lon="2.535">
        <ele>133.995</ele>
        <time>2018-11-01T08:44:54Z</time>
      </trkpt>
      <trkpt lat="48.64749" lon="2.53497">
        <ele>133.985</ele>
        <time>2018-11-01T08:44:57Z</time>
      </trkpt>
      <trkpt lat="48.64746" lon="2.53495">
        <ele>133.977</ele>
        <time>2018-11-01T08:44:59Z</time>
      </trkpt>
      <trkpt lat="48.6474" lon="2.53491">
        <ele>133.964</ele>
        <time>2018-11-01T08:45:02Z</time>
      </trkpt>
      <trkpt lat="48.64738" lon="2.53489">
        <ele>133.955</ele>
        <time>2018-11-01T08:45:04Z</time>
      </trkpt>
      <trkpt lat="48.64735" lon="2.53487">
        <ele>133.946</ele>
        <time>2018-11-01T08:45:06Z</time>
      </trkpt>
      <trkpt lat="48.64731" lon="2.53484">
        <ele>133.932</ele>
        <time>2018-11-01T08:45:09Z</time>
      </trkpt>
      <trkpt lat="48.64726" lon="2.5348">
        <ele>133.91</ele>
        <time>2018-11-01T08:45:13Z</time>
      </trkpt>
      <trkpt lat="48.64722" lon="2.53477">
        <ele>133.891</ele>
        <time>2018-11-01T08:45:16Z</time>
      </trkpt>
      <trkpt lat="48.64718" lon="2.53476">
        <ele>133.878</ele>
        <time>2018-11-01T08:45:18Z</time>
      </trkpt>
      <trkpt lat="48.64715" lon="2.53474">
        <ele>133.864</ele>
        <time>2018-11-01T08:45:20Z</time>
      </trkpt>
      <trkpt lat="48.64712" lon="2.53472">
        <ele>133.85</ele>
        <time>2018-11-01T08:45:22Z</time>
      </trkpt>
      <trkpt lat="48.64706" lon="2.53469">
        <ele>133.822</ele>
        <time>2018-11-01T08:45:26Z</time>
      </trkpt>
      <trkpt lat="48.64702" lon="2.53465">
        <ele>133.802</ele>
        <time>2018-11-01T08:45:29Z</time>
      </trkpt>
      <trkpt lat="48.64698" lon="2.53462">
        <ele>133.789</ele>
        <time>2018-11-01T08:45:31Z</time>
      </trkpt>
      <trkpt lat="48.64694" lon="2.53459">
        <ele>133.771</ele>
        <time>2018-11-01T08:45:34Z</time>
      </trkpt>
      <trkpt lat="48.6469" lon="2.53455">
        <ele>133.754</ele>
        <time>2018-11-01T08:45:37Z</time>
      </trkpt>
      <trkpt lat="48.64685" lon="2.53451">
        <ele>133.73</ele>
        <time>2018-11-01T08:45:41Z</time>
      </trkpt>
      <trkpt lat="48.6468" lon="2.5345">
        <ele>133.712</ele>
        <time>2018-11-01T08:45:44Z</time>
      </trkpt>
      <trkpt lat="48.64675" lon="2.5345">
        <ele>133.691</ele>
        <time>2018-11-01T08:45:47Z</time>
      </trkpt>
      <trkpt lat="48.64669" lon="2.53451">
        <ele>133.669</ele>
        <time>2018-11-01T08:45:50Z</time>
      </trkpt>
      <trkpt lat="48.64665" lon="2.53455">
        <ele>133.649</ele>
        <time>2018-11-01T08:45:53Z</time>
      </trkpt>
      <trkpt lat="48.64661" lon="2.53461">
        <ele>133.632</ele>
        <time>2018-11-01T08:45:56Z</time>
      </trkpt>
      <trkpt lat="48.64657" lon="2.53465">
        <ele>133.616</ele>
        <time>2018-11-01T08:45:59Z</time>
      </trkpt>
      <trkpt lat="48.64653" lon="2.53468">
        <ele>133.603</ele>
        <time>2018-11-01T08:46:02Z</time>
      </trkpt>
      <trkpt lat="48.6465" lon="2.53472">
        <ele>133.591</ele>
        <time>2018-11-01T08:46:05Z</time>
      </trkpt>
      <trkpt lat="48.64647" lon="2.53474">
        <ele>133.584</ele>
        <time>2018-11-01T08:46:07Z</time>
      </trkpt>
      <trkpt lat="48.64645" lon="2.53477">
        <ele>133.577</ele>
        <time>2018-11-01T08:46:09Z</time>
      </trkpt>
      <trkpt lat="48.64643" lon="2.5348">
        <ele>133.571</ele>
        <time>2018-11-01T08:46:11Z</time>
      </trkpt>
      <trkpt lat="48.64641" lon="2.53482">
        <ele>133.565</ele>
        <time>2018-11-01T08:46:13Z</time>
      </trkpt>
      <trkpt lat="48.64639" lon="2.53484">
        <ele>133.56</ele>
        <time>2018-11-01T08:46:15Z</time>
      </trkpt>
      <trkpt lat="48.64634" lon="2.53488">
        <ele>133.549</ele>
        <time>2018-11-01T08:46:19Z</time>
      </trkpt>
      <trkpt lat="48.64631" lon="2.5349">
        <ele>133.544</ele>
        <time>2018-11-01T08:46:21Z</time>
      </trkpt>
      <trkpt lat="48.64627" lon="2.53497">
        <ele>133.538</ele>
        <time>2018-11-01T08:46:24Z</time>
      </trkpt>
      <trkpt lat="48.64622" lon="2.53501">
        <ele>133.533</ele>
        <time>2018-11-01T08:46:27Z</time>
      </trkpt>
      <trkpt lat="48.6462" lon="2.53505">
        <ele>133.532</ele>
        <time>2018-11-01T08:46:29Z</time>
      </trkpt>
      <trkpt lat="48.64615" lon="2.5351">
        <ele>133.532</ele>
        <time>2018-11-01T08:46:32Z</time>
      </trkpt>
      <trkpt lat="48.6461" lon="2.53515">
        <ele>133.535</ele>
        <time>2018-11-01T08:46:35Z</time>
      </trkpt>
      <trkpt lat="48.64606" lon="2.53518">
        <ele>133.539</ele>
        <time>2018-11-01T08:46:37Z</time>
      </trkpt>
      <trkpt lat="48.64604" lon="2.5352">
        <ele>133.543</ele>
        <time>2018-11-01T08:46:39Z</time>
      </trkpt>
      <trkpt lat="48.64601" lon="2.53523">
        <ele>133.549</ele>
        <time>2018-11-01T08:46:41Z</time>
      </trkpt>
      <trkpt lat="48.64597" lon="2.53526">
        <ele>133.559</ele>
        <time>2018-11-01T08:46:44Z</time>
      </trkpt>
      <trkpt lat="48.64592" lon="2.53529">
        <ele>133.571</ele>
        <time>2018-11-01T08:46:47Z</time>
      </trkpt>
      <trkpt lat="48.6459" lon="2.53532">
        <ele>133.579</ele>
        <time>2018-11-01T08:46:49Z</time>
      </trkpt>
      <trkpt lat="48.64586" lon="2.53538">
        <ele>133.597</ele>
        <time>2018-11-01T08:46:53Z</time>
      </trkpt>
      <trkpt lat="48.64584" lon="2.53542">
        <ele>133.608</ele>
        <time>2018-11-01T08:46:55Z</time>
      </trkpt>
      <trkpt lat="48.64582" lon="2.53547">
        <ele>133.62</ele>
        <time>2018-11-01T08:46:57Z</time>
      </trkpt>
      <trkpt lat="48.64578" lon="2.53551">
        <ele>133.64</ele>
        <time>2018-11-01T08:47:00Z</time>
      </trkpt>
      <trkpt lat="48.64575" lon="2.53554">
        <ele>133.653</ele>
        <time>2018-11-01T08:47:02Z</time>
      </trkpt>
      <trkpt lat="48.64573" lon="2.53558">
        <ele>133.667</ele>
        <time>2018-11-01T08:47:04Z</time>
      </trkpt>
      <trkpt lat="48.6457" lon="2.5356">
        <ele>133.682</ele>
        <time>2018-11-01T08:47:06Z</time>
      </trkpt>
      <trkpt lat="48.64568" lon="2.53563">
        <ele>133.698</ele>
        <time>2018-11-01T08:47:08Z</time>
      </trkpt>
      <trkpt lat="48.64563" lon="2.53567">
        <ele>133.722</ele>
        <time>2018-11-01T08:47:11Z</time>
      </trkpt>
      <trkpt lat="48.64559" lon="2.53572">
        <ele>133.746</ele>
        <time>2018-11-01T08:47:14Z</time>
      </trkpt>
      <trkpt lat="48.64556" lon="2.53575">
        <ele>133.762</ele>
        <time>2018-11-01T08:47:16Z</time>
      </trkpt>
      <trkpt lat="48.64554" lon="2.53577">
        <ele>133.778</ele>
        <time>2018-11-01T08:47:18Z</time>
      </trkpt>
      <trkpt lat="48.6455" lon="2.53584">
        <ele>133.806</ele>
        <time>2018-11-01T08:47:22Z</time>
      </trkpt>
      <trkpt lat="48.64547" lon="2.53588">
        <ele>133.82</ele>
        <time>2018-11-01T08:47:24Z</time>
      </trkpt>
      <trkpt lat="48.64544" lon="2.53591">
        <ele>133.832</ele>
        <time>2018-11-01T08:47:26Z</time>
      </trkpt>
      <trkpt lat="48.64542" lon="2.53594">
        <ele>133.843</ele>
        <time>2018-11-01T08:47:28Z</time>
      </trkpt>
      <trkpt lat="48.64538" lon="2.53599">
        <ele>133.872</ele>
        <time>2018-11-01T08:47:33Z</time>
      </trkpt>
      <trkpt lat="48.64536" lon="2.53602">
        <ele>133.883</ele>
        <time>2018-11-01T08:47:35Z</time>
      </trkpt>
      <trkpt lat="48.64534" lon="2.53606">
        <ele>133.893</ele>
        <time>2018-11-01T08:47:37Z</time>
      </trkpt>
      <trkpt lat="48.6453" lon="2.5361">
        <ele>133.9</ele>
        <time>2018-11-01T08:47:39Z</time>
      </trkpt>
      <trkpt lat="48.64526" lon="2.53617">
        <ele>133.911</ele>
        <time>2018-11-01T08:47:43Z</time>
      </trkpt>
      <trkpt lat="48.64525" lon="2.5362">
        <ele>133.915</ele>
        <time>2018-11-01T08:47:45Z</time>
      </trkpt>
      <trkpt lat="48.64523" lon="2.53624">
        <ele>133.918</ele>
        <time>2018-11-01T08:47:47Z</time>
      </trkpt>
      <trkpt lat="48.64518" lon="2.53631">
        <ele>133.921</ele>
        <time>2018-11-01T08:47:50Z</time>
      </trkpt>
      <trkpt lat="48.64516" lon="2.53635">
        <ele>133.922</ele>
        <time>2018-11-01T08:47:52Z</time>
      </trkpt>
      <trkpt lat="48.64513" lon="2.53638">
        <ele>133.923</ele>
        <time>2018-11-01T08:47:54Z</time>
      </trkpt>
      <trkpt lat="48.64509" lon="2.53643">
        <ele>133.924</ele>
        <time>2018-11-01T08:47:57Z</time>
      </trkpt>
      <trkpt lat="48.64507" lon="2.53646">
        <ele>133.925</ele>
        <time>2018-11-01T08:47:59Z</time>
      </trkpt>
      <trkpt lat="48.64505" lon="2.53648">
        <ele>133.925</ele>
        <time>2018-11-01T08:48:01Z</time>
      </trkpt>
      <trkpt lat="48.64502" lon="2.53652">
        <ele>133.923</ele>
        <time>2018-11-01T08:48:04Z</time>
      </trkpt>
      <trkpt lat="48.64498" lon="2.53656">
        <ele>133.92</ele>
        <time>2018-11-01T08:48:07Z</time>
      </trkpt>
      <trkpt lat="48.64495" lon="2.53658">
        <ele>133.916</ele>
        <time>2018-11-01T08:48:09Z</time>
      </trkpt>
      <trkpt lat="48.64493" lon="2.5366">
        <ele>133.911</ele>
        <time>2018-11-01T08:48:11Z</time>
      </trkpt>
      <trkpt lat="48.6449" lon="2.53663">
        <ele>133.906</ele>
        <time>2018-11-01T08:48:13Z</time>
      </trkpt>
      <trkpt lat="48.64487" lon="2.53665">
        <ele>133.899</ele>
        <time>2018-11-01T08:48:15Z</time>
      </trkpt>
      <trkpt lat="48.64484" lon="2.53668">
        <ele>133.891</ele>
        <time>2018-11-01T08:48:17Z</time>
      </trkpt>
      <trkpt lat="48.64479" lon="2.53673">
        <ele>133.871</ele>
        <time>2018-11-01T08:48:21Z</time>
      </trkpt>
      <trkpt lat="48.64477" lon="2.53675">
        <ele>133.859</ele>
        <time>2018-11-01T08:48:23Z</time>
      </trkpt>
      <trkpt lat="48.64474" lon="2.53677">
        <ele>133.847</ele>
        <time>2018-11-01T08:48:25Z</time>
      </trkpt>
      <trkpt lat="48.64471" lon="2.5368">
        <ele>133.835</ele>
        <time>2018-11-01T08:48:27Z</time>
      </trkpt>
      <trkpt lat="48.64469" lon="2.53682">
        <ele>133.822</ele>
        <time>2018-11-01T08:48:29Z</time>
      </trkpt>
      <trkpt lat="48.64465" lon="2.53687">
        <ele>133.796</ele>
        <time>2018-11-01T08:48:33Z</time>
      </trkpt>
      <trkpt lat="48.64463" lon="2.5369">
        <ele>133.782</ele>
        <time>2018-11-01T08:48:35Z</time>
      </trkpt>
      <trkpt lat="48.64459" lon="2.53694">
        <ele>133.761</ele>
        <time>2018-11-01T08:48:38Z</time>
      </trkpt>
      <trkpt lat="48.64456" lon="2.53698">
        <ele>133.746</ele>
        <time>2018-11-01T08:48:40Z</time>
      </trkpt>
      <trkpt lat="48.64454" lon="2.53701">
        <ele>133.732</ele>
        <time>2018-11-01T08:48:42Z</time>
      </trkpt>
      <trkpt lat="48.64451" lon="2.53704">
        <ele>133.719</ele>
        <time>2018-11-01T08:48:44Z</time>
      </trkpt>
      <trkpt lat="48.64447" lon="2.53711">
        <ele>133.694</ele>
        <time>2018-11-01T08:48:48Z</time>
      </trkpt>
      <trkpt lat="48.64444" lon="2.53715">
        <ele>133.682</ele>
        <time>2018-11-01T08:48:50Z</time>
      </trkpt>
      <trkpt lat="48.64441" lon="2.53719">
        <ele>133.667</ele>
        <time>2018-11-01T08:48:53Z</time>
      </trkpt>
      <trkpt lat="48.64439" lon="2.53722">
        <ele>133.659</ele>
        <time>2018-11-01T08:48:55Z</time>
      </trkpt>
      <trkpt lat="48.64437" lon="2.53726">
        <ele>133.651</ele>
        <time>2018-11-01T08:48:57Z</time>
      </trkpt>
      <trkpt lat="48.64434" lon="2.53732">
        <ele>133.64</ele>
        <time>2018-11-01T08:49:00Z</time>
      </trkpt>
      <trkpt lat="48.6443" lon="2.53738">
        <ele>133.628</ele>
        <time>2018-11-01T08:49:03Z</time>
      </trkpt>
      <trkpt lat="48.64428" lon="2.53744">
        <ele>133.615</ele>
        <time>2018-11-01T08:49:07Z</time>
      </trkpt>
      <trkpt lat="48.64426" lon="2.53748">
        <ele>133.61</ele>
        <time>2018-11-01T08:49:09Z</time>
      </trkpt>
      <trkpt lat="48.64423" lon="2.53753">
        <ele>133.604</ele>
        <time>2018-11-01T08:49:12Z</time>
      </trkpt>
      <trkpt lat="48.64418" lon="2.53758">
        <ele>133.596</ele>
        <time>2018-11-01T08:49:16Z</time>
      </trkpt>
      <trkpt lat="48.64415" lon="2.53764">
        <ele>133.59</ele>
        <time>2018-11-01T08:49:19Z</time>
      </trkpt>
      <trkpt lat="48.64411" lon="2.53768">
        <ele>133.586</ele>
        <time>2018-11-01T08:49:21Z</time>
      </trkpt>
      <trkpt lat="48.64406" lon="2.53779">
        <ele>133.578</ele>
        <time>2018-11-01T08:49:26Z</time>
      </trkpt>
      <trkpt lat="48.64405" lon="2.53783">
        <ele>133.576</ele>
        <time>2018-11-01T08:49:27Z</time>
      </trkpt>
      <trkpt lat="48.644" lon="2.53781">
        <ele>133.571</ele>
        <time>2018-11-01T08:49:30Z</time>
      </trkpt>
      <trkpt lat="48.64395" lon="2.53787">
        <ele>133.564</ele>
        <time>2018-11-01T08:49:33Z</time>
      </trkpt>
      <trkpt lat="48.6439" lon="2.5379">
        <ele>133.554</ele>
        <time>2018-11-01T08:49:36Z</time>
      </trkpt>
      <trkpt lat="48.64388" lon="2.53792">
        <ele>133.547</ele>
        <time>2018-11-01T08:49:38Z</time>
      </trkpt>
      <trkpt lat="48.64388" lon="2.53792">
        <ele>84.4</ele>
        <time>2018-11-01T08:49:43Z</time>
      </trkpt>
      <trkpt lat="48.64388" lon="2.53792">
        <ele>84.4</ele>
        <time>2018-11-01T08:50:40Z</time>
      </trkpt>
      <trkpt lat="48.6437" lon="2.53817">
        <ele>133.584</ele>
        <time>2018-11-01T08:50:40Z</time>
      </trkpt>
      <trkpt lat="48.64367" lon="2.5382">
        <ele>133.591</ele>
        <time>2018-11-01T08:50:42Z</time>
      </trkpt>
      <trkpt lat="48.64364" lon="2.53824">
        <ele>133.597</ele>
        <time>2018-11-01T08:50:44Z</time>
      </trkpt>
      <trkpt lat="48.64362" lon="2.53827">
        <ele>133.603</ele>
        <time>2018-11-01T08:50:46Z</time>
      </trkpt>
      <trkpt lat="48.64359" lon="2.5383">
        <ele>133.608</ele>
        <time>2018-11-01T08:50:48Z</time>
      </trkpt>
      <trkpt lat="48.64356" lon="2.53833">
        <ele>133.613</ele>
        <time>2018-11-01T08:50:50Z</time>
      </trkpt>
      <trkpt lat="48.64354" lon="2.53836">
        <ele>133.617</ele>
        <time>2018-11-01T08:50:52Z</time>
      </trkpt>
      <trkpt lat="48.64351" lon="2.53839">
        <ele>133.62</ele>
        <time>2018-11-01T08:50:54Z</time>
      </trkpt>
      <trkpt lat="48.64348" lon="2.53842">
        <ele>133.622</ele>
        <time>2018-11-01T08:50:56Z</time>
      </trkpt>
      <trkpt lat="48.64344" lon="2.53845">
        <ele>133.621</ele>
        <time>2018-11-01T08:50:59Z</time>
      </trkpt>
      <trkpt lat="48.64339" lon="2.5385">
        <ele>133.613</ele>
        <time>2018-11-01T08:51:03Z</time>
      </trkpt>
      <trkpt lat="48.64336" lon="2.53852">
        <ele>133.607</ele>
        <time>2018-11-01T08:51:05Z</time>
      </trkpt>
      <trkpt lat="48.64333" lon="2.53856">
        <ele>133.596</ele>
        <time>2018-11-01T08:51:08Z</time>
      </trkpt>
      <trkpt lat="48.6433" lon="2.53859">
        <ele>133.587</ele>
        <time>2018-11-01T08:51:10Z</time>
      </trkpt>
      <trkpt lat="48.64326" lon="2.53862">
        <ele>133.578</ele>
        <time>2018-11-01T08:51:12Z</time>
      </trkpt>
      <trkpt lat="48.64322" lon="2.53868">
        <ele>133.562</ele>
        <time>2018-11-01T08:51:15Z</time>
      </trkpt>
      <trkpt lat="48.64318" lon="2.53873">
        <ele>133.544</ele>
        <time>2018-11-01T08:51:18Z</time>
      </trkpt>
      <trkpt lat="48.64315" lon="2.53876">
        <ele>133.532</ele>
        <time>2018-11-01T08:51:20Z</time>
      </trkpt>
      <trkpt lat="48.64312" lon="2.53881">
        <ele>133.511</ele>
        <time>2018-11-01T08:51:23Z</time>
      </trkpt>
      <trkpt lat="48.64309" lon="2.53884">
        <ele>133.497</ele>
        <time>2018-11-01T08:51:25Z</time>
      </trkpt>
      <trkpt lat="48.64305" lon="2.53887">
        <ele>133.473</ele>
        <time>2018-11-01T08:51:28Z</time>
      </trkpt>
      <trkpt lat="48.64302" lon="2.5389">
        <ele>133.457</ele>
        <time>2018-11-01T08:51:30Z</time>
      </trkpt>
      <trkpt lat="48.64298" lon="2.53895">
        <ele>133.431</ele>
        <time>2018-11-01T08:51:33Z</time>
      </trkpt>
      <trkpt lat="48.64296" lon="2.53899">
        <ele>133.414</ele>
        <time>2018-11-01T08:51:35Z</time>
      </trkpt>
      <trkpt lat="48.64293" lon="2.53902">
        <ele>133.396</ele>
        <time>2018-11-01T08:51:37Z</time>
      </trkpt>
      <trkpt lat="48.64289" lon="2.53908">
        <ele>133.36</ele>
        <time>2018-11-01T08:51:41Z</time>
      </trkpt>
      <trkpt lat="48.64287" lon="2.53911">
        <ele>133.341</ele>
        <time>2018-11-01T08:51:43Z</time>
      </trkpt>
      <trkpt lat="48.64284" lon="2.53915">
        <ele>133.315</ele>
        <time>2018-11-01T08:51:46Z</time>
      </trkpt>
      <trkpt lat="48.64281" lon="2.53918">
        <ele>133.297</ele>
        <time>2018-11-01T08:51:48Z</time>
      </trkpt>
      <trkpt lat="48.64279" lon="2.53921">
        <ele>133.28</ele>
        <time>2018-11-01T08:51:50Z</time>
      </trkpt>
      <trkpt lat="48.64276" lon="2.53927">
        <ele>133.253</ele>
        <time>2018-11-01T08:51:53Z</time>
      </trkpt>
      <trkpt lat="48.64271" lon="2.53932">
        <ele>133.214</ele>
        <time>2018-11-01T08:51:57Z</time>
      </trkpt>
      <trkpt lat="48.64268" lon="2.53938">
        <ele>133.182</ele>
        <time>2018-11-01T08:52:00Z</time>
      </trkpt>
      <trkpt lat="48.64267" lon="2.53941">
        <ele>133.16</ele>
        <time>2018-11-01T08:52:02Z</time>
      </trkpt>
      <trkpt lat="48.64264" lon="2.53945">
        <ele>133.137</ele>
        <time>2018-11-01T08:52:04Z</time>
      </trkpt>
      <trkpt lat="48.64262" lon="2.53949">
        <ele>133.114</ele>
        <time>2018-11-01T08:52:06Z</time>
      </trkpt>
      <trkpt lat="48.64259" lon="2.53953">
        <ele>133.091</ele>
        <time>2018-11-01T08:52:08Z</time>
      </trkpt>
      <trkpt lat="48.64256" lon="2.53957">
        <ele>133.068</ele>
        <time>2018-11-01T08:52:10Z</time>
      </trkpt>
      <trkpt lat="48.64252" lon="2.53964">
        <ele>133.034</ele>
        <time>2018-11-01T08:52:13Z</time>
      </trkpt>
      <trkpt lat="48.6425" lon="2.53972">
        <ele>132.992</ele>
        <time>2018-11-01T08:52:17Z</time>
      </trkpt>
      <trkpt lat="48.64248" lon="2.5398">
        <ele>132.963</ele>
        <time>2018-11-01T08:52:20Z</time>
      </trkpt>
      <trkpt lat="48.64247" lon="2.53985">
        <ele>132.945</ele>
        <time>2018-11-01T08:52:22Z</time>
      </trkpt>
      <trkpt lat="48.64246" lon="2.53989">
        <ele>132.927</ele>
        <time>2018-11-01T08:52:24Z</time>
      </trkpt>
      <trkpt lat="48.64244" lon="2.53995">
        <ele>132.9</ele>
        <time>2018-11-01T08:52:27Z</time>
      </trkpt>
      <trkpt lat="48.6424" lon="2.54">
        <ele>132.866</ele>
        <time>2018-11-01T08:52:31Z</time>
      </trkpt>
      <trkpt lat="48.64235" lon="2.54003">
        <ele>132.841</ele>
        <time>2018-11-01T08:52:34Z</time>
      </trkpt>
      <trkpt lat="48.6423" lon="2.54006">
        <ele>132.817</ele>
        <time>2018-11-01T08:52:37Z</time>
      </trkpt>
      <trkpt lat="48.64224" lon="2.54006">
        <ele>132.794</ele>
        <time>2018-11-01T08:52:40Z</time>
      </trkpt>
      <trkpt lat="48.64221" lon="2.54007">
        <ele>132.779</ele>
        <time>2018-11-01T08:52:42Z</time>
      </trkpt>
      <trkpt lat="48.64215" lon="2.54009">
        <ele>132.756</ele>
        <time>2018-11-01T08:52:45Z</time>
      </trkpt>
      <trkpt lat="48.64212" lon="2.5401">
        <ele>132.742</ele>
        <time>2018-11-01T08:52:47Z</time>
      </trkpt>
      <trkpt lat="48.64208" lon="2.54012">
        <ele>132.713</ele>
        <time>2018-11-01T08:52:51Z</time>
      </trkpt>
      <trkpt lat="48.64203" lon="2.54016">
        <ele>132.684</ele>
        <time>2018-11-01T08:52:55Z</time>
      </trkpt>
      <trkpt lat="48.64201" lon="2.5402">
        <ele>132.67</ele>
        <time>2018-11-01T08:52:57Z</time>
      </trkpt>
      <trkpt lat="48.64198" lon="2.54023">
        <ele>132.657</ele>
        <time>2018-11-01T08:52:59Z</time>
      </trkpt>
      <trkpt lat="48.64195" lon="2.54026">
        <ele>132.645</ele>
        <time>2018-11-01T08:53:01Z</time>
      </trkpt>
      <trkpt lat="48.64193" lon="2.54029">
        <ele>132.632</ele>
        <time>2018-11-01T08:53:03Z</time>
      </trkpt>
      <trkpt lat="48.64188" lon="2.54034">
        <ele>132.611</ele>
        <time>2018-11-01T08:53:07Z</time>
      </trkpt>
      <trkpt lat="48.64183" lon="2.54039">
        <ele>132.598</ele>
        <time>2018-11-01T08:53:10Z</time>
      </trkpt>
      <trkpt lat="48.64181" lon="2.54042">
        <ele>132.59</ele>
        <time>2018-11-01T08:53:12Z</time>
      </trkpt>
      <trkpt lat="48.64177" lon="2.54046">
        <ele>132.58</ele>
        <time>2018-11-01T08:53:15Z</time>
      </trkpt>
      <trkpt lat="48.64175" lon="2.54049">
        <ele>132.574</ele>
        <time>2018-11-01T08:53:17Z</time>
      </trkpt>
      <trkpt lat="48.64172" lon="2.54053">
        <ele>132.569</ele>
        <time>2018-11-01T08:53:19Z</time>
      </trkpt>
      <trkpt lat="48.64169" lon="2.54056">
        <ele>132.565</ele>
        <time>2018-11-01T08:53:21Z</time>
      </trkpt>
      <trkpt lat="48.64167" lon="2.54059">
        <ele>132.563</ele>
        <time>2018-11-01T08:53:23Z</time>
      </trkpt>
      <trkpt lat="48.64164" lon="2.54062">
        <ele>132.562</ele>
        <time>2018-11-01T08:53:25Z</time>
      </trkpt>
      <trkpt lat="48.6416" lon="2.54065">
        <ele>132.561</ele>
        <time>2018-11-01T08:53:29Z</time>
      </trkpt>
      <trkpt lat="48.64158" lon="2.54067">
        <ele>132.561</ele>
        <time>2018-11-01T08:53:31Z</time>
      </trkpt>
      <trkpt lat="48.64155" lon="2.5407">
        <ele>132.562</ele>
        <time>2018-11-01T08:53:34Z</time>
      </trkpt>
      <trkpt lat="48.64155" lon="2.5407">
        <ele>132.562</ele>
        <time>2018-11-01T08:53:41Z</time>
      </trkpt>
      <trkpt lat="48.64155" lon="2.5407">
        <ele>82</ele>
        <time>2018-11-01T08:53:41Z</time>
      </trkpt>
      <trkpt lat="48.64155" lon="2.5407">
        <ele>82</ele>
        <time>2018-11-01T08:54:18Z</time>
      </trkpt>
      <trkpt lat="48.6414" lon="2.54085">
        <ele>132.597</ele>
        <time>2018-11-01T08:54:18Z</time>
      </trkpt>
      <trkpt lat="48.64135" lon="2.5409">
        <ele>132.598</ele>
        <time>2018-11-01T08:54:22Z</time>
      </trkpt>
      <trkpt lat="48.64132" lon="2.54092">
        <ele>132.598</ele>
        <time>2018-11-01T08:54:24Z</time>
      </trkpt>
      <trkpt lat="48.64129" lon="2.54095">
        <ele>132.596</ele>
        <time>2018-11-01T08:54:26Z</time>
      </trkpt>
      <trkpt lat="48.64127" lon="2.54097">
        <ele>132.594</ele>
        <time>2018-11-01T08:54:28Z</time>
      </trkpt>
      <trkpt lat="48.64123" lon="2.54102">
        <ele>132.591</ele>
        <time>2018-11-01T08:54:31Z</time>
      </trkpt>
      <trkpt lat="48.64121" lon="2.54105">
        <ele>132.588</ele>
        <time>2018-11-01T08:54:33Z</time>
      </trkpt>
      <trkpt lat="48.64117" lon="2.54109">
        <ele>132.582</ele>
        <time>2018-11-01T08:54:36Z</time>
      </trkpt>
      <trkpt lat="48.64115" lon="2.54112">
        <ele>132.578</ele>
        <time>2018-11-01T08:54:38Z</time>
      </trkpt>
      <trkpt lat="48.6411" lon="2.54116">
        <ele>132.572</ele>
        <time>2018-11-01T08:54:41Z</time>
      </trkpt>
      <trkpt lat="48.64106" lon="2.54122">
        <ele>132.563</ele>
        <time>2018-11-01T08:54:45Z</time>
      </trkpt>
      <trkpt lat="48.64104" lon="2.54124">
        <ele>132.558</ele>
        <time>2018-11-01T08:54:47Z</time>
      </trkpt>
      <trkpt lat="48.64101" lon="2.54127">
        <ele>132.554</ele>
        <time>2018-11-01T08:54:49Z</time>
      </trkpt>
      <trkpt lat="48.64098" lon="2.54132">
        <ele>132.548</ele>
        <time>2018-11-01T08:54:52Z</time>
      </trkpt>
      <trkpt lat="48.64096" lon="2.54136">
        <ele>132.543</ele>
        <time>2018-11-01T08:54:54Z</time>
      </trkpt>
      <trkpt lat="48.64092" lon="2.54141">
        <ele>132.536</ele>
        <time>2018-11-01T08:54:57Z</time>
      </trkpt>
      <trkpt lat="48.64087" lon="2.54145">
        <ele>132.527</ele>
        <time>2018-11-01T08:55:01Z</time>
      </trkpt>
      <trkpt lat="48.64085" lon="2.54148">
        <ele>132.523</ele>
        <time>2018-11-01T08:55:03Z</time>
      </trkpt>
      <trkpt lat="48.64082" lon="2.54153">
        <ele>132.513</ele>
        <time>2018-11-01T08:55:07Z</time>
      </trkpt>
      <trkpt lat="48.6408" lon="2.54156">
        <ele>132.508</ele>
        <time>2018-11-01T08:55:09Z</time>
      </trkpt>
      <trkpt lat="48.64078" lon="2.54159">
        <ele>132.503</ele>
        <time>2018-11-01T08:55:11Z</time>
      </trkpt>
      <trkpt lat="48.64076" lon="2.54163">
        <ele>132.498</ele>
        <time>2018-11-01T08:55:13Z</time>
      </trkpt>
      <trkpt lat="48.64073" lon="2.54167">
        <ele>132.493</ele>
        <time>2018-11-01T08:55:15Z</time>
      </trkpt>
      <trkpt lat="48.64071" lon="2.5417">
        <ele>132.488</ele>
        <time>2018-11-01T08:55:17Z</time>
      </trkpt>
      <trkpt lat="48.64068" lon="2.54173">
        <ele>132.483</ele>
        <time>2018-11-01T08:55:19Z</time>
      </trkpt>
      <trkpt lat="48.64066" lon="2.54176">
        <ele>132.478</ele>
        <time>2018-11-01T08:55:21Z</time>
      </trkpt>
      <trkpt lat="48.64063" lon="2.54179">
        <ele>132.472</ele>
        <time>2018-11-01T08:55:24Z</time>
      </trkpt>
      <trkpt lat="48.6406" lon="2.54185">
        <ele>132.468</ele>
        <time>2018-11-01T08:55:28Z</time>
      </trkpt>
      <trkpt lat="48.64056" lon="2.5419">
        <ele>132.466</ele>
        <time>2018-11-01T08:55:31Z</time>
      </trkpt>
      <trkpt lat="48.64053" lon="2.54193">
        <ele>132.464</ele>
        <time>2018-11-01T08:55:33Z</time>
      </trkpt>
      <trkpt lat="48.64049" lon="2.54197">
        <ele>132.462</ele>
        <time>2018-11-01T08:55:36Z</time>
      </trkpt>
      <trkpt lat="48.64046" lon="2.542">
        <ele>132.461</ele>
        <time>2018-11-01T08:55:38Z</time>
      </trkpt>
      <trkpt lat="48.64043" lon="2.54202">
        <ele>132.461</ele>
        <time>2018-11-01T08:55:40Z</time>
      </trkpt>
      <trkpt lat="48.64041" lon="2.54205">
        <ele>132.461</ele>
        <time>2018-11-01T08:55:42Z</time>
      </trkpt>
      <trkpt lat="48.64038" lon="2.54208">
        <ele>132.461</ele>
        <time>2018-11-01T08:55:44Z</time>
      </trkpt>
      <trkpt lat="48.64036" lon="2.54211">
        <ele>132.461</ele>
        <time>2018-11-01T08:55:46Z</time>
      </trkpt>
      <trkpt lat="48.64034" lon="2.54214">
        <ele>132.461</ele>
        <time>2018-11-01T08:55:48Z</time>
      </trkpt>
      <trkpt lat="48.64034" lon="2.54214">
        <ele>82.1</ele>
        <time>2018-11-01T08:55:53Z</time>
      </trkpt>
      <trkpt lat="48.64034" lon="2.54214">
        <ele>82.1</ele>
        <time>2018-11-01T08:55:57Z</time>
      </trkpt>
      <trkpt lat="48.6403" lon="2.54224">
        <ele>132.472</ele>
        <time>2018-11-01T08:55:57Z</time>
      </trkpt>
      <trkpt lat="48.6403" lon="2.54224">
        <ele>132.472</ele>
        <time>2018-11-01T08:56:02Z</time>
      </trkpt>
      <trkpt lat="48.6403" lon="2.54224">
        <ele>81.9</ele>
        <time>2018-11-01T08:56:02Z</time>
      </trkpt>
      <trkpt lat="48.6403" lon="2.54224">
        <ele>81.9</ele>
        <time>2018-11-01T08:57:34Z</time>
      </trkpt>
      <trkpt lat="48.64038" lon="2.54253">
        <ele>132.777</ele>
        <time>2018-11-01T08:57:37Z</time>
      </trkpt>
      <trkpt lat="48.64038" lon="2.54263">
        <ele>132.781</ele>
        <time>2018-11-01T08:57:41Z</time>
      </trkpt>
      <trkpt lat="48.64038" lon="2.5427">
        <ele>132.784</ele>
        <time>2018-11-01T08:57:45Z</time>
      </trkpt>
      <trkpt lat="48.64038" lon="2.54276">
        <ele>132.786</ele>
        <time>2018-11-01T08:57:48Z</time>
      </trkpt>
      <trkpt lat="48.64037" lon="2.54282">
        <ele>132.787</ele>
        <time>2018-11-01T08:57:51Z</time>
      </trkpt>
      <trkpt lat="48.64035" lon="2.54289">
        <ele>132.788</ele>
        <time>2018-11-01T08:57:54Z</time>
      </trkpt>
      <trkpt lat="48.64034" lon="2.54293">
        <ele>132.79</ele>
        <time>2018-11-01T08:57:56Z</time>
      </trkpt>
      <trkpt lat="48.64033" lon="2.54301">
        <ele>132.793</ele>
        <time>2018-11-01T08:57:59Z</time>
      </trkpt>
      <trkpt lat="48.64033" lon="2.54308">
        <ele>132.798</ele>
        <time>2018-11-01T08:58:03Z</time>
      </trkpt>
      <trkpt lat="48.64035" lon="2.54314">
        <ele>132.802</ele>
        <time>2018-11-01T08:58:06Z</time>
      </trkpt>
      <trkpt lat="48.64037" lon="2.54321">
        <ele>132.81</ele>
        <time>2018-11-01T08:58:10Z</time>
      </trkpt>
      <trkpt lat="48.64036" lon="2.54329">
        <ele>132.819</ele>
        <time>2018-11-01T08:58:13Z</time>
      </trkpt>
      <trkpt lat="48.64034" lon="2.54337">
        <ele>132.835</ele>
        <time>2018-11-01T08:58:18Z</time>
      </trkpt>
      <trkpt lat="48.64033" lon="2.54344">
        <ele>132.845</ele>
        <time>2018-11-01T08:58:21Z</time>
      </trkpt>
      <trkpt lat="48.64031" lon="2.54351">
        <ele>132.854</ele>
        <time>2018-11-01T08:58:24Z</time>
      </trkpt>
      <trkpt lat="48.6403" lon="2.54359">
        <ele>132.862</ele>
        <time>2018-11-01T08:58:27Z</time>
      </trkpt>
      <trkpt lat="48.64029" lon="2.54367">
        <ele>132.873</ele>
        <time>2018-11-01T08:58:30Z</time>
      </trkpt>
      <trkpt lat="48.64027" lon="2.54375">
        <ele>132.887</ele>
        <time>2018-11-01T08:58:34Z</time>
      </trkpt>
      <trkpt lat="48.64026" lon="2.5438">
        <ele>132.894</ele>
        <time>2018-11-01T08:58:36Z</time>
      </trkpt>
      <trkpt lat="48.64024" lon="2.54388">
        <ele>132.902</ele>
        <time>2018-11-01T08:58:39Z</time>
      </trkpt>
      <trkpt lat="48.64022" lon="2.54396">
        <ele>132.909</ele>
        <time>2018-11-01T08:58:42Z</time>
      </trkpt>
      <trkpt lat="48.6402" lon="2.54402">
        <ele>132.914</ele>
        <time>2018-11-01T08:58:45Z</time>
      </trkpt>
      <trkpt lat="48.64019" lon="2.54407">
        <ele>132.918</ele>
        <time>2018-11-01T08:58:47Z</time>
      </trkpt>
      <trkpt lat="48.64017" lon="2.54411">
        <ele>132.921</ele>
        <time>2018-11-01T08:58:49Z</time>
      </trkpt>
      <trkpt lat="48.64018" lon="2.54419">
        <ele>132.928</ele>
        <time>2018-11-01T08:58:53Z</time>
      </trkpt>
      <trkpt lat="48.64018" lon="2.54419">
        <ele>82</ele>
        <time>2018-11-01T08:58:58Z</time>
      </trkpt>
      <trkpt lat="48.64018" lon="2.54419">
        <ele>82</ele>
        <time>2018-11-01T08:59:04Z</time>
      </trkpt>
      <trkpt lat="48.64014" lon="2.54441">
        <ele>132.958</ele>
        <time>2018-11-01T08:59:07Z</time>
      </trkpt>
      <trkpt lat="48.64011" lon="2.54449">
        <ele>132.966</ele>
        <time>2018-11-01T08:59:10Z</time>
      </trkpt>
      <trkpt lat="48.64008" lon="2.54457">
        <ele>132.978</ele>
        <time>2018-11-01T08:59:14Z</time>
      </trkpt>
      <trkpt lat="48.64006" lon="2.54464">
        <ele>132.989</ele>
        <time>2018-11-01T08:59:17Z</time>
      </trkpt>
      <trkpt lat="48.64005" lon="2.54471">
        <ele>133</ele>
        <time>2018-11-01T08:59:20Z</time>
      </trkpt>
      <trkpt lat="48.64005" lon="2.54479">
        <ele>133.012</ele>
        <time>2018-11-01T08:59:23Z</time>
      </trkpt>
      <trkpt lat="48.64004" lon="2.54486">
        <ele>133.029</ele>
        <time>2018-11-01T08:59:27Z</time>
      </trkpt>
      <trkpt lat="48.64001" lon="2.54493">
        <ele>133.049</ele>
        <time>2018-11-01T08:59:31Z</time>
      </trkpt>
      <trkpt lat="48.63999" lon="2.545">
        <ele>133.066</ele>
        <time>2018-11-01T08:59:34Z</time>
      </trkpt>
      <trkpt lat="48.63997" lon="2.54504">
        <ele>133.079</ele>
        <time>2018-11-01T08:59:36Z</time>
      </trkpt>
      <trkpt lat="48.63996" lon="2.5451">
        <ele>133.098</ele>
        <time>2018-11-01T08:59:39Z</time>
      </trkpt>
      <trkpt lat="48.63992" lon="2.54516">
        <ele>133.122</ele>
        <time>2018-11-01T08:59:43Z</time>
      </trkpt>
      <trkpt lat="48.6399" lon="2.54522">
        <ele>133.137</ele>
        <time>2018-11-01T08:59:46Z</time>
      </trkpt>
      <trkpt lat="48.63987" lon="2.54529">
        <ele>133.149</ele>
        <time>2018-11-01T08:59:49Z</time>
      </trkpt>
      <trkpt lat="48.63986" lon="2.54533">
        <ele>133.156</ele>
        <time>2018-11-01T08:59:51Z</time>
      </trkpt>
      <trkpt lat="48.63984" lon="2.54537">
        <ele>133.164</ele>
        <time>2018-11-01T08:59:53Z</time>
      </trkpt>
      <trkpt lat="48.63983" lon="2.54542">
        <ele>133.171</ele>
        <time>2018-11-01T08:59:55Z</time>
      </trkpt>
      <trkpt lat="48.63983" lon="2.5455">
        <ele>133.18</ele>
        <time>2018-11-01T08:59:58Z</time>
      </trkpt>
      <trkpt lat="48.63983" lon="2.54554">
        <ele>133.184</ele>
        <time>2018-11-01T09:00:00Z</time>
      </trkpt>
      <trkpt lat="48.63983" lon="2.54559">
        <ele>133.188</ele>
        <time>2018-11-01T09:00:02Z</time>
      </trkpt>
      <trkpt lat="48.63983" lon="2.54568">
        <ele>133.193</ele>
        <time>2018-11-01T09:00:05Z</time>
      </trkpt>
      <trkpt lat="48.63983" lon="2.54572">
        <ele>133.196</ele>
        <time>2018-11-01T09:00:07Z</time>
      </trkpt>
      <trkpt lat="48.63983" lon="2.54578">
        <ele>133.198</ele>
        <time>2018-11-01T09:00:10Z</time>
      </trkpt>
      <trkpt lat="48.63983" lon="2.54584">
        <ele>133.199</ele>
        <time>2018-11-01T09:00:12Z</time>
      </trkpt>
      <trkpt lat="48.63983" lon="2.54589">
        <ele>133.199</ele>
        <time>2018-11-01T09:00:14Z</time>
      </trkpt>
      <trkpt lat="48.63981" lon="2.54597">
        <ele>133.199</ele>
        <time>2018-11-01T09:00:17Z</time>
      </trkpt>
      <trkpt lat="48.63981" lon="2.54602">
        <ele>133.2</ele>
        <time>2018-11-01T09:00:19Z</time>
      </trkpt>
      <trkpt lat="48.6398" lon="2.54607">
        <ele>133.203</ele>
        <time>2018-11-01T09:00:21Z</time>
      </trkpt>
      <trkpt lat="48.63979" lon="2.54612">
        <ele>133.206</ele>
        <time>2018-11-01T09:00:23Z</time>
      </trkpt>
      <trkpt lat="48.63979" lon="2.54619">
        <ele>133.214</ele>
        <time>2018-11-01T09:00:26Z</time>
      </trkpt>
      <trkpt lat="48.63979" lon="2.54624">
        <ele>133.223</ele>
        <time>2018-11-01T09:00:29Z</time>
      </trkpt>
      <trkpt lat="48.63978" lon="2.54631">
        <ele>133.232</ele>
        <time>2018-11-01T09:00:32Z</time>
      </trkpt>
      <trkpt lat="48.63977" lon="2.5464">
        <ele>133.245</ele>
        <time>2018-11-01T09:00:36Z</time>
      </trkpt>
      <trkpt lat="48.63978" lon="2.54647">
        <ele>133.255</ele>
        <time>2018-11-01T09:00:39Z</time>
      </trkpt>
      <trkpt lat="48.63977" lon="2.54655">
        <ele>133.265</ele>
        <time>2018-11-01T09:00:42Z</time>
      </trkpt>
      <trkpt lat="48.63977" lon="2.54664">
        <ele>133.281</ele>
        <time>2018-11-01T09:00:47Z</time>
      </trkpt>
      <trkpt lat="48.63976" lon="2.54673">
        <ele>133.285</ele>
        <time>2018-11-01T09:00:52Z</time>
      </trkpt>
      <trkpt lat="48.63976" lon="2.54681">
        <ele>133.284</ele>
        <time>2018-11-01T09:00:55Z</time>
      </trkpt>
      <trkpt lat="48.63976" lon="2.54685">
        <ele>133.281</ele>
        <time>2018-11-01T09:00:57Z</time>
      </trkpt>
      <trkpt lat="48.63976" lon="2.54692">
        <ele>133.272</ele>
        <time>2018-11-01T09:01:01Z</time>
      </trkpt>
      <trkpt lat="48.63975" lon="2.54701">
        <ele>133.261</ele>
        <time>2018-11-01T09:01:05Z</time>
      </trkpt>
      <trkpt lat="48.63975" lon="2.54705">
        <ele>133.258</ele>
        <time>2018-11-01T09:01:06Z</time>
      </trkpt>
      <trkpt lat="48.63974" lon="2.5471">
        <ele>133.252</ele>
        <time>2018-11-01T09:01:08Z</time>
      </trkpt>
      <trkpt lat="48.63974" lon="2.54718">
        <ele>133.241</ele>
        <time>2018-11-01T09:01:11Z</time>
      </trkpt>
      <trkpt lat="48.63974" lon="2.54723">
        <ele>133.233</ele>
        <time>2018-11-01T09:01:13Z</time>
      </trkpt>
      <trkpt lat="48.63973" lon="2.5473">
        <ele>133.214</ele>
        <time>2018-11-01T09:01:17Z</time>
      </trkpt>
      <trkpt lat="48.63973" lon="2.54738">
        <ele>133.198</ele>
        <time>2018-11-01T09:01:20Z</time>
      </trkpt>
      <trkpt lat="48.63974" lon="2.54743">
        <ele>133.186</ele>
        <time>2018-11-01T09:01:22Z</time>
      </trkpt>
      <trkpt lat="48.63972" lon="2.54751">
        <ele>133.167</ele>
        <time>2018-11-01T09:01:25Z</time>
      </trkpt>
      <trkpt lat="48.63971" lon="2.54756">
        <ele>133.152</ele>
        <time>2018-11-01T09:01:27Z</time>
      </trkpt>
      <trkpt lat="48.6397" lon="2.54759">
        <ele>133.136</ele>
        <time>2018-11-01T09:01:29Z</time>
      </trkpt>
      <trkpt lat="48.6397" lon="2.54767">
        <ele>133.097</ele>
        <time>2018-11-01T09:01:33Z</time>
      </trkpt>
      <trkpt lat="48.6397" lon="2.54774">
        <ele>133.063</ele>
        <time>2018-11-01T09:01:36Z</time>
      </trkpt>
      <trkpt lat="48.6397" lon="2.54779">
        <ele>133.037</ele>
        <time>2018-11-01T09:01:38Z</time>
      </trkpt>
      <trkpt lat="48.6397" lon="2.54783">
        <ele>133.01</ele>
        <time>2018-11-01T09:01:40Z</time>
      </trkpt>
      <trkpt lat="48.63971" lon="2.5479">
        <ele>132.964</ele>
        <time>2018-11-01T09:01:43Z</time>
      </trkpt>
      <trkpt lat="48.6397" lon="2.54799">
        <ele>132.918</ele>
        <time>2018-11-01T09:01:46Z</time>
      </trkpt>
      <trkpt lat="48.63969" lon="2.54806">
        <ele>132.875</ele>
        <time>2018-11-01T09:01:49Z</time>
      </trkpt>
      <trkpt lat="48.63968" lon="2.5481">
        <ele>132.846</ele>
        <time>2018-11-01T09:01:51Z</time>
      </trkpt>
      <trkpt lat="48.63967" lon="2.54816">
        <ele>132.818</ele>
        <time>2018-11-01T09:01:53Z</time>
      </trkpt>
      <trkpt lat="48.63967" lon="2.5482">
        <ele>132.805</ele>
        <time>2018-11-01T09:01:54Z</time>
      </trkpt>
      <trkpt lat="48.63966" lon="2.54827">
        <ele>132.767</ele>
        <time>2018-11-01T09:01:57Z</time>
      </trkpt>
      <trkpt lat="48.63965" lon="2.54831">
        <ele>132.743</ele>
        <time>2018-11-01T09:01:59Z</time>
      </trkpt>
      <trkpt lat="48.63964" lon="2.54836">
        <ele>132.72</ele>
        <time>2018-11-01T09:02:01Z</time>
      </trkpt>
      <trkpt lat="48.63962" lon="2.54842">
        <ele>132.684</ele>
        <time>2018-11-01T09:02:04Z</time>
      </trkpt>
      <trkpt lat="48.63959" lon="2.54848">
        <ele>132.65</ele>
        <time>2018-11-01T09:02:07Z</time>
      </trkpt>
      <trkpt lat="48.63954" lon="2.54853">
        <ele>132.605</ele>
        <time>2018-11-01T09:02:11Z</time>
      </trkpt>
      <trkpt lat="48.63952" lon="2.54856">
        <ele>132.583</ele>
        <time>2018-11-01T09:02:13Z</time>
      </trkpt>
      <trkpt lat="48.6395" lon="2.54863">
        <ele>132.551</ele>
        <time>2018-11-01T09:02:16Z</time>
      </trkpt>
      <trkpt lat="48.63949" lon="2.5487">
        <ele>132.521</ele>
        <time>2018-11-01T09:02:19Z</time>
      </trkpt>
      <trkpt lat="48.6395" lon="2.54879">
        <ele>132.492</ele>
        <time>2018-11-01T09:02:22Z</time>
      </trkpt>
      <trkpt lat="48.63951" lon="2.54885">
        <ele>132.472</ele>
        <time>2018-11-01T09:02:24Z</time>
      </trkpt>
      <trkpt lat="48.63951" lon="2.54889">
        <ele>132.451</ele>
        <time>2018-11-01T09:02:26Z</time>
      </trkpt>
      <trkpt lat="48.63952" lon="2.54894">
        <ele>132.431</ele>
        <time>2018-11-01T09:02:28Z</time>
      </trkpt>
      <trkpt lat="48.63952" lon="2.54902">
        <ele>132.402</ele>
        <time>2018-11-01T09:02:31Z</time>
      </trkpt>
      <trkpt lat="48.63951" lon="2.54909">
        <ele>132.375</ele>
        <time>2018-11-01T09:02:34Z</time>
      </trkpt>
      <trkpt lat="48.63951" lon="2.54914">
        <ele>132.358</ele>
        <time>2018-11-01T09:02:36Z</time>
      </trkpt>
      <trkpt lat="48.6395" lon="2.54921">
        <ele>132.335</ele>
        <time>2018-11-01T09:02:39Z</time>
      </trkpt>
      <trkpt lat="48.6395" lon="2.54926">
        <ele>132.32</ele>
        <time>2018-11-01T09:02:41Z</time>
      </trkpt>
      <trkpt lat="48.63949" lon="2.5493">
        <ele>132.307</ele>
        <time>2018-11-01T09:02:43Z</time>
      </trkpt>
      <trkpt lat="48.63949" lon="2.54937">
        <ele>132.289</ele>
        <time>2018-11-01T09:02:46Z</time>
      </trkpt>
      <trkpt lat="48.63951" lon="2.54944">
        <ele>132.268</ele>
        <time>2018-11-01T09:02:50Z</time>
      </trkpt>
      <trkpt lat="48.63951" lon="2.5495">
        <ele>132.259</ele>
        <time>2018-11-01T09:02:52Z</time>
      </trkpt>
      <trkpt lat="48.63954" lon="2.54957">
        <ele>132.245</ele>
        <time>2018-11-01T09:02:56Z</time>
      </trkpt>
      <trkpt lat="48.63957" lon="2.54963">
        <ele>132.235</ele>
        <time>2018-11-01T09:02:59Z</time>
      </trkpt>
      <trkpt lat="48.63958" lon="2.54971">
        <ele>132.219</ele>
        <time>2018-11-01T09:03:03Z</time>
      </trkpt>
      <trkpt lat="48.63958" lon="2.54978">
        <ele>132.207</ele>
        <time>2018-11-01T09:03:06Z</time>
      </trkpt>
      <trkpt lat="48.6396" lon="2.54984">
        <ele>132.192</ele>
        <time>2018-11-01T09:03:10Z</time>
      </trkpt>
      <trkpt lat="48.63962" lon="2.54992">
        <ele>132.181</ele>
        <time>2018-11-01T09:03:15Z</time>
      </trkpt>
      <trkpt lat="48.63963" lon="2.54999">
        <ele>132.175</ele>
        <time>2018-11-01T09:03:20Z</time>
      </trkpt>
      <trkpt lat="48.63963" lon="2.55008">
        <ele>132.172</ele>
        <time>2018-11-01T09:03:24Z</time>
      </trkpt>
      <trkpt lat="48.63962" lon="2.55015">
        <ele>132.172</ele>
        <time>2018-11-01T09:03:27Z</time>
      </trkpt>
      <trkpt lat="48.63959" lon="2.5502">
        <ele>132.172</ele>
        <time>2018-11-01T09:03:31Z</time>
      </trkpt>
      <trkpt lat="48.63957" lon="2.55027">
        <ele>132.174</ele>
        <time>2018-11-01T09:03:35Z</time>
      </trkpt>
      <trkpt lat="48.63956" lon="2.55033">
        <ele>132.175</ele>
        <time>2018-11-01T09:03:38Z</time>
      </trkpt>
      <trkpt lat="48.63955" lon="2.55038">
        <ele>132.176</ele>
        <time>2018-11-01T09:03:40Z</time>
      </trkpt>
      <trkpt lat="48.63953" lon="2.55046">
        <ele>132.179</ele>
        <time>2018-11-01T09:03:44Z</time>
      </trkpt>
      <trkpt lat="48.63952" lon="2.5505">
        <ele>132.179</ele>
        <time>2018-11-01T09:03:46Z</time>
      </trkpt>
      <trkpt lat="48.63952" lon="2.55055">
        <ele>132.179</ele>
        <time>2018-11-01T09:03:48Z</time>
      </trkpt>
      <trkpt lat="48.63952" lon="2.55062">
        <ele>132.178</ele>
        <time>2018-11-01T09:03:51Z</time>
      </trkpt>
      <trkpt lat="48.63951" lon="2.5507">
        <ele>132.177</ele>
        <time>2018-11-01T09:03:55Z</time>
      </trkpt>
      <trkpt lat="48.63951" lon="2.55079">
        <ele>132.178</ele>
        <time>2018-11-01T09:03:58Z</time>
      </trkpt>
      <trkpt lat="48.63952" lon="2.55088">
        <ele>132.181</ele>
        <time>2018-11-01T09:04:02Z</time>
      </trkpt>
      <trkpt lat="48.63952" lon="2.55097">
        <ele>132.183</ele>
        <time>2018-11-01T09:04:05Z</time>
      </trkpt>
      <trkpt lat="48.6395" lon="2.55105">
        <ele>132.185</ele>
        <time>2018-11-01T09:04:08Z</time>
      </trkpt>
      <trkpt lat="48.63947" lon="2.55112">
        <ele>132.187</ele>
        <time>2018-11-01T09:04:11Z</time>
      </trkpt>
      <trkpt lat="48.63945" lon="2.5512">
        <ele>132.191</ele>
        <time>2018-11-01T09:04:14Z</time>
      </trkpt>
      <trkpt lat="48.63944" lon="2.55124">
        <ele>132.195</ele>
        <time>2018-11-01T09:04:16Z</time>
      </trkpt>
      <trkpt lat="48.63942" lon="2.55133">
        <ele>132.203</ele>
        <time>2018-11-01T09:04:20Z</time>
      </trkpt>
      <trkpt lat="48.63942" lon="2.55138">
        <ele>132.207</ele>
        <time>2018-11-01T09:04:22Z</time>
      </trkpt>
      <trkpt lat="48.63941" lon="2.55144">
        <ele>132.215</ele>
        <time>2018-11-01T09:04:25Z</time>
      </trkpt>
      <trkpt lat="48.63942" lon="2.55151">
        <ele>132.224</ele>
        <time>2018-11-01T09:04:28Z</time>
      </trkpt>
      <trkpt lat="48.63942" lon="2.55158">
        <ele>132.238</ele>
        <time>2018-11-01T09:04:32Z</time>
      </trkpt>
      <trkpt lat="48.63941" lon="2.55165">
        <ele>132.254</ele>
        <time>2018-11-01T09:04:36Z</time>
      </trkpt>
      <trkpt lat="48.6394" lon="2.55171">
        <ele>132.268</ele>
        <time>2018-11-01T09:04:39Z</time>
      </trkpt>
      <trkpt lat="48.63938" lon="2.55178">
        <ele>132.284</ele>
        <time>2018-11-01T09:04:42Z</time>
      </trkpt>
      <trkpt lat="48.63936" lon="2.55185">
        <ele>132.301</ele>
        <time>2018-11-01T09:04:45Z</time>
      </trkpt>
      <trkpt lat="48.63935" lon="2.55191">
        <ele>132.32</ele>
        <time>2018-11-01T09:04:48Z</time>
      </trkpt>
      <trkpt lat="48.63934" lon="2.55195">
        <ele>132.333</ele>
        <time>2018-11-01T09:04:50Z</time>
      </trkpt>
      <trkpt lat="48.63933" lon="2.55199">
        <ele>132.347</ele>
        <time>2018-11-01T09:04:52Z</time>
      </trkpt>
      <trkpt lat="48.63932" lon="2.55203">
        <ele>132.362</ele>
        <time>2018-11-01T09:04:54Z</time>
      </trkpt>
      <trkpt lat="48.63931" lon="2.55209">
        <ele>132.378</ele>
        <time>2018-11-01T09:04:56Z</time>
      </trkpt>
      <trkpt lat="48.63931" lon="2.55213">
        <ele>132.394</ele>
        <time>2018-11-01T09:04:58Z</time>
      </trkpt>
      <trkpt lat="48.6393" lon="2.55218">
        <ele>132.411</ele>
        <time>2018-11-01T09:05:00Z</time>
      </trkpt>
      <trkpt lat="48.63929" lon="2.55224">
        <ele>132.428</ele>
        <time>2018-11-01T09:05:02Z</time>
      </trkpt>
      <trkpt lat="48.63929" lon="2.55229">
        <ele>132.446</ele>
        <time>2018-11-01T09:05:04Z</time>
      </trkpt>
      <trkpt lat="48.63928" lon="2.55234">
        <ele>132.464</ele>
        <time>2018-11-01T09:05:06Z</time>
      </trkpt>
      <trkpt lat="48.63928" lon="2.55239">
        <ele>132.481</ele>
        <time>2018-11-01T09:05:08Z</time>
      </trkpt>
      <trkpt lat="48.63928" lon="2.55247">
        <ele>132.514</ele>
        <time>2018-11-01T09:05:12Z</time>
      </trkpt>
      <trkpt lat="48.63928" lon="2.55256">
        <ele>132.544</ele>
        <time>2018-11-01T09:05:16Z</time>
      </trkpt>
      <trkpt lat="48.6393" lon="2.55264">
        <ele>132.569</ele>
        <time>2018-11-01T09:05:20Z</time>
      </trkpt>
      <trkpt lat="48.63932" lon="2.55271">
        <ele>132.589</ele>
        <time>2018-11-01T09:05:23Z</time>
      </trkpt>
      <trkpt lat="48.63933" lon="2.5528">
        <ele>132.614</ele>
        <time>2018-11-01T09:05:27Z</time>
      </trkpt>
      <trkpt lat="48.63933" lon="2.5528">
        <ele>81.8</ele>
        <time>2018-11-01T09:05:34Z</time>
      </trkpt>
      <trkpt lat="48.63933" lon="2.5528">
        <ele>81.8</ele>
        <time>2018-11-01T09:06:31Z</time>
      </trkpt>
      <trkpt lat="48.63926" lon="2.55341">
        <ele>132.635</ele>
        <time>2018-11-01T09:06:33Z</time>
      </trkpt>
      <trkpt lat="48.63924" lon="2.5535">
        <ele>132.629</ele>
        <time>2018-11-01T09:06:37Z</time>
      </trkpt>
      <trkpt lat="48.63923" lon="2.55354">
        <ele>132.625</ele>
        <time>2018-11-01T09:06:39Z</time>
      </trkpt>
      <trkpt lat="48.63923" lon="2.55359">
        <ele>132.622</ele>
        <time>2018-11-01T09:06:41Z</time>
      </trkpt>
      <trkpt lat="48.63922" lon="2.55363">
        <ele>132.62</ele>
        <time>2018-11-01T09:06:43Z</time>
      </trkpt>
      <trkpt lat="48.63921" lon="2.55366">
        <ele>132.617</ele>
        <time>2018-11-01T09:06:45Z</time>
      </trkpt>
      <trkpt lat="48.63921" lon="2.55371">
        <ele>132.615</ele>
        <time>2018-11-01T09:06:47Z</time>
      </trkpt>
      <trkpt lat="48.63919" lon="2.55377">
        <ele>132.61</ele>
        <time>2018-11-01T09:06:50Z</time>
      </trkpt>
      <trkpt lat="48.63918" lon="2.55381">
        <ele>132.608</ele>
        <time>2018-11-01T09:06:52Z</time>
      </trkpt>
      <trkpt lat="48.63916" lon="2.55386">
        <ele>132.605</ele>
        <time>2018-11-01T09:06:54Z</time>
      </trkpt>
      <trkpt lat="48.63915" lon="2.55391">
        <ele>132.602</ele>
        <time>2018-11-01T09:06:56Z</time>
      </trkpt>
      <trkpt lat="48.63913" lon="2.554">
        <ele>132.598</ele>
        <time>2018-11-01T09:07:00Z</time>
      </trkpt>
      <trkpt lat="48.63911" lon="2.55407">
        <ele>132.597</ele>
        <time>2018-11-01T09:07:03Z</time>
      </trkpt>
      <trkpt lat="48.6391" lon="2.55412">
        <ele>132.596</ele>
        <time>2018-11-01T09:07:05Z</time>
      </trkpt>
      <trkpt lat="48.63908" lon="2.55419">
        <ele>132.598</ele>
        <time>2018-11-01T09:07:09Z</time>
      </trkpt>
      <trkpt lat="48.63907" lon="2.55424">
        <ele>132.599</ele>
        <time>2018-11-01T09:07:11Z</time>
      </trkpt>
      <trkpt lat="48.63906" lon="2.55428">
        <ele>132.601</ele>
        <time>2018-11-01T09:07:13Z</time>
      </trkpt>
      <trkpt lat="48.63905" lon="2.55432">
        <ele>132.604</ele>
        <time>2018-11-01T09:07:15Z</time>
      </trkpt>
      <trkpt lat="48.63904" lon="2.55436">
        <ele>132.607</ele>
        <time>2018-11-01T09:07:17Z</time>
      </trkpt>
      <trkpt lat="48.63904" lon="2.5544">
        <ele>132.612</ele>
        <time>2018-11-01T09:07:19Z</time>
      </trkpt>
      <trkpt lat="48.63902" lon="2.55447">
        <ele>132.621</ele>
        <time>2018-11-01T09:07:23Z</time>
      </trkpt>
      <trkpt lat="48.639" lon="2.55451">
        <ele>132.626</ele>
        <time>2018-11-01T09:07:25Z</time>
      </trkpt>
      <trkpt lat="48.63899" lon="2.55455">
        <ele>132.631</ele>
        <time>2018-11-01T09:07:27Z</time>
      </trkpt>
      <trkpt lat="48.63898" lon="2.55463">
        <ele>132.639</ele>
        <time>2018-11-01T09:07:30Z</time>
      </trkpt>
      <trkpt lat="48.63895" lon="2.5547">
        <ele>132.65</ele>
        <time>2018-11-01T09:07:34Z</time>
      </trkpt>
      <trkpt lat="48.63895" lon="2.55474">
        <ele>132.655</ele>
        <time>2018-11-01T09:07:36Z</time>
      </trkpt>
      <trkpt lat="48.63893" lon="2.55479">
        <ele>132.663</ele>
        <time>2018-11-01T09:07:39Z</time>
      </trkpt>
      <trkpt lat="48.63891" lon="2.55486">
        <ele>132.673</ele>
        <time>2018-11-01T09:07:43Z</time>
      </trkpt>
      <trkpt lat="48.6389" lon="2.5549">
        <ele>132.678</ele>
        <time>2018-11-01T09:07:45Z</time>
      </trkpt>
      <trkpt lat="48.63889" lon="2.55498">
        <ele>132.684</ele>
        <time>2018-11-01T09:07:48Z</time>
      </trkpt>
      <trkpt lat="48.63888" lon="2.55502">
        <ele>132.688</ele>
        <time>2018-11-01T09:07:50Z</time>
      </trkpt>
      <trkpt lat="48.63888" lon="2.55505">
        <ele>132.693</ele>
        <time>2018-11-01T09:07:52Z</time>
      </trkpt>
      <trkpt lat="48.63887" lon="2.5551">
        <ele>132.697</ele>
        <time>2018-11-01T09:07:54Z</time>
      </trkpt>
      <trkpt lat="48.63885" lon="2.55517">
        <ele>132.702</ele>
        <time>2018-11-01T09:07:57Z</time>
      </trkpt>
      <trkpt lat="48.63884" lon="2.55521">
        <ele>132.705</ele>
        <time>2018-11-01T09:07:59Z</time>
      </trkpt>
      <trkpt lat="48.63881" lon="2.55528">
        <ele>132.709</ele>
        <time>2018-11-01T09:08:02Z</time>
      </trkpt>
      <trkpt lat="48.63878" lon="2.55534">
        <ele>132.714</ele>
        <time>2018-11-01T09:08:06Z</time>
      </trkpt>
      <trkpt lat="48.63877" lon="2.55541">
        <ele>132.716</ele>
        <time>2018-11-01T09:08:09Z</time>
      </trkpt>
      <trkpt lat="48.63876" lon="2.55548">
        <ele>132.718</ele>
        <time>2018-11-01T09:08:12Z</time>
      </trkpt>
      <trkpt lat="48.63875" lon="2.55553">
        <ele>132.719</ele>
        <time>2018-11-01T09:08:14Z</time>
      </trkpt>
      <trkpt lat="48.63874" lon="2.55557">
        <ele>132.72</ele>
        <time>2018-11-01T09:08:16Z</time>
      </trkpt>
      <trkpt lat="48.63873" lon="2.55561">
        <ele>132.72</ele>
        <time>2018-11-01T09:08:18Z</time>
      </trkpt>
      <trkpt lat="48.6387" lon="2.55567">
        <ele>132.719</ele>
        <time>2018-11-01T09:08:21Z</time>
      </trkpt>
      <trkpt lat="48.63869" lon="2.55571">
        <ele>132.718</ele>
        <time>2018-11-01T09:08:23Z</time>
      </trkpt>
      <trkpt lat="48.63868" lon="2.55575">
        <ele>132.715</ele>
        <time>2018-11-01T09:08:25Z</time>
      </trkpt>
      <trkpt lat="48.63867" lon="2.55578">
        <ele>132.713</ele>
        <time>2018-11-01T09:08:27Z</time>
      </trkpt>
      <trkpt lat="48.63866" lon="2.55585">
        <ele>132.708</ele>
        <time>2018-11-01T09:08:30Z</time>
      </trkpt>
      <trkpt lat="48.63864" lon="2.55592">
        <ele>132.701</ele>
        <time>2018-11-01T09:08:33Z</time>
      </trkpt>
      <trkpt lat="48.63863" lon="2.55596">
        <ele>132.696</ele>
        <time>2018-11-01T09:08:35Z</time>
      </trkpt>
      <trkpt lat="48.63862" lon="2.556">
        <ele>132.69</ele>
        <time>2018-11-01T09:08:37Z</time>
      </trkpt>
      <trkpt lat="48.6386" lon="2.55603">
        <ele>132.683</ele>
        <time>2018-11-01T09:08:39Z</time>
      </trkpt>
      <trkpt lat="48.6386" lon="2.55603">
        <ele>82</ele>
        <time>2018-11-01T09:08:44Z</time>
      </trkpt>
      <trkpt lat="48.6386" lon="2.55603">
        <ele>82</ele>
        <time>2018-11-01T09:09:27Z</time>
      </trkpt>
      <trkpt lat="48.63852" lon="2.55633">
        <ele>132.607</ele>
        <time>2018-11-01T09:09:29Z</time>
      </trkpt>
      <trkpt lat="48.6385" lon="2.55637">
        <ele>132.604</ele>
        <time>2018-11-01T09:09:31Z</time>
      </trkpt>
      <trkpt lat="48.63848" lon="2.5564">
        <ele>132.602</ele>
        <time>2018-11-01T09:09:33Z</time>
      </trkpt>
      <trkpt lat="48.63846" lon="2.55644">
        <ele>132.599</ele>
        <time>2018-11-01T09:09:36Z</time>
      </trkpt>
      <trkpt lat="48.63844" lon="2.55651">
        <ele>132.594</ele>
        <time>2018-11-01T09:09:41Z</time>
      </trkpt>
      <trkpt lat="48.63844" lon="2.55662">
        <ele>132.587</ele>
        <time>2018-11-01T09:09:46Z</time>
      </trkpt>
      <trkpt lat="48.63842" lon="2.55669">
        <ele>132.583</ele>
        <time>2018-11-01T09:09:49Z</time>
      </trkpt>
      <trkpt lat="48.63842" lon="2.55673">
        <ele>132.581</ele>
        <time>2018-11-01T09:09:51Z</time>
      </trkpt>
      <trkpt lat="48.63841" lon="2.55681">
        <ele>132.577</ele>
        <time>2018-11-01T09:09:54Z</time>
      </trkpt>
      <trkpt lat="48.6384" lon="2.55687">
        <ele>132.574</ele>
        <time>2018-11-01T09:09:56Z</time>
      </trkpt>
      <trkpt lat="48.6384" lon="2.55694">
        <ele>132.571</ele>
        <time>2018-11-01T09:09:59Z</time>
      </trkpt>
      <trkpt lat="48.6384" lon="2.55699">
        <ele>132.568</ele>
        <time>2018-11-01T09:10:01Z</time>
      </trkpt>
      <trkpt lat="48.6384" lon="2.55709">
        <ele>132.559</ele>
        <time>2018-11-01T09:10:06Z</time>
      </trkpt>
      <trkpt lat="48.6384" lon="2.55712">
        <ele>132.555</ele>
        <time>2018-11-01T09:10:08Z</time>
      </trkpt>
      <trkpt lat="48.6384" lon="2.55719">
        <ele>132.548</ele>
        <time>2018-11-01T09:10:11Z</time>
      </trkpt>
      <trkpt lat="48.63839" lon="2.55728">
        <ele>132.542</ele>
        <time>2018-11-01T09:10:14Z</time>
      </trkpt>
      <trkpt lat="48.63839" lon="2.55732">
        <ele>132.537</ele>
        <time>2018-11-01T09:10:16Z</time>
      </trkpt>
      <trkpt lat="48.63838" lon="2.55738">
        <ele>132.533</ele>
        <time>2018-11-01T09:10:18Z</time>
      </trkpt>
      <trkpt lat="48.63838" lon="2.55741">
        <ele>132.531</ele>
        <time>2018-11-01T09:10:19Z</time>
      </trkpt>
      <trkpt lat="48.63838" lon="2.55747">
        <ele>132.527</ele>
        <time>2018-11-01T09:10:21Z</time>
      </trkpt>
      <trkpt lat="48.63838" lon="2.55752">
        <ele>132.523</ele>
        <time>2018-11-01T09:10:23Z</time>
      </trkpt>
      <trkpt lat="48.63837" lon="2.55757">
        <ele>132.52</ele>
        <time>2018-11-01T09:10:25Z</time>
      </trkpt>
      <trkpt lat="48.63837" lon="2.55762">
        <ele>132.518</ele>
        <time>2018-11-01T09:10:27Z</time>
      </trkpt>
      <trkpt lat="48.63837" lon="2.55766">
        <ele>132.515</ele>
        <time>2018-11-01T09:10:29Z</time>
      </trkpt>
      <trkpt lat="48.63837" lon="2.5577">
        <ele>132.513</ele>
        <time>2018-11-01T09:10:31Z</time>
      </trkpt>
      <trkpt lat="48.63836" lon="2.55775">
        <ele>132.51</ele>
        <time>2018-11-01T09:10:33Z</time>
      </trkpt>
      <trkpt lat="48.63836" lon="2.55779">
        <ele>132.508</ele>
        <time>2018-11-01T09:10:35Z</time>
      </trkpt>
      <trkpt lat="48.63838" lon="2.55786">
        <ele>132.502</ele>
        <time>2018-11-01T09:10:40Z</time>
      </trkpt>
      <trkpt lat="48.6384" lon="2.55794">
        <ele>132.495</ele>
        <time>2018-11-01T09:10:44Z</time>
      </trkpt>
      <trkpt lat="48.63841" lon="2.55798">
        <ele>132.489</ele>
        <time>2018-11-01T09:10:46Z</time>
      </trkpt>
      <trkpt lat="48.63843" lon="2.55807">
        <ele>132.48</ele>
        <time>2018-11-01T09:10:49Z</time>
      </trkpt>
      <trkpt lat="48.63842" lon="2.55815">
        <ele>132.466</ele>
        <time>2018-11-01T09:10:53Z</time>
      </trkpt>
      <trkpt lat="48.63838" lon="2.55823">
        <ele>132.449</ele>
        <time>2018-11-01T09:10:58Z</time>
      </trkpt>
      <trkpt lat="48.63836" lon="2.55827">
        <ele>132.443</ele>
        <time>2018-11-01T09:11:00Z</time>
      </trkpt>
      <trkpt lat="48.63835" lon="2.55833">
        <ele>132.433</ele>
        <time>2018-11-01T09:11:03Z</time>
      </trkpt>
      <trkpt lat="48.63833" lon="2.55837">
        <ele>132.427</ele>
        <time>2018-11-01T09:11:05Z</time>
      </trkpt>
      <trkpt lat="48.63832" lon="2.55841">
        <ele>132.419</ele>
        <time>2018-11-01T09:11:07Z</time>
      </trkpt>
      <trkpt lat="48.6383" lon="2.5585">
        <ele>132.401</ele>
        <time>2018-11-01T09:11:11Z</time>
      </trkpt>
      <trkpt lat="48.63827" lon="2.55855">
        <ele>132.381</ele>
        <time>2018-11-01T09:11:15Z</time>
      </trkpt>
      <trkpt lat="48.6382" lon="2.55856">
        <ele>132.363</ele>
        <time>2018-11-01T09:11:18Z</time>
      </trkpt>
      <trkpt lat="48.63818" lon="2.55857">
        <ele>132.357</ele>
        <time>2018-11-01T09:11:19Z</time>
      </trkpt>
      <trkpt lat="48.63812" lon="2.55857">
        <ele>132.34</ele>
        <time>2018-11-01T09:11:22Z</time>
      </trkpt>
      <trkpt lat="48.63808" lon="2.55855">
        <ele>132.324</ele>
        <time>2018-11-01T09:11:25Z</time>
      </trkpt>
      <trkpt lat="48.63801" lon="2.55855">
        <ele>132.307</ele>
        <time>2018-11-01T09:11:29Z</time>
      </trkpt>
      <trkpt lat="48.63797" lon="2.55857">
        <ele>132.294</ele>
        <time>2018-11-01T09:11:33Z</time>
      </trkpt>
      <trkpt lat="48.63794" lon="2.55863">
        <ele>132.286</ele>
        <time>2018-11-01T09:11:36Z</time>
      </trkpt>
      <trkpt lat="48.63792" lon="2.5587">
        <ele>132.278</ele>
        <time>2018-11-01T09:11:39Z</time>
      </trkpt>
      <trkpt lat="48.63791" lon="2.55878">
        <ele>132.271</ele>
        <time>2018-11-01T09:11:42Z</time>
      </trkpt>
      <trkpt lat="48.6379" lon="2.55885">
        <ele>132.261</ele>
        <time>2018-11-01T09:11:45Z</time>
      </trkpt>
      <trkpt lat="48.63789" lon="2.5589">
        <ele>132.254</ele>
        <time>2018-11-01T09:11:47Z</time>
      </trkpt>
      <trkpt lat="48.63789" lon="2.55894">
        <ele>132.246</ele>
        <time>2018-11-01T09:11:49Z</time>
      </trkpt>
      <trkpt lat="48.63787" lon="2.55902">
        <ele>132.227</ele>
        <time>2018-11-01T09:11:53Z</time>
      </trkpt>
      <trkpt lat="48.63786" lon="2.55906">
        <ele>132.216</ele>
        <time>2018-11-01T09:11:55Z</time>
      </trkpt>
      <trkpt lat="48.63783" lon="2.55912">
        <ele>132.199</ele>
        <time>2018-11-01T09:11:58Z</time>
      </trkpt>
      <trkpt lat="48.63782" lon="2.55916">
        <ele>132.187</ele>
        <time>2018-11-01T09:12:00Z</time>
      </trkpt>
      <trkpt lat="48.63781" lon="2.5592">
        <ele>132.174</ele>
        <time>2018-11-01T09:12:02Z</time>
      </trkpt>
      <trkpt lat="48.63777" lon="2.55926">
        <ele>132.143</ele>
        <time>2018-11-01T09:12:07Z</time>
      </trkpt>
      <trkpt lat="48.63775" lon="2.55929">
        <ele>132.131</ele>
        <time>2018-11-01T09:12:09Z</time>
      </trkpt>
      <trkpt lat="48.63771" lon="2.55933">
        <ele>132.106</ele>
        <time>2018-11-01T09:12:13Z</time>
      </trkpt>
      <trkpt lat="48.63771" lon="2.55933">
        <ele>81.2</ele>
        <time>2018-11-01T09:12:20Z</time>
      </trkpt>
      <trkpt lat="48.63771" lon="2.55933">
        <ele>81.2</ele>
        <time>2018-11-01T09:12:55Z</time>
      </trkpt>
      <trkpt lat="48.63752" lon="2.55954">
        <ele>131.864</ele>
        <time>2018-11-01T09:12:57Z</time>
      </trkpt>
      <trkpt lat="48.6375" lon="2.55957">
        <ele>131.845</ele>
        <time>2018-11-01T09:12:59Z</time>
      </trkpt>
      <trkpt lat="48.63748" lon="2.55959">
        <ele>131.826</ele>
        <time>2018-11-01T09:13:01Z</time>
      </trkpt>
      <trkpt lat="48.63745" lon="2.55963">
        <ele>131.799</ele>
        <time>2018-11-01T09:13:04Z</time>
      </trkpt>
      <trkpt lat="48.63742" lon="2.5597">
        <ele>131.752</ele>
        <time>2018-11-01T09:13:09Z</time>
      </trkpt>
      <trkpt lat="48.63742" lon="2.5597">
        <ele>131.752</ele>
        <time>2018-11-01T09:13:16Z</time>
      </trkpt>
      <trkpt lat="48.63742" lon="2.5597">
        <ele>81</ele>
        <time>2018-11-01T09:13:16Z</time>
      </trkpt>
      <trkpt lat="48.63742" lon="2.5597">
        <ele>81</ele>
        <time>2018-11-01T09:14:11Z</time>
      </trkpt>
      <trkpt lat="48.63727" lon="2.56005">
        <ele>131.461</ele>
        <time>2018-11-01T09:14:14Z</time>
      </trkpt>
      <trkpt lat="48.63726" lon="2.56008">
        <ele>131.457</ele>
        <time>2018-11-01T09:14:16Z</time>
      </trkpt>
      <trkpt lat="48.63724" lon="2.56012">
        <ele>131.453</ele>
        <time>2018-11-01T09:14:18Z</time>
      </trkpt>
      <trkpt lat="48.63722" lon="2.56015">
        <ele>131.451</ele>
        <time>2018-11-01T09:14:21Z</time>
      </trkpt>
      <trkpt lat="48.63719" lon="2.56022">
        <ele>131.456</ele>
        <time>2018-11-01T09:14:25Z</time>
      </trkpt>
      <trkpt lat="48.63715" lon="2.56027">
        <ele>131.472</ele>
        <time>2018-11-01T09:14:29Z</time>
      </trkpt>
      <trkpt lat="48.63711" lon="2.56031">
        <ele>131.49</ele>
        <time>2018-11-01T09:14:33Z</time>
      </trkpt>
      <trkpt lat="48.63708" lon="2.56033">
        <ele>131.5</ele>
        <time>2018-11-01T09:14:35Z</time>
      </trkpt>
      <trkpt lat="48.63703" lon="2.56037">
        <ele>131.524</ele>
        <time>2018-11-01T09:14:39Z</time>
      </trkpt>
      <trkpt lat="48.637" lon="2.56043">
        <ele>131.547</ele>
        <time>2018-11-01T09:14:42Z</time>
      </trkpt>
      <trkpt lat="48.63697" lon="2.56049">
        <ele>131.58</ele>
        <time>2018-11-01T09:14:46Z</time>
      </trkpt>
      <trkpt lat="48.63693" lon="2.56053">
        <ele>131.617</ele>
        <time>2018-11-01T09:14:50Z</time>
      </trkpt>
      <trkpt lat="48.63691" lon="2.56056">
        <ele>131.638</ele>
        <time>2018-11-01T09:14:52Z</time>
      </trkpt>
      <trkpt lat="48.63688" lon="2.56063">
        <ele>131.676</ele>
        <time>2018-11-01T09:14:55Z</time>
      </trkpt>
      <trkpt lat="48.63685" lon="2.5607">
        <ele>131.718</ele>
        <time>2018-11-01T09:14:58Z</time>
      </trkpt>
      <trkpt lat="48.63683" lon="2.56075">
        <ele>131.748</ele>
        <time>2018-11-01T09:15:00Z</time>
      </trkpt>
      <trkpt lat="48.63681" lon="2.56079">
        <ele>131.78</ele>
        <time>2018-11-01T09:15:02Z</time>
      </trkpt>
      <trkpt lat="48.6368" lon="2.56084">
        <ele>131.813</ele>
        <time>2018-11-01T09:15:04Z</time>
      </trkpt>
      <trkpt lat="48.63678" lon="2.56089">
        <ele>131.846</ele>
        <time>2018-11-01T09:15:06Z</time>
      </trkpt>
      <trkpt lat="48.63677" lon="2.56093">
        <ele>131.879</ele>
        <time>2018-11-01T09:15:08Z</time>
      </trkpt>
      <trkpt lat="48.63676" lon="2.56098">
        <ele>131.913</ele>
        <time>2018-11-01T09:15:10Z</time>
      </trkpt>
      <trkpt lat="48.63672" lon="2.56105">
        <ele>131.982</ele>
        <time>2018-11-01T09:15:14Z</time>
      </trkpt>
      <trkpt lat="48.6367" lon="2.56107">
        <ele>132.019</ele>
        <time>2018-11-01T09:15:16Z</time>
      </trkpt>
      <trkpt lat="48.63668" lon="2.56116">
        <ele>132.097</ele>
        <time>2018-11-01T09:15:20Z</time>
      </trkpt>
      <trkpt lat="48.63667" lon="2.56121">
        <ele>132.137</ele>
        <time>2018-11-01T09:15:22Z</time>
      </trkpt>
      <trkpt lat="48.63666" lon="2.56125">
        <ele>132.178</ele>
        <time>2018-11-01T09:15:24Z</time>
      </trkpt>
      <trkpt lat="48.63664" lon="2.56134">
        <ele>132.262</ele>
        <time>2018-11-01T09:15:28Z</time>
      </trkpt>
      <trkpt lat="48.63662" lon="2.56143">
        <ele>132.349</ele>
        <time>2018-11-01T09:15:32Z</time>
      </trkpt>
      <trkpt lat="48.63662" lon="2.56147">
        <ele>132.392</ele>
        <time>2018-11-01T09:15:34Z</time>
      </trkpt>
      <trkpt lat="48.63661" lon="2.56151">
        <ele>132.437</ele>
        <time>2018-11-01T09:15:36Z</time>
      </trkpt>
      <trkpt lat="48.6366" lon="2.56154">
        <ele>132.482</ele>
        <time>2018-11-01T09:15:38Z</time>
      </trkpt>
      <trkpt lat="48.63658" lon="2.56162">
        <ele>132.575</ele>
        <time>2018-11-01T09:15:42Z</time>
      </trkpt>
      <trkpt lat="48.63656" lon="2.56166">
        <ele>132.623</ele>
        <time>2018-11-01T09:15:44Z</time>
      </trkpt>
      <trkpt lat="48.63655" lon="2.5617">
        <ele>132.671</ele>
        <time>2018-11-01T09:15:46Z</time>
      </trkpt>
      <trkpt lat="48.63653" lon="2.56174">
        <ele>132.718</ele>
        <time>2018-11-01T09:15:48Z</time>
      </trkpt>
      <trkpt lat="48.63652" lon="2.56178">
        <ele>132.764</ele>
        <time>2018-11-01T09:15:50Z</time>
      </trkpt>
      <trkpt lat="48.6365" lon="2.56182">
        <ele>132.809</ele>
        <time>2018-11-01T09:15:52Z</time>
      </trkpt>
      <trkpt lat="48.63648" lon="2.56189">
        <ele>132.892</ele>
        <time>2018-11-01T09:15:56Z</time>
      </trkpt>
      <trkpt lat="48.63646" lon="2.56195">
        <ele>132.97</ele>
        <time>2018-11-01T09:16:00Z</time>
      </trkpt>
      <trkpt lat="48.63645" lon="2.562">
        <ele>133.009</ele>
        <time>2018-11-01T09:16:02Z</time>
      </trkpt>
      <trkpt lat="48.63642" lon="2.56207">
        <ele>133.082</ele>
        <time>2018-11-01T09:16:06Z</time>
      </trkpt>
      <trkpt lat="48.63641" lon="2.56214">
        <ele>133.135</ele>
        <time>2018-11-01T09:16:09Z</time>
      </trkpt>
      <trkpt lat="48.6364" lon="2.56217">
        <ele>133.169</ele>
        <time>2018-11-01T09:16:11Z</time>
      </trkpt>
      <trkpt lat="48.63639" lon="2.56222">
        <ele>133.202</ele>
        <time>2018-11-01T09:16:13Z</time>
      </trkpt>
      <trkpt lat="48.63637" lon="2.56228">
        <ele>133.249</ele>
        <time>2018-11-01T09:16:16Z</time>
      </trkpt>
      <trkpt lat="48.63635" lon="2.56236">
        <ele>133.308</ele>
        <time>2018-11-01T09:16:20Z</time>
      </trkpt>
      <trkpt lat="48.63635" lon="2.56242">
        <ele>133.349</ele>
        <time>2018-11-01T09:16:23Z</time>
      </trkpt>
      <trkpt lat="48.63636" lon="2.5625">
        <ele>133.399</ele>
        <time>2018-11-01T09:16:27Z</time>
      </trkpt>
      <trkpt lat="48.6364" lon="2.56255">
        <ele>133.441</ele>
        <time>2018-11-01T09:16:31Z</time>
      </trkpt>
      <trkpt lat="48.63644" lon="2.56259">
        <ele>133.478</ele>
        <time>2018-11-01T09:16:35Z</time>
      </trkpt>
      <trkpt lat="48.63647" lon="2.56261">
        <ele>133.502</ele>
        <time>2018-11-01T09:16:38Z</time>
      </trkpt>
      <trkpt lat="48.63652" lon="2.56265">
        <ele>133.527</ele>
        <time>2018-11-01T09:16:42Z</time>
      </trkpt>
      <trkpt lat="48.63657" lon="2.56269">
        <ele>133.549</ele>
        <time>2018-11-01T09:16:46Z</time>
      </trkpt>
      <trkpt lat="48.63657" lon="2.56269">
        <ele>83.1</ele>
        <time>2018-11-01T09:16:54Z</time>
      </trkpt>
      <trkpt lat="48.63657" lon="2.56269">
        <ele>83.1</ele>
        <time>2018-11-01T09:17:38Z</time>
      </trkpt>
      <trkpt lat="48.6368" lon="2.56296">
        <ele>133.719</ele>
        <time>2018-11-01T09:17:39Z</time>
      </trkpt>
      <trkpt lat="48.63685" lon="2.56303">
        <ele>133.739</ele>
        <time>2018-11-01T09:17:43Z</time>
      </trkpt>
      <trkpt lat="48.63689" lon="2.56308">
        <ele>133.766</ele>
        <time>2018-11-01T09:17:48Z</time>
      </trkpt>
      <trkpt lat="48.63689" lon="2.56308">
        <ele>83.2</ele>
        <time>2018-11-01T09:17:56Z</time>
      </trkpt>
      <trkpt lat="48.63689" lon="2.56308">
        <ele>83.2</ele>
        <time>2018-11-01T09:18:17Z</time>
      </trkpt>
      <trkpt lat="48.63702" lon="2.56334">
        <ele>133.875</ele>
        <time>2018-11-01T09:18:19Z</time>
      </trkpt>
      <trkpt lat="48.63705" lon="2.5634">
        <ele>133.89</ele>
        <time>2018-11-01T09:18:22Z</time>
      </trkpt>
      <trkpt lat="48.63707" lon="2.56348">
        <ele>133.905</ele>
        <time>2018-11-01T09:18:25Z</time>
      </trkpt>
      <trkpt lat="48.63707" lon="2.56356">
        <ele>133.925</ele>
        <time>2018-11-01T09:18:29Z</time>
      </trkpt>
      <trkpt lat="48.63707" lon="2.5636">
        <ele>133.938</ele>
        <time>2018-11-01T09:18:32Z</time>
      </trkpt>
      <trkpt lat="48.63706" lon="2.56368">
        <ele>133.955</ele>
        <time>2018-11-01T09:18:36Z</time>
      </trkpt>
      <trkpt lat="48.63705" lon="2.56377">
        <ele>133.971</ele>
        <time>2018-11-01T09:18:40Z</time>
      </trkpt>
      <trkpt lat="48.63704" lon="2.56383">
        <ele>133.982</ele>
        <time>2018-11-01T09:18:43Z</time>
      </trkpt>
      <trkpt lat="48.63703" lon="2.56388">
        <ele>133.99</ele>
        <time>2018-11-01T09:18:45Z</time>
      </trkpt>
      <trkpt lat="48.63702" lon="2.56393">
        <ele>133.997</ele>
        <time>2018-11-01T09:18:47Z</time>
      </trkpt>
      <trkpt lat="48.63703" lon="2.56401">
        <ele>134.008</ele>
        <time>2018-11-01T09:18:50Z</time>
      </trkpt>
      <trkpt lat="48.63703" lon="2.56405">
        <ele>134.016</ele>
        <time>2018-11-01T09:18:52Z</time>
      </trkpt>
      <trkpt lat="48.63701" lon="2.56414">
        <ele>134.03</ele>
        <time>2018-11-01T09:18:56Z</time>
      </trkpt>
      <trkpt lat="48.63699" lon="2.56419">
        <ele>134.037</ele>
        <time>2018-11-01T09:18:58Z</time>
      </trkpt>
      <trkpt lat="48.63698" lon="2.56426">
        <ele>134.048</ele>
        <time>2018-11-01T09:19:01Z</time>
      </trkpt>
      <trkpt lat="48.63697" lon="2.56433">
        <ele>134.059</ele>
        <time>2018-11-01T09:19:04Z</time>
      </trkpt>
      <trkpt lat="48.63697" lon="2.56441">
        <ele>134.069</ele>
        <time>2018-11-01T09:19:07Z</time>
      </trkpt>
      <trkpt lat="48.63694" lon="2.56449">
        <ele>134.081</ele>
        <time>2018-11-01T09:19:11Z</time>
      </trkpt>
      <trkpt lat="48.63692" lon="2.56453">
        <ele>134.091</ele>
        <time>2018-11-01T09:19:14Z</time>
      </trkpt>
      <trkpt lat="48.63691" lon="2.56459">
        <ele>134.102</ele>
        <time>2018-11-01T09:19:17Z</time>
      </trkpt>
      <trkpt lat="48.63689" lon="2.56468">
        <ele>134.119</ele>
        <time>2018-11-01T09:19:21Z</time>
      </trkpt>
      <trkpt lat="48.63687" lon="2.56474">
        <ele>134.14</ele>
        <time>2018-11-01T09:19:25Z</time>
      </trkpt>
      <trkpt lat="48.63684" lon="2.56481">
        <ele>134.163</ele>
        <time>2018-11-01T09:19:29Z</time>
      </trkpt>
      <trkpt lat="48.63683" lon="2.56488">
        <ele>134.187</ele>
        <time>2018-11-01T09:19:33Z</time>
      </trkpt>
      <trkpt lat="48.63681" lon="2.56495">
        <ele>134.211</ele>
        <time>2018-11-01T09:19:37Z</time>
      </trkpt>
      <trkpt lat="48.63678" lon="2.56503">
        <ele>134.233</ele>
        <time>2018-11-01T09:19:41Z</time>
      </trkpt>
      <trkpt lat="48.63676" lon="2.56506">
        <ele>134.244</ele>
        <time>2018-11-01T09:19:43Z</time>
      </trkpt>
      <trkpt lat="48.63675" lon="2.56514">
        <ele>134.263</ele>
        <time>2018-11-01T09:19:47Z</time>
      </trkpt>
      <trkpt lat="48.63676" lon="2.56522">
        <ele>134.287</ele>
        <time>2018-11-01T09:19:53Z</time>
      </trkpt>
      <trkpt lat="48.63676" lon="2.56526">
        <ele>134.296</ele>
        <time>2018-11-01T09:19:55Z</time>
      </trkpt>
      <trkpt lat="48.63678" lon="2.56532">
        <ele>134.308</ele>
        <time>2018-11-01T09:19:58Z</time>
      </trkpt>
      <trkpt lat="48.63678" lon="2.56539">
        <ele>134.333</ele>
        <time>2018-11-01T09:20:04Z</time>
      </trkpt>
      <trkpt lat="48.63679" lon="2.56547">
        <ele>134.43</ele>
        <time>2018-11-01T09:20:09Z</time>
      </trkpt>
      <trkpt lat="48.6368" lon="2.56556">
        <ele>134.437</ele>
        <time>2018-11-01T09:20:13Z</time>
      </trkpt>
      <trkpt lat="48.63683" lon="2.56566">
        <ele>134.443</ele>
        <time>2018-11-01T09:20:17Z</time>
      </trkpt>
      <trkpt lat="48.63688" lon="2.56576">
        <ele>134.445</ele>
        <time>2018-11-01T09:20:19Z</time>
      </trkpt>
      <trkpt lat="48.63691" lon="2.56582">
        <ele>134.448</ele>
        <time>2018-11-01T09:20:21Z</time>
      </trkpt>
      <trkpt lat="48.63692" lon="2.56592">
        <ele>134.452</ele>
        <time>2018-11-01T09:20:24Z</time>
      </trkpt>
      <trkpt lat="48.63691" lon="2.56599">
        <ele>134.455</ele>
        <time>2018-11-01T09:20:27Z</time>
      </trkpt>
      <trkpt lat="48.63687" lon="2.56605">
        <ele>134.457</ele>
        <time>2018-11-01T09:20:29Z</time>
      </trkpt>
      <trkpt lat="48.63685" lon="2.56608">
        <ele>134.459</ele>
        <time>2018-11-01T09:20:31Z</time>
      </trkpt>
      <trkpt lat="48.63682" lon="2.56614">
        <ele>134.461</ele>
        <time>2018-11-01T09:20:34Z</time>
      </trkpt>
      <trkpt lat="48.6368" lon="2.56617">
        <ele>134.462</ele>
        <time>2018-11-01T09:20:36Z</time>
      </trkpt>
      <trkpt lat="48.63675" lon="2.56622">
        <ele>134.466</ele>
        <time>2018-11-01T09:20:40Z</time>
      </trkpt>
      <trkpt lat="48.6367" lon="2.56625">
        <ele>134.471</ele>
        <time>2018-11-01T09:20:44Z</time>
      </trkpt>
      <trkpt lat="48.63665" lon="2.56628">
        <ele>134.477</ele>
        <time>2018-11-01T09:20:48Z</time>
      </trkpt>
      <trkpt lat="48.63661" lon="2.56629">
        <ele>134.479</ele>
        <time>2018-11-01T09:20:51Z</time>
      </trkpt>
      <trkpt lat="48.63656" lon="2.56633">
        <ele>134.48</ele>
        <time>2018-11-01T09:20:56Z</time>
      </trkpt>
      <trkpt lat="48.63652" lon="2.56637">
        <ele>134.479</ele>
        <time>2018-11-01T09:20:59Z</time>
      </trkpt>
      <trkpt lat="48.63649" lon="2.56642">
        <ele>134.481</ele>
        <time>2018-11-01T09:21:04Z</time>
      </trkpt>
      <trkpt lat="48.63645" lon="2.56647">
        <ele>134.488</ele>
        <time>2018-11-01T09:21:08Z</time>
      </trkpt>
      <trkpt lat="48.63638" lon="2.56653">
        <ele>134.497</ele>
        <time>2018-11-01T09:21:12Z</time>
      </trkpt>
      <trkpt lat="48.63634" lon="2.56658">
        <ele>134.503</ele>
        <time>2018-11-01T09:21:15Z</time>
      </trkpt>
      <trkpt lat="48.63632" lon="2.5666">
        <ele>134.508</ele>
        <time>2018-11-01T09:21:17Z</time>
      </trkpt>
      <trkpt lat="48.63629" lon="2.56668">
        <ele>134.519</ele>
        <time>2018-11-01T09:21:22Z</time>
      </trkpt>
      <trkpt lat="48.63625" lon="2.56673">
        <ele>134.532</ele>
        <time>2018-11-01T09:21:26Z</time>
      </trkpt>
      <trkpt lat="48.63621" lon="2.56676">
        <ele>134.561</ele>
        <time>2018-11-01T09:21:33Z</time>
      </trkpt>
      <trkpt lat="48.63618" lon="2.56678">
        <ele>134.58</ele>
        <time>2018-11-01T09:21:36Z</time>
      </trkpt>
      <trkpt lat="48.63615" lon="2.56681">
        <ele>134.608</ele>
        <time>2018-11-01T09:21:40Z</time>
      </trkpt>
      <trkpt lat="48.63612" lon="2.56686">
        <ele>134.636</ele>
        <time>2018-11-01T09:21:44Z</time>
      </trkpt>
      <trkpt lat="48.63609" lon="2.56689">
        <ele>134.651</ele>
        <time>2018-11-01T09:21:46Z</time>
      </trkpt>
      <trkpt lat="48.63604" lon="2.56693">
        <ele>134.672</ele>
        <time>2018-11-01T09:21:49Z</time>
      </trkpt>
      <trkpt lat="48.636" lon="2.56697">
        <ele>134.692</ele>
        <time>2018-11-01T09:21:52Z</time>
      </trkpt>
      <trkpt lat="48.63598" lon="2.567">
        <ele>134.705</ele>
        <time>2018-11-01T09:21:54Z</time>
      </trkpt>
      <trkpt lat="48.63595" lon="2.56702">
        <ele>134.718</ele>
        <time>2018-11-01T09:21:56Z</time>
      </trkpt>
      <trkpt lat="48.63593" lon="2.56704">
        <ele>134.731</ele>
        <time>2018-11-01T09:21:58Z</time>
      </trkpt>
      <trkpt lat="48.6359" lon="2.56709">
        <ele>134.777</ele>
        <time>2018-11-01T09:22:05Z</time>
      </trkpt>
      <trkpt lat="48.63585" lon="2.56713">
        <ele>134.812</ele>
        <time>2018-11-01T09:22:09Z</time>
      </trkpt>
      <trkpt lat="48.63581" lon="2.56717">
        <ele>134.84</ele>
        <time>2018-11-01T09:22:12Z</time>
      </trkpt>
      <trkpt lat="48.63577" lon="2.56721">
        <ele>134.858</ele>
        <time>2018-11-01T09:22:14Z</time>
      </trkpt>
      <trkpt lat="48.63572" lon="2.56727">
        <ele>134.885</ele>
        <time>2018-11-01T09:22:17Z</time>
      </trkpt>
      <trkpt lat="48.63569" lon="2.56732">
        <ele>134.904</ele>
        <time>2018-11-01T09:22:19Z</time>
      </trkpt>
      <trkpt lat="48.63563" lon="2.56735">
        <ele>134.93</ele>
        <time>2018-11-01T09:22:22Z</time>
      </trkpt>
      <trkpt lat="48.63559" lon="2.56737">
        <ele>134.953</ele>
        <time>2018-11-01T09:22:25Z</time>
      </trkpt>
      <trkpt lat="48.63555" lon="2.56741">
        <ele>134.975</ele>
        <time>2018-11-01T09:22:28Z</time>
      </trkpt>
      <trkpt lat="48.6355" lon="2.56745">
        <ele>134.996</ele>
        <time>2018-11-01T09:22:31Z</time>
      </trkpt>
      <trkpt lat="48.63547" lon="2.56747">
        <ele>135.01</ele>
        <time>2018-11-01T09:22:33Z</time>
      </trkpt>
      <trkpt lat="48.63544" lon="2.56749">
        <ele>135.025</ele>
        <time>2018-11-01T09:22:35Z</time>
      </trkpt>
      <trkpt lat="48.63541" lon="2.56753">
        <ele>135.047</ele>
        <time>2018-11-01T09:22:38Z</time>
      </trkpt>
      <trkpt lat="48.63539" lon="2.56755">
        <ele>135.062</ele>
        <time>2018-11-01T09:22:40Z</time>
      </trkpt>
      <trkpt lat="48.63533" lon="2.56758">
        <ele>135.093</ele>
        <time>2018-11-01T09:22:44Z</time>
      </trkpt>
      <trkpt lat="48.63531" lon="2.5676">
        <ele>135.109</ele>
        <time>2018-11-01T09:22:46Z</time>
      </trkpt>
      <trkpt lat="48.63527" lon="2.56765">
        <ele>135.14</ele>
        <time>2018-11-01T09:22:50Z</time>
      </trkpt>
      <trkpt lat="48.63526" lon="2.56768">
        <ele>135.156</ele>
        <time>2018-11-01T09:22:52Z</time>
      </trkpt>
      <trkpt lat="48.63522" lon="2.56773">
        <ele>135.188</ele>
        <time>2018-11-01T09:22:56Z</time>
      </trkpt>
      <trkpt lat="48.63517" lon="2.56776">
        <ele>135.219</ele>
        <time>2018-11-01T09:23:00Z</time>
      </trkpt>
      <trkpt lat="48.63513" lon="2.5678">
        <ele>135.241</ele>
        <time>2018-11-01T09:23:03Z</time>
      </trkpt>
      <trkpt lat="48.63507" lon="2.56783">
        <ele>135.271</ele>
        <time>2018-11-01T09:23:07Z</time>
      </trkpt>
      <trkpt lat="48.63504" lon="2.56786">
        <ele>135.292</ele>
        <time>2018-11-01T09:23:10Z</time>
      </trkpt>
      <trkpt lat="48.635" lon="2.5679">
        <ele>135.318</ele>
        <time>2018-11-01T09:23:14Z</time>
      </trkpt>
      <trkpt lat="48.63497" lon="2.56797">
        <ele>135.342</ele>
        <time>2018-11-01T09:23:19Z</time>
      </trkpt>
      <trkpt lat="48.63497" lon="2.56797">
        <ele>135.342</ele>
        <time>2018-11-01T09:23:27Z</time>
      </trkpt>
      <trkpt lat="48.63497" lon="2.56797">
        <ele>84.6</ele>
        <time>2018-11-01T09:23:27Z</time>
      </trkpt>
      <trkpt lat="48.63497" lon="2.56797">
        <ele>84.6</ele>
        <time>2018-11-01T09:27:12Z</time>
      </trkpt>
      <trkpt lat="48.63479" lon="2.56814">
        <ele>137.45</ele>
        <time>2018-11-01T09:27:12Z</time>
      </trkpt>
      <trkpt lat="48.63473" lon="2.56816">
        <ele>137.61</ele>
        <time>2018-11-01T09:27:16Z</time>
      </trkpt>
      <trkpt lat="48.63468" lon="2.5682">
        <ele>137.758</ele>
        <time>2018-11-01T09:27:20Z</time>
      </trkpt>
      <trkpt lat="48.63464" lon="2.56822">
        <ele>137.827</ele>
        <time>2018-11-01T09:27:22Z</time>
      </trkpt>
      <trkpt lat="48.6346" lon="2.56827">
        <ele>137.927</ele>
        <time>2018-11-01T09:27:25Z</time>
      </trkpt>
      <trkpt lat="48.63456" lon="2.56831">
        <ele>138.02</ele>
        <time>2018-11-01T09:27:28Z</time>
      </trkpt>
      <trkpt lat="48.63453" lon="2.56834">
        <ele>138.08</ele>
        <time>2018-11-01T09:27:30Z</time>
      </trkpt>
      <trkpt lat="48.63448" lon="2.56836">
        <ele>138.193</ele>
        <time>2018-11-01T09:27:34Z</time>
      </trkpt>
      <trkpt lat="48.63446" lon="2.56837">
        <ele>138.247</ele>
        <time>2018-11-01T09:27:36Z</time>
      </trkpt>
      <trkpt lat="48.6344" lon="2.5684">
        <ele>138.35</ele>
        <time>2018-11-01T09:27:40Z</time>
      </trkpt>
      <trkpt lat="48.63437" lon="2.56842">
        <ele>138.399</ele>
        <time>2018-11-01T09:27:42Z</time>
      </trkpt>
      <trkpt lat="48.63434" lon="2.56844">
        <ele>138.445</ele>
        <time>2018-11-01T09:27:44Z</time>
      </trkpt>
      <trkpt lat="48.63432" lon="2.56845">
        <ele>138.488</ele>
        <time>2018-11-01T09:27:46Z</time>
      </trkpt>
      <trkpt lat="48.63429" lon="2.56847">
        <ele>138.529</ele>
        <time>2018-11-01T09:27:48Z</time>
      </trkpt>
      <trkpt lat="48.63426" lon="2.56848">
        <ele>138.567</ele>
        <time>2018-11-01T09:27:50Z</time>
      </trkpt>
      <trkpt lat="48.63422" lon="2.5685">
        <ele>138.603</ele>
        <time>2018-11-01T09:27:52Z</time>
      </trkpt>
      <trkpt lat="48.63419" lon="2.56852">
        <ele>138.637</ele>
        <time>2018-11-01T09:27:54Z</time>
      </trkpt>
      <trkpt lat="48.63416" lon="2.56853">
        <ele>138.668</ele>
        <time>2018-11-01T09:27:56Z</time>
      </trkpt>
      <trkpt lat="48.63414" lon="2.56854">
        <ele>138.696</ele>
        <time>2018-11-01T09:27:58Z</time>
      </trkpt>
      <trkpt lat="48.6341" lon="2.56857">
        <ele>138.734</ele>
        <time>2018-11-01T09:28:01Z</time>
      </trkpt>
      <trkpt lat="48.63407" lon="2.56858">
        <ele>138.757</ele>
        <time>2018-11-01T09:28:03Z</time>
      </trkpt>
      <trkpt lat="48.63404" lon="2.5686">
        <ele>138.777</ele>
        <time>2018-11-01T09:28:05Z</time>
      </trkpt>
      <trkpt lat="48.63402" lon="2.56861">
        <ele>138.795</ele>
        <time>2018-11-01T09:28:07Z</time>
      </trkpt>
      <trkpt lat="48.63399" lon="2.56863">
        <ele>138.812</ele>
        <time>2018-11-01T09:28:09Z</time>
      </trkpt>
      <trkpt lat="48.63395" lon="2.56866">
        <ele>138.834</ele>
        <time>2018-11-01T09:28:12Z</time>
      </trkpt>
      <trkpt lat="48.63392" lon="2.56868">
        <ele>138.847</ele>
        <time>2018-11-01T09:28:14Z</time>
      </trkpt>
      <trkpt lat="48.6339" lon="2.56869">
        <ele>138.859</ele>
        <time>2018-11-01T09:28:16Z</time>
      </trkpt>
      <trkpt lat="48.63385" lon="2.56873">
        <ele>138.879</ele>
        <time>2018-11-01T09:28:20Z</time>
      </trkpt>
      <trkpt lat="48.63382" lon="2.56875">
        <ele>138.887</ele>
        <time>2018-11-01T09:28:22Z</time>
      </trkpt>
      <trkpt lat="48.6338" lon="2.56877">
        <ele>138.895</ele>
        <time>2018-11-01T09:28:24Z</time>
      </trkpt>
      <trkpt lat="48.63374" lon="2.5688">
        <ele>138.908</ele>
        <time>2018-11-01T09:28:29Z</time>
      </trkpt>
      <trkpt lat="48.63372" lon="2.5688">
        <ele>138.911</ele>
        <time>2018-11-01T09:28:31Z</time>
      </trkpt>
      <trkpt lat="48.63368" lon="2.56881">
        <ele>138.911</ele>
        <time>2018-11-01T09:28:34Z</time>
      </trkpt>
      <trkpt lat="48.63363" lon="2.56883">
        <ele>138.908</ele>
        <time>2018-11-01T09:28:37Z</time>
      </trkpt>
      <trkpt lat="48.6336" lon="2.56885">
        <ele>138.904</ele>
        <time>2018-11-01T09:28:39Z</time>
      </trkpt>
      <trkpt lat="48.63357" lon="2.56887">
        <ele>138.898</ele>
        <time>2018-11-01T09:28:41Z</time>
      </trkpt>
      <trkpt lat="48.63353" lon="2.56889">
        <ele>138.888</ele>
        <time>2018-11-01T09:28:44Z</time>
      </trkpt>
      <trkpt lat="48.6335" lon="2.5689">
        <ele>138.88</ele>
        <time>2018-11-01T09:28:46Z</time>
      </trkpt>
      <trkpt lat="48.63347" lon="2.56891">
        <ele>138.872</ele>
        <time>2018-11-01T09:28:48Z</time>
      </trkpt>
      <trkpt lat="48.63344" lon="2.56892">
        <ele>138.864</ele>
        <time>2018-11-01T09:28:50Z</time>
      </trkpt>
      <trkpt lat="48.63341" lon="2.56894">
        <ele>138.855</ele>
        <time>2018-11-01T09:28:52Z</time>
      </trkpt>
      <trkpt lat="48.63336" lon="2.56895">
        <ele>138.843</ele>
        <time>2018-11-01T09:28:55Z</time>
      </trkpt>
      <trkpt lat="48.63331" lon="2.56899">
        <ele>138.825</ele>
        <time>2018-11-01T09:28:59Z</time>
      </trkpt>
      <trkpt lat="48.63328" lon="2.56904">
        <ele>138.808</ele>
        <time>2018-11-01T09:29:03Z</time>
      </trkpt>
      <trkpt lat="48.63324" lon="2.56908">
        <ele>138.795</ele>
        <time>2018-11-01T09:29:06Z</time>
      </trkpt>
      <trkpt lat="48.63321" lon="2.56914">
        <ele>138.783</ele>
        <time>2018-11-01T09:29:09Z</time>
      </trkpt>
      <trkpt lat="48.63319" lon="2.56917">
        <ele>138.775</ele>
        <time>2018-11-01T09:29:11Z</time>
      </trkpt>
      <trkpt lat="48.63317" lon="2.56924">
        <ele>138.762</ele>
        <time>2018-11-01T09:29:15Z</time>
      </trkpt>
      <trkpt lat="48.63315" lon="2.5693">
        <ele>138.753</ele>
        <time>2018-11-01T09:29:18Z</time>
      </trkpt>
      <trkpt lat="48.63314" lon="2.56934">
        <ele>138.747</ele>
        <time>2018-11-01T09:29:20Z</time>
      </trkpt>
      <trkpt lat="48.63312" lon="2.56937">
        <ele>138.741</ele>
        <time>2018-11-01T09:29:22Z</time>
      </trkpt>
      <trkpt lat="48.63312" lon="2.56944">
        <ele>138.73</ele>
        <time>2018-11-01T09:29:26Z</time>
      </trkpt>
      <trkpt lat="48.63311" lon="2.56948">
        <ele>138.723</ele>
        <time>2018-11-01T09:29:28Z</time>
      </trkpt>
      <trkpt lat="48.63309" lon="2.56956">
        <ele>138.708</ele>
        <time>2018-11-01T09:29:32Z</time>
      </trkpt>
      <trkpt lat="48.63308" lon="2.56963">
        <ele>138.688</ele>
        <time>2018-11-01T09:29:37Z</time>
      </trkpt>
      <trkpt lat="48.63306" lon="2.5697">
        <ele>138.671</ele>
        <time>2018-11-01T09:29:41Z</time>
      </trkpt>
      <trkpt lat="48.63305" lon="2.56979">
        <ele>138.654</ele>
        <time>2018-11-01T09:29:45Z</time>
      </trkpt>
      <trkpt lat="48.63304" lon="2.56987">
        <ele>138.639</ele>
        <time>2018-11-01T09:29:48Z</time>
      </trkpt>
      <trkpt lat="48.63304" lon="2.56987">
        <ele>84</ele>
        <time>2018-11-01T09:29:56Z</time>
      </trkpt>
      <trkpt lat="48.63304" lon="2.56987">
        <ele>84</ele>
        <time>2018-11-01T09:30:00Z</time>
      </trkpt>
      <trkpt lat="48.63302" lon="2.57">
        <ele>138.589</ele>
        <time>2018-11-01T09:30:07Z</time>
      </trkpt>
      <trkpt lat="48.63302" lon="2.57">
        <ele>83.3</ele>
        <time>2018-11-01T09:30:07Z</time>
      </trkpt>
      <trkpt lat="48.63302" lon="2.57">
        <ele>83.3</ele>
        <time>2018-11-01T09:30:46Z</time>
      </trkpt>
      <trkpt lat="48.63311" lon="2.57043">
        <ele>138.345</ele>
        <time>2018-11-01T09:30:47Z</time>
      </trkpt>
      <trkpt lat="48.63313" lon="2.57052">
        <ele>138.318</ele>
        <time>2018-11-01T09:30:51Z</time>
      </trkpt>
      <trkpt lat="48.63314" lon="2.57059">
        <ele>138.298</ele>
        <time>2018-11-01T09:30:54Z</time>
      </trkpt>
      <trkpt lat="48.63314" lon="2.57065">
        <ele>138.285</ele>
        <time>2018-11-01T09:30:56Z</time>
      </trkpt>
      <trkpt lat="48.63315" lon="2.57073">
        <ele>138.259</ele>
        <time>2018-11-01T09:31:00Z</time>
      </trkpt>
      <trkpt lat="48.63315" lon="2.57081">
        <ele>138.234</ele>
        <time>2018-11-01T09:31:04Z</time>
      </trkpt>
      <trkpt lat="48.63313" lon="2.5709">
        <ele>138.208</ele>
        <time>2018-11-01T09:31:08Z</time>
      </trkpt>
      <trkpt lat="48.63312" lon="2.57094">
        <ele>138.195</ele>
        <time>2018-11-01T09:31:10Z</time>
      </trkpt>
      <trkpt lat="48.63312" lon="2.57102">
        <ele>138.176</ele>
        <time>2018-11-01T09:31:13Z</time>
      </trkpt>
      <trkpt lat="48.63312" lon="2.57109">
        <ele>138.157</ele>
        <time>2018-11-01T09:31:16Z</time>
      </trkpt>
      <trkpt lat="48.63312" lon="2.57118">
        <ele>138.141</ele>
        <time>2018-11-01T09:31:19Z</time>
      </trkpt>
      <trkpt lat="48.63312" lon="2.57123">
        <ele>138.131</ele>
        <time>2018-11-01T09:31:21Z</time>
      </trkpt>
      <trkpt lat="48.63311" lon="2.57129">
        <ele>138.122</ele>
        <time>2018-11-01T09:31:23Z</time>
      </trkpt>
      <trkpt lat="48.63311" lon="2.57133">
        <ele>138.113</ele>
        <time>2018-11-01T09:31:25Z</time>
      </trkpt>
      <trkpt lat="48.63311" lon="2.57141">
        <ele>138.102</ele>
        <time>2018-11-01T09:31:28Z</time>
      </trkpt>
      <trkpt lat="48.63311" lon="2.57148">
        <ele>138.093</ele>
        <time>2018-11-01T09:31:31Z</time>
      </trkpt>
      <trkpt lat="48.63311" lon="2.57157">
        <ele>138.082</ele>
        <time>2018-11-01T09:31:35Z</time>
      </trkpt>
      <trkpt lat="48.63311" lon="2.57161">
        <ele>138.078</ele>
        <time>2018-11-01T09:31:37Z</time>
      </trkpt>
      <trkpt lat="48.63311" lon="2.57168">
        <ele>138.072</ele>
        <time>2018-11-01T09:31:40Z</time>
      </trkpt>
      <trkpt lat="48.63311" lon="2.57175">
        <ele>138.065</ele>
        <time>2018-11-01T09:31:44Z</time>
      </trkpt>
      <trkpt lat="48.63312" lon="2.57179">
        <ele>138.062</ele>
        <time>2018-11-01T09:31:46Z</time>
      </trkpt>
      <trkpt lat="48.63311" lon="2.57184">
        <ele>138.06</ele>
        <time>2018-11-01T09:31:48Z</time>
      </trkpt>
      <trkpt lat="48.63312" lon="2.57189">
        <ele>138.056</ele>
        <time>2018-11-01T09:31:51Z</time>
      </trkpt>
      <trkpt lat="48.63312" lon="2.57192">
        <ele>138.052</ele>
        <time>2018-11-01T09:31:53Z</time>
      </trkpt>
      <trkpt lat="48.63312" lon="2.57198">
        <ele>138.049</ele>
        <time>2018-11-01T09:31:55Z</time>
      </trkpt>
      <trkpt lat="48.63312" lon="2.57202">
        <ele>138.046</ele>
        <time>2018-11-01T09:31:57Z</time>
      </trkpt>
      <trkpt lat="48.63312" lon="2.57207">
        <ele>138.042</ele>
        <time>2018-11-01T09:31:59Z</time>
      </trkpt>
      <trkpt lat="48.63312" lon="2.57211">
        <ele>138.039</ele>
        <time>2018-11-01T09:32:01Z</time>
      </trkpt>
      <trkpt lat="48.63313" lon="2.57219">
        <ele>138.034</ele>
        <time>2018-11-01T09:32:04Z</time>
      </trkpt>
      <trkpt lat="48.63313" lon="2.57224">
        <ele>138.032</ele>
        <time>2018-11-01T09:32:06Z</time>
      </trkpt>
      <trkpt lat="48.63313" lon="2.57229">
        <ele>138.029</ele>
        <time>2018-11-01T09:32:08Z</time>
      </trkpt>
      <trkpt lat="48.63313" lon="2.57234">
        <ele>138.026</ele>
        <time>2018-11-01T09:32:10Z</time>
      </trkpt>
      <trkpt lat="48.63314" lon="2.57238">
        <ele>138.022</ele>
        <time>2018-11-01T09:32:12Z</time>
      </trkpt>
      <trkpt lat="48.63314" lon="2.57245">
        <ele>138.01</ele>
        <time>2018-11-01T09:32:16Z</time>
      </trkpt>
      <trkpt lat="48.63314" lon="2.57245">
        <ele>138.01</ele>
        <time>2018-11-01T09:32:23Z</time>
      </trkpt>
      <trkpt lat="48.63314" lon="2.57245">
        <ele>84.7</ele>
        <time>2018-11-01T09:32:23Z</time>
      </trkpt>
      <trkpt lat="48.63314" lon="2.57245">
        <ele>84.7</ele>
        <time>2018-11-01T09:33:08Z</time>
      </trkpt>
      <trkpt lat="48.63325" lon="2.57269">
        <ele>137.73</ele>
        <time>2018-11-01T09:33:09Z</time>
      </trkpt>
      <trkpt lat="48.63327" lon="2.57275">
        <ele>137.691</ele>
        <time>2018-11-01T09:33:12Z</time>
      </trkpt>
      <trkpt lat="48.63329" lon="2.57279">
        <ele>137.665</ele>
        <time>2018-11-01T09:33:14Z</time>
      </trkpt>
      <trkpt lat="48.6333" lon="2.57282">
        <ele>137.641</ele>
        <time>2018-11-01T09:33:16Z</time>
      </trkpt>
      <trkpt lat="48.6333" lon="2.57282">
        <ele>84.9</ele>
        <time>2018-11-01T09:33:23Z</time>
      </trkpt>
      <trkpt lat="48.6333" lon="2.57282">
        <ele>84.9</ele>
        <time>2018-11-01T09:34:09Z</time>
      </trkpt>
      <trkpt lat="48.63358" lon="2.57294">
        <ele>137.456</ele>
        <time>2018-11-01T09:34:09Z</time>
      </trkpt>
      <trkpt lat="48.6336" lon="2.57294">
        <ele>137.444</ele>
        <time>2018-11-01T09:34:11Z</time>
      </trkpt>
      <trkpt lat="48.63365" lon="2.57297">
        <ele>137.42</ele>
        <time>2018-11-01T09:34:15Z</time>
      </trkpt>
      <trkpt lat="48.6337" lon="2.57298">
        <ele>137.395</ele>
        <time>2018-11-01T09:34:19Z</time>
      </trkpt>
      <trkpt lat="48.63373" lon="2.57299">
        <ele>137.382</ele>
        <time>2018-11-01T09:34:21Z</time>
      </trkpt>
      <trkpt lat="48.63378" lon="2.57301">
        <ele>137.363</ele>
        <time>2018-11-01T09:34:24Z</time>
      </trkpt>
      <trkpt lat="48.63384" lon="2.57303">
        <ele>137.339</ele>
        <time>2018-11-01T09:34:28Z</time>
      </trkpt>
      <trkpt lat="48.63387" lon="2.57304">
        <ele>137.327</ele>
        <time>2018-11-01T09:34:30Z</time>
      </trkpt>
      <trkpt lat="48.6339" lon="2.57305">
        <ele>137.316</ele>
        <time>2018-11-01T09:34:32Z</time>
      </trkpt>
      <trkpt lat="48.63393" lon="2.57306">
        <ele>137.304</ele>
        <time>2018-11-01T09:34:34Z</time>
      </trkpt>
      <trkpt lat="48.63398" lon="2.57308">
        <ele>137.28</ele>
        <time>2018-11-01T09:34:38Z</time>
      </trkpt>
      <trkpt lat="48.63402" lon="2.57312">
        <ele>137.262</ele>
        <time>2018-11-01T09:34:41Z</time>
      </trkpt>
      <trkpt lat="48.63405" lon="2.57314">
        <ele>137.248</ele>
        <time>2018-11-01T09:34:43Z</time>
      </trkpt>
      <trkpt lat="48.63408" lon="2.57317">
        <ele>137.234</ele>
        <time>2018-11-01T09:34:45Z</time>
      </trkpt>
      <trkpt lat="48.6341" lon="2.5732">
        <ele>137.211</ele>
        <time>2018-11-01T09:34:48Z</time>
      </trkpt>
      <trkpt lat="48.63415" lon="2.57321">
        <ele>137.17</ele>
        <time>2018-11-01T09:34:53Z</time>
      </trkpt>
      <trkpt lat="48.6342" lon="2.57321">
        <ele>137.137</ele>
        <time>2018-11-01T09:34:57Z</time>
      </trkpt>
      <trkpt lat="48.63425" lon="2.5732">
        <ele>137.103</ele>
        <time>2018-11-01T09:35:01Z</time>
      </trkpt>
      <trkpt lat="48.6343" lon="2.57316">
        <ele>137.068</ele>
        <time>2018-11-01T09:35:05Z</time>
      </trkpt>
      <trkpt lat="48.63433" lon="2.57313">
        <ele>137.041</ele>
        <time>2018-11-01T09:35:08Z</time>
      </trkpt>
      <trkpt lat="48.63436" lon="2.57307">
        <ele>137.014</ele>
        <time>2018-11-01T09:35:11Z</time>
      </trkpt>
      <trkpt lat="48.63438" lon="2.573">
        <ele>136.978</ele>
        <time>2018-11-01T09:35:15Z</time>
      </trkpt>
      <trkpt lat="48.63439" lon="2.57292">
        <ele>136.945</ele>
        <time>2018-11-01T09:35:19Z</time>
      </trkpt>
      <trkpt lat="48.63441" lon="2.57287">
        <ele>136.921</ele>
        <time>2018-11-01T09:35:22Z</time>
      </trkpt>
      <trkpt lat="48.63442" lon="2.57283">
        <ele>136.906</ele>
        <time>2018-11-01T09:35:24Z</time>
      </trkpt>
      <trkpt lat="48.63444" lon="2.57275">
        <ele>136.876</ele>
        <time>2018-11-01T09:35:28Z</time>
      </trkpt>
      <trkpt lat="48.63444" lon="2.57271">
        <ele>136.861</ele>
        <time>2018-11-01T09:35:30Z</time>
      </trkpt>
      <trkpt lat="48.63444" lon="2.57263">
        <ele>136.83</ele>
        <time>2018-11-01T09:35:34Z</time>
      </trkpt>
      <trkpt lat="48.63446" lon="2.57256">
        <ele>136.8</ele>
        <time>2018-11-01T09:35:38Z</time>
      </trkpt>
      <trkpt lat="48.63448" lon="2.5725">
        <ele>136.779</ele>
        <time>2018-11-01T09:35:41Z</time>
      </trkpt>
      <trkpt lat="48.63451" lon="2.57246">
        <ele>136.766</ele>
        <time>2018-11-01T09:35:43Z</time>
      </trkpt>
      <trkpt lat="48.63454" lon="2.5724">
        <ele>136.746</ele>
        <time>2018-11-01T09:35:46Z</time>
      </trkpt>
      <trkpt lat="48.63456" lon="2.57233">
        <ele>136.722</ele>
        <time>2018-11-01T09:35:50Z</time>
      </trkpt>
      <trkpt lat="48.63459" lon="2.57226">
        <ele>136.699</ele>
        <time>2018-11-01T09:35:54Z</time>
      </trkpt>
      <trkpt lat="48.63461" lon="2.57223">
        <ele>136.687</ele>
        <time>2018-11-01T09:35:56Z</time>
      </trkpt>
      <trkpt lat="48.63461" lon="2.57216">
        <ele>136.656</ele>
        <time>2018-11-01T09:36:02Z</time>
      </trkpt>
      <trkpt lat="48.63454" lon="2.57225">
        <ele>136.429</ele>
        <time>2018-11-01T09:37:19Z</time>
      </trkpt>
      <trkpt lat="48.63451" lon="2.57232">
        <ele>136.418</ele>
        <time>2018-11-01T09:37:23Z</time>
      </trkpt>
      <trkpt lat="48.6345" lon="2.57235">
        <ele>136.412</ele>
        <time>2018-11-01T09:37:25Z</time>
      </trkpt>
      <trkpt lat="48.63448" lon="2.5724">
        <ele>136.401</ele>
        <time>2018-11-01T09:37:28Z</time>
      </trkpt>
      <trkpt lat="48.63446" lon="2.57247">
        <ele>136.383</ele>
        <time>2018-11-01T09:37:32Z</time>
      </trkpt>
      <trkpt lat="48.63446" lon="2.57251">
        <ele>136.374</ele>
        <time>2018-11-01T09:37:34Z</time>
      </trkpt>
      <trkpt lat="48.63446" lon="2.57259">
        <ele>136.356</ele>
        <time>2018-11-01T09:37:38Z</time>
      </trkpt>
      <trkpt lat="48.63446" lon="2.57263">
        <ele>136.347</ele>
        <time>2018-11-01T09:37:40Z</time>
      </trkpt>
      <trkpt lat="48.63448" lon="2.5727">
        <ele>136.332</ele>
        <time>2018-11-01T09:37:43Z</time>
      </trkpt>
      <trkpt lat="48.6345" lon="2.57275">
        <ele>136.318</ele>
        <time>2018-11-01T09:37:46Z</time>
      </trkpt>
      <trkpt lat="48.63452" lon="2.57279">
        <ele>136.308</ele>
        <time>2018-11-01T09:37:48Z</time>
      </trkpt>
      <trkpt lat="48.63457" lon="2.57284">
        <ele>136.287</ele>
        <time>2018-11-01T09:37:52Z</time>
      </trkpt>
      <trkpt lat="48.63462" lon="2.57289">
        <ele>136.264</ele>
        <time>2018-11-01T09:37:56Z</time>
      </trkpt>
      <trkpt lat="48.63468" lon="2.57291">
        <ele>136.244</ele>
        <time>2018-11-01T09:38:00Z</time>
      </trkpt>
      <trkpt lat="48.63473" lon="2.57291">
        <ele>136.225</ele>
        <time>2018-11-01T09:38:04Z</time>
      </trkpt>
      <trkpt lat="48.63478" lon="2.57293">
        <ele>136.213</ele>
        <time>2018-11-01T09:38:07Z</time>
      </trkpt>
      <trkpt lat="48.63481" lon="2.57295">
        <ele>136.2</ele>
        <time>2018-11-01T09:38:10Z</time>
      </trkpt>
      <trkpt lat="48.63486" lon="2.57297">
        <ele>136.186</ele>
        <time>2018-11-01T09:38:13Z</time>
      </trkpt>
      <trkpt lat="48.63491" lon="2.573">
        <ele>136.172</ele>
        <time>2018-11-01T09:38:16Z</time>
      </trkpt>
      <trkpt lat="48.63493" lon="2.57302">
        <ele>136.163</ele>
        <time>2018-11-01T09:38:18Z</time>
      </trkpt>
      <trkpt lat="48.63496" lon="2.57304">
        <ele>136.154</ele>
        <time>2018-11-01T09:38:20Z</time>
      </trkpt>
      <trkpt lat="48.635" lon="2.57307">
        <ele>136.139</ele>
        <time>2018-11-01T09:38:23Z</time>
      </trkpt>
      <trkpt lat="48.63503" lon="2.57309">
        <ele>136.131</ele>
        <time>2018-11-01T09:38:25Z</time>
      </trkpt>
      <trkpt lat="48.63505" lon="2.57311">
        <ele>136.123</ele>
        <time>2018-11-01T09:38:27Z</time>
      </trkpt>
      <trkpt lat="48.63508" lon="2.57313">
        <ele>136.116</ele>
        <time>2018-11-01T09:38:29Z</time>
      </trkpt>
      <trkpt lat="48.63513" lon="2.57315">
        <ele>136.108</ele>
        <time>2018-11-01T09:38:32Z</time>
      </trkpt>
      <trkpt lat="48.63516" lon="2.57315">
        <ele>136.097</ele>
        <time>2018-11-01T09:38:35Z</time>
      </trkpt>
      <trkpt lat="48.6352" lon="2.57314">
        <ele>136.072</ele>
        <time>2018-11-01T09:38:40Z</time>
      </trkpt>
      <trkpt lat="48.63525" lon="2.5731">
        <ele>136.039</ele>
        <time>2018-11-01T09:38:45Z</time>
      </trkpt>
      <trkpt lat="48.63529" lon="2.57306">
        <ele>136.018</ele>
        <time>2018-11-01T09:38:48Z</time>
      </trkpt>
      <trkpt lat="48.63534" lon="2.573">
        <ele>135.994</ele>
        <time>2018-11-01T09:38:52Z</time>
      </trkpt>
      <trkpt lat="48.63538" lon="2.57295">
        <ele>135.974</ele>
        <time>2018-11-01T09:38:56Z</time>
      </trkpt>
      <trkpt lat="48.63543" lon="2.57291">
        <ele>135.959</ele>
        <time>2018-11-01T09:38:59Z</time>
      </trkpt>
      <trkpt lat="48.63548" lon="2.57289">
        <ele>135.945</ele>
        <time>2018-11-01T09:39:02Z</time>
      </trkpt>
      <trkpt lat="48.63553" lon="2.57288">
        <ele>135.924</ele>
        <time>2018-11-01T09:39:06Z</time>
      </trkpt>
      <trkpt lat="48.63558" lon="2.57289">
        <ele>135.907</ele>
        <time>2018-11-01T09:39:09Z</time>
      </trkpt>
      <trkpt lat="48.63564" lon="2.57292">
        <ele>135.889</ele>
        <time>2018-11-01T09:39:12Z</time>
      </trkpt>
      <trkpt lat="48.63569" lon="2.57293">
        <ele>135.871</ele>
        <time>2018-11-01T09:39:15Z</time>
      </trkpt>
      <trkpt lat="48.63574" lon="2.57297">
        <ele>135.852</ele>
        <time>2018-11-01T09:39:18Z</time>
      </trkpt>
      <trkpt lat="48.6358" lon="2.57299">
        <ele>135.825</ele>
        <time>2018-11-01T09:39:22Z</time>
      </trkpt>
      <trkpt lat="48.63584" lon="2.57299">
        <ele>135.804</ele>
        <time>2018-11-01T09:39:25Z</time>
      </trkpt>
      <trkpt lat="48.63589" lon="2.57296">
        <ele>135.782</ele>
        <time>2018-11-01T09:39:28Z</time>
      </trkpt>
      <trkpt lat="48.63593" lon="2.57293">
        <ele>135.76</ele>
        <time>2018-11-01T09:39:31Z</time>
      </trkpt>
      <trkpt lat="48.63597" lon="2.57288">
        <ele>135.738</ele>
        <time>2018-11-01T09:39:34Z</time>
      </trkpt>
      <trkpt lat="48.636" lon="2.57282">
        <ele>135.708</ele>
        <time>2018-11-01T09:39:38Z</time>
      </trkpt>
      <trkpt lat="48.636" lon="2.57274">
        <ele>135.676</ele>
        <time>2018-11-01T09:39:42Z</time>
      </trkpt>
      <trkpt lat="48.636" lon="2.57266">
        <ele>135.648</ele>
        <time>2018-11-01T09:39:45Z</time>
      </trkpt>
      <trkpt lat="48.63597" lon="2.57259">
        <ele>135.608</ele>
        <time>2018-11-01T09:39:49Z</time>
      </trkpt>
      <trkpt lat="48.63593" lon="2.57252">
        <ele>135.56</ele>
        <time>2018-11-01T09:39:53Z</time>
      </trkpt>
      <trkpt lat="48.63591" lon="2.57248">
        <ele>135.534</ele>
        <time>2018-11-01T09:39:55Z</time>
      </trkpt>
      <trkpt lat="48.63588" lon="2.57242">
        <ele>135.493</ele>
        <time>2018-11-01T09:39:58Z</time>
      </trkpt>
      <trkpt lat="48.63586" lon="2.57238">
        <ele>135.464</ele>
        <time>2018-11-01T09:40:00Z</time>
      </trkpt>
      <trkpt lat="48.63585" lon="2.57234">
        <ele>135.436</ele>
        <time>2018-11-01T09:40:02Z</time>
      </trkpt>
      <trkpt lat="48.63583" lon="2.5723">
        <ele>135.409</ele>
        <time>2018-11-01T09:40:04Z</time>
      </trkpt>
      <trkpt lat="48.63581" lon="2.57223">
        <ele>135.367</ele>
        <time>2018-11-01T09:40:07Z</time>
      </trkpt>
      <trkpt lat="48.63579" lon="2.57218">
        <ele>135.339</ele>
        <time>2018-11-01T09:40:09Z</time>
      </trkpt>
      <trkpt lat="48.63578" lon="2.57214">
        <ele>135.311</ele>
        <time>2018-11-01T09:40:11Z</time>
      </trkpt>
      <trkpt lat="48.63577" lon="2.5721">
        <ele>135.283</ele>
        <time>2018-11-01T09:40:13Z</time>
      </trkpt>
      <trkpt lat="48.63576" lon="2.57206">
        <ele>135.256</ele>
        <time>2018-11-01T09:40:15Z</time>
      </trkpt>
      <trkpt lat="48.63574" lon="2.57199">
        <ele>135.205</ele>
        <time>2018-11-01T09:40:19Z</time>
      </trkpt>
      <trkpt lat="48.63573" lon="2.57194">
        <ele>135.167</ele>
        <time>2018-11-01T09:40:22Z</time>
      </trkpt>
      <trkpt lat="48.63573" lon="2.57187">
        <ele>135.13</ele>
        <time>2018-11-01T09:40:25Z</time>
      </trkpt>
      <trkpt lat="48.63572" lon="2.57181">
        <ele>135.105</ele>
        <time>2018-11-01T09:40:27Z</time>
      </trkpt>
      <trkpt lat="48.63573" lon="2.57173">
        <ele>135.068</ele>
        <time>2018-11-01T09:40:30Z</time>
      </trkpt>
      <trkpt lat="48.63573" lon="2.57165">
        <ele>135.032</ele>
        <time>2018-11-01T09:40:33Z</time>
      </trkpt>
      <trkpt lat="48.63574" lon="2.57157">
        <ele>134.998</ele>
        <time>2018-11-01T09:40:36Z</time>
      </trkpt>
      <trkpt lat="48.63574" lon="2.57151">
        <ele>134.978</ele>
        <time>2018-11-01T09:40:38Z</time>
      </trkpt>
      <trkpt lat="48.63573" lon="2.57143">
        <ele>134.94</ele>
        <time>2018-11-01T09:40:42Z</time>
      </trkpt>
      <trkpt lat="48.6357" lon="2.57136">
        <ele>134.903</ele>
        <time>2018-11-01T09:40:46Z</time>
      </trkpt>
      <trkpt lat="48.63567" lon="2.57131">
        <ele>134.875</ele>
        <time>2018-11-01T09:40:49Z</time>
      </trkpt>
      <trkpt lat="48.63565" lon="2.57124">
        <ele>134.841</ele>
        <time>2018-11-01T09:40:53Z</time>
      </trkpt>
      <trkpt lat="48.63562" lon="2.57115">
        <ele>134.805</ele>
        <time>2018-11-01T09:41:00Z</time>
      </trkpt>
      <trkpt lat="48.63561" lon="2.57112">
        <ele>134.796</ele>
        <time>2018-11-01T09:41:02Z</time>
      </trkpt>
      <trkpt lat="48.6356" lon="2.57108">
        <ele>134.777</ele>
        <time>2018-11-01T09:41:06Z</time>
      </trkpt>
      <trkpt lat="48.63558" lon="2.57103">
        <ele>134.761</ele>
        <time>2018-11-01T09:41:09Z</time>
      </trkpt>
      <trkpt lat="48.63557" lon="2.57097">
        <ele>134.744</ele>
        <time>2018-11-01T09:41:12Z</time>
      </trkpt>
      <trkpt lat="48.63557" lon="2.57097">
        <ele>83</ele>
        <time>2018-11-01T09:41:20Z</time>
      </trkpt>
      <trkpt lat="48.63557" lon="2.57097">
        <ele>83</ele>
        <time>2018-11-01T09:41:46Z</time>
      </trkpt>
      <trkpt lat="48.63566" lon="2.57064">
        <ele>134.611</ele>
        <time>2018-11-01T09:41:46Z</time>
      </trkpt>
      <trkpt lat="48.63569" lon="2.57058">
        <ele>134.596</ele>
        <time>2018-11-01T09:41:50Z</time>
      </trkpt>
      <trkpt lat="48.63573" lon="2.57054">
        <ele>134.584</ele>
        <time>2018-11-01T09:41:53Z</time>
      </trkpt>
      <trkpt lat="48.63576" lon="2.5705">
        <ele>134.575</ele>
        <time>2018-11-01T09:41:55Z</time>
      </trkpt>
      <trkpt lat="48.63578" lon="2.57044">
        <ele>134.563</ele>
        <time>2018-11-01T09:41:58Z</time>
      </trkpt>
      <trkpt lat="48.6358" lon="2.57038">
        <ele>134.55</ele>
        <time>2018-11-01T09:42:01Z</time>
      </trkpt>
      <trkpt lat="48.63582" lon="2.57031">
        <ele>134.532</ele>
        <time>2018-11-01T09:42:05Z</time>
      </trkpt>
      <trkpt lat="48.63582" lon="2.57031">
        <ele>83</ele>
        <time>2018-11-01T09:42:13Z</time>
      </trkpt>
      <trkpt lat="48.63582" lon="2.57031">
        <ele>83</ele>
        <time>2018-11-01T09:42:18Z</time>
      </trkpt>
      <trkpt lat="48.63588" lon="2.57016">
        <ele>134.477</ele>
        <time>2018-11-01T09:42:19Z</time>
      </trkpt>
      <trkpt lat="48.6359" lon="2.57013">
        <ele>134.468</ele>
        <time>2018-11-01T09:42:23Z</time>
      </trkpt>
      <trkpt lat="48.63594" lon="2.57008">
        <ele>134.449</ele>
        <time>2018-11-01T09:42:29Z</time>
      </trkpt>
      <trkpt lat="48.63597" lon="2.57001">
        <ele>134.434</ele>
        <time>2018-11-01T09:42:33Z</time>
      </trkpt>
      <trkpt lat="48.63598" lon="2.56997">
        <ele>134.426</ele>
        <time>2018-11-01T09:42:35Z</time>
      </trkpt>
      <trkpt lat="48.636" lon="2.56993">
        <ele>134.418</ele>
        <time>2018-11-01T09:42:37Z</time>
      </trkpt>
      <trkpt lat="48.63601" lon="2.56989">
        <ele>134.409</ele>
        <time>2018-11-01T09:42:39Z</time>
      </trkpt>
      <trkpt lat="48.63603" lon="2.56986">
        <ele>134.4</ele>
        <time>2018-11-01T09:42:41Z</time>
      </trkpt>
      <trkpt lat="48.63604" lon="2.56982">
        <ele>134.389</ele>
        <time>2018-11-01T09:42:43Z</time>
      </trkpt>
      <trkpt lat="48.63606" lon="2.56978">
        <ele>134.371</ele>
        <time>2018-11-01T09:42:46Z</time>
      </trkpt>
      <trkpt lat="48.63606" lon="2.56978">
        <ele>134.371</ele>
        <time>2018-11-01T09:42:54Z</time>
      </trkpt>
      <trkpt lat="48.63606" lon="2.56978">
        <ele>83</ele>
        <time>2018-11-01T09:42:54Z</time>
      </trkpt>
      <trkpt lat="48.63606" lon="2.56978">
        <ele>83</ele>
        <time>2018-11-01T09:43:10Z</time>
      </trkpt>
      <trkpt lat="48.63622" lon="2.56952">
        <ele>134.317</ele>
        <time>2018-11-01T09:43:12Z</time>
      </trkpt>
      <trkpt lat="48.63627" lon="2.56948">
        <ele>134.312</ele>
        <time>2018-11-01T09:43:15Z</time>
      </trkpt>
      <trkpt lat="48.6363" lon="2.56945">
        <ele>134.31</ele>
        <time>2018-11-01T09:43:17Z</time>
      </trkpt>
      <trkpt lat="48.63635" lon="2.56942">
        <ele>134.307</ele>
        <time>2018-11-01T09:43:20Z</time>
      </trkpt>
      <trkpt lat="48.6364" lon="2.56938">
        <ele>134.303</ele>
        <time>2018-11-01T09:43:23Z</time>
      </trkpt>
      <trkpt lat="48.63644" lon="2.56932">
        <ele>134.297</ele>
        <time>2018-11-01T09:43:27Z</time>
      </trkpt>
      <trkpt lat="48.63647" lon="2.56926">
        <ele>134.293</ele>
        <time>2018-11-01T09:43:30Z</time>
      </trkpt>
      <trkpt lat="48.63648" lon="2.56922">
        <ele>134.289</ele>
        <time>2018-11-01T09:43:32Z</time>
      </trkpt>
      <trkpt lat="48.63652" lon="2.56917">
        <ele>134.284</ele>
        <time>2018-11-01T09:43:35Z</time>
      </trkpt>
      <trkpt lat="48.63654" lon="2.56909">
        <ele>134.278</ele>
        <time>2018-11-01T09:43:38Z</time>
      </trkpt>
      <trkpt lat="48.63654" lon="2.56901">
        <ele>134.272</ele>
        <time>2018-11-01T09:43:41Z</time>
      </trkpt>
      <trkpt lat="48.63656" lon="2.56893">
        <ele>134.263</ele>
        <time>2018-11-01T09:43:45Z</time>
      </trkpt>
      <trkpt lat="48.63656" lon="2.56889">
        <ele>134.258</ele>
        <time>2018-11-01T09:43:47Z</time>
      </trkpt>
      <trkpt lat="48.63657" lon="2.56885">
        <ele>134.253</ele>
        <time>2018-11-01T09:43:49Z</time>
      </trkpt>
      <trkpt lat="48.63658" lon="2.56878">
        <ele>134.246</ele>
        <time>2018-11-01T09:43:52Z</time>
      </trkpt>
      <trkpt lat="48.63658" lon="2.56873">
        <ele>134.241</ele>
        <time>2018-11-01T09:43:54Z</time>
      </trkpt>
      <trkpt lat="48.63659" lon="2.56869">
        <ele>134.236</ele>
        <time>2018-11-01T09:43:56Z</time>
      </trkpt>
      <trkpt lat="48.63659" lon="2.56862">
        <ele>134.225</ele>
        <time>2018-11-01T09:44:00Z</time>
      </trkpt>
      <trkpt lat="48.63659" lon="2.56853">
        <ele>134.217</ele>
        <time>2018-11-01T09:44:03Z</time>
      </trkpt>
      <trkpt lat="48.63658" lon="2.56846">
        <ele>134.21</ele>
        <time>2018-11-01T09:44:06Z</time>
      </trkpt>
      <trkpt lat="48.63659" lon="2.56838">
        <ele>134.202</ele>
        <time>2018-11-01T09:44:09Z</time>
      </trkpt>
      <trkpt lat="48.63659" lon="2.56831">
        <ele>134.195</ele>
        <time>2018-11-01T09:44:12Z</time>
      </trkpt>
      <trkpt lat="48.6366" lon="2.56824">
        <ele>134.187</ele>
        <time>2018-11-01T09:44:15Z</time>
      </trkpt>
      <trkpt lat="48.6366" lon="2.56821">
        <ele>134.182</ele>
        <time>2018-11-01T09:44:17Z</time>
      </trkpt>
      <trkpt lat="48.63661" lon="2.56817">
        <ele>134.176</ele>
        <time>2018-11-01T09:44:19Z</time>
      </trkpt>
      <trkpt lat="48.63661" lon="2.56811">
        <ele>134.168</ele>
        <time>2018-11-01T09:44:22Z</time>
      </trkpt>
      <trkpt lat="48.63661" lon="2.56806">
        <ele>134.162</ele>
        <time>2018-11-01T09:44:24Z</time>
      </trkpt>
      <trkpt lat="48.63662" lon="2.56799">
        <ele>134.154</ele>
        <time>2018-11-01T09:44:27Z</time>
      </trkpt>
      <trkpt lat="48.63662" lon="2.56794">
        <ele>134.148</ele>
        <time>2018-11-01T09:44:29Z</time>
      </trkpt>
      <trkpt lat="48.63662" lon="2.5679">
        <ele>134.143</ele>
        <time>2018-11-01T09:44:31Z</time>
      </trkpt>
      <trkpt lat="48.63663" lon="2.56785">
        <ele>134.137</ele>
        <time>2018-11-01T09:44:33Z</time>
      </trkpt>
      <trkpt lat="48.63663" lon="2.5678">
        <ele>134.13</ele>
        <time>2018-11-01T09:44:35Z</time>
      </trkpt>
      <trkpt lat="48.63664" lon="2.56776">
        <ele>134.124</ele>
        <time>2018-11-01T09:44:37Z</time>
      </trkpt>
      <trkpt lat="48.63664" lon="2.56767">
        <ele>134.11</ele>
        <time>2018-11-01T09:44:41Z</time>
      </trkpt>
      <trkpt lat="48.63665" lon="2.56763">
        <ele>134.103</ele>
        <time>2018-11-01T09:44:43Z</time>
      </trkpt>
      <trkpt lat="48.63665" lon="2.56758">
        <ele>134.095</ele>
        <time>2018-11-01T09:44:45Z</time>
      </trkpt>
      <trkpt lat="48.63666" lon="2.56753">
        <ele>134.088</ele>
        <time>2018-11-01T09:44:47Z</time>
      </trkpt>
      <trkpt lat="48.63667" lon="2.56747">
        <ele>134.08</ele>
        <time>2018-11-01T09:44:49Z</time>
      </trkpt>
      <trkpt lat="48.63668" lon="2.5674">
        <ele>134.07</ele>
        <time>2018-11-01T09:44:52Z</time>
      </trkpt>
      <trkpt lat="48.63669" lon="2.56735">
        <ele>134.064</ele>
        <time>2018-11-01T09:44:54Z</time>
      </trkpt>
      <trkpt lat="48.6367" lon="2.56731">
        <ele>134.06</ele>
        <time>2018-11-01T09:44:56Z</time>
      </trkpt>
      <trkpt lat="48.63671" lon="2.56726">
        <ele>134.056</ele>
        <time>2018-11-01T09:44:58Z</time>
      </trkpt>
      <trkpt lat="48.63673" lon="2.56719">
        <ele>134.052</ele>
        <time>2018-11-01T09:45:01Z</time>
      </trkpt>
      <trkpt lat="48.63674" lon="2.56714">
        <ele>134.05</ele>
        <time>2018-11-01T09:45:03Z</time>
      </trkpt>
      <trkpt lat="48.63675" lon="2.56708">
        <ele>134.05</ele>
        <time>2018-11-01T09:45:05Z</time>
      </trkpt>
      <trkpt lat="48.63675" lon="2.567">
        <ele>134.051</ele>
        <time>2018-11-01T09:45:09Z</time>
      </trkpt>
      <trkpt lat="48.63677" lon="2.56692">
        <ele>134.054</ele>
        <time>2018-11-01T09:45:12Z</time>
      </trkpt>
      <trkpt lat="48.63679" lon="2.56684">
        <ele>134.06</ele>
        <time>2018-11-01T09:45:15Z</time>
      </trkpt>
      <trkpt lat="48.6368" lon="2.56677">
        <ele>134.068</ele>
        <time>2018-11-01T09:45:18Z</time>
      </trkpt>
      <trkpt lat="48.63681" lon="2.56672">
        <ele>134.074</ele>
        <time>2018-11-01T09:45:20Z</time>
      </trkpt>
      <trkpt lat="48.63682" lon="2.56668">
        <ele>134.08</ele>
        <time>2018-11-01T09:45:22Z</time>
      </trkpt>
      <trkpt lat="48.63683" lon="2.56662">
        <ele>134.092</ele>
        <time>2018-11-01T09:45:25Z</time>
      </trkpt>
      <trkpt lat="48.63684" lon="2.56658">
        <ele>134.099</ele>
        <time>2018-11-01T09:45:27Z</time>
      </trkpt>
      <trkpt lat="48.63687" lon="2.56651">
        <ele>134.114</ele>
        <time>2018-11-01T09:45:31Z</time>
      </trkpt>
      <trkpt lat="48.63689" lon="2.56645">
        <ele>134.125</ele>
        <time>2018-11-01T09:45:34Z</time>
      </trkpt>
      <trkpt lat="48.63691" lon="2.56638">
        <ele>134.139</ele>
        <time>2018-11-01T09:45:38Z</time>
      </trkpt>
      <trkpt lat="48.63691" lon="2.56629">
        <ele>134.152</ele>
        <time>2018-11-01T09:45:42Z</time>
      </trkpt>
      <trkpt lat="48.63691" lon="2.56629">
        <ele>83.1</ele>
        <time>2018-11-01T09:45:49Z</time>
      </trkpt>
      <trkpt lat="48.63691" lon="2.56629">
        <ele>83.1</ele>
        <time>2018-11-01T09:46:13Z</time>
      </trkpt>
      <trkpt lat="48.63693" lon="2.56591">
        <ele>134.39</ele>
        <time>2018-11-01T09:46:13Z</time>
      </trkpt>
      <trkpt lat="48.63693" lon="2.56582">
        <ele>134.427</ele>
        <time>2018-11-01T09:46:17Z</time>
      </trkpt>
      <trkpt lat="48.63694" lon="2.56577">
        <ele>134.463</ele>
        <time>2018-11-01T09:46:22Z</time>
      </trkpt>
      <trkpt lat="48.6369" lon="2.56568">
        <ele>134.511</ele>
        <time>2018-11-01T09:46:28Z</time>
      </trkpt>
      <trkpt lat="48.63689" lon="2.56561">
        <ele>134.526</ele>
        <time>2018-11-01T09:46:30Z</time>
      </trkpt>
      <trkpt lat="48.63688" lon="2.56552">
        <ele>134.534</ele>
        <time>2018-11-01T09:46:31Z</time>
      </trkpt>
      <trkpt lat="48.63685" lon="2.56543">
        <ele>134.554</ele>
        <time>2018-11-01T09:46:34Z</time>
      </trkpt>
      <trkpt lat="48.63683" lon="2.56537">
        <ele>134.561</ele>
        <time>2018-11-01T09:46:35Z</time>
      </trkpt>
      <trkpt lat="48.6368" lon="2.56529">
        <ele>134.573</ele>
        <time>2018-11-01T09:46:37Z</time>
      </trkpt>
      <trkpt lat="48.6368" lon="2.56521">
        <ele>134.592</ele>
        <time>2018-11-01T09:46:40Z</time>
      </trkpt>
      <trkpt lat="48.6368" lon="2.56521">
        <ele>84.3</ele>
        <time>2018-11-01T09:46:45Z</time>
      </trkpt>
      <trkpt lat="48.6368" lon="2.56521">
        <ele>84.3</ele>
        <time>2018-11-01T09:46:50Z</time>
      </trkpt>
      <trkpt lat="48.63678" lon="2.56505">
        <ele>134.658</ele>
        <time>2018-11-01T09:46:50Z</time>
      </trkpt>
      <trkpt lat="48.63679" lon="2.56498">
        <ele>134.694</ele>
        <time>2018-11-01T09:46:56Z</time>
      </trkpt>
      <trkpt lat="48.6368" lon="2.56495">
        <ele>134.73</ele>
        <time>2018-11-01T09:47:02Z</time>
      </trkpt>
      <trkpt lat="48.63688" lon="2.56495">
        <ele>134.765</ele>
        <time>2018-11-01T09:47:09Z</time>
      </trkpt>
      <trkpt lat="48.63693" lon="2.56494">
        <ele>134.779</ele>
        <time>2018-11-01T09:47:13Z</time>
      </trkpt>
      <trkpt lat="48.63698" lon="2.56491">
        <ele>134.784</ele>
        <time>2018-11-01T09:47:17Z</time>
      </trkpt>
      <trkpt lat="48.637" lon="2.56489">
        <ele>134.785</ele>
        <time>2018-11-01T09:47:19Z</time>
      </trkpt>
      <trkpt lat="48.63704" lon="2.56485">
        <ele>134.785</ele>
        <time>2018-11-01T09:47:22Z</time>
      </trkpt>
      <trkpt lat="48.63707" lon="2.5648">
        <ele>134.782</ele>
        <time>2018-11-01T09:47:25Z</time>
      </trkpt>
      <trkpt lat="48.6371" lon="2.56473">
        <ele>134.777</ele>
        <time>2018-11-01T09:47:28Z</time>
      </trkpt>
      <trkpt lat="48.63711" lon="2.56466">
        <ele>134.77</ele>
        <time>2018-11-01T09:47:31Z</time>
      </trkpt>
      <trkpt lat="48.63712" lon="2.56461">
        <ele>134.762</ele>
        <time>2018-11-01T09:47:33Z</time>
      </trkpt>
      <trkpt lat="48.63713" lon="2.56456">
        <ele>134.753</ele>
        <time>2018-11-01T09:47:35Z</time>
      </trkpt>
      <trkpt lat="48.63714" lon="2.56451">
        <ele>134.742</ele>
        <time>2018-11-01T09:47:37Z</time>
      </trkpt>
      <trkpt lat="48.63715" lon="2.56447">
        <ele>134.731</ele>
        <time>2018-11-01T09:47:39Z</time>
      </trkpt>
      <trkpt lat="48.63717" lon="2.56443">
        <ele>134.718</ele>
        <time>2018-11-01T09:47:41Z</time>
      </trkpt>
      <trkpt lat="48.63718" lon="2.56435">
        <ele>134.699</ele>
        <time>2018-11-01T09:47:44Z</time>
      </trkpt>
      <trkpt lat="48.6372" lon="2.5643">
        <ele>134.681</ele>
        <time>2018-11-01T09:47:47Z</time>
      </trkpt>
      <trkpt lat="48.63721" lon="2.56424">
        <ele>134.661</ele>
        <time>2018-11-01T09:47:50Z</time>
      </trkpt>
      <trkpt lat="48.63722" lon="2.56419">
        <ele>134.648</ele>
        <time>2018-11-01T09:47:52Z</time>
      </trkpt>
      <trkpt lat="48.63723" lon="2.56415">
        <ele>134.635</ele>
        <time>2018-11-01T09:47:54Z</time>
      </trkpt>
      <trkpt lat="48.63724" lon="2.56407">
        <ele>134.61</ele>
        <time>2018-11-01T09:47:58Z</time>
      </trkpt>
      <trkpt lat="48.63724" lon="2.56402">
        <ele>134.598</ele>
        <time>2018-11-01T09:48:00Z</time>
      </trkpt>
      <trkpt lat="48.63725" lon="2.56397">
        <ele>134.586</ele>
        <time>2018-11-01T09:48:02Z</time>
      </trkpt>
      <trkpt lat="48.63726" lon="2.56391">
        <ele>134.576</ele>
        <time>2018-11-01T09:48:04Z</time>
      </trkpt>
      <trkpt lat="48.63727" lon="2.56385">
        <ele>134.567</ele>
        <time>2018-11-01T09:48:06Z</time>
      </trkpt>
      <trkpt lat="48.63727" lon="2.5638">
        <ele>134.558</ele>
        <time>2018-11-01T09:48:08Z</time>
      </trkpt>
      <trkpt lat="48.63728" lon="2.56375">
        <ele>134.549</ele>
        <time>2018-11-01T09:48:10Z</time>
      </trkpt>
      <trkpt lat="48.63729" lon="2.56372">
        <ele>134.541</ele>
        <time>2018-11-01T09:48:12Z</time>
      </trkpt>
      <trkpt lat="48.63731" lon="2.56365">
        <ele>134.529</ele>
        <time>2018-11-01T09:48:15Z</time>
      </trkpt>
      <trkpt lat="48.63732" lon="2.56359">
        <ele>134.517</ele>
        <time>2018-11-01T09:48:18Z</time>
      </trkpt>
      <trkpt lat="48.63734" lon="2.56354">
        <ele>134.509</ele>
        <time>2018-11-01T09:48:20Z</time>
      </trkpt>
      <trkpt lat="48.63734" lon="2.56345">
        <ele>134.496</ele>
        <time>2018-11-01T09:48:24Z</time>
      </trkpt>
      <trkpt lat="48.63735" lon="2.5634">
        <ele>134.491</ele>
        <time>2018-11-01T09:48:26Z</time>
      </trkpt>
      <trkpt lat="48.63736" lon="2.56332">
        <ele>134.479</ele>
        <time>2018-11-01T09:48:30Z</time>
      </trkpt>
      <trkpt lat="48.63737" lon="2.56329">
        <ele>134.473</ele>
        <time>2018-11-01T09:48:32Z</time>
      </trkpt>
      <trkpt lat="48.63738" lon="2.56324">
        <ele>134.467</ele>
        <time>2018-11-01T09:48:34Z</time>
      </trkpt>
      <trkpt lat="48.63738" lon="2.56317">
        <ele>134.456</ele>
        <time>2018-11-01T09:48:38Z</time>
      </trkpt>
      <trkpt lat="48.63739" lon="2.5631">
        <ele>134.445</ele>
        <time>2018-11-01T09:48:42Z</time>
      </trkpt>
      <trkpt lat="48.6374" lon="2.56302">
        <ele>134.437</ele>
        <time>2018-11-01T09:48:45Z</time>
      </trkpt>
      <trkpt lat="48.63741" lon="2.56299">
        <ele>134.433</ele>
        <time>2018-11-01T09:48:47Z</time>
      </trkpt>
      <trkpt lat="48.63745" lon="2.56293">
        <ele>134.424</ele>
        <time>2018-11-01T09:48:51Z</time>
      </trkpt>
      <trkpt lat="48.6375" lon="2.56288">
        <ele>134.414</ele>
        <time>2018-11-01T09:48:55Z</time>
      </trkpt>
      <trkpt lat="48.63752" lon="2.56286">
        <ele>134.408</ele>
        <time>2018-11-01T09:48:57Z</time>
      </trkpt>
      <trkpt lat="48.63754" lon="2.56284">
        <ele>134.403</ele>
        <time>2018-11-01T09:48:59Z</time>
      </trkpt>
      <trkpt lat="48.63756" lon="2.56282">
        <ele>134.396</ele>
        <time>2018-11-01T09:49:01Z</time>
      </trkpt>
      <trkpt lat="48.63759" lon="2.56279">
        <ele>134.387</ele>
        <time>2018-11-01T09:49:04Z</time>
      </trkpt>
      <trkpt lat="48.63762" lon="2.56276">
        <ele>134.381</ele>
        <time>2018-11-01T09:49:06Z</time>
      </trkpt>
      <trkpt lat="48.63764" lon="2.56274">
        <ele>134.375</ele>
        <time>2018-11-01T09:49:08Z</time>
      </trkpt>
      <trkpt lat="48.63766" lon="2.56272">
        <ele>134.368</ele>
        <time>2018-11-01T09:49:10Z</time>
      </trkpt>
      <trkpt lat="48.63771" lon="2.56271">
        <ele>134.358</ele>
        <time>2018-11-01T09:49:13Z</time>
      </trkpt>
      <trkpt lat="48.63776" lon="2.56273">
        <ele>134.352</ele>
        <time>2018-11-01T09:49:17Z</time>
      </trkpt>
      <trkpt lat="48.63779" lon="2.56278">
        <ele>134.352</ele>
        <time>2018-11-01T09:49:25Z</time>
      </trkpt>
      <trkpt lat="48.63782" lon="2.56285">
        <ele>134.358</ele>
        <time>2018-11-01T09:49:31Z</time>
      </trkpt>
      <trkpt lat="48.63782" lon="2.56292">
        <ele>134.369</ele>
        <time>2018-11-01T09:49:35Z</time>
      </trkpt>
      <trkpt lat="48.63783" lon="2.56299">
        <ele>134.383</ele>
        <time>2018-11-01T09:49:38Z</time>
      </trkpt>
      <trkpt lat="48.63783" lon="2.56299">
        <ele>134.383</ele>
        <time>2018-11-01T09:49:43Z</time>
      </trkpt>
      <trkpt lat="48.63783" lon="2.56299">
        <ele>91.9</ele>
        <time>2018-11-01T09:49:43Z</time>
      </trkpt>
      <trkpt lat="48.63783" lon="2.56299">
        <ele>91.9</ele>
        <time>2018-11-01T09:50:35Z</time>
      </trkpt>
      <trkpt lat="48.63764" lon="2.56275">
        <ele>135.157</ele>
        <time>2018-11-01T09:50:35Z</time>
      </trkpt>
      <trkpt lat="48.6376" lon="2.5628">
        <ele>135.251</ele>
        <time>2018-11-01T09:50:40Z</time>
      </trkpt>
      <trkpt lat="48.63757" lon="2.56284">
        <ele>135.303</ele>
        <time>2018-11-01T09:50:43Z</time>
      </trkpt>
      <trkpt lat="48.63755" lon="2.56286">
        <ele>135.335</ele>
        <time>2018-11-01T09:50:45Z</time>
      </trkpt>
      <trkpt lat="48.63751" lon="2.5629">
        <ele>135.395</ele>
        <time>2018-11-01T09:50:49Z</time>
      </trkpt>
      <trkpt lat="48.63746" lon="2.56291">
        <ele>135.436</ele>
        <time>2018-11-01T09:50:52Z</time>
      </trkpt>
      <trkpt lat="48.6374" lon="2.56288">
        <ele>135.487</ele>
        <time>2018-11-01T09:50:56Z</time>
      </trkpt>
      <trkpt lat="48.63737" lon="2.56287">
        <ele>135.511</ele>
        <time>2018-11-01T09:50:58Z</time>
      </trkpt>
      <trkpt lat="48.63734" lon="2.56286">
        <ele>135.534</ele>
        <time>2018-11-01T09:51:00Z</time>
      </trkpt>
      <trkpt lat="48.63731" lon="2.56279">
        <ele>135.588</ele>
        <time>2018-11-01T09:51:05Z</time>
      </trkpt>
      <trkpt lat="48.63732" lon="2.56272">
        <ele>135.62</ele>
        <time>2018-11-01T09:51:08Z</time>
      </trkpt>
      <trkpt lat="48.63735" lon="2.56266">
        <ele>135.658</ele>
        <time>2018-11-01T09:51:12Z</time>
      </trkpt>
      <trkpt lat="48.63736" lon="2.56263">
        <ele>135.675</ele>
        <time>2018-11-01T09:51:14Z</time>
      </trkpt>
      <trkpt lat="48.63738" lon="2.56256">
        <ele>135.702</ele>
        <time>2018-11-01T09:51:18Z</time>
      </trkpt>
      <trkpt lat="48.63739" lon="2.56253">
        <ele>135.719</ele>
        <time>2018-11-01T09:51:21Z</time>
      </trkpt>
      <trkpt lat="48.63742" lon="2.56247">
        <ele>135.74</ele>
        <time>2018-11-01T09:51:26Z</time>
      </trkpt>
      <trkpt lat="48.63745" lon="2.5624">
        <ele>135.752</ele>
        <time>2018-11-01T09:51:29Z</time>
      </trkpt>
      <trkpt lat="48.63748" lon="2.56231">
        <ele>135.768</ele>
        <time>2018-11-01T09:51:35Z</time>
      </trkpt>
      <trkpt lat="48.63751" lon="2.56225">
        <ele>135.776</ele>
        <time>2018-11-01T09:51:38Z</time>
      </trkpt>
      <trkpt lat="48.63753" lon="2.56218">
        <ele>135.782</ele>
        <time>2018-11-01T09:51:41Z</time>
      </trkpt>
      <trkpt lat="48.63754" lon="2.56213">
        <ele>135.784</ele>
        <time>2018-11-01T09:51:43Z</time>
      </trkpt>
      <trkpt lat="48.63755" lon="2.56209">
        <ele>135.786</ele>
        <time>2018-11-01T09:51:45Z</time>
      </trkpt>
      <trkpt lat="48.63756" lon="2.56203">
        <ele>135.787</ele>
        <time>2018-11-01T09:51:47Z</time>
      </trkpt>
      <trkpt lat="48.63758" lon="2.56194">
        <ele>135.788</ele>
        <time>2018-11-01T09:51:50Z</time>
      </trkpt>
      <trkpt lat="48.6376" lon="2.56188">
        <ele>135.788</ele>
        <time>2018-11-01T09:51:52Z</time>
      </trkpt>
      <trkpt lat="48.63763" lon="2.56181">
        <ele>135.788</ele>
        <time>2018-11-01T09:51:55Z</time>
      </trkpt>
      <trkpt lat="48.63766" lon="2.56174">
        <ele>135.785</ele>
        <time>2018-11-01T09:51:58Z</time>
      </trkpt>
      <trkpt lat="48.63768" lon="2.56168">
        <ele>135.781</ele>
        <time>2018-11-01T09:52:01Z</time>
      </trkpt>
      <trkpt lat="48.6377" lon="2.56163">
        <ele>135.778</ele>
        <time>2018-11-01T09:52:03Z</time>
      </trkpt>
      <trkpt lat="48.63772" lon="2.56158">
        <ele>135.774</ele>
        <time>2018-11-01T09:52:05Z</time>
      </trkpt>
      <trkpt lat="48.63773" lon="2.56155">
        <ele>135.769</ele>
        <time>2018-11-01T09:52:07Z</time>
      </trkpt>
      <trkpt lat="48.63774" lon="2.5615">
        <ele>135.764</ele>
        <time>2018-11-01T09:52:09Z</time>
      </trkpt>
      <trkpt lat="48.63776" lon="2.56147">
        <ele>135.758</ele>
        <time>2018-11-01T09:52:11Z</time>
      </trkpt>
      <trkpt lat="48.63778" lon="2.56141">
        <ele>135.746</ele>
        <time>2018-11-01T09:52:14Z</time>
      </trkpt>
      <trkpt lat="48.63781" lon="2.56137">
        <ele>135.737</ele>
        <time>2018-11-01T09:52:16Z</time>
      </trkpt>
      <trkpt lat="48.63784" lon="2.56131">
        <ele>135.724</ele>
        <time>2018-11-01T09:52:19Z</time>
      </trkpt>
      <trkpt lat="48.63786" lon="2.56126">
        <ele>135.715</ele>
        <time>2018-11-01T09:52:21Z</time>
      </trkpt>
      <trkpt lat="48.63788" lon="2.56123">
        <ele>135.707</ele>
        <time>2018-11-01T09:52:23Z</time>
      </trkpt>
      <trkpt lat="48.63791" lon="2.56116">
        <ele>135.688</ele>
        <time>2018-11-01T09:52:27Z</time>
      </trkpt>
      <trkpt lat="48.63793" lon="2.5611">
        <ele>135.672</ele>
        <time>2018-11-01T09:52:30Z</time>
      </trkpt>
      <trkpt lat="48.63794" lon="2.56103">
        <ele>135.654</ele>
        <time>2018-11-01T09:52:33Z</time>
      </trkpt>
      <trkpt lat="48.63795" lon="2.56096">
        <ele>135.636</ele>
        <time>2018-11-01T09:52:36Z</time>
      </trkpt>
      <trkpt lat="48.63795" lon="2.56092">
        <ele>135.625</ele>
        <time>2018-11-01T09:52:38Z</time>
      </trkpt>
      <trkpt lat="48.63796" lon="2.56087">
        <ele>135.613</ele>
        <time>2018-11-01T09:52:40Z</time>
      </trkpt>
      <trkpt lat="48.63797" lon="2.5608">
        <ele>135.597</ele>
        <time>2018-11-01T09:52:43Z</time>
      </trkpt>
      <trkpt lat="48.63798" lon="2.56076">
        <ele>135.586</ele>
        <time>2018-11-01T09:52:45Z</time>
      </trkpt>
      <trkpt lat="48.63801" lon="2.56069">
        <ele>135.563</ele>
        <time>2018-11-01T09:52:49Z</time>
      </trkpt>
      <trkpt lat="48.63803" lon="2.56065">
        <ele>135.551</ele>
        <time>2018-11-01T09:52:51Z</time>
      </trkpt>
      <trkpt lat="48.63805" lon="2.5606">
        <ele>135.539</ele>
        <time>2018-11-01T09:52:53Z</time>
      </trkpt>
      <trkpt lat="48.63808" lon="2.56055">
        <ele>135.521</ele>
        <time>2018-11-01T09:52:56Z</time>
      </trkpt>
      <trkpt lat="48.63809" lon="2.56051">
        <ele>135.508</ele>
        <time>2018-11-01T09:52:58Z</time>
      </trkpt>
      <trkpt lat="48.63811" lon="2.56049">
        <ele>135.495</ele>
        <time>2018-11-01T09:53:00Z</time>
      </trkpt>
      <trkpt lat="48.63813" lon="2.56045">
        <ele>135.482</ele>
        <time>2018-11-01T09:53:02Z</time>
      </trkpt>
      <trkpt lat="48.63814" lon="2.56042">
        <ele>135.468</ele>
        <time>2018-11-01T09:53:04Z</time>
      </trkpt>
      <trkpt lat="48.63817" lon="2.56036">
        <ele>135.448</ele>
        <time>2018-11-01T09:53:07Z</time>
      </trkpt>
      <trkpt lat="48.6382" lon="2.56031">
        <ele>135.426</ele>
        <time>2018-11-01T09:53:10Z</time>
      </trkpt>
      <trkpt lat="48.63823" lon="2.56028">
        <ele>135.412</ele>
        <time>2018-11-01T09:53:12Z</time>
      </trkpt>
      <trkpt lat="48.63826" lon="2.56023">
        <ele>135.392</ele>
        <time>2018-11-01T09:53:15Z</time>
      </trkpt>
      <trkpt lat="48.63829" lon="2.5602">
        <ele>135.38</ele>
        <time>2018-11-01T09:53:17Z</time>
      </trkpt>
      <trkpt lat="48.63832" lon="2.56013">
        <ele>135.354</ele>
        <time>2018-11-01T09:53:21Z</time>
      </trkpt>
      <trkpt lat="48.63833" lon="2.56006">
        <ele>135.336</ele>
        <time>2018-11-01T09:53:24Z</time>
      </trkpt>
      <trkpt lat="48.63837" lon="2.55999">
        <ele>135.321</ele>
        <time>2018-11-01T09:53:27Z</time>
      </trkpt>
      <trkpt lat="48.63839" lon="2.55993">
        <ele>135.308</ele>
        <time>2018-11-01T09:53:30Z</time>
      </trkpt>
      <trkpt lat="48.6384" lon="2.55989">
        <ele>135.301</ele>
        <time>2018-11-01T09:53:32Z</time>
      </trkpt>
      <trkpt lat="48.63841" lon="2.55985">
        <ele>135.293</ele>
        <time>2018-11-01T09:53:34Z</time>
      </trkpt>
      <trkpt lat="48.63842" lon="2.55978">
        <ele>135.282</ele>
        <time>2018-11-01T09:53:37Z</time>
      </trkpt>
      <trkpt lat="48.63844" lon="2.55973">
        <ele>135.276</ele>
        <time>2018-11-01T09:53:39Z</time>
      </trkpt>
      <trkpt lat="48.63845" lon="2.55968">
        <ele>135.267</ele>
        <time>2018-11-01T09:53:42Z</time>
      </trkpt>
      <trkpt lat="48.63846" lon="2.55964">
        <ele>135.261</ele>
        <time>2018-11-01T09:53:44Z</time>
      </trkpt>
      <trkpt lat="48.63847" lon="2.5596">
        <ele>135.255</ele>
        <time>2018-11-01T09:53:46Z</time>
      </trkpt>
      <trkpt lat="48.63848" lon="2.55954">
        <ele>135.249</ele>
        <time>2018-11-01T09:53:48Z</time>
      </trkpt>
      <trkpt lat="48.63849" lon="2.55949">
        <ele>135.244</ele>
        <time>2018-11-01T09:53:50Z</time>
      </trkpt>
      <trkpt lat="48.6385" lon="2.55942">
        <ele>135.236</ele>
        <time>2018-11-01T09:53:53Z</time>
      </trkpt>
      <trkpt lat="48.63851" lon="2.55936">
        <ele>135.228</ele>
        <time>2018-11-01T09:53:56Z</time>
      </trkpt>
      <trkpt lat="48.63851" lon="2.55931">
        <ele>135.224</ele>
        <time>2018-11-01T09:53:58Z</time>
      </trkpt>
      <trkpt lat="48.63852" lon="2.55927">
        <ele>135.219</ele>
        <time>2018-11-01T09:54:00Z</time>
      </trkpt>
      <trkpt lat="48.63852" lon="2.55922">
        <ele>135.213</ele>
        <time>2018-11-01T09:54:02Z</time>
      </trkpt>
      <trkpt lat="48.63853" lon="2.55915">
        <ele>135.206</ele>
        <time>2018-11-01T09:54:05Z</time>
      </trkpt>
      <trkpt lat="48.63854" lon="2.55908">
        <ele>135.199</ele>
        <time>2018-11-01T09:54:08Z</time>
      </trkpt>
      <trkpt lat="48.63855" lon="2.55903">
        <ele>135.193</ele>
        <time>2018-11-01T09:54:11Z</time>
      </trkpt>
      <trkpt lat="48.63857" lon="2.55897">
        <ele>135.189</ele>
        <time>2018-11-01T09:54:14Z</time>
      </trkpt>
      <trkpt lat="48.63859" lon="2.55889">
        <ele>135.186</ele>
        <time>2018-11-01T09:54:18Z</time>
      </trkpt>
      <trkpt lat="48.63858" lon="2.55882">
        <ele>135.188</ele>
        <time>2018-11-01T09:54:22Z</time>
      </trkpt>
      <trkpt lat="48.63853" lon="2.55877">
        <ele>135.191</ele>
        <time>2018-11-01T09:54:25Z</time>
      </trkpt>
      <trkpt lat="48.63848" lon="2.55871">
        <ele>135.196</ele>
        <time>2018-11-01T09:54:28Z</time>
      </trkpt>
      <trkpt lat="48.63847" lon="2.55863">
        <ele>135.205</ele>
        <time>2018-11-01T09:54:32Z</time>
      </trkpt>
      <trkpt lat="48.6385" lon="2.55857">
        <ele>135.216</ele>
        <time>2018-11-01T09:54:36Z</time>
      </trkpt>
      <trkpt lat="48.6385" lon="2.55849">
        <ele>135.23</ele>
        <time>2018-11-01T09:54:42Z</time>
      </trkpt>
      <trkpt lat="48.6385" lon="2.55845">
        <ele>135.235</ele>
        <time>2018-11-01T09:54:44Z</time>
      </trkpt>
      <trkpt lat="48.63853" lon="2.55839">
        <ele>135.248</ele>
        <time>2018-11-01T09:54:50Z</time>
      </trkpt>
      <trkpt lat="48.63858" lon="2.55837">
        <ele>135.25</ele>
        <time>2018-11-01T09:54:55Z</time>
      </trkpt>
      <trkpt lat="48.63862" lon="2.55837">
        <ele>135.247</ele>
        <time>2018-11-01T09:54:58Z</time>
      </trkpt>
      <trkpt lat="48.63867" lon="2.55839">
        <ele>135.243</ele>
        <time>2018-11-01T09:55:01Z</time>
      </trkpt>
      <trkpt lat="48.63871" lon="2.55833">
        <ele>135.235</ele>
        <time>2018-11-01T09:55:05Z</time>
      </trkpt>
      <trkpt lat="48.63873" lon="2.55825">
        <ele>135.227</ele>
        <time>2018-11-01T09:55:08Z</time>
      </trkpt>
      <trkpt lat="48.63876" lon="2.5582">
        <ele>135.217</ele>
        <time>2018-11-01T09:55:11Z</time>
      </trkpt>
      <trkpt lat="48.63878" lon="2.55817">
        <ele>135.209</ele>
        <time>2018-11-01T09:55:13Z</time>
      </trkpt>
      <trkpt lat="48.63882" lon="2.55813">
        <ele>135.188</ele>
        <time>2018-11-01T09:55:17Z</time>
      </trkpt>
      <trkpt lat="48.63885" lon="2.5581">
        <ele>135.176</ele>
        <time>2018-11-01T09:55:19Z</time>
      </trkpt>
      <trkpt lat="48.63888" lon="2.55808">
        <ele>135.163</ele>
        <time>2018-11-01T09:55:21Z</time>
      </trkpt>
      <trkpt lat="48.63891" lon="2.55806">
        <ele>135.15</ele>
        <time>2018-11-01T09:55:23Z</time>
      </trkpt>
      <trkpt lat="48.63894" lon="2.55803">
        <ele>135.136</ele>
        <time>2018-11-01T09:55:25Z</time>
      </trkpt>
      <trkpt lat="48.63898" lon="2.55799">
        <ele>135.114</ele>
        <time>2018-11-01T09:55:28Z</time>
      </trkpt>
      <trkpt lat="48.639" lon="2.55792">
        <ele>135.092</ele>
        <time>2018-11-01T09:55:31Z</time>
      </trkpt>
      <trkpt lat="48.639" lon="2.55784">
        <ele>135.064</ele>
        <time>2018-11-01T09:55:35Z</time>
      </trkpt>
      <trkpt lat="48.63899" lon="2.55775">
        <ele>135.036</ele>
        <time>2018-11-01T09:55:39Z</time>
      </trkpt>
      <trkpt lat="48.639" lon="2.55768">
        <ele>135.006</ele>
        <time>2018-11-01T09:55:43Z</time>
      </trkpt>
      <trkpt lat="48.63902" lon="2.55762">
        <ele>134.981</ele>
        <time>2018-11-01T09:55:46Z</time>
      </trkpt>
      <trkpt lat="48.63903" lon="2.55758">
        <ele>134.964</ele>
        <time>2018-11-01T09:55:48Z</time>
      </trkpt>
      <trkpt lat="48.63904" lon="2.55753">
        <ele>134.936</ele>
        <time>2018-11-01T09:55:51Z</time>
      </trkpt>
      <trkpt lat="48.63906" lon="2.55747">
        <ele>134.908</ele>
        <time>2018-11-01T09:55:54Z</time>
      </trkpt>
      <trkpt lat="48.63907" lon="2.55743">
        <ele>134.889</ele>
        <time>2018-11-01T09:55:56Z</time>
      </trkpt>
      <trkpt lat="48.63909" lon="2.55739">
        <ele>134.871</ele>
        <time>2018-11-01T09:55:58Z</time>
      </trkpt>
      <trkpt lat="48.6391" lon="2.55734">
        <ele>134.853</ele>
        <time>2018-11-01T09:56:00Z</time>
      </trkpt>
      <trkpt lat="48.63911" lon="2.55726">
        <ele>134.828</ele>
        <time>2018-11-01T09:56:03Z</time>
      </trkpt>
      <trkpt lat="48.63912" lon="2.55719">
        <ele>134.805</ele>
        <time>2018-11-01T09:56:06Z</time>
      </trkpt>
      <trkpt lat="48.63914" lon="2.55713">
        <ele>134.782</ele>
        <time>2018-11-01T09:56:09Z</time>
      </trkpt>
      <trkpt lat="48.63915" lon="2.55709">
        <ele>134.768</ele>
        <time>2018-11-01T09:56:11Z</time>
      </trkpt>
      <trkpt lat="48.63916" lon="2.55705">
        <ele>134.754</ele>
        <time>2018-11-01T09:56:13Z</time>
      </trkpt>
      <trkpt lat="48.63918" lon="2.557">
        <ele>134.74</ele>
        <time>2018-11-01T09:56:15Z</time>
      </trkpt>
      <trkpt lat="48.63919" lon="2.55695">
        <ele>134.726</ele>
        <time>2018-11-01T09:56:17Z</time>
      </trkpt>
      <trkpt lat="48.6392" lon="2.55687">
        <ele>134.708</ele>
        <time>2018-11-01T09:56:20Z</time>
      </trkpt>
      <trkpt lat="48.63921" lon="2.55681">
        <ele>134.697</ele>
        <time>2018-11-01T09:56:22Z</time>
      </trkpt>
      <trkpt lat="48.63922" lon="2.55676">
        <ele>134.687</ele>
        <time>2018-11-01T09:56:24Z</time>
      </trkpt>
      <trkpt lat="48.63922" lon="2.55671">
        <ele>134.677</ele>
        <time>2018-11-01T09:56:26Z</time>
      </trkpt>
      <trkpt lat="48.63924" lon="2.55664">
        <ele>134.664</ele>
        <time>2018-11-01T09:56:29Z</time>
      </trkpt>
      <trkpt lat="48.63925" lon="2.55657">
        <ele>134.652</ele>
        <time>2018-11-01T09:56:32Z</time>
      </trkpt>
      <trkpt lat="48.63925" lon="2.55653">
        <ele>134.644</ele>
        <time>2018-11-01T09:56:34Z</time>
      </trkpt>
      <trkpt lat="48.63925" lon="2.55644">
        <ele>134.628</ele>
        <time>2018-11-01T09:56:38Z</time>
      </trkpt>
      <trkpt lat="48.63925" lon="2.55639">
        <ele>134.619</ele>
        <time>2018-11-01T09:56:40Z</time>
      </trkpt>
      <trkpt lat="48.63925" lon="2.55631">
        <ele>134.606</ele>
        <time>2018-11-01T09:56:43Z</time>
      </trkpt>
      <trkpt lat="48.63926" lon="2.55626">
        <ele>134.598</ele>
        <time>2018-11-01T09:56:45Z</time>
      </trkpt>
      <trkpt lat="48.63928" lon="2.55618">
        <ele>134.585</ele>
        <time>2018-11-01T09:56:49Z</time>
      </trkpt>
      <trkpt lat="48.63929" lon="2.5561">
        <ele>134.576</ele>
        <time>2018-11-01T09:56:53Z</time>
      </trkpt>
      <trkpt lat="48.63929" lon="2.55606">
        <ele>134.572</ele>
        <time>2018-11-01T09:56:55Z</time>
      </trkpt>
      <trkpt lat="48.63931" lon="2.55598">
        <ele>134.568</ele>
        <time>2018-11-01T09:56:59Z</time>
      </trkpt>
      <trkpt lat="48.63932" lon="2.55589">
        <ele>134.565</ele>
        <time>2018-11-01T09:57:03Z</time>
      </trkpt>
      <trkpt lat="48.63934" lon="2.55581">
        <ele>134.563</ele>
        <time>2018-11-01T09:57:07Z</time>
      </trkpt>
      <trkpt lat="48.63936" lon="2.55574">
        <ele>134.561</ele>
        <time>2018-11-01T09:57:10Z</time>
      </trkpt>
      <trkpt lat="48.63937" lon="2.5557">
        <ele>134.56</ele>
        <time>2018-11-01T09:57:12Z</time>
      </trkpt>
      <trkpt lat="48.6394" lon="2.55563">
        <ele>134.556</ele>
        <time>2018-11-01T09:57:16Z</time>
      </trkpt>
      <trkpt lat="48.63942" lon="2.55556">
        <ele>134.555</ele>
        <time>2018-11-01T09:57:19Z</time>
      </trkpt>
      <trkpt lat="48.63943" lon="2.55551">
        <ele>134.554</ele>
        <time>2018-11-01T09:57:21Z</time>
      </trkpt>
      <trkpt lat="48.63944" lon="2.55543">
        <ele>134.552</ele>
        <time>2018-11-01T09:57:25Z</time>
      </trkpt>
      <trkpt lat="48.63946" lon="2.55536">
        <ele>134.547</ele>
        <time>2018-11-01T09:57:29Z</time>
      </trkpt>
      <trkpt lat="48.63947" lon="2.55528">
        <ele>134.542</ele>
        <time>2018-11-01T09:57:32Z</time>
      </trkpt>
      <trkpt lat="48.63946" lon="2.55521">
        <ele>134.537</ele>
        <time>2018-11-01T09:57:35Z</time>
      </trkpt>
      <trkpt lat="48.63942" lon="2.55516">
        <ele>134.53</ele>
        <time>2018-11-01T09:57:38Z</time>
      </trkpt>
      <trkpt lat="48.6394" lon="2.55513">
        <ele>134.524</ele>
        <time>2018-11-01T09:57:40Z</time>
      </trkpt>
      <trkpt lat="48.63938" lon="2.5551">
        <ele>134.515</ele>
        <time>2018-11-01T09:57:43Z</time>
      </trkpt>
      <trkpt lat="48.63934" lon="2.55506">
        <ele>134.499</ele>
        <time>2018-11-01T09:57:48Z</time>
      </trkpt>
      <trkpt lat="48.63931" lon="2.55499">
        <ele>134.482</ele>
        <time>2018-11-01T09:57:52Z</time>
      </trkpt>
      <trkpt lat="48.63926" lon="2.55496">
        <ele>134.474</ele>
        <time>2018-11-01T09:57:54Z</time>
      </trkpt>
      <trkpt lat="48.63923" lon="2.55494">
        <ele>134.464</ele>
        <time>2018-11-01T09:57:56Z</time>
      </trkpt>
      <trkpt lat="48.63918" lon="2.55492">
        <ele>134.447</ele>
        <time>2018-11-01T09:58:01Z</time>
      </trkpt>
      <trkpt lat="48.63912" lon="2.55489">
        <ele>134.426</ele>
        <time>2018-11-01T09:58:04Z</time>
      </trkpt>
      <trkpt lat="48.63908" lon="2.55483">
        <ele>134.395</ele>
        <time>2018-11-01T09:58:08Z</time>
      </trkpt>
      <trkpt lat="48.63906" lon="2.55481">
        <ele>134.378</ele>
        <time>2018-11-01T09:58:10Z</time>
      </trkpt>
      <trkpt lat="48.63904" lon="2.55471">
        <ele>134.345</ele>
        <time>2018-11-01T09:58:14Z</time>
      </trkpt>
      <trkpt lat="48.63904" lon="2.55463">
        <ele>134.322</ele>
        <time>2018-11-01T09:58:17Z</time>
      </trkpt>
      <trkpt lat="48.63906" lon="2.55455">
        <ele>134.302</ele>
        <time>2018-11-01T09:58:20Z</time>
      </trkpt>
      <trkpt lat="48.63907" lon="2.55451">
        <ele>134.288</ele>
        <time>2018-11-01T09:58:22Z</time>
      </trkpt>
      <trkpt lat="48.63908" lon="2.55445">
        <ele>134.267</ele>
        <time>2018-11-01T09:58:25Z</time>
      </trkpt>
      <trkpt lat="48.6391" lon="2.55441">
        <ele>134.254</ele>
        <time>2018-11-01T09:58:27Z</time>
      </trkpt>
      <trkpt lat="48.63911" lon="2.55437">
        <ele>134.241</ele>
        <time>2018-11-01T09:58:29Z</time>
      </trkpt>
      <trkpt lat="48.63912" lon="2.5543">
        <ele>134.221</ele>
        <time>2018-11-01T09:58:32Z</time>
      </trkpt>
      <trkpt lat="48.63913" lon="2.55426">
        <ele>134.207</ele>
        <time>2018-11-01T09:58:34Z</time>
      </trkpt>
      <trkpt lat="48.63916" lon="2.55418">
        <ele>134.181</ele>
        <time>2018-11-01T09:58:38Z</time>
      </trkpt>
      <trkpt lat="48.63917" lon="2.55413">
        <ele>134.162</ele>
        <time>2018-11-01T09:58:41Z</time>
      </trkpt>
      <trkpt lat="48.63918" lon="2.5541">
        <ele>134.15</ele>
        <time>2018-11-01T09:58:43Z</time>
      </trkpt>
      <trkpt lat="48.6392" lon="2.55402">
        <ele>134.125</ele>
        <time>2018-11-01T09:58:47Z</time>
      </trkpt>
      <trkpt lat="48.63921" lon="2.55398">
        <ele>134.113</ele>
        <time>2018-11-01T09:58:49Z</time>
      </trkpt>
      <trkpt lat="48.63922" lon="2.55391">
        <ele>134.079</ele>
        <time>2018-11-01T09:58:57Z</time>
      </trkpt>
      <trkpt lat="48.63922" lon="2.55386">
        <ele>134.066</ele>
        <time>2018-11-01T09:59:00Z</time>
      </trkpt>
      <trkpt lat="48.63923" lon="2.55379">
        <ele>134.049</ele>
        <time>2018-11-01T09:59:04Z</time>
      </trkpt>
      <trkpt lat="48.63925" lon="2.55373">
        <ele>134.032</ele>
        <time>2018-11-01T09:59:08Z</time>
      </trkpt>
      <trkpt lat="48.63925" lon="2.55373">
        <ele>134.032</ele>
        <time>2018-11-01T09:59:16Z</time>
      </trkpt>
      <trkpt lat="48.63925" lon="2.55373">
        <ele>81.9</ele>
        <time>2018-11-01T09:59:16Z</time>
      </trkpt>
      <trkpt lat="48.63925" lon="2.55373">
        <ele>81.9</ele>
        <time>2018-11-01T09:59:53Z</time>
      </trkpt>
      <trkpt lat="48.63926" lon="2.55333">
        <ele>133.959</ele>
        <time>2018-11-01T09:59:53Z</time>
      </trkpt>
      <trkpt lat="48.63927" lon="2.55325">
        <ele>133.953</ele>
        <time>2018-11-01T09:59:58Z</time>
      </trkpt>
      <trkpt lat="48.63926" lon="2.55321">
        <ele>133.951</ele>
        <time>2018-11-01T10:00:00Z</time>
      </trkpt>
      <trkpt lat="48.63927" lon="2.55311">
        <ele>133.944</ele>
        <time>2018-11-01T10:00:04Z</time>
      </trkpt>
      <trkpt lat="48.63929" lon="2.55304">
        <ele>133.939</ele>
        <time>2018-11-01T10:00:07Z</time>
      </trkpt>
      <trkpt lat="48.63931" lon="2.55296">
        <ele>133.934</ele>
        <time>2018-11-01T10:00:10Z</time>
      </trkpt>
      <trkpt lat="48.63934" lon="2.5529">
        <ele>133.929</ele>
        <time>2018-11-01T10:00:13Z</time>
      </trkpt>
      <trkpt lat="48.63935" lon="2.55281">
        <ele>133.923</ele>
        <time>2018-11-01T10:00:17Z</time>
      </trkpt>
      <trkpt lat="48.63934" lon="2.55274">
        <ele>133.918</ele>
        <time>2018-11-01T10:00:21Z</time>
      </trkpt>
      <trkpt lat="48.63932" lon="2.55267">
        <ele>133.916</ele>
        <time>2018-11-01T10:00:24Z</time>
      </trkpt>
      <trkpt lat="48.63931" lon="2.55264">
        <ele>133.916</ele>
        <time>2018-11-01T10:00:26Z</time>
      </trkpt>
      <trkpt lat="48.6393" lon="2.55256">
        <ele>133.916</ele>
        <time>2018-11-01T10:00:29Z</time>
      </trkpt>
      <trkpt lat="48.63929" lon="2.55251">
        <ele>133.916</ele>
        <time>2018-11-01T10:00:31Z</time>
      </trkpt>
      <trkpt lat="48.63928" lon="2.55246">
        <ele>133.916</ele>
        <time>2018-11-01T10:00:33Z</time>
      </trkpt>
      <trkpt lat="48.63928" lon="2.55237">
        <ele>133.918</ele>
        <time>2018-11-01T10:00:37Z</time>
      </trkpt>
      <trkpt lat="48.63929" lon="2.55232">
        <ele>133.918</ele>
        <time>2018-11-01T10:00:39Z</time>
      </trkpt>
      <trkpt lat="48.6393" lon="2.55224">
        <ele>133.922</ele>
        <time>2018-11-01T10:00:43Z</time>
      </trkpt>
      <trkpt lat="48.6393" lon="2.5522">
        <ele>133.924</ele>
        <time>2018-11-01T10:00:45Z</time>
      </trkpt>
      <trkpt lat="48.63931" lon="2.55215">
        <ele>133.927</ele>
        <time>2018-11-01T10:00:47Z</time>
      </trkpt>
      <trkpt lat="48.63932" lon="2.5521">
        <ele>133.93</ele>
        <time>2018-11-01T10:00:49Z</time>
      </trkpt>
      <trkpt lat="48.63933" lon="2.55202">
        <ele>133.935</ele>
        <time>2018-11-01T10:00:52Z</time>
      </trkpt>
      <trkpt lat="48.63934" lon="2.55195">
        <ele>133.941</ele>
        <time>2018-11-01T10:00:55Z</time>
      </trkpt>
      <trkpt lat="48.63936" lon="2.55188">
        <ele>133.949</ele>
        <time>2018-11-01T10:00:59Z</time>
      </trkpt>
      <trkpt lat="48.63936" lon="2.55184">
        <ele>133.952</ele>
        <time>2018-11-01T10:01:01Z</time>
      </trkpt>
      <trkpt lat="48.63936" lon="2.55176">
        <ele>133.955</ele>
        <time>2018-11-01T10:01:05Z</time>
      </trkpt>
      <trkpt lat="48.63937" lon="2.55169">
        <ele>133.955</ele>
        <time>2018-11-01T10:01:08Z</time>
      </trkpt>
      <trkpt lat="48.63938" lon="2.55162">
        <ele>133.954</ele>
        <time>2018-11-01T10:01:11Z</time>
      </trkpt>
      <trkpt lat="48.63939" lon="2.55154">
        <ele>133.952</ele>
        <time>2018-11-01T10:01:14Z</time>
      </trkpt>
      <trkpt lat="48.63939" lon="2.55149">
        <ele>133.952</ele>
        <time>2018-11-01T10:01:16Z</time>
      </trkpt>
      <trkpt lat="48.6394" lon="2.55144">
        <ele>133.953</ele>
        <time>2018-11-01T10:01:18Z</time>
      </trkpt>
      <trkpt lat="48.63941" lon="2.55139">
        <ele>133.954</ele>
        <time>2018-11-01T10:01:20Z</time>
      </trkpt>
      <trkpt lat="48.63941" lon="2.55136">
        <ele>133.956</ele>
        <time>2018-11-01T10:01:22Z</time>
      </trkpt>
      <trkpt lat="48.63942" lon="2.55132">
        <ele>133.958</ele>
        <time>2018-11-01T10:01:24Z</time>
      </trkpt>
      <trkpt lat="48.63942" lon="2.55128">
        <ele>133.96</ele>
        <time>2018-11-01T10:01:26Z</time>
      </trkpt>
      <trkpt lat="48.63946" lon="2.55119">
        <ele>133.964</ele>
        <time>2018-11-01T10:01:30Z</time>
      </trkpt>
      <trkpt lat="48.63947" lon="2.55115">
        <ele>133.967</ele>
        <time>2018-11-01T10:01:32Z</time>
      </trkpt>
      <trkpt lat="48.63947" lon="2.55106">
        <ele>133.972</ele>
        <time>2018-11-01T10:01:36Z</time>
      </trkpt>
      <trkpt lat="48.63946" lon="2.55099">
        <ele>133.976</ele>
        <time>2018-11-01T10:01:39Z</time>
      </trkpt>
      <trkpt lat="48.63947" lon="2.55091">
        <ele>133.983</ele>
        <time>2018-11-01T10:01:43Z</time>
      </trkpt>
      <trkpt lat="48.63947" lon="2.55083">
        <ele>133.989</ele>
        <time>2018-11-01T10:01:46Z</time>
      </trkpt>
      <trkpt lat="48.63948" lon="2.55079">
        <ele>133.993</ele>
        <time>2018-11-01T10:01:48Z</time>
      </trkpt>
      <trkpt lat="48.63947" lon="2.55075">
        <ele>133.997</ele>
        <time>2018-11-01T10:01:51Z</time>
      </trkpt>
      <trkpt lat="48.63948" lon="2.55067">
        <ele>134.003</ele>
        <time>2018-11-01T10:01:55Z</time>
      </trkpt>
      <trkpt lat="48.63948" lon="2.5506">
        <ele>134.006</ele>
        <time>2018-11-01T10:01:58Z</time>
      </trkpt>
      <trkpt lat="48.63948" lon="2.55055">
        <ele>134.008</ele>
        <time>2018-11-01T10:02:00Z</time>
      </trkpt>
      <trkpt lat="48.63948" lon="2.55049">
        <ele>134.009</ele>
        <time>2018-11-01T10:02:02Z</time>
      </trkpt>
      <trkpt lat="48.63949" lon="2.55041">
        <ele>134.009</ele>
        <time>2018-11-01T10:02:05Z</time>
      </trkpt>
      <trkpt lat="48.63951" lon="2.55034">
        <ele>134.008</ele>
        <time>2018-11-01T10:02:08Z</time>
      </trkpt>
      <trkpt lat="48.63954" lon="2.55026">
        <ele>134.008</ele>
        <time>2018-11-01T10:02:11Z</time>
      </trkpt>
      <trkpt lat="48.63958" lon="2.5502">
        <ele>134.006</ele>
        <time>2018-11-01T10:02:14Z</time>
      </trkpt>
      <trkpt lat="48.63961" lon="2.55012">
        <ele>134.002</ele>
        <time>2018-11-01T10:02:18Z</time>
      </trkpt>
      <trkpt lat="48.63962" lon="2.55004">
        <ele>133.995</ele>
        <time>2018-11-01T10:02:22Z</time>
      </trkpt>
      <trkpt lat="48.63962" lon="2.55">
        <ele>133.99</ele>
        <time>2018-11-01T10:02:24Z</time>
      </trkpt>
      <trkpt lat="48.63961" lon="2.54992">
        <ele>133.978</ele>
        <time>2018-11-01T10:02:28Z</time>
      </trkpt>
      <trkpt lat="48.6396" lon="2.54989">
        <ele>133.972</ele>
        <time>2018-11-01T10:02:30Z</time>
      </trkpt>
      <trkpt lat="48.63956" lon="2.54982">
        <ele>133.956</ele>
        <time>2018-11-01T10:02:34Z</time>
      </trkpt>
      <trkpt lat="48.63955" lon="2.54975">
        <ele>133.942</ele>
        <time>2018-11-01T10:02:37Z</time>
      </trkpt>
      <trkpt lat="48.63954" lon="2.5497">
        <ele>133.932</ele>
        <time>2018-11-01T10:02:39Z</time>
      </trkpt>
      <trkpt lat="48.63953" lon="2.54966">
        <ele>133.921</ele>
        <time>2018-11-01T10:02:41Z</time>
      </trkpt>
      <trkpt lat="48.63953" lon="2.54962">
        <ele>133.91</ele>
        <time>2018-11-01T10:02:43Z</time>
      </trkpt>
      <trkpt lat="48.63952" lon="2.54958">
        <ele>133.899</ele>
        <time>2018-11-01T10:02:45Z</time>
      </trkpt>
      <trkpt lat="48.63949" lon="2.54952">
        <ele>133.881</ele>
        <time>2018-11-01T10:02:48Z</time>
      </trkpt>
      <trkpt lat="48.63947" lon="2.54949">
        <ele>133.87</ele>
        <time>2018-11-01T10:02:50Z</time>
      </trkpt>
      <trkpt lat="48.63946" lon="2.54946">
        <ele>133.859</ele>
        <time>2018-11-01T10:02:52Z</time>
      </trkpt>
      <trkpt lat="48.63945" lon="2.54938">
        <ele>133.84</ele>
        <time>2018-11-01T10:02:56Z</time>
      </trkpt>
      <trkpt lat="48.63946" lon="2.5493">
        <ele>133.828</ele>
        <time>2018-11-01T10:03:00Z</time>
      </trkpt>
      <trkpt lat="48.63946" lon="2.54926">
        <ele>133.823</ele>
        <time>2018-11-01T10:03:02Z</time>
      </trkpt>
      <trkpt lat="48.63947" lon="2.54921">
        <ele>133.819</ele>
        <time>2018-11-01T10:03:04Z</time>
      </trkpt>
      <trkpt lat="48.63947" lon="2.54916">
        <ele>133.815</ele>
        <time>2018-11-01T10:03:06Z</time>
      </trkpt>
      <trkpt lat="48.63949" lon="2.54909">
        <ele>133.81</ele>
        <time>2018-11-01T10:03:09Z</time>
      </trkpt>
      <trkpt lat="48.63949" lon="2.54903">
        <ele>133.804</ele>
        <time>2018-11-01T10:03:12Z</time>
      </trkpt>
      <trkpt lat="48.6395" lon="2.54895">
        <ele>133.8</ele>
        <time>2018-11-01T10:03:15Z</time>
      </trkpt>
      <trkpt lat="48.6395" lon="2.5489">
        <ele>133.796</ele>
        <time>2018-11-01T10:03:17Z</time>
      </trkpt>
      <trkpt lat="48.6395" lon="2.54882">
        <ele>133.791</ele>
        <time>2018-11-01T10:03:20Z</time>
      </trkpt>
      <trkpt lat="48.63949" lon="2.54874">
        <ele>133.784</ele>
        <time>2018-11-01T10:03:23Z</time>
      </trkpt>
      <trkpt lat="48.63949" lon="2.54866">
        <ele>133.774</ele>
        <time>2018-11-01T10:03:26Z</time>
      </trkpt>
      <trkpt lat="48.63952" lon="2.5486">
        <ele>133.752</ele>
        <time>2018-11-01T10:03:30Z</time>
      </trkpt>
      <trkpt lat="48.63956" lon="2.54855">
        <ele>133.722</ele>
        <time>2018-11-01T10:03:34Z</time>
      </trkpt>
      <trkpt lat="48.63958" lon="2.54847">
        <ele>133.672</ele>
        <time>2018-11-01T10:03:39Z</time>
      </trkpt>
      <trkpt lat="48.63959" lon="2.54839">
        <ele>133.634</ele>
        <time>2018-11-01T10:03:42Z</time>
      </trkpt>
      <trkpt lat="48.63963" lon="2.54832">
        <ele>133.576</ele>
        <time>2018-11-01T10:03:46Z</time>
      </trkpt>
      <trkpt lat="48.63964" lon="2.54825">
        <ele>133.531</ele>
        <time>2018-11-01T10:03:49Z</time>
      </trkpt>
      <trkpt lat="48.63965" lon="2.54819">
        <ele>133.502</ele>
        <time>2018-11-01T10:03:51Z</time>
      </trkpt>
      <trkpt lat="48.63966" lon="2.54812">
        <ele>133.46</ele>
        <time>2018-11-01T10:03:54Z</time>
      </trkpt>
      <trkpt lat="48.63967" lon="2.54805">
        <ele>133.42</ele>
        <time>2018-11-01T10:03:57Z</time>
      </trkpt>
      <trkpt lat="48.63968" lon="2.54801">
        <ele>133.382</ele>
        <time>2018-11-01T10:04:00Z</time>
      </trkpt>
      <trkpt lat="48.63967" lon="2.54793">
        <ele>133.337</ele>
        <time>2018-11-01T10:04:04Z</time>
      </trkpt>
      <trkpt lat="48.63965" lon="2.54786">
        <ele>133.296</ele>
        <time>2018-11-01T10:04:08Z</time>
      </trkpt>
      <trkpt lat="48.63965" lon="2.54779">
        <ele>133.259</ele>
        <time>2018-11-01T10:04:12Z</time>
      </trkpt>
      <trkpt lat="48.63966" lon="2.54772">
        <ele>133.234</ele>
        <time>2018-11-01T10:04:15Z</time>
      </trkpt>
      <trkpt lat="48.63966" lon="2.54767">
        <ele>133.219</ele>
        <time>2018-11-01T10:04:17Z</time>
      </trkpt>
      <trkpt lat="48.63968" lon="2.54759">
        <ele>133.197</ele>
        <time>2018-11-01T10:04:20Z</time>
      </trkpt>
      <trkpt lat="48.63969" lon="2.54754">
        <ele>133.183</ele>
        <time>2018-11-01T10:04:22Z</time>
      </trkpt>
      <trkpt lat="48.63969" lon="2.5475">
        <ele>133.172</ele>
        <time>2018-11-01T10:04:24Z</time>
      </trkpt>
      <trkpt lat="48.6397" lon="2.54743">
        <ele>133.154</ele>
        <time>2018-11-01T10:04:28Z</time>
      </trkpt>
      <trkpt lat="48.63973" lon="2.54737">
        <ele>133.141</ele>
        <time>2018-11-01T10:04:32Z</time>
      </trkpt>
      <trkpt lat="48.63977" lon="2.54723">
        <ele>133.133</ele>
        <time>2018-11-01T10:04:37Z</time>
      </trkpt>
      <trkpt lat="48.63978" lon="2.54719">
        <ele>133.132</ele>
        <time>2018-11-01T10:04:38Z</time>
      </trkpt>
      <trkpt lat="48.63977" lon="2.54711">
        <ele>133.13</ele>
        <time>2018-11-01T10:04:41Z</time>
      </trkpt>
      <trkpt lat="48.63979" lon="2.54704">
        <ele>133.13</ele>
        <time>2018-11-01T10:04:44Z</time>
      </trkpt>
      <trkpt lat="48.6398" lon="2.54699">
        <ele>133.131</ele>
        <time>2018-11-01T10:04:46Z</time>
      </trkpt>
      <trkpt lat="48.63977" lon="2.54694">
        <ele>133.138</ele>
        <time>2018-11-01T10:04:51Z</time>
      </trkpt>
      <trkpt lat="48.63977" lon="2.54685">
        <ele>133.15</ele>
        <time>2018-11-01T10:04:54Z</time>
      </trkpt>
      <trkpt lat="48.63978" lon="2.54675">
        <ele>133.164</ele>
        <time>2018-11-01T10:04:57Z</time>
      </trkpt>
      <trkpt lat="48.63976" lon="2.54668">
        <ele>133.179</ele>
        <time>2018-11-01T10:05:00Z</time>
      </trkpt>
      <trkpt lat="48.63976" lon="2.54662">
        <ele>133.19</ele>
        <time>2018-11-01T10:05:02Z</time>
      </trkpt>
      <trkpt lat="48.63975" lon="2.54653">
        <ele>133.211</ele>
        <time>2018-11-01T10:05:06Z</time>
      </trkpt>
      <trkpt lat="48.63974" lon="2.54648">
        <ele>133.221</ele>
        <time>2018-11-01T10:05:08Z</time>
      </trkpt>
      <trkpt lat="48.63976" lon="2.54642">
        <ele>133.237</ele>
        <time>2018-11-01T10:05:11Z</time>
      </trkpt>
      <trkpt lat="48.63975" lon="2.54631">
        <ele>133.253</ele>
        <time>2018-11-01T10:05:14Z</time>
      </trkpt>
      <trkpt lat="48.63975" lon="2.54625">
        <ele>133.27</ele>
        <time>2018-11-01T10:05:17Z</time>
      </trkpt>
      <trkpt lat="48.63977" lon="2.54616">
        <ele>133.289</ele>
        <time>2018-11-01T10:05:20Z</time>
      </trkpt>
      <trkpt lat="48.63977" lon="2.54607">
        <ele>133.307</ele>
        <time>2018-11-01T10:05:23Z</time>
      </trkpt>
      <trkpt lat="48.63979" lon="2.54601">
        <ele>133.326</ele>
        <time>2018-11-01T10:05:26Z</time>
      </trkpt>
      <trkpt lat="48.63981" lon="2.54593">
        <ele>133.349</ele>
        <time>2018-11-01T10:05:30Z</time>
      </trkpt>
      <trkpt lat="48.63982" lon="2.54584">
        <ele>133.375</ele>
        <time>2018-11-01T10:05:35Z</time>
      </trkpt>
      <trkpt lat="48.63982" lon="2.54579">
        <ele>133.385</ele>
        <time>2018-11-01T10:05:37Z</time>
      </trkpt>
      <trkpt lat="48.63984" lon="2.54569">
        <ele>133.4</ele>
        <time>2018-11-01T10:05:40Z</time>
      </trkpt>
      <trkpt lat="48.63985" lon="2.54565">
        <ele>133.409</ele>
        <time>2018-11-01T10:05:42Z</time>
      </trkpt>
      <trkpt lat="48.63986" lon="2.5456">
        <ele>133.419</ele>
        <time>2018-11-01T10:05:44Z</time>
      </trkpt>
      <trkpt lat="48.63986" lon="2.54551">
        <ele>133.432</ele>
        <time>2018-11-01T10:05:47Z</time>
      </trkpt>
      <trkpt lat="48.63986" lon="2.54548">
        <ele>133.441</ele>
        <time>2018-11-01T10:05:49Z</time>
      </trkpt>
      <trkpt lat="48.63987" lon="2.54541">
        <ele>133.454</ele>
        <time>2018-11-01T10:05:52Z</time>
      </trkpt>
      <trkpt lat="48.63988" lon="2.54537">
        <ele>133.462</ele>
        <time>2018-11-01T10:05:54Z</time>
      </trkpt>
      <trkpt lat="48.6399" lon="2.5453">
        <ele>133.48</ele>
        <time>2018-11-01T10:05:58Z</time>
      </trkpt>
      <trkpt lat="48.63991" lon="2.54526">
        <ele>133.49</ele>
        <time>2018-11-01T10:06:00Z</time>
      </trkpt>
      <trkpt lat="48.63992" lon="2.54518">
        <ele>133.513</ele>
        <time>2018-11-01T10:06:04Z</time>
      </trkpt>
      <trkpt lat="48.63992" lon="2.54514">
        <ele>133.531</ele>
        <time>2018-11-01T10:06:07Z</time>
      </trkpt>
      <trkpt lat="48.63993" lon="2.54509">
        <ele>133.543</ele>
        <time>2018-11-01T10:06:09Z</time>
      </trkpt>
      <trkpt lat="48.63998" lon="2.54503">
        <ele>133.565</ele>
        <time>2018-11-01T10:06:13Z</time>
      </trkpt>
      <trkpt lat="48.63998" lon="2.54495">
        <ele>133.58</ele>
        <time>2018-11-01T10:06:16Z</time>
      </trkpt>
      <trkpt lat="48.64" lon="2.54487">
        <ele>133.6</ele>
        <time>2018-11-01T10:06:20Z</time>
      </trkpt>
      <trkpt lat="48.64001" lon="2.54479">
        <ele>133.618</ele>
        <time>2018-11-01T10:06:24Z</time>
      </trkpt>
      <trkpt lat="48.64002" lon="2.54474">
        <ele>133.63</ele>
        <time>2018-11-01T10:06:27Z</time>
      </trkpt>
      <trkpt lat="48.64005" lon="2.54466">
        <ele>133.658</ele>
        <time>2018-11-01T10:06:31Z</time>
      </trkpt>
      <trkpt lat="48.64006" lon="2.54462">
        <ele>133.675</ele>
        <time>2018-11-01T10:06:33Z</time>
      </trkpt>
      <trkpt lat="48.64008" lon="2.54458">
        <ele>133.692</ele>
        <time>2018-11-01T10:06:35Z</time>
      </trkpt>
      <trkpt lat="48.64009" lon="2.54453">
        <ele>133.712</ele>
        <time>2018-11-01T10:06:37Z</time>
      </trkpt>
      <trkpt lat="48.6401" lon="2.54446">
        <ele>133.734</ele>
        <time>2018-11-01T10:06:40Z</time>
      </trkpt>
      <trkpt lat="48.64011" lon="2.54441">
        <ele>133.754</ele>
        <time>2018-11-01T10:06:42Z</time>
      </trkpt>
      <trkpt lat="48.64012" lon="2.54435">
        <ele>133.773</ele>
        <time>2018-11-01T10:06:44Z</time>
      </trkpt>
      <trkpt lat="48.64014" lon="2.54428">
        <ele>133.79</ele>
        <time>2018-11-01T10:06:46Z</time>
      </trkpt>
      <trkpt lat="48.64017" lon="2.54421">
        <ele>133.812</ele>
        <time>2018-11-01T10:06:49Z</time>
      </trkpt>
      <trkpt lat="48.64018" lon="2.54417">
        <ele>133.826</ele>
        <time>2018-11-01T10:06:51Z</time>
      </trkpt>
      <trkpt lat="48.6402" lon="2.5441">
        <ele>133.853</ele>
        <time>2018-11-01T10:06:55Z</time>
      </trkpt>
      <trkpt lat="48.64023" lon="2.54403">
        <ele>133.872</ele>
        <time>2018-11-01T10:06:58Z</time>
      </trkpt>
      <trkpt lat="48.64025" lon="2.54394">
        <ele>133.889</ele>
        <time>2018-11-01T10:07:01Z</time>
      </trkpt>
      <trkpt lat="48.64025" lon="2.54386">
        <ele>133.906</ele>
        <time>2018-11-01T10:07:05Z</time>
      </trkpt>
      <trkpt lat="48.64028" lon="2.54378">
        <ele>133.913</ele>
        <time>2018-11-01T10:07:08Z</time>
      </trkpt>
      <trkpt lat="48.64029" lon="2.54373">
        <ele>133.916</ele>
        <time>2018-11-01T10:07:10Z</time>
      </trkpt>
      <trkpt lat="48.64031" lon="2.54368">
        <ele>133.921</ele>
        <time>2018-11-01T10:07:12Z</time>
      </trkpt>
      <trkpt lat="48.64032" lon="2.54364">
        <ele>133.926</ele>
        <time>2018-11-01T10:07:14Z</time>
      </trkpt>
      <trkpt lat="48.64032" lon="2.5436">
        <ele>133.931</ele>
        <time>2018-11-01T10:07:16Z</time>
      </trkpt>
      <trkpt lat="48.64033" lon="2.54357">
        <ele>133.936</ele>
        <time>2018-11-01T10:07:18Z</time>
      </trkpt>
      <trkpt lat="48.64034" lon="2.54353">
        <ele>133.941</ele>
        <time>2018-11-01T10:07:20Z</time>
      </trkpt>
      <trkpt lat="48.64035" lon="2.54346">
        <ele>133.952</ele>
        <time>2018-11-01T10:07:24Z</time>
      </trkpt>
      <trkpt lat="48.64036" lon="2.54337">
        <ele>133.968</ele>
        <time>2018-11-01T10:07:28Z</time>
      </trkpt>
      <trkpt lat="48.64036" lon="2.5433">
        <ele>133.987</ele>
        <time>2018-11-01T10:07:32Z</time>
      </trkpt>
      <trkpt lat="48.64035" lon="2.54325">
        <ele>133.997</ele>
        <time>2018-11-01T10:07:34Z</time>
      </trkpt>
      <trkpt lat="48.64035" lon="2.54321">
        <ele>134.006</ele>
        <time>2018-11-01T10:07:36Z</time>
      </trkpt>
      <trkpt lat="48.64035" lon="2.54314">
        <ele>134.019</ele>
        <time>2018-11-01T10:07:39Z</time>
      </trkpt>
      <trkpt lat="48.64033" lon="2.54305">
        <ele>134.032</ele>
        <time>2018-11-01T10:07:42Z</time>
      </trkpt>
      <trkpt lat="48.64033" lon="2.54296">
        <ele>134.044</ele>
        <time>2018-11-01T10:07:46Z</time>
      </trkpt>
      <trkpt lat="48.64035" lon="2.54288">
        <ele>134.05</ele>
        <time>2018-11-01T10:07:50Z</time>
      </trkpt>
      <trkpt lat="48.64038" lon="2.54282">
        <ele>134.049</ele>
        <time>2018-11-01T10:07:53Z</time>
      </trkpt>
      <trkpt lat="48.64039" lon="2.54275">
        <ele>134.04</ele>
        <time>2018-11-01T10:07:57Z</time>
      </trkpt>
      <trkpt lat="48.64039" lon="2.54267">
        <ele>134.025</ele>
        <time>2018-11-01T10:08:00Z</time>
      </trkpt>
      <trkpt lat="48.64042" lon="2.54258">
        <ele>134.007</ele>
        <time>2018-11-01T10:08:03Z</time>
      </trkpt>
      <trkpt lat="48.64043" lon="2.54249">
        <ele>133.988</ele>
        <time>2018-11-01T10:08:06Z</time>
      </trkpt>
      <trkpt lat="48.6404" lon="2.54241">
        <ele>133.97</ele>
        <time>2018-11-01T10:08:09Z</time>
      </trkpt>
      <trkpt lat="48.64037" lon="2.54236">
        <ele>133.945</ele>
        <time>2018-11-01T10:08:13Z</time>
      </trkpt>
      <trkpt lat="48.64033" lon="2.54232">
        <ele>133.927</ele>
        <time>2018-11-01T10:08:16Z</time>
      </trkpt>
      <trkpt lat="48.6403" lon="2.54229">
        <ele>133.911</ele>
        <time>2018-11-01T10:08:19Z</time>
      </trkpt>
      <trkpt lat="48.64029" lon="2.54222">
        <ele>133.882</ele>
        <time>2018-11-01T10:08:27Z</time>
      </trkpt>
      <trkpt lat="48.6403" lon="2.54215">
        <ele>133.865</ele>
        <time>2018-11-01T10:08:30Z</time>
      </trkpt>
      <trkpt lat="48.64032" lon="2.54208">
        <ele>133.828</ele>
        <time>2018-11-01T10:08:35Z</time>
      </trkpt>
      <trkpt lat="48.64037" lon="2.54202">
        <ele>133.792</ele>
        <time>2018-11-01T10:08:39Z</time>
      </trkpt>
      <trkpt lat="48.64041" lon="2.54198">
        <ele>133.749</ele>
        <time>2018-11-01T10:08:44Z</time>
      </trkpt>
      <trkpt lat="48.64045" lon="2.54195">
        <ele>133.708</ele>
        <time>2018-11-01T10:08:49Z</time>
      </trkpt>
      <trkpt lat="48.64045" lon="2.54195">
        <ele>82.4</ele>
        <time>2018-11-01T10:08:56Z</time>
      </trkpt>
      <trkpt lat="48.64045" lon="2.54195">
        <ele>82.4</ele>
        <time>2018-11-01T10:09:06Z</time>
      </trkpt>
      <trkpt lat="48.64036" lon="2.54224">
        <ele>133.662</ele>
        <time>2018-11-01T10:09:06Z</time>
      </trkpt>
      <trkpt lat="48.64038" lon="2.54228">
        <ele>133.662</ele>
        <time>2018-11-01T10:09:08Z</time>
      </trkpt>
      <trkpt lat="48.64041" lon="2.54235">
        <ele>133.665</ele>
        <time>2018-11-01T10:09:11Z</time>
      </trkpt>
      <trkpt lat="48.6404" lon="2.54242">
        <ele>133.673</ele>
        <time>2018-11-01T10:09:17Z</time>
      </trkpt>
      <trkpt lat="48.64037" lon="2.54247">
        <ele>133.678</ele>
        <time>2018-11-01T10:09:22Z</time>
      </trkpt>
      <trkpt lat="48.64037" lon="2.54247">
        <ele>133.678</ele>
        <time>2018-11-01T10:09:29Z</time>
      </trkpt>
      <trkpt lat="48.64037" lon="2.54247">
        <ele>81.7</ele>
        <time>2018-11-01T10:09:29Z</time>
      </trkpt>
      <trkpt lat="48.64037" lon="2.54247">
        <ele>81.7</ele>
        <time>2018-11-01T10:10:50Z</time>
      </trkpt>
      <trkpt lat="48.64036" lon="2.54218">
        <ele>133.816</ele>
        <time>2018-11-01T10:10:50Z</time>
      </trkpt>
      <trkpt lat="48.64038" lon="2.54212">
        <ele>133.808</ele>
        <time>2018-11-01T10:10:52Z</time>
      </trkpt>
      <trkpt lat="48.64042" lon="2.54206">
        <ele>133.792</ele>
        <time>2018-11-01T10:10:55Z</time>
      </trkpt>
      <trkpt lat="48.64044" lon="2.54203">
        <ele>133.779</ele>
        <time>2018-11-01T10:10:57Z</time>
      </trkpt>
      <trkpt lat="48.64046" lon="2.542">
        <ele>133.764</ele>
        <time>2018-11-01T10:10:59Z</time>
      </trkpt>
      <trkpt lat="48.64048" lon="2.54194">
        <ele>133.731</ele>
        <time>2018-11-01T10:11:03Z</time>
      </trkpt>
      <trkpt lat="48.64051" lon="2.54188">
        <ele>133.687</ele>
        <time>2018-11-01T10:11:08Z</time>
      </trkpt>
      <trkpt lat="48.64055" lon="2.54182">
        <ele>133.648</ele>
        <time>2018-11-01T10:11:12Z</time>
      </trkpt>
      <trkpt lat="48.64059" lon="2.54177">
        <ele>133.609</ele>
        <time>2018-11-01T10:11:16Z</time>
      </trkpt>
      <trkpt lat="48.64061" lon="2.54175">
        <ele>133.589</ele>
        <time>2018-11-01T10:11:18Z</time>
      </trkpt>
      <trkpt lat="48.64063" lon="2.54172">
        <ele>133.559</ele>
        <time>2018-11-01T10:11:21Z</time>
      </trkpt>
      <trkpt lat="48.64066" lon="2.54169">
        <ele>133.54</ele>
        <time>2018-11-01T10:11:23Z</time>
      </trkpt>
      <trkpt lat="48.64068" lon="2.54165">
        <ele>133.52</ele>
        <time>2018-11-01T10:11:25Z</time>
      </trkpt>
      <trkpt lat="48.6407" lon="2.54162">
        <ele>133.5</ele>
        <time>2018-11-01T10:11:27Z</time>
      </trkpt>
      <trkpt lat="48.64074" lon="2.54158">
        <ele>133.459</ele>
        <time>2018-11-01T10:11:31Z</time>
      </trkpt>
      <trkpt lat="48.64076" lon="2.54156">
        <ele>133.437</ele>
        <time>2018-11-01T10:11:33Z</time>
      </trkpt>
      <trkpt lat="48.64079" lon="2.54151">
        <ele>133.403</ele>
        <time>2018-11-01T10:11:36Z</time>
      </trkpt>
      <trkpt lat="48.64082" lon="2.54148">
        <ele>133.381</ele>
        <time>2018-11-01T10:11:38Z</time>
      </trkpt>
      <trkpt lat="48.64085" lon="2.54144">
        <ele>133.35</ele>
        <time>2018-11-01T10:11:41Z</time>
      </trkpt>
      <trkpt lat="48.6409" lon="2.54139">
        <ele>133.319</ele>
        <time>2018-11-01T10:11:44Z</time>
      </trkpt>
      <trkpt lat="48.64093" lon="2.54136">
        <ele>133.298</ele>
        <time>2018-11-01T10:11:46Z</time>
      </trkpt>
      <trkpt lat="48.64097" lon="2.54131">
        <ele>133.267</ele>
        <time>2018-11-01T10:11:49Z</time>
      </trkpt>
      <trkpt lat="48.641" lon="2.54125">
        <ele>133.235</ele>
        <time>2018-11-01T10:11:52Z</time>
      </trkpt>
      <trkpt lat="48.64103" lon="2.54122">
        <ele>133.214</ele>
        <time>2018-11-01T10:11:54Z</time>
      </trkpt>
      <trkpt lat="48.64105" lon="2.54119">
        <ele>133.192</ele>
        <time>2018-11-01T10:11:56Z</time>
      </trkpt>
      <trkpt lat="48.64107" lon="2.54117">
        <ele>133.169</ele>
        <time>2018-11-01T10:11:58Z</time>
      </trkpt>
      <trkpt lat="48.64109" lon="2.54114">
        <ele>133.147</ele>
        <time>2018-11-01T10:12:00Z</time>
      </trkpt>
      <trkpt lat="48.64112" lon="2.54112">
        <ele>133.124</ele>
        <time>2018-11-01T10:12:02Z</time>
      </trkpt>
      <trkpt lat="48.64116" lon="2.54106">
        <ele>133.091</ele>
        <time>2018-11-01T10:12:05Z</time>
      </trkpt>
      <trkpt lat="48.64119" lon="2.54103">
        <ele>133.069</ele>
        <time>2018-11-01T10:12:07Z</time>
      </trkpt>
      <trkpt lat="48.64122" lon="2.54098">
        <ele>133.038</ele>
        <time>2018-11-01T10:12:10Z</time>
      </trkpt>
      <trkpt lat="48.64125" lon="2.54096">
        <ele>133.018</ele>
        <time>2018-11-01T10:12:12Z</time>
      </trkpt>
      <trkpt lat="48.64127" lon="2.54093">
        <ele>132.998</ele>
        <time>2018-11-01T10:12:14Z</time>
      </trkpt>
      <trkpt lat="48.6413" lon="2.5409">
        <ele>132.978</ele>
        <time>2018-11-01T10:12:16Z</time>
      </trkpt>
      <trkpt lat="48.64133" lon="2.54087">
        <ele>132.959</ele>
        <time>2018-11-01T10:12:18Z</time>
      </trkpt>
      <trkpt lat="48.64136" lon="2.54084">
        <ele>132.941</ele>
        <time>2018-11-01T10:12:20Z</time>
      </trkpt>
      <trkpt lat="48.64138" lon="2.54081">
        <ele>132.923</ele>
        <time>2018-11-01T10:12:22Z</time>
      </trkpt>
      <trkpt lat="48.64141" lon="2.54078">
        <ele>132.906</ele>
        <time>2018-11-01T10:12:24Z</time>
      </trkpt>
      <trkpt lat="48.64143" lon="2.54075">
        <ele>132.888</ele>
        <time>2018-11-01T10:12:26Z</time>
      </trkpt>
      <trkpt lat="48.64145" lon="2.54072">
        <ele>132.869</ele>
        <time>2018-11-01T10:12:28Z</time>
      </trkpt>
      <trkpt lat="48.64148" lon="2.54069">
        <ele>132.851</ele>
        <time>2018-11-01T10:12:30Z</time>
      </trkpt>
      <trkpt lat="48.64152" lon="2.54065">
        <ele>132.815</ele>
        <time>2018-11-01T10:12:34Z</time>
      </trkpt>
      <trkpt lat="48.64155" lon="2.54063">
        <ele>132.797</ele>
        <time>2018-11-01T10:12:36Z</time>
      </trkpt>
      <trkpt lat="48.64158" lon="2.5406">
        <ele>132.779</ele>
        <time>2018-11-01T10:12:38Z</time>
      </trkpt>
      <trkpt lat="48.6416" lon="2.54058">
        <ele>132.761</ele>
        <time>2018-11-01T10:12:40Z</time>
      </trkpt>
      <trkpt lat="48.64165" lon="2.54053">
        <ele>132.722</ele>
        <time>2018-11-01T10:12:44Z</time>
      </trkpt>
      <trkpt lat="48.64169" lon="2.5405">
        <ele>132.69</ele>
        <time>2018-11-01T10:12:47Z</time>
      </trkpt>
      <trkpt lat="48.64173" lon="2.54047">
        <ele>132.656</ele>
        <time>2018-11-01T10:12:50Z</time>
      </trkpt>
      <trkpt lat="48.64178" lon="2.54042">
        <ele>132.604</ele>
        <time>2018-11-01T10:12:54Z</time>
      </trkpt>
      <trkpt lat="48.6418" lon="2.5404">
        <ele>132.578</ele>
        <time>2018-11-01T10:12:56Z</time>
      </trkpt>
      <trkpt lat="48.64184" lon="2.54034">
        <ele>132.537</ele>
        <time>2018-11-01T10:12:59Z</time>
      </trkpt>
      <trkpt lat="48.64186" lon="2.54031">
        <ele>132.51</ele>
        <time>2018-11-01T10:13:01Z</time>
      </trkpt>
      <trkpt lat="48.64191" lon="2.54027">
        <ele>132.469</ele>
        <time>2018-11-01T10:13:04Z</time>
      </trkpt>
      <trkpt lat="48.64196" lon="2.54022">
        <ele>132.428</ele>
        <time>2018-11-01T10:13:07Z</time>
      </trkpt>
      <trkpt lat="48.642" lon="2.54017">
        <ele>132.388</ele>
        <time>2018-11-01T10:13:10Z</time>
      </trkpt>
      <trkpt lat="48.64203" lon="2.54014">
        <ele>132.362</ele>
        <time>2018-11-01T10:13:12Z</time>
      </trkpt>
      <trkpt lat="48.64208" lon="2.5401">
        <ele>132.31</ele>
        <time>2018-11-01T10:13:16Z</time>
      </trkpt>
      <trkpt lat="48.64213" lon="2.54008">
        <ele>132.256</ele>
        <time>2018-11-01T10:13:20Z</time>
      </trkpt>
      <trkpt lat="48.64218" lon="2.54007">
        <ele>132.217</ele>
        <time>2018-11-01T10:13:23Z</time>
      </trkpt>
      <trkpt lat="48.64222" lon="2.54006">
        <ele>132.191</ele>
        <time>2018-11-01T10:13:25Z</time>
      </trkpt>
      <trkpt lat="48.64225" lon="2.54005">
        <ele>132.165</ele>
        <time>2018-11-01T10:13:27Z</time>
      </trkpt>
      <trkpt lat="48.64229" lon="2.54004">
        <ele>132.139</ele>
        <time>2018-11-01T10:13:29Z</time>
      </trkpt>
      <trkpt lat="48.64233" lon="2.54001">
        <ele>132.087</ele>
        <time>2018-11-01T10:13:33Z</time>
      </trkpt>
      <trkpt lat="48.64237" lon="2.53995">
        <ele>132.035</ele>
        <time>2018-11-01T10:13:37Z</time>
      </trkpt>
      <trkpt lat="48.64239" lon="2.53991">
        <ele>132.008</ele>
        <time>2018-11-01T10:13:39Z</time>
      </trkpt>
      <trkpt lat="48.64241" lon="2.53988">
        <ele>131.981</ele>
        <time>2018-11-01T10:13:41Z</time>
      </trkpt>
      <trkpt lat="48.64244" lon="2.53982">
        <ele>131.939</ele>
        <time>2018-11-01T10:13:44Z</time>
      </trkpt>
      <trkpt lat="48.64246" lon="2.53978">
        <ele>131.912</ele>
        <time>2018-11-01T10:13:46Z</time>
      </trkpt>
      <trkpt lat="48.64248" lon="2.53971">
        <ele>131.873</ele>
        <time>2018-11-01T10:13:49Z</time>
      </trkpt>
      <trkpt lat="48.6425" lon="2.53967">
        <ele>131.848</ele>
        <time>2018-11-01T10:13:51Z</time>
      </trkpt>
      <trkpt lat="48.64252" lon="2.53961">
        <ele>131.813</ele>
        <time>2018-11-01T10:13:54Z</time>
      </trkpt>
      <trkpt lat="48.64254" lon="2.53957">
        <ele>131.791</ele>
        <time>2018-11-01T10:13:56Z</time>
      </trkpt>
      <trkpt lat="48.64256" lon="2.53953">
        <ele>131.77</ele>
        <time>2018-11-01T10:13:58Z</time>
      </trkpt>
      <trkpt lat="48.6426" lon="2.53949">
        <ele>131.744</ele>
        <time>2018-11-01T10:14:01Z</time>
      </trkpt>
      <trkpt lat="48.64264" lon="2.53945">
        <ele>131.724</ele>
        <time>2018-11-01T10:14:04Z</time>
      </trkpt>
      <trkpt lat="48.64267" lon="2.53938">
        <ele>131.701</ele>
        <time>2018-11-01T10:14:08Z</time>
      </trkpt>
      <trkpt lat="48.64269" lon="2.53935">
        <ele>131.691</ele>
        <time>2018-11-01T10:14:10Z</time>
      </trkpt>
      <trkpt lat="48.64272" lon="2.5393">
        <ele>131.679</ele>
        <time>2018-11-01T10:14:13Z</time>
      </trkpt>
      <trkpt lat="48.64274" lon="2.53927">
        <ele>131.672</ele>
        <time>2018-11-01T10:14:15Z</time>
      </trkpt>
      <trkpt lat="48.64279" lon="2.53922">
        <ele>131.657</ele>
        <time>2018-11-01T10:14:19Z</time>
      </trkpt>
      <trkpt lat="48.64281" lon="2.5392">
        <ele>131.649</ele>
        <time>2018-11-01T10:14:21Z</time>
      </trkpt>
      <trkpt lat="48.64284" lon="2.53917">
        <ele>131.641</ele>
        <time>2018-11-01T10:14:23Z</time>
      </trkpt>
      <trkpt lat="48.64286" lon="2.53914">
        <ele>131.633</ele>
        <time>2018-11-01T10:14:25Z</time>
      </trkpt>
      <trkpt lat="48.6429" lon="2.53908">
        <ele>131.619</ele>
        <time>2018-11-01T10:14:28Z</time>
      </trkpt>
      <trkpt lat="48.64291" lon="2.53905">
        <ele>131.615</ele>
        <time>2018-11-01T10:14:29Z</time>
      </trkpt>
      <trkpt lat="48.64295" lon="2.53899">
        <ele>131.601</ele>
        <time>2018-11-01T10:14:32Z</time>
      </trkpt>
      <trkpt lat="48.64298" lon="2.53895">
        <ele>131.59</ele>
        <time>2018-11-01T10:14:34Z</time>
      </trkpt>
      <trkpt lat="48.64301" lon="2.5389">
        <ele>131.575</ele>
        <time>2018-11-01T10:14:37Z</time>
      </trkpt>
      <trkpt lat="48.64303" lon="2.53887">
        <ele>131.565</ele>
        <time>2018-11-01T10:14:39Z</time>
      </trkpt>
      <trkpt lat="48.64305" lon="2.53883">
        <ele>131.554</ele>
        <time>2018-11-01T10:14:41Z</time>
      </trkpt>
      <trkpt lat="48.64308" lon="2.5388">
        <ele>131.544</ele>
        <time>2018-11-01T10:14:43Z</time>
      </trkpt>
      <trkpt lat="48.64312" lon="2.53874">
        <ele>131.53</ele>
        <time>2018-11-01T10:14:46Z</time>
      </trkpt>
      <trkpt lat="48.64316" lon="2.5387">
        <ele>131.518</ele>
        <time>2018-11-01T10:14:49Z</time>
      </trkpt>
      <trkpt lat="48.6432" lon="2.53865">
        <ele>131.506</ele>
        <time>2018-11-01T10:14:52Z</time>
      </trkpt>
      <trkpt lat="48.64323" lon="2.53862">
        <ele>131.499</ele>
        <time>2018-11-01T10:14:54Z</time>
      </trkpt>
      <trkpt lat="48.64326" lon="2.53859">
        <ele>131.493</ele>
        <time>2018-11-01T10:14:56Z</time>
      </trkpt>
      <trkpt lat="48.64329" lon="2.53855">
        <ele>131.482</ele>
        <time>2018-11-01T10:14:59Z</time>
      </trkpt>
      <trkpt lat="48.64332" lon="2.53851">
        <ele>131.473</ele>
        <time>2018-11-01T10:15:01Z</time>
      </trkpt>
      <trkpt lat="48.64337" lon="2.53847">
        <ele>131.451</ele>
        <time>2018-11-01T10:15:05Z</time>
      </trkpt>
      <trkpt lat="48.64341" lon="2.53843">
        <ele>131.434</ele>
        <time>2018-11-01T10:15:08Z</time>
      </trkpt>
      <trkpt lat="48.64343" lon="2.53841">
        <ele>131.423</ele>
        <time>2018-11-01T10:15:10Z</time>
      </trkpt>
      <trkpt lat="48.64347" lon="2.53836">
        <ele>131.406</ele>
        <time>2018-11-01T10:15:13Z</time>
      </trkpt>
      <trkpt lat="48.64351" lon="2.53832">
        <ele>131.39</ele>
        <time>2018-11-01T10:15:16Z</time>
      </trkpt>
      <trkpt lat="48.64353" lon="2.53829">
        <ele>131.381</ele>
        <time>2018-11-01T10:15:18Z</time>
      </trkpt>
      <trkpt lat="48.64356" lon="2.53825">
        <ele>131.372</ele>
        <time>2018-11-01T10:15:20Z</time>
      </trkpt>
      <trkpt lat="48.64358" lon="2.53822">
        <ele>131.364</ele>
        <time>2018-11-01T10:15:22Z</time>
      </trkpt>
      <trkpt lat="48.64362" lon="2.53816">
        <ele>131.349</ele>
        <time>2018-11-01T10:15:26Z</time>
      </trkpt>
      <trkpt lat="48.64366" lon="2.53811">
        <ele>131.336</ele>
        <time>2018-11-01T10:15:30Z</time>
      </trkpt>
      <trkpt lat="48.64368" lon="2.53809">
        <ele>131.33</ele>
        <time>2018-11-01T10:15:32Z</time>
      </trkpt>
      <trkpt lat="48.64371" lon="2.53806">
        <ele>131.324</ele>
        <time>2018-11-01T10:15:34Z</time>
      </trkpt>
      <trkpt lat="48.64376" lon="2.53801">
        <ele>131.318</ele>
        <time>2018-11-01T10:15:37Z</time>
      </trkpt>
      <trkpt lat="48.64379" lon="2.53796">
        <ele>131.314</ele>
        <time>2018-11-01T10:15:40Z</time>
      </trkpt>
      <trkpt lat="48.64383" lon="2.53791">
        <ele>131.31</ele>
        <time>2018-11-01T10:15:43Z</time>
      </trkpt>
      <trkpt lat="48.64386" lon="2.53785">
        <ele>131.308</ele>
        <time>2018-11-01T10:15:46Z</time>
      </trkpt>
      <trkpt lat="48.64387" lon="2.53781">
        <ele>131.307</ele>
        <time>2018-11-01T10:15:48Z</time>
      </trkpt>
      <trkpt lat="48.6439" lon="2.53776">
        <ele>131.307</ele>
        <time>2018-11-01T10:15:52Z</time>
      </trkpt>
      <trkpt lat="48.64393" lon="2.53765">
        <ele>131.309</ele>
        <time>2018-11-01T10:15:59Z</time>
      </trkpt>
      <trkpt lat="48.64397" lon="2.53756">
        <ele>131.311</ele>
        <time>2018-11-01T10:16:02Z</time>
      </trkpt>
      <trkpt lat="48.64404" lon="2.53759">
        <ele>131.312</ele>
        <time>2018-11-01T10:16:07Z</time>
      </trkpt>
      <trkpt lat="48.64417" lon="2.53769">
        <ele>131.312</ele>
        <time>2018-11-01T10:16:09Z</time>
      </trkpt>
      <trkpt lat="48.64422" lon="2.53771">
        <ele>131.312</ele>
        <time>2018-11-01T10:16:10Z</time>
      </trkpt>
      <trkpt lat="48.64429" lon="2.53775">
        <ele>131.312</ele>
        <time>2018-11-01T10:16:12Z</time>
      </trkpt>
      <trkpt lat="48.64433" lon="2.53766">
        <ele>131.312</ele>
        <time>2018-11-01T10:16:13Z</time>
      </trkpt>
      <trkpt lat="48.6444" lon="2.53759">
        <ele>131.312</ele>
        <time>2018-11-01T10:16:14Z</time>
      </trkpt>
      <trkpt lat="48.64442" lon="2.53752">
        <ele>131.312</ele>
        <time>2018-11-01T10:16:18Z</time>
      </trkpt>
      <trkpt lat="48.64438" lon="2.53745">
        <ele>131.312</ele>
        <time>2018-11-01T10:16:19Z</time>
      </trkpt>
      <trkpt lat="48.64435" lon="2.5374">
        <ele>131.312</ele>
        <time>2018-11-01T10:16:20Z</time>
      </trkpt>
      <trkpt lat="48.64435" lon="2.53733">
        <ele>131.311</ele>
        <time>2018-11-01T10:16:23Z</time>
      </trkpt>
      <trkpt lat="48.64435" lon="2.53726">
        <ele>131.304</ele>
        <time>2018-11-01T10:16:26Z</time>
      </trkpt>
      <trkpt lat="48.64438" lon="2.53721">
        <ele>131.294</ele>
        <time>2018-11-01T10:16:29Z</time>
      </trkpt>
      <trkpt lat="48.64442" lon="2.53716">
        <ele>131.28</ele>
        <time>2018-11-01T10:16:33Z</time>
      </trkpt>
      <trkpt lat="48.64444" lon="2.53712">
        <ele>131.269</ele>
        <time>2018-11-01T10:16:36Z</time>
      </trkpt>
      <trkpt lat="48.64449" lon="2.53708">
        <ele>131.251</ele>
        <time>2018-11-01T10:16:41Z</time>
      </trkpt>
      <trkpt lat="48.64451" lon="2.53702">
        <ele>131.241</ele>
        <time>2018-11-01T10:16:44Z</time>
      </trkpt>
      <trkpt lat="48.64454" lon="2.53696">
        <ele>131.231</ele>
        <time>2018-11-01T10:16:47Z</time>
      </trkpt>
      <trkpt lat="48.64456" lon="2.53693">
        <ele>131.226</ele>
        <time>2018-11-01T10:16:49Z</time>
      </trkpt>
      <trkpt lat="48.64461" lon="2.53688">
        <ele>131.213</ele>
        <time>2018-11-01T10:16:53Z</time>
      </trkpt>
      <trkpt lat="48.64463" lon="2.53685">
        <ele>131.207</ele>
        <time>2018-11-01T10:16:55Z</time>
      </trkpt>
      <trkpt lat="48.64466" lon="2.53681">
        <ele>131.201</ele>
        <time>2018-11-01T10:16:57Z</time>
      </trkpt>
      <trkpt lat="48.64468" lon="2.53678">
        <ele>131.194</ele>
        <time>2018-11-01T10:16:59Z</time>
      </trkpt>
      <trkpt lat="48.6447" lon="2.53675">
        <ele>131.188</ele>
        <time>2018-11-01T10:17:01Z</time>
      </trkpt>
      <trkpt lat="48.64473" lon="2.53672">
        <ele>131.182</ele>
        <time>2018-11-01T10:17:03Z</time>
      </trkpt>
      <trkpt lat="48.64476" lon="2.53668">
        <ele>131.173</ele>
        <time>2018-11-01T10:17:06Z</time>
      </trkpt>
      <trkpt lat="48.64479" lon="2.53664">
        <ele>131.166</ele>
        <time>2018-11-01T10:17:08Z</time>
      </trkpt>
      <trkpt lat="48.64483" lon="2.53661">
        <ele>131.154</ele>
        <time>2018-11-01T10:17:11Z</time>
      </trkpt>
      <trkpt lat="48.64486" lon="2.53658">
        <ele>131.144</ele>
        <time>2018-11-01T10:17:13Z</time>
      </trkpt>
      <trkpt lat="48.6449" lon="2.53652">
        <ele>131.117</ele>
        <time>2018-11-01T10:17:17Z</time>
      </trkpt>
      <trkpt lat="48.64494" lon="2.53647">
        <ele>131.08</ele>
        <time>2018-11-01T10:17:21Z</time>
      </trkpt>
      <trkpt lat="48.64498" lon="2.53643">
        <ele>131.049</ele>
        <time>2018-11-01T10:17:24Z</time>
      </trkpt>
      <trkpt lat="48.645" lon="2.53641">
        <ele>131.024</ele>
        <time>2018-11-01T10:17:26Z</time>
      </trkpt>
      <trkpt lat="48.64505" lon="2.53636">
        <ele>130.967</ele>
        <time>2018-11-01T10:17:30Z</time>
      </trkpt>
      <trkpt lat="48.64507" lon="2.53634">
        <ele>130.936</ele>
        <time>2018-11-01T10:17:32Z</time>
      </trkpt>
      <trkpt lat="48.6451" lon="2.53631">
        <ele>130.887</ele>
        <time>2018-11-01T10:17:35Z</time>
      </trkpt>
      <trkpt lat="48.64513" lon="2.53628">
        <ele>130.852</ele>
        <time>2018-11-01T10:17:37Z</time>
      </trkpt>
      <trkpt lat="48.64517" lon="2.53623">
        <ele>130.778</ele>
        <time>2018-11-01T10:17:41Z</time>
      </trkpt>
      <trkpt lat="48.6452" lon="2.5362">
        <ele>130.74</ele>
        <time>2018-11-01T10:17:43Z</time>
      </trkpt>
      <trkpt lat="48.64524" lon="2.53616">
        <ele>130.701</ele>
        <time>2018-11-01T10:17:45Z</time>
      </trkpt>
      <trkpt lat="48.64526" lon="2.53614">
        <ele>130.685</ele>
        <time>2018-11-01T10:17:46Z</time>
      </trkpt>
      <trkpt lat="48.64529" lon="2.5361">
        <ele>130.653</ele>
        <time>2018-11-01T10:17:48Z</time>
      </trkpt>
      <trkpt lat="48.64537" lon="2.53602">
        <ele>130.572</ele>
        <time>2018-11-01T10:17:53Z</time>
      </trkpt>
      <trkpt lat="48.64539" lon="2.53599">
        <ele>130.555</ele>
        <time>2018-11-01T10:17:54Z</time>
      </trkpt>
      <trkpt lat="48.64544" lon="2.53595">
        <ele>130.506</ele>
        <time>2018-11-01T10:17:57Z</time>
      </trkpt>
      <trkpt lat="48.64548" lon="2.53589">
        <ele>130.461</ele>
        <time>2018-11-01T10:18:00Z</time>
      </trkpt>
      <trkpt lat="48.64555" lon="2.5358">
        <ele>130.41</ele>
        <time>2018-11-01T10:18:04Z</time>
      </trkpt>
      <trkpt lat="48.64557" lon="2.53577">
        <ele>130.392</ele>
        <time>2018-11-01T10:18:06Z</time>
      </trkpt>
      <trkpt lat="48.64561" lon="2.53571">
        <ele>130.37</ele>
        <time>2018-11-01T10:18:10Z</time>
      </trkpt>
      <trkpt lat="48.64564" lon="2.53565">
        <ele>130.359</ele>
        <time>2018-11-01T10:18:14Z</time>
      </trkpt>
      <trkpt lat="48.64568" lon="2.53559">
        <ele>130.358</ele>
        <time>2018-11-01T10:18:18Z</time>
      </trkpt>
      <trkpt lat="48.64572" lon="2.53552">
        <ele>130.364</ele>
        <time>2018-11-01T10:18:22Z</time>
      </trkpt>
      <trkpt lat="48.64574" lon="2.53549">
        <ele>130.369</ele>
        <time>2018-11-01T10:18:24Z</time>
      </trkpt>
      <trkpt lat="48.64576" lon="2.53546">
        <ele>130.375</ele>
        <time>2018-11-01T10:18:26Z</time>
      </trkpt>
      <trkpt lat="48.64582" lon="2.53537">
        <ele>130.388</ele>
        <time>2018-11-01T10:18:31Z</time>
      </trkpt>
      <trkpt lat="48.64586" lon="2.53533">
        <ele>130.402</ele>
        <time>2018-11-01T10:18:35Z</time>
      </trkpt>
      <trkpt lat="48.6459" lon="2.53529">
        <ele>130.415</ele>
        <time>2018-11-01T10:18:38Z</time>
      </trkpt>
      <trkpt lat="48.64595" lon="2.53527">
        <ele>130.429</ele>
        <time>2018-11-01T10:18:41Z</time>
      </trkpt>
      <trkpt lat="48.646" lon="2.53524">
        <ele>130.446</ele>
        <time>2018-11-01T10:18:45Z</time>
      </trkpt>
      <trkpt lat="48.64605" lon="2.53521">
        <ele>130.465</ele>
        <time>2018-11-01T10:18:49Z</time>
      </trkpt>
      <trkpt lat="48.64609" lon="2.53517">
        <ele>130.48</ele>
        <time>2018-11-01T10:18:52Z</time>
      </trkpt>
      <trkpt lat="48.64613" lon="2.53514">
        <ele>130.492</ele>
        <time>2018-11-01T10:18:55Z</time>
      </trkpt>
      <trkpt lat="48.64618" lon="2.53509">
        <ele>130.503</ele>
        <time>2018-11-01T10:18:58Z</time>
      </trkpt>
      <trkpt lat="48.64623" lon="2.53505">
        <ele>130.513</ele>
        <time>2018-11-01T10:19:01Z</time>
      </trkpt>
      <trkpt lat="48.64625" lon="2.53503">
        <ele>130.52</ele>
        <time>2018-11-01T10:19:03Z</time>
      </trkpt>
      <trkpt lat="48.64628" lon="2.53501">
        <ele>130.528</ele>
        <time>2018-11-01T10:19:05Z</time>
      </trkpt>
      <trkpt lat="48.64631" lon="2.53498">
        <ele>130.535</ele>
        <time>2018-11-01T10:19:07Z</time>
      </trkpt>
      <trkpt lat="48.64634" lon="2.53496">
        <ele>130.543</ele>
        <time>2018-11-01T10:19:09Z</time>
      </trkpt>
      <trkpt lat="48.64637" lon="2.53493">
        <ele>130.551</ele>
        <time>2018-11-01T10:19:11Z</time>
      </trkpt>
      <trkpt lat="48.64639" lon="2.53489">
        <ele>130.561</ele>
        <time>2018-11-01T10:19:13Z</time>
      </trkpt>
      <trkpt lat="48.64642" lon="2.53485">
        <ele>130.58</ele>
        <time>2018-11-01T10:19:16Z</time>
      </trkpt>
      <trkpt lat="48.64644" lon="2.53483">
        <ele>130.594</ele>
        <time>2018-11-01T10:19:18Z</time>
      </trkpt>
      <trkpt lat="48.64649" lon="2.53478">
        <ele>130.623</ele>
        <time>2018-11-01T10:19:22Z</time>
      </trkpt>
      <trkpt lat="48.64651" lon="2.53476">
        <ele>130.638</ele>
        <time>2018-11-01T10:19:24Z</time>
      </trkpt>
      <trkpt lat="48.64654" lon="2.53473">
        <ele>130.654</ele>
        <time>2018-11-01T10:19:26Z</time>
      </trkpt>
      <trkpt lat="48.64656" lon="2.5347">
        <ele>130.67</ele>
        <time>2018-11-01T10:19:28Z</time>
      </trkpt>
      <trkpt lat="48.64658" lon="2.53468">
        <ele>130.686</ele>
        <time>2018-11-01T10:19:30Z</time>
      </trkpt>
      <trkpt lat="48.64661" lon="2.53464">
        <ele>130.706</ele>
        <time>2018-11-01T10:19:32Z</time>
      </trkpt>
      <trkpt lat="48.64664" lon="2.53462">
        <ele>130.728</ele>
        <time>2018-11-01T10:19:34Z</time>
      </trkpt>
      <trkpt lat="48.64668" lon="2.53457">
        <ele>130.782</ele>
        <time>2018-11-01T10:19:38Z</time>
      </trkpt>
      <trkpt lat="48.64671" lon="2.53455">
        <ele>130.81</ele>
        <time>2018-11-01T10:19:40Z</time>
      </trkpt>
      <trkpt lat="48.64676" lon="2.53452">
        <ele>130.852</ele>
        <time>2018-11-01T10:19:43Z</time>
      </trkpt>
      <trkpt lat="48.64681" lon="2.53453">
        <ele>130.89</ele>
        <time>2018-11-01T10:19:46Z</time>
      </trkpt>
      <trkpt lat="48.64685" lon="2.53456">
        <ele>130.926</ele>
        <time>2018-11-01T10:19:49Z</time>
      </trkpt>
      <trkpt lat="48.64689" lon="2.53459">
        <ele>130.959</ele>
        <time>2018-11-01T10:19:52Z</time>
      </trkpt>
      <trkpt lat="48.64692" lon="2.53461">
        <ele>130.98</ele>
        <time>2018-11-01T10:19:54Z</time>
      </trkpt>
      <trkpt lat="48.64698" lon="2.53464">
        <ele>131.021</ele>
        <time>2018-11-01T10:19:58Z</time>
      </trkpt>
      <trkpt lat="48.64702" lon="2.5347">
        <ele>131.064</ele>
        <time>2018-11-01T10:20:02Z</time>
      </trkpt>
      <trkpt lat="48.64707" lon="2.53474">
        <ele>131.097</ele>
        <time>2018-11-01T10:20:05Z</time>
      </trkpt>
      <trkpt lat="48.64711" lon="2.53477">
        <ele>131.128</ele>
        <time>2018-11-01T10:20:08Z</time>
      </trkpt>
      <trkpt lat="48.64716" lon="2.53481">
        <ele>131.169</ele>
        <time>2018-11-01T10:20:12Z</time>
      </trkpt>
      <trkpt lat="48.6472" lon="2.53484">
        <ele>131.2</ele>
        <time>2018-11-01T10:20:15Z</time>
      </trkpt>
      <trkpt lat="48.64725" lon="2.53489">
        <ele>131.238</ele>
        <time>2018-11-01T10:20:19Z</time>
      </trkpt>
      <trkpt lat="48.6473" lon="2.53491">
        <ele>131.265</ele>
        <time>2018-11-01T10:20:22Z</time>
      </trkpt>
      <trkpt lat="48.64734" lon="2.53492">
        <ele>131.283</ele>
        <time>2018-11-01T10:20:24Z</time>
      </trkpt>
      <trkpt lat="48.64739" lon="2.53496">
        <ele>131.309</ele>
        <time>2018-11-01T10:20:27Z</time>
      </trkpt>
      <trkpt lat="48.64744" lon="2.53501">
        <ele>131.342</ele>
        <time>2018-11-01T10:20:31Z</time>
      </trkpt>
      <trkpt lat="48.64749" lon="2.53504">
        <ele>131.374</ele>
        <time>2018-11-01T10:20:35Z</time>
      </trkpt>
      <trkpt lat="48.64753" lon="2.53507">
        <ele>131.411</ele>
        <time>2018-11-01T10:20:40Z</time>
      </trkpt>
      <trkpt lat="48.64757" lon="2.5351">
        <ele>131.43</ele>
        <time>2018-11-01T10:20:43Z</time>
      </trkpt>
      <trkpt lat="48.6476" lon="2.53512">
        <ele>131.441</ele>
        <time>2018-11-01T10:20:45Z</time>
      </trkpt>
      <trkpt lat="48.64763" lon="2.53514">
        <ele>131.452</ele>
        <time>2018-11-01T10:20:47Z</time>
      </trkpt>
      <trkpt lat="48.64766" lon="2.53516">
        <ele>131.466</ele>
        <time>2018-11-01T10:20:50Z</time>
      </trkpt>
      <trkpt lat="48.64774" lon="2.53517">
        <ele>131.478</ele>
        <time>2018-11-01T10:20:53Z</time>
      </trkpt>
      <trkpt lat="48.64779" lon="2.53519">
        <ele>131.488</ele>
        <time>2018-11-01T10:20:56Z</time>
      </trkpt>
      <trkpt lat="48.64782" lon="2.5352">
        <ele>131.494</ele>
        <time>2018-11-01T10:20:58Z</time>
      </trkpt>
      <trkpt lat="48.64788" lon="2.53523">
        <ele>131.506</ele>
        <time>2018-11-01T10:21:02Z</time>
      </trkpt>
      <trkpt lat="48.64791" lon="2.53528">
        <ele>131.514</ele>
        <time>2018-11-01T10:21:05Z</time>
      </trkpt>
      <trkpt lat="48.64794" lon="2.53532">
        <ele>131.519</ele>
        <time>2018-11-01T10:21:07Z</time>
      </trkpt>
      <trkpt lat="48.64796" lon="2.53535">
        <ele>131.524</ele>
        <time>2018-11-01T10:21:09Z</time>
      </trkpt>
      <trkpt lat="48.64801" lon="2.53539">
        <ele>131.534</ele>
        <time>2018-11-01T10:21:13Z</time>
      </trkpt>
      <trkpt lat="48.64804" lon="2.53541">
        <ele>131.538</ele>
        <time>2018-11-01T10:21:15Z</time>
      </trkpt>
      <trkpt lat="48.64808" lon="2.53547">
        <ele>131.546</ele>
        <time>2018-11-01T10:21:19Z</time>
      </trkpt>
      <trkpt lat="48.64811" lon="2.5355">
        <ele>131.549</ele>
        <time>2018-11-01T10:21:21Z</time>
      </trkpt>
      <trkpt lat="48.64814" lon="2.53553">
        <ele>131.551</ele>
        <time>2018-11-01T10:21:23Z</time>
      </trkpt>
      <trkpt lat="48.64819" lon="2.53556">
        <ele>131.554</ele>
        <time>2018-11-01T10:21:27Z</time>
      </trkpt>
      <trkpt lat="48.64821" lon="2.53558">
        <ele>131.555</ele>
        <time>2018-11-01T10:21:29Z</time>
      </trkpt>
      <trkpt lat="48.64824" lon="2.5356">
        <ele>131.557</ele>
        <time>2018-11-01T10:21:31Z</time>
      </trkpt>
      <trkpt lat="48.64827" lon="2.53561">
        <ele>131.557</ele>
        <time>2018-11-01T10:21:33Z</time>
      </trkpt>
      <trkpt lat="48.64831" lon="2.53564">
        <ele>131.558</ele>
        <time>2018-11-01T10:21:37Z</time>
      </trkpt>
      <trkpt lat="48.64835" lon="2.53568">
        <ele>131.56</ele>
        <time>2018-11-01T10:21:39Z</time>
      </trkpt>
      <trkpt lat="48.64837" lon="2.5357">
        <ele>131.563</ele>
        <time>2018-11-01T10:21:41Z</time>
      </trkpt>
      <trkpt lat="48.6484" lon="2.53571">
        <ele>131.568</ele>
        <time>2018-11-01T10:21:43Z</time>
      </trkpt>
      <trkpt lat="48.64844" lon="2.53573">
        <ele>131.575</ele>
        <time>2018-11-01T10:21:46Z</time>
      </trkpt>
      <trkpt lat="48.64849" lon="2.53577">
        <ele>131.588</ele>
        <time>2018-11-01T10:21:50Z</time>
      </trkpt>
      <trkpt lat="48.64852" lon="2.53578">
        <ele>131.595</ele>
        <time>2018-11-01T10:21:52Z</time>
      </trkpt>
      <trkpt lat="48.64854" lon="2.5358">
        <ele>131.601</ele>
        <time>2018-11-01T10:21:54Z</time>
      </trkpt>
      <trkpt lat="48.64858" lon="2.53583">
        <ele>131.608</ele>
        <time>2018-11-01T10:21:57Z</time>
      </trkpt>
      <trkpt lat="48.64861" lon="2.53585">
        <ele>131.611</ele>
        <time>2018-11-01T10:21:59Z</time>
      </trkpt>
      <trkpt lat="48.64864" lon="2.53587">
        <ele>131.612</ele>
        <time>2018-11-01T10:22:01Z</time>
      </trkpt>
      <trkpt lat="48.64868" lon="2.53591">
        <ele>131.608</ele>
        <time>2018-11-01T10:22:04Z</time>
      </trkpt>
      <trkpt lat="48.6487" lon="2.53593">
        <ele>131.603</ele>
        <time>2018-11-01T10:22:06Z</time>
      </trkpt>
      <trkpt lat="48.64872" lon="2.53595">
        <ele>131.597</ele>
        <time>2018-11-01T10:22:08Z</time>
      </trkpt>
      <trkpt lat="48.64875" lon="2.53598">
        <ele>131.591</ele>
        <time>2018-11-01T10:22:10Z</time>
      </trkpt>
      <trkpt lat="48.64878" lon="2.53601">
        <ele>131.58</ele>
        <time>2018-11-01T10:22:13Z</time>
      </trkpt>
      <trkpt lat="48.64883" lon="2.53606">
        <ele>131.567</ele>
        <time>2018-11-01T10:22:17Z</time>
      </trkpt>
      <trkpt lat="48.64886" lon="2.53608">
        <ele>131.561</ele>
        <time>2018-11-01T10:22:19Z</time>
      </trkpt>
      <trkpt lat="48.64888" lon="2.53609">
        <ele>131.555</ele>
        <time>2018-11-01T10:22:21Z</time>
      </trkpt>
      <trkpt lat="48.64891" lon="2.53611">
        <ele>131.55</ele>
        <time>2018-11-01T10:22:23Z</time>
      </trkpt>
      <trkpt lat="48.64894" lon="2.53614">
        <ele>131.539</ele>
        <time>2018-11-01T10:22:27Z</time>
      </trkpt>
      <trkpt lat="48.64898" lon="2.53616">
        <ele>131.532</ele>
        <time>2018-11-01T10:22:30Z</time>
      </trkpt>
      <trkpt lat="48.64903" lon="2.53619">
        <ele>131.526</ele>
        <time>2018-11-01T10:22:33Z</time>
      </trkpt>
      <trkpt lat="48.64907" lon="2.53623">
        <ele>131.52</ele>
        <time>2018-11-01T10:22:36Z</time>
      </trkpt>
      <trkpt lat="48.64909" lon="2.53625">
        <ele>131.518</ele>
        <time>2018-11-01T10:22:38Z</time>
      </trkpt>
      <trkpt lat="48.64912" lon="2.53627">
        <ele>131.516</ele>
        <time>2018-11-01T10:22:40Z</time>
      </trkpt>
      <trkpt lat="48.64917" lon="2.5363">
        <ele>131.512</ele>
        <time>2018-11-01T10:22:44Z</time>
      </trkpt>
      <trkpt lat="48.6492" lon="2.53632">
        <ele>131.51</ele>
        <time>2018-11-01T10:22:46Z</time>
      </trkpt>
      <trkpt lat="48.64923" lon="2.53634">
        <ele>131.508</ele>
        <time>2018-11-01T10:22:48Z</time>
      </trkpt>
      <trkpt lat="48.64926" lon="2.53636">
        <ele>131.506</ele>
        <time>2018-11-01T10:22:50Z</time>
      </trkpt>
      <trkpt lat="48.64931" lon="2.5364">
        <ele>131.501</ele>
        <time>2018-11-01T10:22:53Z</time>
      </trkpt>
      <trkpt lat="48.64933" lon="2.53642">
        <ele>131.497</ele>
        <time>2018-11-01T10:22:55Z</time>
      </trkpt>
      <trkpt lat="48.64935" lon="2.53644">
        <ele>131.493</ele>
        <time>2018-11-01T10:22:57Z</time>
      </trkpt>
      <trkpt lat="48.6494" lon="2.53647">
        <ele>131.484</ele>
        <time>2018-11-01T10:23:00Z</time>
      </trkpt>
      <trkpt lat="48.64945" lon="2.53649">
        <ele>131.476</ele>
        <time>2018-11-01T10:23:03Z</time>
      </trkpt>
      <trkpt lat="48.64948" lon="2.5365">
        <ele>131.472</ele>
        <time>2018-11-01T10:23:05Z</time>
      </trkpt>
      <trkpt lat="48.64952" lon="2.53652">
        <ele>131.465</ele>
        <time>2018-11-01T10:23:08Z</time>
      </trkpt>
      <trkpt lat="48.64956" lon="2.53656">
        <ele>131.457</ele>
        <time>2018-11-01T10:23:11Z</time>
      </trkpt>
      <trkpt lat="48.6496" lon="2.53659">
        <ele>131.447</ele>
        <time>2018-11-01T10:23:14Z</time>
      </trkpt>
      <trkpt lat="48.64966" lon="2.53661">
        <ele>131.44</ele>
        <time>2018-11-01T10:23:17Z</time>
      </trkpt>
      <trkpt lat="48.6497" lon="2.53665">
        <ele>131.432</ele>
        <time>2018-11-01T10:23:20Z</time>
      </trkpt>
      <trkpt lat="48.64975" lon="2.53669">
        <ele>131.424</ele>
        <time>2018-11-01T10:23:23Z</time>
      </trkpt>
      <trkpt lat="48.64978" lon="2.53672">
        <ele>131.42</ele>
        <time>2018-11-01T10:23:25Z</time>
      </trkpt>
      <trkpt lat="48.64981" lon="2.53674">
        <ele>131.416</ele>
        <time>2018-11-01T10:23:27Z</time>
      </trkpt>
      <trkpt lat="48.64985" lon="2.53677">
        <ele>131.41</ele>
        <time>2018-11-01T10:23:30Z</time>
      </trkpt>
      <trkpt lat="48.6499" lon="2.5368">
        <ele>131.405</ele>
        <time>2018-11-01T10:23:33Z</time>
      </trkpt>
      <trkpt lat="48.64993" lon="2.53682">
        <ele>131.396</ele>
        <time>2018-11-01T10:23:37Z</time>
      </trkpt>
      <trkpt lat="48.64995" lon="2.53684">
        <ele>131.39</ele>
        <time>2018-11-01T10:23:39Z</time>
      </trkpt>
      <trkpt lat="48.65001" lon="2.53687">
        <ele>131.375</ele>
        <time>2018-11-01T10:23:43Z</time>
      </trkpt>
      <trkpt lat="48.6501" lon="2.5369">
        <ele>131.36</ele>
        <time>2018-11-01T10:23:47Z</time>
      </trkpt>
      <trkpt lat="48.65016" lon="2.5369">
        <ele>131.355</ele>
        <time>2018-11-01T10:23:50Z</time>
      </trkpt>
      <trkpt lat="48.6502" lon="2.53693">
        <ele>131.363</ele>
        <time>2018-11-01T10:23:54Z</time>
      </trkpt>
      <trkpt lat="48.65024" lon="2.53696">
        <ele>131.377</ele>
        <time>2018-11-01T10:23:57Z</time>
      </trkpt>
      <trkpt lat="48.65026" lon="2.53697">
        <ele>131.388</ele>
        <time>2018-11-01T10:23:59Z</time>
      </trkpt>
      <trkpt lat="48.65029" lon="2.53698">
        <ele>131.403</ele>
        <time>2018-11-01T10:24:01Z</time>
      </trkpt>
      <trkpt lat="48.65032" lon="2.537">
        <ele>131.45</ele>
        <time>2018-11-01T10:24:06Z</time>
      </trkpt>
      <trkpt lat="48.65038" lon="2.53701">
        <ele>131.494</ele>
        <time>2018-11-01T10:24:10Z</time>
      </trkpt>
      <trkpt lat="48.65043" lon="2.53703">
        <ele>131.531</ele>
        <time>2018-11-01T10:24:13Z</time>
      </trkpt>
      <trkpt lat="48.65047" lon="2.5371">
        <ele>131.586</ele>
        <time>2018-11-01T10:24:17Z</time>
      </trkpt>
      <trkpt lat="48.65052" lon="2.53715">
        <ele>131.651</ele>
        <time>2018-11-01T10:24:21Z</time>
      </trkpt>
      <trkpt lat="48.65054" lon="2.53718">
        <ele>131.689</ele>
        <time>2018-11-01T10:24:23Z</time>
      </trkpt>
      <trkpt lat="48.65059" lon="2.5372">
        <ele>131.73</ele>
        <time>2018-11-01T10:24:25Z</time>
      </trkpt>
      <trkpt lat="48.65064" lon="2.53721">
        <ele>131.776</ele>
        <time>2018-11-01T10:24:27Z</time>
      </trkpt>
      <trkpt lat="48.65068" lon="2.53721">
        <ele>131.855</ele>
        <time>2018-11-01T10:24:30Z</time>
      </trkpt>
      <trkpt lat="48.65073" lon="2.53725">
        <ele>131.972</ele>
        <time>2018-11-01T10:24:34Z</time>
      </trkpt>
      <trkpt lat="48.65078" lon="2.53729">
        <ele>132.117</ele>
        <time>2018-11-01T10:24:39Z</time>
      </trkpt>
      <trkpt lat="48.65082" lon="2.53731">
        <ele>132.206</ele>
        <time>2018-11-01T10:24:42Z</time>
      </trkpt>
      <trkpt lat="48.65086" lon="2.53736">
        <ele>132.295</ele>
        <time>2018-11-01T10:24:45Z</time>
      </trkpt>
      <trkpt lat="48.6509" lon="2.5374">
        <ele>132.407</ele>
        <time>2018-11-01T10:24:49Z</time>
      </trkpt>
      <trkpt lat="48.65092" lon="2.53742">
        <ele>132.457</ele>
        <time>2018-11-01T10:24:51Z</time>
      </trkpt>
      <trkpt lat="48.65094" lon="2.53745">
        <ele>132.503</ele>
        <time>2018-11-01T10:24:53Z</time>
      </trkpt>
      <trkpt lat="48.65099" lon="2.53747">
        <ele>132.568</ele>
        <time>2018-11-01T10:24:56Z</time>
      </trkpt>
      <trkpt lat="48.65101" lon="2.53748">
        <ele>132.59</ele>
        <time>2018-11-01T10:24:57Z</time>
      </trkpt>
      <trkpt lat="48.65105" lon="2.53749">
        <ele>132.636</ele>
        <time>2018-11-01T10:24:59Z</time>
      </trkpt>
      <trkpt lat="48.65109" lon="2.53753">
        <ele>132.704</ele>
        <time>2018-11-01T10:25:02Z</time>
      </trkpt>
      <trkpt lat="48.65113" lon="2.53757">
        <ele>132.772</ele>
        <time>2018-11-01T10:25:05Z</time>
      </trkpt>
      <trkpt lat="48.65115" lon="2.53758">
        <ele>132.816</ele>
        <time>2018-11-01T10:25:07Z</time>
      </trkpt>
      <trkpt lat="48.65118" lon="2.53761">
        <ele>132.859</ele>
        <time>2018-11-01T10:25:09Z</time>
      </trkpt>
      <trkpt lat="48.65123" lon="2.53765">
        <ele>132.938</ele>
        <time>2018-11-01T10:25:13Z</time>
      </trkpt>
      <trkpt lat="48.65125" lon="2.53767">
        <ele>132.975</ele>
        <time>2018-11-01T10:25:15Z</time>
      </trkpt>
      <trkpt lat="48.65127" lon="2.53769">
        <ele>133.026</ele>
        <time>2018-11-01T10:25:18Z</time>
      </trkpt>
      <trkpt lat="48.65129" lon="2.5377">
        <ele>133.057</ele>
        <time>2018-11-01T10:25:20Z</time>
      </trkpt>
      <trkpt lat="48.65134" lon="2.53772">
        <ele>133.112</ele>
        <time>2018-11-01T10:25:24Z</time>
      </trkpt>
      <trkpt lat="48.65136" lon="2.53774">
        <ele>133.125</ele>
        <time>2018-11-01T10:25:26Z</time>
      </trkpt>
      <trkpt lat="48.6514" lon="2.53777">
        <ele>133.14</ele>
        <time>2018-11-01T10:25:29Z</time>
      </trkpt>
      <trkpt lat="48.65142" lon="2.53778">
        <ele>133.152</ele>
        <time>2018-11-01T10:25:30Z</time>
      </trkpt>
      <trkpt lat="48.65145" lon="2.5378">
        <ele>133.176</ele>
        <time>2018-11-01T10:25:32Z</time>
      </trkpt>
      <trkpt lat="48.65148" lon="2.53782">
        <ele>133.199</ele>
        <time>2018-11-01T10:25:34Z</time>
      </trkpt>
      <trkpt lat="48.65151" lon="2.53787">
        <ele>133.237</ele>
        <time>2018-11-01T10:25:38Z</time>
      </trkpt>
      <trkpt lat="48.65156" lon="2.5379">
        <ele>133.263</ele>
        <time>2018-11-01T10:25:41Z</time>
      </trkpt>
      <trkpt lat="48.65159" lon="2.53792">
        <ele>133.28</ele>
        <time>2018-11-01T10:25:43Z</time>
      </trkpt>
      <trkpt lat="48.65161" lon="2.53794">
        <ele>133.297</ele>
        <time>2018-11-01T10:25:45Z</time>
      </trkpt>
      <trkpt lat="48.65164" lon="2.53796">
        <ele>133.313</ele>
        <time>2018-11-01T10:25:47Z</time>
      </trkpt>
      <trkpt lat="48.65168" lon="2.53801">
        <ele>133.338</ele>
        <time>2018-11-01T10:25:51Z</time>
      </trkpt>
      <trkpt lat="48.65172" lon="2.53805">
        <ele>133.349</ele>
        <time>2018-11-01T10:25:54Z</time>
      </trkpt>
      <trkpt lat="48.65176" lon="2.53807">
        <ele>133.358</ele>
        <time>2018-11-01T10:25:57Z</time>
      </trkpt>
      <trkpt lat="48.6518" lon="2.53809">
        <ele>133.365</ele>
        <time>2018-11-01T10:26:00Z</time>
      </trkpt>
      <trkpt lat="48.65183" lon="2.53811">
        <ele>133.37</ele>
        <time>2018-11-01T10:26:02Z</time>
      </trkpt>
      <trkpt lat="48.65187" lon="2.53815">
        <ele>133.378</ele>
        <time>2018-11-01T10:26:05Z</time>
      </trkpt>
      <trkpt lat="48.65191" lon="2.53819">
        <ele>133.387</ele>
        <time>2018-11-01T10:26:09Z</time>
      </trkpt>
      <trkpt lat="48.65193" lon="2.53821">
        <ele>133.389</ele>
        <time>2018-11-01T10:26:11Z</time>
      </trkpt>
      <trkpt lat="48.65198" lon="2.53826">
        <ele>133.393</ele>
        <time>2018-11-01T10:26:15Z</time>
      </trkpt>
      <trkpt lat="48.65203" lon="2.53828">
        <ele>133.396</ele>
        <time>2018-11-01T10:26:18Z</time>
      </trkpt>
      <trkpt lat="48.65206" lon="2.53829">
        <ele>133.396</ele>
        <time>2018-11-01T10:26:20Z</time>
      </trkpt>
      <trkpt lat="48.65211" lon="2.53833">
        <ele>133.391</ele>
        <time>2018-11-01T10:26:23Z</time>
      </trkpt>
      <trkpt lat="48.65214" lon="2.53835">
        <ele>133.384</ele>
        <time>2018-11-01T10:26:25Z</time>
      </trkpt>
      <trkpt lat="48.65216" lon="2.53836">
        <ele>133.38</ele>
        <time>2018-11-01T10:26:26Z</time>
      </trkpt>
      <trkpt lat="48.65218" lon="2.53838">
        <ele>133.376</ele>
        <time>2018-11-01T10:26:27Z</time>
      </trkpt>
      <trkpt lat="48.65224" lon="2.5384">
        <ele>133.352</ele>
        <time>2018-11-01T10:26:31Z</time>
      </trkpt>
      <trkpt lat="48.65229" lon="2.53846">
        <ele>133.314</ele>
        <time>2018-11-01T10:26:36Z</time>
      </trkpt>
      <trkpt lat="48.65233" lon="2.5385">
        <ele>133.283</ele>
        <time>2018-11-01T10:26:39Z</time>
      </trkpt>
      <trkpt lat="48.65237" lon="2.53853">
        <ele>133.249</ele>
        <time>2018-11-01T10:26:42Z</time>
      </trkpt>
      <trkpt lat="48.6524" lon="2.53855">
        <ele>133.213</ele>
        <time>2018-11-01T10:26:45Z</time>
      </trkpt>
      <trkpt lat="48.65242" lon="2.53857">
        <ele>133.187</ele>
        <time>2018-11-01T10:26:47Z</time>
      </trkpt>
      <trkpt lat="48.65245" lon="2.5386">
        <ele>133.161</ele>
        <time>2018-11-01T10:26:49Z</time>
      </trkpt>
      <trkpt lat="48.65248" lon="2.53862">
        <ele>133.134</ele>
        <time>2018-11-01T10:26:51Z</time>
      </trkpt>
      <trkpt lat="48.65252" lon="2.53865">
        <ele>133.072</ele>
        <time>2018-11-01T10:26:55Z</time>
      </trkpt>
      <trkpt lat="48.65258" lon="2.53868">
        <ele>133.005</ele>
        <time>2018-11-01T10:26:59Z</time>
      </trkpt>
      <trkpt lat="48.6526" lon="2.53869">
        <ele>132.986</ele>
        <time>2018-11-01T10:27:00Z</time>
      </trkpt>
      <trkpt lat="48.65263" lon="2.53871">
        <ele>132.93</ele>
        <time>2018-11-01T10:27:03Z</time>
      </trkpt>
      <trkpt lat="48.65268" lon="2.53875">
        <ele>132.87</ele>
        <time>2018-11-01T10:27:06Z</time>
      </trkpt>
      <trkpt lat="48.65273" lon="2.53878">
        <ele>132.79</ele>
        <time>2018-11-01T10:27:10Z</time>
      </trkpt>
      <trkpt lat="48.65277" lon="2.5388">
        <ele>132.714</ele>
        <time>2018-11-01T10:27:14Z</time>
      </trkpt>
      <trkpt lat="48.65282" lon="2.53885">
        <ele>132.662</ele>
        <time>2018-11-01T10:27:17Z</time>
      </trkpt>
      <trkpt lat="48.65285" lon="2.53887">
        <ele>132.629</ele>
        <time>2018-11-01T10:27:19Z</time>
      </trkpt>
      <trkpt lat="48.65291" lon="2.53888">
        <ele>132.594</ele>
        <time>2018-11-01T10:27:22Z</time>
      </trkpt>
      <trkpt lat="48.65294" lon="2.53889">
        <ele>132.578</ele>
        <time>2018-11-01T10:27:23Z</time>
      </trkpt>
      <trkpt lat="48.65298" lon="2.53892">
        <ele>132.53</ele>
        <time>2018-11-01T10:27:26Z</time>
      </trkpt>
      <trkpt lat="48.65303" lon="2.53896">
        <ele>132.482</ele>
        <time>2018-11-01T10:27:29Z</time>
      </trkpt>
      <trkpt lat="48.65307" lon="2.53898">
        <ele>132.42</ele>
        <time>2018-11-01T10:27:34Z</time>
      </trkpt>
      <trkpt lat="48.65312" lon="2.53894">
        <ele>132.364</ele>
        <time>2018-11-01T10:27:39Z</time>
      </trkpt>
      <trkpt lat="48.65317" lon="2.53887">
        <ele>132.304</ele>
        <time>2018-11-01T10:27:45Z</time>
      </trkpt>
      <trkpt lat="48.65319" lon="2.53884">
        <ele>132.291</ele>
        <time>2018-11-01T10:27:47Z</time>
      </trkpt>
      <trkpt lat="48.65323" lon="2.53878">
        <ele>132.282</ele>
        <time>2018-11-01T10:27:50Z</time>
      </trkpt>
      <trkpt lat="48.65328" lon="2.53874">
        <ele>132.285</ele>
        <time>2018-11-01T10:27:53Z</time>
      </trkpt>
      <trkpt lat="48.65332" lon="2.53869">
        <ele>132.286</ele>
        <time>2018-11-01T10:27:56Z</time>
      </trkpt>
      <trkpt lat="48.65337" lon="2.53867">
        <ele>132.282</ele>
        <time>2018-11-01T10:27:59Z</time>
      </trkpt>
      <trkpt lat="48.65342" lon="2.53864">
        <ele>132.279</ele>
        <time>2018-11-01T10:28:02Z</time>
      </trkpt>
      <trkpt lat="48.65346" lon="2.53857">
        <ele>132.278</ele>
        <time>2018-11-01T10:28:05Z</time>
      </trkpt>
      <trkpt lat="48.65351" lon="2.53854">
        <ele>132.274</ele>
        <time>2018-11-01T10:28:10Z</time>
      </trkpt>
      <trkpt lat="48.65354" lon="2.53848">
        <ele>132.271</ele>
        <time>2018-11-01T10:28:13Z</time>
      </trkpt>
      <trkpt lat="48.65359" lon="2.53845">
        <ele>132.266</ele>
        <time>2018-11-01T10:28:17Z</time>
      </trkpt>
      <trkpt lat="48.65361" lon="2.53838">
        <ele>132.265</ele>
        <time>2018-11-01T10:28:20Z</time>
      </trkpt>
      <trkpt lat="48.65364" lon="2.53832">
        <ele>132.265</ele>
        <time>2018-11-01T10:28:22Z</time>
      </trkpt>
      <trkpt lat="48.65366" lon="2.53829">
        <ele>132.266</ele>
        <time>2018-11-01T10:28:23Z</time>
      </trkpt>
      <trkpt lat="48.65368" lon="2.53824">
        <ele>132.27</ele>
        <time>2018-11-01T10:28:26Z</time>
      </trkpt>
      <trkpt lat="48.65372" lon="2.53818">
        <ele>132.28</ele>
        <time>2018-11-01T10:28:30Z</time>
      </trkpt>
      <trkpt lat="48.65373" lon="2.53816">
        <ele>132.286</ele>
        <time>2018-11-01T10:28:32Z</time>
      </trkpt>
      <trkpt lat="48.65377" lon="2.5381">
        <ele>132.297</ele>
        <time>2018-11-01T10:28:35Z</time>
      </trkpt>
      <trkpt lat="48.65379" lon="2.53806">
        <ele>132.305</ele>
        <time>2018-11-01T10:28:37Z</time>
      </trkpt>
      <trkpt lat="48.65382" lon="2.53801">
        <ele>132.32</ele>
        <time>2018-11-01T10:28:40Z</time>
      </trkpt>
      <trkpt lat="48.65384" lon="2.53796">
        <ele>132.337</ele>
        <time>2018-11-01T10:28:43Z</time>
      </trkpt>
      <trkpt lat="48.65386" lon="2.53793">
        <ele>132.346</ele>
        <time>2018-11-01T10:28:45Z</time>
      </trkpt>
      <trkpt lat="48.65391" lon="2.53788">
        <ele>132.365</ele>
        <time>2018-11-01T10:28:49Z</time>
      </trkpt>
      <trkpt lat="48.65394" lon="2.53782">
        <ele>132.378</ele>
        <time>2018-11-01T10:28:52Z</time>
      </trkpt>
      <trkpt lat="48.65397" lon="2.53775">
        <ele>132.391</ele>
        <time>2018-11-01T10:28:55Z</time>
      </trkpt>
      <trkpt lat="48.65398" lon="2.53771">
        <ele>132.395</ele>
        <time>2018-11-01T10:28:56Z</time>
      </trkpt>
      <trkpt lat="48.65402" lon="2.53765">
        <ele>132.404</ele>
        <time>2018-11-01T10:28:59Z</time>
      </trkpt>
      <trkpt lat="48.65404" lon="2.53762">
        <ele>132.41</ele>
        <time>2018-11-01T10:29:01Z</time>
      </trkpt>
      <trkpt lat="48.65408" lon="2.53757">
        <ele>132.426</ele>
        <time>2018-11-01T10:29:06Z</time>
      </trkpt>
      <trkpt lat="48.65411" lon="2.53754">
        <ele>132.433</ele>
        <time>2018-11-01T10:29:08Z</time>
      </trkpt>
      <trkpt lat="48.65414" lon="2.53751">
        <ele>132.441</ele>
        <time>2018-11-01T10:29:10Z</time>
      </trkpt>
      <trkpt lat="48.65416" lon="2.53748">
        <ele>132.448</ele>
        <time>2018-11-01T10:29:12Z</time>
      </trkpt>
      <trkpt lat="48.65418" lon="2.53745">
        <ele>132.455</ele>
        <time>2018-11-01T10:29:14Z</time>
      </trkpt>
      <trkpt lat="48.65421" lon="2.53743">
        <ele>132.463</ele>
        <time>2018-11-01T10:29:16Z</time>
      </trkpt>
      <trkpt lat="48.65423" lon="2.5374">
        <ele>132.471</ele>
        <time>2018-11-01T10:29:18Z</time>
      </trkpt>
      <trkpt lat="48.65426" lon="2.53738">
        <ele>132.48</ele>
        <time>2018-11-01T10:29:20Z</time>
      </trkpt>
      <trkpt lat="48.65428" lon="2.53735">
        <ele>132.489</ele>
        <time>2018-11-01T10:29:22Z</time>
      </trkpt>
      <trkpt lat="48.65432" lon="2.53731">
        <ele>132.504</ele>
        <time>2018-11-01T10:29:25Z</time>
      </trkpt>
      <trkpt lat="48.65438" lon="2.53728">
        <ele>132.524</ele>
        <time>2018-11-01T10:29:29Z</time>
      </trkpt>
      <trkpt lat="48.65442" lon="2.53725">
        <ele>132.542</ele>
        <time>2018-11-01T10:29:32Z</time>
      </trkpt>
      <trkpt lat="48.65444" lon="2.53723">
        <ele>132.554</ele>
        <time>2018-11-01T10:29:34Z</time>
      </trkpt>
      <trkpt lat="48.65449" lon="2.53717">
        <ele>132.573</ele>
        <time>2018-11-01T10:29:37Z</time>
      </trkpt>
      <trkpt lat="48.65451" lon="2.53714">
        <ele>132.587</ele>
        <time>2018-11-01T10:29:39Z</time>
      </trkpt>
      <trkpt lat="48.65455" lon="2.53711">
        <ele>132.612</ele>
        <time>2018-11-01T10:29:42Z</time>
      </trkpt>
      <trkpt lat="48.65459" lon="2.53707">
        <ele>132.638</ele>
        <time>2018-11-01T10:29:45Z</time>
      </trkpt>
      <trkpt lat="48.65463" lon="2.53702">
        <ele>132.669</ele>
        <time>2018-11-01T10:29:48Z</time>
      </trkpt>
      <trkpt lat="48.65466" lon="2.53698">
        <ele>132.691</ele>
        <time>2018-11-01T10:29:50Z</time>
      </trkpt>
      <trkpt lat="48.65471" lon="2.53693">
        <ele>132.736</ele>
        <time>2018-11-01T10:29:54Z</time>
      </trkpt>
      <trkpt lat="48.65475" lon="2.53687">
        <ele>132.782</ele>
        <time>2018-11-01T10:29:58Z</time>
      </trkpt>
      <trkpt lat="48.65476" lon="2.53684">
        <ele>132.807</ele>
        <time>2018-11-01T10:30:00Z</time>
      </trkpt>
      <trkpt lat="48.6548" lon="2.53679">
        <ele>132.85</ele>
        <time>2018-11-01T10:30:03Z</time>
      </trkpt>
      <trkpt lat="48.65482" lon="2.53677">
        <ele>132.894</ele>
        <time>2018-11-01T10:30:06Z</time>
      </trkpt>
      <trkpt lat="48.65484" lon="2.53674">
        <ele>132.934</ele>
        <time>2018-11-01T10:30:09Z</time>
      </trkpt>
      <trkpt lat="48.65489" lon="2.5367">
        <ele>132.985</ele>
        <time>2018-11-01T10:30:13Z</time>
      </trkpt>
      <trkpt lat="48.65491" lon="2.53664">
        <ele>133.023</ele>
        <time>2018-11-01T10:30:16Z</time>
      </trkpt>
      <trkpt lat="48.65494" lon="2.5366">
        <ele>133.049</ele>
        <time>2018-11-01T10:30:18Z</time>
      </trkpt>
      <trkpt lat="48.65497" lon="2.53655">
        <ele>133.09</ele>
        <time>2018-11-01T10:30:21Z</time>
      </trkpt>
      <trkpt lat="48.65501" lon="2.53649">
        <ele>133.148</ele>
        <time>2018-11-01T10:30:25Z</time>
      </trkpt>
      <trkpt lat="48.65504" lon="2.53646">
        <ele>133.177</ele>
        <time>2018-11-01T10:30:27Z</time>
      </trkpt>
      <trkpt lat="48.65508" lon="2.53641">
        <ele>133.222</ele>
        <time>2018-11-01T10:30:30Z</time>
      </trkpt>
      <trkpt lat="48.65511" lon="2.53636">
        <ele>133.268</ele>
        <time>2018-11-01T10:30:33Z</time>
      </trkpt>
      <trkpt lat="48.65514" lon="2.53632">
        <ele>133.334</ele>
        <time>2018-11-01T10:30:37Z</time>
      </trkpt>
      <trkpt lat="48.65518" lon="2.53627">
        <ele>133.384</ele>
        <time>2018-11-01T10:30:40Z</time>
      </trkpt>
      <trkpt lat="48.6552" lon="2.53624">
        <ele>133.419</ele>
        <time>2018-11-01T10:30:42Z</time>
      </trkpt>
      <trkpt lat="48.65525" lon="2.53619">
        <ele>133.488</ele>
        <time>2018-11-01T10:30:46Z</time>
      </trkpt>
      <trkpt lat="48.6553" lon="2.53614">
        <ele>133.54</ele>
        <time>2018-11-01T10:30:49Z</time>
      </trkpt>
      <trkpt lat="48.65533" lon="2.53608">
        <ele>133.582</ele>
        <time>2018-11-01T10:30:51Z</time>
      </trkpt>
      <trkpt lat="48.65537" lon="2.53601">
        <ele>133.647</ele>
        <time>2018-11-01T10:30:54Z</time>
      </trkpt>
      <trkpt lat="48.65539" lon="2.53595">
        <ele>133.715</ele>
        <time>2018-11-01T10:30:57Z</time>
      </trkpt>
      <trkpt lat="48.6554" lon="2.53592">
        <ele>133.783</ele>
        <time>2018-11-01T10:31:00Z</time>
      </trkpt>
      <trkpt lat="48.65545" lon="2.53585">
        <ele>133.873</ele>
        <time>2018-11-01T10:31:04Z</time>
      </trkpt>
      <trkpt lat="48.65547" lon="2.53581">
        <ele>133.92</ele>
        <time>2018-11-01T10:31:06Z</time>
      </trkpt>
      <trkpt lat="48.65549" lon="2.53577">
        <ele>133.968</ele>
        <time>2018-11-01T10:31:08Z</time>
      </trkpt>
      <trkpt lat="48.65552" lon="2.53573">
        <ele>134.061</ele>
        <time>2018-11-01T10:31:12Z</time>
      </trkpt>
      <trkpt lat="48.65555" lon="2.53569">
        <ele>134.107</ele>
        <time>2018-11-01T10:31:14Z</time>
      </trkpt>
      <trkpt lat="48.65558" lon="2.53565">
        <ele>134.153</ele>
        <time>2018-11-01T10:31:16Z</time>
      </trkpt>
      <trkpt lat="48.65563" lon="2.5356">
        <ele>134.242</ele>
        <time>2018-11-01T10:31:20Z</time>
      </trkpt>
      <trkpt lat="48.65566" lon="2.53557">
        <ele>134.286</ele>
        <time>2018-11-01T10:31:22Z</time>
      </trkpt>
      <trkpt lat="48.65568" lon="2.5355">
        <ele>134.352</ele>
        <time>2018-11-01T10:31:25Z</time>
      </trkpt>
      <trkpt lat="48.65572" lon="2.53544">
        <ele>134.419</ele>
        <time>2018-11-01T10:31:28Z</time>
      </trkpt>
      <trkpt lat="48.65575" lon="2.53538">
        <ele>134.486</ele>
        <time>2018-11-01T10:31:31Z</time>
      </trkpt>
      <trkpt lat="48.65577" lon="2.53535">
        <ele>134.53</ele>
        <time>2018-11-01T10:31:33Z</time>
      </trkpt>
      <trkpt lat="48.6558" lon="2.53528">
        <ele>134.619</ele>
        <time>2018-11-01T10:31:37Z</time>
      </trkpt>
      <trkpt lat="48.65583" lon="2.53524">
        <ele>134.69</ele>
        <time>2018-11-01T10:31:40Z</time>
      </trkpt>
      <trkpt lat="48.65586" lon="2.53521">
        <ele>134.741</ele>
        <time>2018-11-01T10:31:42Z</time>
      </trkpt>
      <trkpt lat="48.6559" lon="2.53515">
        <ele>134.84</ele>
        <time>2018-11-01T10:31:46Z</time>
      </trkpt>
      <trkpt lat="48.65591" lon="2.53513">
        <ele>134.888</ele>
        <time>2018-11-01T10:31:48Z</time>
      </trkpt>
      <trkpt lat="48.65595" lon="2.53507">
        <ele>134.956</ele>
        <time>2018-11-01T10:31:51Z</time>
      </trkpt>
      <trkpt lat="48.65598" lon="2.53501">
        <ele>135.021</ele>
        <time>2018-11-01T10:31:54Z</time>
      </trkpt>
      <trkpt lat="48.65599" lon="2.53498">
        <ele>135.064</ele>
        <time>2018-11-01T10:31:56Z</time>
      </trkpt>
      <trkpt lat="48.65603" lon="2.53493">
        <ele>135.148</ele>
        <time>2018-11-01T10:32:00Z</time>
      </trkpt>
      <trkpt lat="48.65605" lon="2.5349">
        <ele>135.189</ele>
        <time>2018-11-01T10:32:02Z</time>
      </trkpt>
      <trkpt lat="48.65609" lon="2.53486">
        <ele>135.27</ele>
        <time>2018-11-01T10:32:06Z</time>
      </trkpt>
      <trkpt lat="48.65613" lon="2.5348">
        <ele>135.345</ele>
        <time>2018-11-01T10:32:10Z</time>
      </trkpt>
      <trkpt lat="48.65617" lon="2.53475">
        <ele>135.401</ele>
        <time>2018-11-01T10:32:13Z</time>
      </trkpt>
      <trkpt lat="48.6562" lon="2.53472">
        <ele>135.439</ele>
        <time>2018-11-01T10:32:15Z</time>
      </trkpt>
      <trkpt lat="48.65626" lon="2.53468">
        <ele>135.493</ele>
        <time>2018-11-01T10:32:18Z</time>
      </trkpt>
      <trkpt lat="48.65631" lon="2.53466">
        <ele>135.528</ele>
        <time>2018-11-01T10:32:20Z</time>
      </trkpt>
      <trkpt lat="48.65634" lon="2.53459">
        <ele>135.582</ele>
        <time>2018-11-01T10:32:23Z</time>
      </trkpt>
      <trkpt lat="48.65638" lon="2.53454">
        <ele>135.635</ele>
        <time>2018-11-01T10:32:26Z</time>
      </trkpt>
      <trkpt lat="48.6564" lon="2.53451">
        <ele>135.674</ele>
        <time>2018-11-01T10:32:28Z</time>
      </trkpt>
      <trkpt lat="48.65646" lon="2.53448">
        <ele>135.765</ele>
        <time>2018-11-01T10:32:33Z</time>
      </trkpt>
      <trkpt lat="48.6565" lon="2.53443">
        <ele>135.834</ele>
        <time>2018-11-01T10:32:37Z</time>
      </trkpt>
      <trkpt lat="48.65653" lon="2.5344">
        <ele>135.868</ele>
        <time>2018-11-01T10:32:39Z</time>
      </trkpt>
      <trkpt lat="48.65656" lon="2.53434">
        <ele>135.934</ele>
        <time>2018-11-01T10:32:43Z</time>
      </trkpt>
      <trkpt lat="48.65658" lon="2.5343">
        <ele>135.966</ele>
        <time>2018-11-01T10:32:45Z</time>
      </trkpt>
      <trkpt lat="48.65661" lon="2.53425">
        <ele>136.017</ele>
        <time>2018-11-01T10:32:48Z</time>
      </trkpt>
      <trkpt lat="48.65665" lon="2.5342">
        <ele>136.067</ele>
        <time>2018-11-01T10:32:51Z</time>
      </trkpt>
      <trkpt lat="48.65668" lon="2.53413">
        <ele>136.147</ele>
        <time>2018-11-01T10:32:56Z</time>
      </trkpt>
      <trkpt lat="48.65673" lon="2.53409">
        <ele>136.194</ele>
        <time>2018-11-01T10:32:59Z</time>
      </trkpt>
      <trkpt lat="48.65676" lon="2.53404">
        <ele>136.239</ele>
        <time>2018-11-01T10:33:02Z</time>
      </trkpt>
      <trkpt lat="48.6568" lon="2.534">
        <ele>136.282</ele>
        <time>2018-11-01T10:33:05Z</time>
      </trkpt>
      <trkpt lat="48.65683" lon="2.53395">
        <ele>136.322</ele>
        <time>2018-11-01T10:33:08Z</time>
      </trkpt>
      <trkpt lat="48.65686" lon="2.53392">
        <ele>136.347</ele>
        <time>2018-11-01T10:33:10Z</time>
      </trkpt>
      <trkpt lat="48.65688" lon="2.53389">
        <ele>136.36</ele>
        <time>2018-11-01T10:33:11Z</time>
      </trkpt>
      <trkpt lat="48.6569" lon="2.53386">
        <ele>136.384</ele>
        <time>2018-11-01T10:33:13Z</time>
      </trkpt>
      <trkpt lat="48.65692" lon="2.53383">
        <ele>136.409</ele>
        <time>2018-11-01T10:33:15Z</time>
      </trkpt>
      <trkpt lat="48.65695" lon="2.5338">
        <ele>136.432</ele>
        <time>2018-11-01T10:33:17Z</time>
      </trkpt>
      <trkpt lat="48.65697" lon="2.53377">
        <ele>136.456</ele>
        <time>2018-11-01T10:33:19Z</time>
      </trkpt>
      <trkpt lat="48.657" lon="2.53372">
        <ele>136.481</ele>
        <time>2018-11-01T10:33:21Z</time>
      </trkpt>
      <trkpt lat="48.65702" lon="2.5337">
        <ele>136.496</ele>
        <time>2018-11-01T10:33:22Z</time>
      </trkpt>
      <trkpt lat="48.65704" lon="2.53366">
        <ele>136.526</ele>
        <time>2018-11-01T10:33:24Z</time>
      </trkpt>
      <trkpt lat="48.65707" lon="2.53363">
        <ele>136.558</ele>
        <time>2018-11-01T10:33:26Z</time>
      </trkpt>
      <trkpt lat="48.6571" lon="2.53356">
        <ele>136.634</ele>
        <time>2018-11-01T10:33:31Z</time>
      </trkpt>
      <trkpt lat="48.65712" lon="2.53353">
        <ele>136.662</ele>
        <time>2018-11-01T10:33:33Z</time>
      </trkpt>
      <trkpt lat="48.65714" lon="2.5335">
        <ele>136.69</ele>
        <time>2018-11-01T10:33:35Z</time>
      </trkpt>
      <trkpt lat="48.65717" lon="2.53346">
        <ele>136.718</ele>
        <time>2018-11-01T10:33:37Z</time>
      </trkpt>
      <trkpt lat="48.65721" lon="2.53341">
        <ele>136.761</ele>
        <time>2018-11-01T10:33:40Z</time>
      </trkpt>
      <trkpt lat="48.65724" lon="2.53338">
        <ele>136.792</ele>
        <time>2018-11-01T10:33:42Z</time>
      </trkpt>
      <trkpt lat="48.65729" lon="2.53334">
        <ele>136.821</ele>
        <time>2018-11-01T10:33:44Z</time>
      </trkpt>
      <trkpt lat="48.65731" lon="2.53331">
        <ele>136.849</ele>
        <time>2018-11-01T10:33:46Z</time>
      </trkpt>
      <trkpt lat="48.65735" lon="2.53326">
        <ele>136.887</ele>
        <time>2018-11-01T10:33:49Z</time>
      </trkpt>
      <trkpt lat="48.65738" lon="2.53321">
        <ele>136.912</ele>
        <time>2018-11-01T10:33:51Z</time>
      </trkpt>
      <trkpt lat="48.65741" lon="2.53315">
        <ele>136.945</ele>
        <time>2018-11-01T10:33:54Z</time>
      </trkpt>
      <trkpt lat="48.65742" lon="2.53311">
        <ele>136.976</ele>
        <time>2018-11-01T10:33:57Z</time>
      </trkpt>
      <trkpt lat="48.65746" lon="2.53306">
        <ele>137.016</ele>
        <time>2018-11-01T10:34:01Z</time>
      </trkpt>
      <trkpt lat="48.65748" lon="2.53303">
        <ele>137.034</ele>
        <time>2018-11-01T10:34:03Z</time>
      </trkpt>
      <trkpt lat="48.65751" lon="2.53298">
        <ele>137.059</ele>
        <time>2018-11-01T10:34:06Z</time>
      </trkpt>
      <trkpt lat="48.65756" lon="2.53294">
        <ele>137.092</ele>
        <time>2018-11-01T10:34:10Z</time>
      </trkpt>
      <trkpt lat="48.65761" lon="2.5329">
        <ele>137.126</ele>
        <time>2018-11-01T10:34:14Z</time>
      </trkpt>
      <trkpt lat="48.65764" lon="2.53284">
        <ele>137.152</ele>
        <time>2018-11-01T10:34:17Z</time>
      </trkpt>
      <trkpt lat="48.65768" lon="2.53279">
        <ele>137.177</ele>
        <time>2018-11-01T10:34:20Z</time>
      </trkpt>
      <trkpt lat="48.6577" lon="2.53276">
        <ele>137.187</ele>
        <time>2018-11-01T10:34:21Z</time>
      </trkpt>
      <trkpt lat="48.65773" lon="2.5327">
        <ele>137.218</ele>
        <time>2018-11-01T10:34:24Z</time>
      </trkpt>
      <trkpt lat="48.65777" lon="2.53265">
        <ele>137.254</ele>
        <time>2018-11-01T10:34:27Z</time>
      </trkpt>
      <trkpt lat="48.65781" lon="2.5326">
        <ele>137.307</ele>
        <time>2018-11-01T10:34:31Z</time>
      </trkpt>
      <trkpt lat="48.65784" lon="2.53256">
        <ele>137.347</ele>
        <time>2018-11-01T10:34:34Z</time>
      </trkpt>
      <trkpt lat="48.65788" lon="2.53249">
        <ele>137.395</ele>
        <time>2018-11-01T10:34:38Z</time>
      </trkpt>
      <trkpt lat="48.65792" lon="2.53246">
        <ele>137.43</ele>
        <time>2018-11-01T10:34:41Z</time>
      </trkpt>
      <trkpt lat="48.65795" lon="2.5324">
        <ele>137.474</ele>
        <time>2018-11-01T10:34:45Z</time>
      </trkpt>
      <trkpt lat="48.65798" lon="2.53235">
        <ele>137.505</ele>
        <time>2018-11-01T10:34:48Z</time>
      </trkpt>
      <trkpt lat="48.65799" lon="2.53232">
        <ele>137.526</ele>
        <time>2018-11-01T10:34:50Z</time>
      </trkpt>
      <trkpt lat="48.65801" lon="2.53229">
        <ele>137.545</ele>
        <time>2018-11-01T10:34:52Z</time>
      </trkpt>
      <trkpt lat="48.65804" lon="2.53225">
        <ele>137.566</ele>
        <time>2018-11-01T10:34:54Z</time>
      </trkpt>
      <trkpt lat="48.65806" lon="2.53222">
        <ele>137.587</ele>
        <time>2018-11-01T10:34:56Z</time>
      </trkpt>
      <trkpt lat="48.6581" lon="2.53217">
        <ele>137.629</ele>
        <time>2018-11-01T10:35:00Z</time>
      </trkpt>
      <trkpt lat="48.65812" lon="2.53215">
        <ele>137.649</ele>
        <time>2018-11-01T10:35:02Z</time>
      </trkpt>
      <trkpt lat="48.65816" lon="2.53211">
        <ele>137.669</ele>
        <time>2018-11-01T10:35:04Z</time>
      </trkpt>
      <trkpt lat="48.65819" lon="2.53208">
        <ele>137.688</ele>
        <time>2018-11-01T10:35:06Z</time>
      </trkpt>
      <trkpt lat="48.65824" lon="2.53202">
        <ele>137.727</ele>
        <time>2018-11-01T10:35:10Z</time>
      </trkpt>
      <trkpt lat="48.65826" lon="2.53199">
        <ele>137.747</ele>
        <time>2018-11-01T10:35:12Z</time>
      </trkpt>
      <trkpt lat="48.6583" lon="2.53194">
        <ele>137.78</ele>
        <time>2018-11-01T10:35:15Z</time>
      </trkpt>
      <trkpt lat="48.65832" lon="2.53191">
        <ele>137.805</ele>
        <time>2018-11-01T10:35:17Z</time>
      </trkpt>
      <trkpt lat="48.65835" lon="2.53184">
        <ele>137.858</ele>
        <time>2018-11-01T10:35:21Z</time>
      </trkpt>
      <trkpt lat="48.65838" lon="2.53179">
        <ele>137.895</ele>
        <time>2018-11-01T10:35:24Z</time>
      </trkpt>
      <trkpt lat="48.6584" lon="2.53177">
        <ele>137.906</ele>
        <time>2018-11-01T10:35:25Z</time>
      </trkpt>
      <trkpt lat="48.65843" lon="2.53174">
        <ele>137.928</ele>
        <time>2018-11-01T10:35:27Z</time>
      </trkpt>
      <trkpt lat="48.65847" lon="2.5317">
        <ele>137.959</ele>
        <time>2018-11-01T10:35:30Z</time>
      </trkpt>
      <trkpt lat="48.65852" lon="2.53168">
        <ele>137.988</ele>
        <time>2018-11-01T10:35:33Z</time>
      </trkpt>
      <trkpt lat="48.65857" lon="2.53163">
        <ele>138.024</ele>
        <time>2018-11-01T10:35:37Z</time>
      </trkpt>
      <trkpt lat="48.65861" lon="2.53157">
        <ele>138.059</ele>
        <time>2018-11-01T10:35:41Z</time>
      </trkpt>
      <trkpt lat="48.65864" lon="2.53152">
        <ele>138.086</ele>
        <time>2018-11-01T10:35:44Z</time>
      </trkpt>
      <trkpt lat="48.65867" lon="2.53148">
        <ele>138.121</ele>
        <time>2018-11-01T10:35:48Z</time>
      </trkpt>
      <trkpt lat="48.6587" lon="2.53142">
        <ele>138.155</ele>
        <time>2018-11-01T10:35:52Z</time>
      </trkpt>
      <trkpt lat="48.65872" lon="2.53138">
        <ele>138.173</ele>
        <time>2018-11-01T10:35:54Z</time>
      </trkpt>
      <trkpt lat="48.65876" lon="2.5313">
        <ele>138.213</ele>
        <time>2018-11-01T10:35:58Z</time>
      </trkpt>
      <trkpt lat="48.65879" lon="2.53125">
        <ele>138.234</ele>
        <time>2018-11-01T10:36:00Z</time>
      </trkpt>
      <trkpt lat="48.65883" lon="2.53119">
        <ele>138.268</ele>
        <time>2018-11-01T10:36:03Z</time>
      </trkpt>
      <trkpt lat="48.65886" lon="2.53116">
        <ele>138.292</ele>
        <time>2018-11-01T10:36:05Z</time>
      </trkpt>
      <trkpt lat="48.65888" lon="2.53112">
        <ele>138.315</ele>
        <time>2018-11-01T10:36:07Z</time>
      </trkpt>
      <trkpt lat="48.65893" lon="2.53109">
        <ele>138.353</ele>
        <time>2018-11-01T10:36:10Z</time>
      </trkpt>
      <trkpt lat="48.65896" lon="2.53105">
        <ele>138.393</ele>
        <time>2018-11-01T10:36:13Z</time>
      </trkpt>
      <trkpt lat="48.65899" lon="2.53103">
        <ele>138.419</ele>
        <time>2018-11-01T10:36:15Z</time>
      </trkpt>
      <trkpt lat="48.65905" lon="2.53099">
        <ele>138.458</ele>
        <time>2018-11-01T10:36:18Z</time>
      </trkpt>
      <trkpt lat="48.65908" lon="2.53096">
        <ele>138.483</ele>
        <time>2018-11-01T10:36:20Z</time>
      </trkpt>
      <trkpt lat="48.65911" lon="2.53093">
        <ele>138.509</ele>
        <time>2018-11-01T10:36:22Z</time>
      </trkpt>
      <trkpt lat="48.65914" lon="2.53091">
        <ele>138.535</ele>
        <time>2018-11-01T10:36:24Z</time>
      </trkpt>
      <trkpt lat="48.65917" lon="2.53088">
        <ele>138.574</ele>
        <time>2018-11-01T10:36:27Z</time>
      </trkpt>
      <trkpt lat="48.65922" lon="2.53086">
        <ele>138.624</ele>
        <time>2018-11-01T10:36:31Z</time>
      </trkpt>
      <trkpt lat="48.65926" lon="2.53084">
        <ele>138.663</ele>
        <time>2018-11-01T10:36:34Z</time>
      </trkpt>
      <trkpt lat="48.65929" lon="2.53078">
        <ele>138.703</ele>
        <time>2018-11-01T10:36:37Z</time>
      </trkpt>
      <trkpt lat="48.65932" lon="2.53071">
        <ele>138.744</ele>
        <time>2018-11-01T10:36:40Z</time>
      </trkpt>
      <trkpt lat="48.65934" lon="2.53065">
        <ele>138.772</ele>
        <time>2018-11-01T10:36:42Z</time>
      </trkpt>
      <trkpt lat="48.65935" lon="2.53058">
        <ele>138.815</ele>
        <time>2018-11-01T10:36:45Z</time>
      </trkpt>
      <trkpt lat="48.65939" lon="2.53051">
        <ele>138.87</ele>
        <time>2018-11-01T10:36:49Z</time>
      </trkpt>
      <trkpt lat="48.65941" lon="2.53048">
        <ele>138.895</ele>
        <time>2018-11-01T10:36:51Z</time>
      </trkpt>
      <trkpt lat="48.65944" lon="2.53045">
        <ele>138.92</ele>
        <time>2018-11-01T10:36:53Z</time>
      </trkpt>
      <trkpt lat="48.65946" lon="2.53043">
        <ele>138.946</ele>
        <time>2018-11-01T10:36:55Z</time>
      </trkpt>
      <trkpt lat="48.65948" lon="2.5304">
        <ele>138.972</ele>
        <time>2018-11-01T10:36:57Z</time>
      </trkpt>
      <trkpt lat="48.65951" lon="2.53038">
        <ele>139.008</ele>
        <time>2018-11-01T10:37:00Z</time>
      </trkpt>
      <trkpt lat="48.65955" lon="2.53032">
        <ele>139.058</ele>
        <time>2018-11-01T10:37:05Z</time>
      </trkpt>
      <trkpt lat="48.65958" lon="2.53028">
        <ele>139.082</ele>
        <time>2018-11-01T10:37:08Z</time>
      </trkpt>
      <trkpt lat="48.65962" lon="2.53023">
        <ele>139.103</ele>
        <time>2018-11-01T10:37:11Z</time>
      </trkpt>
      <trkpt lat="48.65964" lon="2.5302">
        <ele>139.108</ele>
        <time>2018-11-01T10:37:12Z</time>
      </trkpt>
      <trkpt lat="48.65966" lon="2.53014">
        <ele>139.122</ele>
        <time>2018-11-01T10:37:15Z</time>
      </trkpt>
      <trkpt lat="48.6597" lon="2.53007">
        <ele>139.132</ele>
        <time>2018-11-01T10:37:18Z</time>
      </trkpt>
      <trkpt lat="48.65972" lon="2.53001">
        <ele>139.138</ele>
        <time>2018-11-01T10:37:21Z</time>
      </trkpt>
      <trkpt lat="48.65974" lon="2.52997">
        <ele>139.14</ele>
        <time>2018-11-01T10:37:23Z</time>
      </trkpt>
      <trkpt lat="48.65977" lon="2.5299">
        <ele>139.142</ele>
        <time>2018-11-01T10:37:26Z</time>
      </trkpt>
      <trkpt lat="48.65981" lon="2.52985">
        <ele>139.145</ele>
        <time>2018-11-01T10:37:29Z</time>
      </trkpt>
      <trkpt lat="48.65985" lon="2.52979">
        <ele>139.149</ele>
        <time>2018-11-01T10:37:32Z</time>
      </trkpt>
      <trkpt lat="48.6599" lon="2.52975">
        <ele>139.158</ele>
        <time>2018-11-01T10:37:35Z</time>
      </trkpt>
      <trkpt lat="48.65994" lon="2.52971">
        <ele>139.181</ele>
        <time>2018-11-01T10:37:39Z</time>
      </trkpt>
      <trkpt lat="48.65998" lon="2.52966">
        <ele>139.209</ele>
        <time>2018-11-01T10:37:43Z</time>
      </trkpt>
      <trkpt lat="48.66001" lon="2.52963">
        <ele>139.22</ele>
        <time>2018-11-01T10:37:45Z</time>
      </trkpt>
      <trkpt lat="48.66003" lon="2.52959">
        <ele>139.23</ele>
        <time>2018-11-01T10:37:47Z</time>
      </trkpt>
      <trkpt lat="48.66007" lon="2.52955">
        <ele>139.246</ele>
        <time>2018-11-01T10:37:50Z</time>
      </trkpt>
      <trkpt lat="48.66012" lon="2.52948">
        <ele>139.276</ele>
        <time>2018-11-01T10:37:55Z</time>
      </trkpt>
      <trkpt lat="48.66016" lon="2.52943">
        <ele>139.288</ele>
        <time>2018-11-01T10:37:57Z</time>
      </trkpt>
      <trkpt lat="48.66019" lon="2.5294">
        <ele>139.3</ele>
        <time>2018-11-01T10:37:59Z</time>
      </trkpt>
      <trkpt lat="48.66023" lon="2.52935">
        <ele>139.316</ele>
        <time>2018-11-01T10:38:03Z</time>
      </trkpt>
      <trkpt lat="48.66025" lon="2.52931">
        <ele>139.324</ele>
        <time>2018-11-01T10:38:05Z</time>
      </trkpt>
      <trkpt lat="48.6603" lon="2.52927">
        <ele>139.343</ele>
        <time>2018-11-01T10:38:09Z</time>
      </trkpt>
      <trkpt lat="48.66035" lon="2.52922">
        <ele>139.362</ele>
        <time>2018-11-01T10:38:12Z</time>
      </trkpt>
      <trkpt lat="48.66038" lon="2.52915">
        <ele>139.399</ele>
        <time>2018-11-01T10:38:17Z</time>
      </trkpt>
      <trkpt lat="48.66042" lon="2.52909">
        <ele>139.423</ele>
        <time>2018-11-01T10:38:21Z</time>
      </trkpt>
      <trkpt lat="48.66044" lon="2.52906">
        <ele>139.433</ele>
        <time>2018-11-01T10:38:23Z</time>
      </trkpt>
      <trkpt lat="48.66046" lon="2.52903">
        <ele>139.443</ele>
        <time>2018-11-01T10:38:25Z</time>
      </trkpt>
      <trkpt lat="48.66048" lon="2.52899">
        <ele>139.451</ele>
        <time>2018-11-01T10:38:27Z</time>
      </trkpt>
      <trkpt lat="48.66052" lon="2.52894">
        <ele>139.466</ele>
        <time>2018-11-01T10:38:31Z</time>
      </trkpt>
      <trkpt lat="48.66056" lon="2.5289">
        <ele>139.476</ele>
        <time>2018-11-01T10:38:34Z</time>
      </trkpt>
      <trkpt lat="48.66059" lon="2.52884">
        <ele>139.486</ele>
        <time>2018-11-01T10:38:37Z</time>
      </trkpt>
      <trkpt lat="48.66063" lon="2.52879">
        <ele>139.502</ele>
        <time>2018-11-01T10:38:41Z</time>
      </trkpt>
      <trkpt lat="48.66065" lon="2.52876">
        <ele>139.512</ele>
        <time>2018-11-01T10:38:43Z</time>
      </trkpt>
      <trkpt lat="48.66069" lon="2.52869">
        <ele>139.534</ele>
        <time>2018-11-01T10:38:47Z</time>
      </trkpt>
      <trkpt lat="48.66073" lon="2.52864">
        <ele>139.551</ele>
        <time>2018-11-01T10:38:50Z</time>
      </trkpt>
      <trkpt lat="48.66078" lon="2.52861">
        <ele>139.574</ele>
        <time>2018-11-01T10:38:54Z</time>
      </trkpt>
      <trkpt lat="48.66082" lon="2.52856">
        <ele>139.593</ele>
        <time>2018-11-01T10:38:58Z</time>
      </trkpt>
      <trkpt lat="48.66084" lon="2.52853">
        <ele>139.603</ele>
        <time>2018-11-01T10:39:00Z</time>
      </trkpt>
      <trkpt lat="48.66088" lon="2.5285">
        <ele>139.618</ele>
        <time>2018-11-01T10:39:03Z</time>
      </trkpt>
      <trkpt lat="48.66092" lon="2.52846">
        <ele>139.634</ele>
        <time>2018-11-01T10:39:06Z</time>
      </trkpt>
      <trkpt lat="48.66095" lon="2.52839">
        <ele>139.652</ele>
        <time>2018-11-01T10:39:10Z</time>
      </trkpt>
      <trkpt lat="48.66097" lon="2.52831">
        <ele>139.665</ele>
        <time>2018-11-01T10:39:13Z</time>
      </trkpt>
      <trkpt lat="48.66099" lon="2.52827">
        <ele>139.673</ele>
        <time>2018-11-01T10:39:15Z</time>
      </trkpt>
      <trkpt lat="48.66103" lon="2.52821">
        <ele>139.687</ele>
        <time>2018-11-01T10:39:18Z</time>
      </trkpt>
      <trkpt lat="48.66105" lon="2.52817">
        <ele>139.697</ele>
        <time>2018-11-01T10:39:20Z</time>
      </trkpt>
      <trkpt lat="48.66108" lon="2.52812">
        <ele>139.712</ele>
        <time>2018-11-01T10:39:23Z</time>
      </trkpt>
      <trkpt lat="48.66111" lon="2.52806">
        <ele>139.729</ele>
        <time>2018-11-01T10:39:26Z</time>
      </trkpt>
      <trkpt lat="48.66114" lon="2.528">
        <ele>139.746</ele>
        <time>2018-11-01T10:39:29Z</time>
      </trkpt>
      <trkpt lat="48.66118" lon="2.52795">
        <ele>139.768</ele>
        <time>2018-11-01T10:39:33Z</time>
      </trkpt>
      <trkpt lat="48.66122" lon="2.52792">
        <ele>139.786</ele>
        <time>2018-11-01T10:39:36Z</time>
      </trkpt>
      <trkpt lat="48.66124" lon="2.5279">
        <ele>139.797</ele>
        <time>2018-11-01T10:39:38Z</time>
      </trkpt>
      <trkpt lat="48.66128" lon="2.52784">
        <ele>139.82</ele>
        <time>2018-11-01T10:39:42Z</time>
      </trkpt>
      <trkpt lat="48.66131" lon="2.52778">
        <ele>139.839</ele>
        <time>2018-11-01T10:39:45Z</time>
      </trkpt>
      <trkpt lat="48.66136" lon="2.52772">
        <ele>139.861</ele>
        <time>2018-11-01T10:39:48Z</time>
      </trkpt>
      <trkpt lat="48.66141" lon="2.52768">
        <ele>139.894</ele>
        <time>2018-11-01T10:39:52Z</time>
      </trkpt>
      <trkpt lat="48.66145" lon="2.52764">
        <ele>139.921</ele>
        <time>2018-11-01T10:39:55Z</time>
      </trkpt>
      <trkpt lat="48.66148" lon="2.52762">
        <ele>139.939</ele>
        <time>2018-11-01T10:39:57Z</time>
      </trkpt>
      <trkpt lat="48.66152" lon="2.52756">
        <ele>139.979</ele>
        <time>2018-11-01T10:40:01Z</time>
      </trkpt>
      <trkpt lat="48.66156" lon="2.52751">
        <ele>140.008</ele>
        <time>2018-11-01T10:40:04Z</time>
      </trkpt>
      <trkpt lat="48.66158" lon="2.52748">
        <ele>140.026</ele>
        <time>2018-11-01T10:40:06Z</time>
      </trkpt>
      <trkpt lat="48.66163" lon="2.52743">
        <ele>140.051</ele>
        <time>2018-11-01T10:40:09Z</time>
      </trkpt>
      <trkpt lat="48.66166" lon="2.52738">
        <ele>140.078</ele>
        <time>2018-11-01T10:40:12Z</time>
      </trkpt>
      <trkpt lat="48.66168" lon="2.52735">
        <ele>140.098</ele>
        <time>2018-11-01T10:40:14Z</time>
      </trkpt>
      <trkpt lat="48.6617" lon="2.52732">
        <ele>140.118</ele>
        <time>2018-11-01T10:40:16Z</time>
      </trkpt>
      <trkpt lat="48.66173" lon="2.52727">
        <ele>140.149</ele>
        <time>2018-11-01T10:40:19Z</time>
      </trkpt>
      <trkpt lat="48.66177" lon="2.52721">
        <ele>140.189</ele>
        <time>2018-11-01T10:40:23Z</time>
      </trkpt>
      <trkpt lat="48.66181" lon="2.52715">
        <ele>140.225</ele>
        <time>2018-11-01T10:40:27Z</time>
      </trkpt>
      <trkpt lat="48.66183" lon="2.52712">
        <ele>140.242</ele>
        <time>2018-11-01T10:40:29Z</time>
      </trkpt>
      <trkpt lat="48.66186" lon="2.52708">
        <ele>140.258</ele>
        <time>2018-11-01T10:40:31Z</time>
      </trkpt>
      <trkpt lat="48.6619" lon="2.52702">
        <ele>140.29</ele>
        <time>2018-11-01T10:40:35Z</time>
      </trkpt>
      <trkpt lat="48.66194" lon="2.52697">
        <ele>140.322</ele>
        <time>2018-11-01T10:40:39Z</time>
      </trkpt>
      <trkpt lat="48.66198" lon="2.52693">
        <ele>140.343</ele>
        <time>2018-11-01T10:40:42Z</time>
      </trkpt>
      <trkpt lat="48.66201" lon="2.52688">
        <ele>140.365</ele>
        <time>2018-11-01T10:40:45Z</time>
      </trkpt>
      <trkpt lat="48.66204" lon="2.52684">
        <ele>140.377</ele>
        <time>2018-11-01T10:40:47Z</time>
      </trkpt>
      <trkpt lat="48.66206" lon="2.52681">
        <ele>140.389</ele>
        <time>2018-11-01T10:40:49Z</time>
      </trkpt>
      <trkpt lat="48.66208" lon="2.52675">
        <ele>140.406</ele>
        <time>2018-11-01T10:40:52Z</time>
      </trkpt>
      <trkpt lat="48.66212" lon="2.5267">
        <ele>140.424</ele>
        <time>2018-11-01T10:40:55Z</time>
      </trkpt>
      <trkpt lat="48.66215" lon="2.52667">
        <ele>140.437</ele>
        <time>2018-11-01T10:40:57Z</time>
      </trkpt>
      <trkpt lat="48.66217" lon="2.52665">
        <ele>140.449</ele>
        <time>2018-11-01T10:40:59Z</time>
      </trkpt>
      <trkpt lat="48.66221" lon="2.52659">
        <ele>140.474</ele>
        <time>2018-11-01T10:41:03Z</time>
      </trkpt>
      <trkpt lat="48.66225" lon="2.52655">
        <ele>140.492</ele>
        <time>2018-11-01T10:41:06Z</time>
      </trkpt>
      <trkpt lat="48.66227" lon="2.52652">
        <ele>140.505</ele>
        <time>2018-11-01T10:41:08Z</time>
      </trkpt>
      <trkpt lat="48.66232" lon="2.52647">
        <ele>140.532</ele>
        <time>2018-11-01T10:41:12Z</time>
      </trkpt>
      <trkpt lat="48.66237" lon="2.52642">
        <ele>140.559</ele>
        <time>2018-11-01T10:41:16Z</time>
      </trkpt>
      <trkpt lat="48.66241" lon="2.52637">
        <ele>140.579</ele>
        <time>2018-11-01T10:41:19Z</time>
      </trkpt>
      <trkpt lat="48.66246" lon="2.52634">
        <ele>140.596</ele>
        <time>2018-11-01T10:41:22Z</time>
      </trkpt>
      <trkpt lat="48.66248" lon="2.52631">
        <ele>140.606</ele>
        <time>2018-11-01T10:41:24Z</time>
      </trkpt>
      <trkpt lat="48.66251" lon="2.52629">
        <ele>140.617</ele>
        <time>2018-11-01T10:41:26Z</time>
      </trkpt>
      <trkpt lat="48.66255" lon="2.52624">
        <ele>140.631</ele>
        <time>2018-11-01T10:41:29Z</time>
      </trkpt>
      <trkpt lat="48.66259" lon="2.52618">
        <ele>140.642</ele>
        <time>2018-11-01T10:41:32Z</time>
      </trkpt>
      <trkpt lat="48.66262" lon="2.52612">
        <ele>140.648</ele>
        <time>2018-11-01T10:41:35Z</time>
      </trkpt>
      <trkpt lat="48.66264" lon="2.52608">
        <ele>140.649</ele>
        <time>2018-11-01T10:41:37Z</time>
      </trkpt>
      <trkpt lat="48.66268" lon="2.52603">
        <ele>140.649</ele>
        <time>2018-11-01T10:41:40Z</time>
      </trkpt>
      <trkpt lat="48.66271" lon="2.526">
        <ele>140.65</ele>
        <time>2018-11-01T10:41:42Z</time>
      </trkpt>
      <trkpt lat="48.66274" lon="2.52597">
        <ele>140.651</ele>
        <time>2018-11-01T10:41:44Z</time>
      </trkpt>
      <trkpt lat="48.66277" lon="2.52594">
        <ele>140.652</ele>
        <time>2018-11-01T10:41:46Z</time>
      </trkpt>
      <trkpt lat="48.6628" lon="2.52589">
        <ele>140.654</ele>
        <time>2018-11-01T10:41:49Z</time>
      </trkpt>
      <trkpt lat="48.66282" lon="2.52587">
        <ele>140.654</ele>
        <time>2018-11-01T10:41:51Z</time>
      </trkpt>
      <trkpt lat="48.66287" lon="2.52585">
        <ele>140.652</ele>
        <time>2018-11-01T10:41:55Z</time>
      </trkpt>
      <trkpt lat="48.66291" lon="2.5258">
        <ele>140.647</ele>
        <time>2018-11-01T10:41:58Z</time>
      </trkpt>
      <trkpt lat="48.66294" lon="2.52577">
        <ele>140.643</ele>
        <time>2018-11-01T10:42:00Z</time>
      </trkpt>
      <trkpt lat="48.66297" lon="2.5257">
        <ele>140.635</ele>
        <time>2018-11-01T10:42:03Z</time>
      </trkpt>
      <trkpt lat="48.66301" lon="2.52565">
        <ele>140.621</ele>
        <time>2018-11-01T10:42:07Z</time>
      </trkpt>
      <trkpt lat="48.66305" lon="2.5256">
        <ele>140.608</ele>
        <time>2018-11-01T10:42:10Z</time>
      </trkpt>
      <trkpt lat="48.66307" lon="2.52557">
        <ele>140.599</ele>
        <time>2018-11-01T10:42:12Z</time>
      </trkpt>
      <trkpt lat="48.66309" lon="2.52553">
        <ele>140.589</ele>
        <time>2018-11-01T10:42:14Z</time>
      </trkpt>
      <trkpt lat="48.66311" lon="2.52547">
        <ele>140.571</ele>
        <time>2018-11-01T10:42:17Z</time>
      </trkpt>
      <trkpt lat="48.66315" lon="2.52542">
        <ele>140.546</ele>
        <time>2018-11-01T10:42:21Z</time>
      </trkpt>
      <trkpt lat="48.6632" lon="2.52533">
        <ele>140.525</ele>
        <time>2018-11-01T10:42:24Z</time>
      </trkpt>
      <trkpt lat="48.66321" lon="2.5253">
        <ele>140.519</ele>
        <time>2018-11-01T10:42:25Z</time>
      </trkpt>
      <trkpt lat="48.66325" lon="2.52525">
        <ele>140.501</ele>
        <time>2018-11-01T10:42:28Z</time>
      </trkpt>
      <trkpt lat="48.66327" lon="2.52522">
        <ele>140.49</ele>
        <time>2018-11-01T10:42:30Z</time>
      </trkpt>
      <trkpt lat="48.66332" lon="2.52518">
        <ele>140.475</ele>
        <time>2018-11-01T10:42:33Z</time>
      </trkpt>
      <trkpt lat="48.66335" lon="2.52514">
        <ele>140.466</ele>
        <time>2018-11-01T10:42:35Z</time>
      </trkpt>
      <trkpt lat="48.6634" lon="2.5251">
        <ele>140.455</ele>
        <time>2018-11-01T10:42:38Z</time>
      </trkpt>
      <trkpt lat="48.66344" lon="2.52505">
        <ele>140.44</ele>
        <time>2018-11-01T10:42:42Z</time>
      </trkpt>
      <trkpt lat="48.66347" lon="2.525">
        <ele>140.427</ele>
        <time>2018-11-01T10:42:45Z</time>
      </trkpt>
      <trkpt lat="48.66348" lon="2.52496">
        <ele>140.417</ele>
        <time>2018-11-01T10:42:47Z</time>
      </trkpt>
      <trkpt lat="48.6635" lon="2.52493">
        <ele>140.407</ele>
        <time>2018-11-01T10:42:49Z</time>
      </trkpt>
      <trkpt lat="48.66352" lon="2.52489">
        <ele>140.396</ele>
        <time>2018-11-01T10:42:51Z</time>
      </trkpt>
      <trkpt lat="48.66356" lon="2.52484">
        <ele>140.371</ele>
        <time>2018-11-01T10:42:55Z</time>
      </trkpt>
      <trkpt lat="48.66358" lon="2.52477">
        <ele>140.353</ele>
        <time>2018-11-01T10:42:58Z</time>
      </trkpt>
      <trkpt lat="48.66362" lon="2.52471">
        <ele>140.334</ele>
        <time>2018-11-01T10:43:02Z</time>
      </trkpt>
      <trkpt lat="48.66367" lon="2.52466">
        <ele>140.321</ele>
        <time>2018-11-01T10:43:06Z</time>
      </trkpt>
      <trkpt lat="48.6637" lon="2.52463">
        <ele>140.316</ele>
        <time>2018-11-01T10:43:08Z</time>
      </trkpt>
      <trkpt lat="48.66372" lon="2.5246">
        <ele>140.314</ele>
        <time>2018-11-01T10:43:10Z</time>
      </trkpt>
      <trkpt lat="48.66377" lon="2.52456">
        <ele>140.315</ele>
        <time>2018-11-01T10:43:13Z</time>
      </trkpt>
      <trkpt lat="48.66379" lon="2.52454">
        <ele>140.318</ele>
        <time>2018-11-01T10:43:15Z</time>
      </trkpt>
      <trkpt lat="48.66383" lon="2.5245">
        <ele>140.33</ele>
        <time>2018-11-01T10:43:21Z</time>
      </trkpt>
      <trkpt lat="48.66385" lon="2.52447">
        <ele>140.334</ele>
        <time>2018-11-01T10:43:23Z</time>
      </trkpt>
      <trkpt lat="48.66387" lon="2.52445">
        <ele>140.336</ele>
        <time>2018-11-01T10:43:24Z</time>
      </trkpt>
      <trkpt lat="48.66389" lon="2.52443">
        <ele>140.34</ele>
        <time>2018-11-01T10:43:26Z</time>
      </trkpt>
      <trkpt lat="48.66393" lon="2.52442">
        <ele>140.352</ele>
        <time>2018-11-01T10:43:33Z</time>
      </trkpt>
      <trkpt lat="48.66393" lon="2.52442">
        <ele>86</ele>
        <time>2018-11-01T10:43:41Z</time>
      </trkpt>
      <trkpt lat="48.66393" lon="2.52442">
        <ele>86</ele>
        <time>2018-11-01T10:46:52Z</time>
      </trkpt>
      <trkpt lat="48.66412" lon="2.52451">
        <ele>140.488</ele>
        <time>2018-11-01T10:46:59Z</time>
      </trkpt>
      <trkpt lat="48.66412" lon="2.52451">
        <ele>86</ele>
        <time>2018-11-01T10:46:59Z</time>
      </trkpt>
      <trkpt lat="48.66412" lon="2.52451">
        <ele>86</ele>
        <time>2018-11-01T10:47:35Z</time>
      </trkpt>
      <trkpt lat="48.66406" lon="2.52426">
        <ele>140.444</ele>
        <time>2018-11-01T10:47:35Z</time>
      </trkpt>
      <trkpt lat="48.6641" lon="2.52421">
        <ele>140.409</ele>
        <time>2018-11-01T10:47:39Z</time>
      </trkpt>
      <trkpt lat="48.66416" lon="2.52418">
        <ele>140.38</ele>
        <time>2018-11-01T10:47:42Z</time>
      </trkpt>
      <trkpt lat="48.66419" lon="2.52416">
        <ele>140.37</ele>
        <time>2018-11-01T10:47:43Z</time>
      </trkpt>
      <trkpt lat="48.66422" lon="2.52415">
        <ele>140.351</ele>
        <time>2018-11-01T10:47:45Z</time>
      </trkpt>
      <trkpt lat="48.66428" lon="2.52404">
        <ele>140.317</ele>
        <time>2018-11-01T10:47:49Z</time>
      </trkpt>
      <trkpt lat="48.66431" lon="2.52399">
        <ele>140.301</ele>
        <time>2018-11-01T10:47:51Z</time>
      </trkpt>
      <trkpt lat="48.66432" lon="2.52396">
        <ele>140.294</ele>
        <time>2018-11-01T10:47:52Z</time>
      </trkpt>
      <trkpt lat="48.66434" lon="2.52391">
        <ele>140.28</ele>
        <time>2018-11-01T10:47:54Z</time>
      </trkpt>
      <trkpt lat="48.66438" lon="2.52389">
        <ele>140.26</ele>
        <time>2018-11-01T10:47:57Z</time>
      </trkpt>
      <trkpt lat="48.66442" lon="2.52384">
        <ele>140.243</ele>
        <time>2018-11-01T10:48:00Z</time>
      </trkpt>
      <trkpt lat="48.66447" lon="2.52379">
        <ele>140.227</ele>
        <time>2018-11-01T10:48:03Z</time>
      </trkpt>
      <trkpt lat="48.66449" lon="2.52376">
        <ele>140.216</ele>
        <time>2018-11-01T10:48:05Z</time>
      </trkpt>
      <trkpt lat="48.66451" lon="2.52374">
        <ele>140.206</ele>
        <time>2018-11-01T10:48:07Z</time>
      </trkpt>
      <trkpt lat="48.66454" lon="2.52366">
        <ele>140.187</ele>
        <time>2018-11-01T10:48:11Z</time>
      </trkpt>
      <trkpt lat="48.66459" lon="2.52362">
        <ele>140.172</ele>
        <time>2018-11-01T10:48:14Z</time>
      </trkpt>
      <trkpt lat="48.66459" lon="2.52356">
        <ele>140.158</ele>
        <time>2018-11-01T10:48:17Z</time>
      </trkpt>
      <trkpt lat="48.6646" lon="2.52351">
        <ele>140.143</ele>
        <time>2018-11-01T10:48:20Z</time>
      </trkpt>
      <trkpt lat="48.66463" lon="2.52345">
        <ele>140.119</ele>
        <time>2018-11-01T10:48:24Z</time>
      </trkpt>
      <trkpt lat="48.66467" lon="2.5234">
        <ele>140.099</ele>
        <time>2018-11-01T10:48:27Z</time>
      </trkpt>
      <trkpt lat="48.6647" lon="2.52337">
        <ele>140.086</ele>
        <time>2018-11-01T10:48:29Z</time>
      </trkpt>
      <trkpt lat="48.66474" lon="2.52332">
        <ele>140.061</ele>
        <time>2018-11-01T10:48:33Z</time>
      </trkpt>
      <trkpt lat="48.66479" lon="2.52329">
        <ele>140.034</ele>
        <time>2018-11-01T10:48:37Z</time>
      </trkpt>
      <trkpt lat="48.66484" lon="2.52323">
        <ele>140.011</ele>
        <time>2018-11-01T10:48:41Z</time>
      </trkpt>
      <trkpt lat="48.66488" lon="2.52319">
        <ele>139.997</ele>
        <time>2018-11-01T10:48:44Z</time>
      </trkpt>
      <trkpt lat="48.66491" lon="2.52316">
        <ele>139.989</ele>
        <time>2018-11-01T10:48:46Z</time>
      </trkpt>
      <trkpt lat="48.66494" lon="2.52312">
        <ele>139.974</ele>
        <time>2018-11-01T10:48:49Z</time>
      </trkpt>
      <trkpt lat="48.66498" lon="2.52305">
        <ele>139.958</ele>
        <time>2018-11-01T10:48:52Z</time>
      </trkpt>
      <trkpt lat="48.665" lon="2.523">
        <ele>139.946</ele>
        <time>2018-11-01T10:48:54Z</time>
      </trkpt>
      <trkpt lat="48.66504" lon="2.52295">
        <ele>139.928</ele>
        <time>2018-11-01T10:48:57Z</time>
      </trkpt>
      <trkpt lat="48.66507" lon="2.52291">
        <ele>139.912</ele>
        <time>2018-11-01T10:49:00Z</time>
      </trkpt>
      <trkpt lat="48.66511" lon="2.52283">
        <ele>139.893</ele>
        <time>2018-11-01T10:49:04Z</time>
      </trkpt>
      <trkpt lat="48.66514" lon="2.52278">
        <ele>139.881</ele>
        <time>2018-11-01T10:49:07Z</time>
      </trkpt>
      <trkpt lat="48.66518" lon="2.52273">
        <ele>139.867</ele>
        <time>2018-11-01T10:49:11Z</time>
      </trkpt>
      <trkpt lat="48.6652" lon="2.52266">
        <ele>139.857</ele>
        <time>2018-11-01T10:49:14Z</time>
      </trkpt>
      <trkpt lat="48.66523" lon="2.52261">
        <ele>139.851</ele>
        <time>2018-11-01T10:49:17Z</time>
      </trkpt>
      <trkpt lat="48.66526" lon="2.52256">
        <ele>139.848</ele>
        <time>2018-11-01T10:49:20Z</time>
      </trkpt>
      <trkpt lat="48.6653" lon="2.52249">
        <ele>139.846</ele>
        <time>2018-11-01T10:49:24Z</time>
      </trkpt>
      <trkpt lat="48.66532" lon="2.52247">
        <ele>139.845</ele>
        <time>2018-11-01T10:49:26Z</time>
      </trkpt>
      <trkpt lat="48.66536" lon="2.52241">
        <ele>139.842</ele>
        <time>2018-11-01T10:49:30Z</time>
      </trkpt>
      <trkpt lat="48.66538" lon="2.52239">
        <ele>139.84</ele>
        <time>2018-11-01T10:49:32Z</time>
      </trkpt>
      <trkpt lat="48.66541" lon="2.52236">
        <ele>139.837</ele>
        <time>2018-11-01T10:49:34Z</time>
      </trkpt>
      <trkpt lat="48.66543" lon="2.52234">
        <ele>139.833</ele>
        <time>2018-11-01T10:49:36Z</time>
      </trkpt>
      <trkpt lat="48.66545" lon="2.52231">
        <ele>139.829</ele>
        <time>2018-11-01T10:49:38Z</time>
      </trkpt>
      <trkpt lat="48.66549" lon="2.52224">
        <ele>139.821</ele>
        <time>2018-11-01T10:49:41Z</time>
      </trkpt>
      <trkpt lat="48.66552" lon="2.52218">
        <ele>139.811</ele>
        <time>2018-11-01T10:49:44Z</time>
      </trkpt>
      <trkpt lat="48.66556" lon="2.52214">
        <ele>139.799</ele>
        <time>2018-11-01T10:49:48Z</time>
      </trkpt>
      <trkpt lat="48.66559" lon="2.5221">
        <ele>139.791</ele>
        <time>2018-11-01T10:49:51Z</time>
      </trkpt>
      <trkpt lat="48.66562" lon="2.52205">
        <ele>139.782</ele>
        <time>2018-11-01T10:49:54Z</time>
      </trkpt>
      <trkpt lat="48.66564" lon="2.52201">
        <ele>139.776</ele>
        <time>2018-11-01T10:49:56Z</time>
      </trkpt>
      <trkpt lat="48.66569" lon="2.52197">
        <ele>139.765</ele>
        <time>2018-11-01T10:49:59Z</time>
      </trkpt>
      <trkpt lat="48.66573" lon="2.52194">
        <ele>139.758</ele>
        <time>2018-11-01T10:50:01Z</time>
      </trkpt>
      <trkpt lat="48.66577" lon="2.52189">
        <ele>139.745</ele>
        <time>2018-11-01T10:50:04Z</time>
      </trkpt>
      <trkpt lat="48.6658" lon="2.52184">
        <ele>139.73</ele>
        <time>2018-11-01T10:50:07Z</time>
      </trkpt>
      <trkpt lat="48.66583" lon="2.5218">
        <ele>139.719</ele>
        <time>2018-11-01T10:50:09Z</time>
      </trkpt>
      <trkpt lat="48.66587" lon="2.52176">
        <ele>139.7</ele>
        <time>2018-11-01T10:50:12Z</time>
      </trkpt>
      <trkpt lat="48.66589" lon="2.52174">
        <ele>139.686</ele>
        <time>2018-11-01T10:50:14Z</time>
      </trkpt>
      <trkpt lat="48.66592" lon="2.52172">
        <ele>139.672</ele>
        <time>2018-11-01T10:50:16Z</time>
      </trkpt>
      <trkpt lat="48.66595" lon="2.52166">
        <ele>139.648</ele>
        <time>2018-11-01T10:50:19Z</time>
      </trkpt>
      <trkpt lat="48.66597" lon="2.52163">
        <ele>139.631</ele>
        <time>2018-11-01T10:50:21Z</time>
      </trkpt>
      <trkpt lat="48.66601" lon="2.52156">
        <ele>139.595</ele>
        <time>2018-11-01T10:50:25Z</time>
      </trkpt>
      <trkpt lat="48.66603" lon="2.52153">
        <ele>139.577</ele>
        <time>2018-11-01T10:50:27Z</time>
      </trkpt>
      <trkpt lat="48.66607" lon="2.52148">
        <ele>139.538</ele>
        <time>2018-11-01T10:50:31Z</time>
      </trkpt>
      <trkpt lat="48.66611" lon="2.52142">
        <ele>139.498</ele>
        <time>2018-11-01T10:50:35Z</time>
      </trkpt>
      <trkpt lat="48.66613" lon="2.52138">
        <ele>139.478</ele>
        <time>2018-11-01T10:50:37Z</time>
      </trkpt>
      <trkpt lat="48.66617" lon="2.52133">
        <ele>139.447</ele>
        <time>2018-11-01T10:50:40Z</time>
      </trkpt>
      <trkpt lat="48.66619" lon="2.52131">
        <ele>139.427</ele>
        <time>2018-11-01T10:50:42Z</time>
      </trkpt>
      <trkpt lat="48.66623" lon="2.52127">
        <ele>139.396</ele>
        <time>2018-11-01T10:50:45Z</time>
      </trkpt>
      <trkpt lat="48.66628" lon="2.52122">
        <ele>139.355</ele>
        <time>2018-11-01T10:50:49Z</time>
      </trkpt>
      <trkpt lat="48.66632" lon="2.52117">
        <ele>139.325</ele>
        <time>2018-11-01T10:50:52Z</time>
      </trkpt>
      <trkpt lat="48.66634" lon="2.52114">
        <ele>139.306</ele>
        <time>2018-11-01T10:50:54Z</time>
      </trkpt>
      <trkpt lat="48.66637" lon="2.5211">
        <ele>139.288</ele>
        <time>2018-11-01T10:50:56Z</time>
      </trkpt>
      <trkpt lat="48.66639" lon="2.52106">
        <ele>139.271</ele>
        <time>2018-11-01T10:50:58Z</time>
      </trkpt>
      <trkpt lat="48.66642" lon="2.52103">
        <ele>139.255</ele>
        <time>2018-11-01T10:51:00Z</time>
      </trkpt>
      <trkpt lat="48.66645" lon="2.52099">
        <ele>139.234</ele>
        <time>2018-11-01T10:51:03Z</time>
      </trkpt>
      <trkpt lat="48.66648" lon="2.52095">
        <ele>139.222</ele>
        <time>2018-11-01T10:51:05Z</time>
      </trkpt>
      <trkpt lat="48.6665" lon="2.52088">
        <ele>139.206</ele>
        <time>2018-11-01T10:51:08Z</time>
      </trkpt>
      <trkpt lat="48.66652" lon="2.52083">
        <ele>139.192</ele>
        <time>2018-11-01T10:51:11Z</time>
      </trkpt>
      <trkpt lat="48.66656" lon="2.52078">
        <ele>139.178</ele>
        <time>2018-11-01T10:51:15Z</time>
      </trkpt>
      <trkpt lat="48.66659" lon="2.52074">
        <ele>139.171</ele>
        <time>2018-11-01T10:51:18Z</time>
      </trkpt>
      <trkpt lat="48.66661" lon="2.5207">
        <ele>139.167</ele>
        <time>2018-11-01T10:51:20Z</time>
      </trkpt>
      <trkpt lat="48.66665" lon="2.52065">
        <ele>139.162</ele>
        <time>2018-11-01T10:51:23Z</time>
      </trkpt>
      <trkpt lat="48.66669" lon="2.5206">
        <ele>139.16</ele>
        <time>2018-11-01T10:51:26Z</time>
      </trkpt>
      <trkpt lat="48.66673" lon="2.52056">
        <ele>139.159</ele>
        <time>2018-11-01T10:51:29Z</time>
      </trkpt>
      <trkpt lat="48.66676" lon="2.5205">
        <ele>139.158</ele>
        <time>2018-11-01T10:51:32Z</time>
      </trkpt>
      <trkpt lat="48.6668" lon="2.52044">
        <ele>139.158</ele>
        <time>2018-11-01T10:51:36Z</time>
      </trkpt>
      <trkpt lat="48.66685" lon="2.52039">
        <ele>139.158</ele>
        <time>2018-11-01T10:51:39Z</time>
      </trkpt>
      <trkpt lat="48.66688" lon="2.52037">
        <ele>139.159</ele>
        <time>2018-11-01T10:51:41Z</time>
      </trkpt>
      <trkpt lat="48.6669" lon="2.52034">
        <ele>139.159</ele>
        <time>2018-11-01T10:51:43Z</time>
      </trkpt>
      <trkpt lat="48.66694" lon="2.52032">
        <ele>139.159</ele>
        <time>2018-11-01T10:51:46Z</time>
      </trkpt>
      <trkpt lat="48.66698" lon="2.52029">
        <ele>139.158</ele>
        <time>2018-11-01T10:51:49Z</time>
      </trkpt>
      <trkpt lat="48.66702" lon="2.52025">
        <ele>139.154</ele>
        <time>2018-11-01T10:51:53Z</time>
      </trkpt>
      <trkpt lat="48.66704" lon="2.52023">
        <ele>139.151</ele>
        <time>2018-11-01T10:51:55Z</time>
      </trkpt>
      <trkpt lat="48.66706" lon="2.52021">
        <ele>139.147</ele>
        <time>2018-11-01T10:51:57Z</time>
      </trkpt>
      <trkpt lat="48.6671" lon="2.52015">
        <ele>139.137</ele>
        <time>2018-11-01T10:52:01Z</time>
      </trkpt>
      <trkpt lat="48.66715" lon="2.52011">
        <ele>139.127</ele>
        <time>2018-11-01T10:52:05Z</time>
      </trkpt>
      <trkpt lat="48.66718" lon="2.52009">
        <ele>139.122</ele>
        <time>2018-11-01T10:52:07Z</time>
      </trkpt>
      <trkpt lat="48.66722" lon="2.52006">
        <ele>139.114</ele>
        <time>2018-11-01T10:52:10Z</time>
      </trkpt>
      <trkpt lat="48.66726" lon="2.52003">
        <ele>139.109</ele>
        <time>2018-11-01T10:52:12Z</time>
      </trkpt>
      <trkpt lat="48.6673" lon="2.51996">
        <ele>139.103</ele>
        <time>2018-11-01T10:52:15Z</time>
      </trkpt>
      <trkpt lat="48.66732" lon="2.51993">
        <ele>139.099</ele>
        <time>2018-11-01T10:52:17Z</time>
      </trkpt>
      <trkpt lat="48.66735" lon="2.51989">
        <ele>139.092</ele>
        <time>2018-11-01T10:52:20Z</time>
      </trkpt>
      <trkpt lat="48.66738" lon="2.51986">
        <ele>139.088</ele>
        <time>2018-11-01T10:52:22Z</time>
      </trkpt>
      <trkpt lat="48.6674" lon="2.51982">
        <ele>139.083</ele>
        <time>2018-11-01T10:52:24Z</time>
      </trkpt>
      <trkpt lat="48.66744" lon="2.51979">
        <ele>139.074</ele>
        <time>2018-11-01T10:52:28Z</time>
      </trkpt>
      <trkpt lat="48.66748" lon="2.51977">
        <ele>139.068</ele>
        <time>2018-11-01T10:52:31Z</time>
      </trkpt>
      <trkpt lat="48.66752" lon="2.51973">
        <ele>139.06</ele>
        <time>2018-11-01T10:52:34Z</time>
      </trkpt>
      <trkpt lat="48.66755" lon="2.5197">
        <ele>139.053</ele>
        <time>2018-11-01T10:52:36Z</time>
      </trkpt>
      <trkpt lat="48.6676" lon="2.51966">
        <ele>139.042</ele>
        <time>2018-11-01T10:52:39Z</time>
      </trkpt>
      <trkpt lat="48.66763" lon="2.51963">
        <ele>139.035</ele>
        <time>2018-11-01T10:52:41Z</time>
      </trkpt>
      <trkpt lat="48.66767" lon="2.51956">
        <ele>139.023</ele>
        <time>2018-11-01T10:52:44Z</time>
      </trkpt>
      <trkpt lat="48.66769" lon="2.51954">
        <ele>139.019</ele>
        <time>2018-11-01T10:52:45Z</time>
      </trkpt>
      <trkpt lat="48.66772" lon="2.51946">
        <ele>139.002</ele>
        <time>2018-11-01T10:52:49Z</time>
      </trkpt>
      <trkpt lat="48.66774" lon="2.51941">
        <ele>138.988</ele>
        <time>2018-11-01T10:52:52Z</time>
      </trkpt>
      <trkpt lat="48.66776" lon="2.51937">
        <ele>138.979</ele>
        <time>2018-11-01T10:52:54Z</time>
      </trkpt>
      <trkpt lat="48.66779" lon="2.51931">
        <ele>138.957</ele>
        <time>2018-11-01T10:52:58Z</time>
      </trkpt>
      <trkpt lat="48.66781" lon="2.51928">
        <ele>138.946</ele>
        <time>2018-11-01T10:53:00Z</time>
      </trkpt>
      <trkpt lat="48.66785" lon="2.51924">
        <ele>138.927</ele>
        <time>2018-11-01T10:53:03Z</time>
      </trkpt>
      <trkpt lat="48.66788" lon="2.51917">
        <ele>138.9</ele>
        <time>2018-11-01T10:53:07Z</time>
      </trkpt>
      <trkpt lat="48.66792" lon="2.51912">
        <ele>138.872</ele>
        <time>2018-11-01T10:53:11Z</time>
      </trkpt>
      <trkpt lat="48.66795" lon="2.51909">
        <ele>138.858</ele>
        <time>2018-11-01T10:53:13Z</time>
      </trkpt>
      <trkpt lat="48.66799" lon="2.51903">
        <ele>138.829</ele>
        <time>2018-11-01T10:53:17Z</time>
      </trkpt>
      <trkpt lat="48.66802" lon="2.51901">
        <ele>138.813</ele>
        <time>2018-11-01T10:53:19Z</time>
      </trkpt>
      <trkpt lat="48.66805" lon="2.51895">
        <ele>138.788</ele>
        <time>2018-11-01T10:53:22Z</time>
      </trkpt>
      <trkpt lat="48.66807" lon="2.51892">
        <ele>138.78</ele>
        <time>2018-11-01T10:53:23Z</time>
      </trkpt>
      <trkpt lat="48.66811" lon="2.51887">
        <ele>138.755</ele>
        <time>2018-11-01T10:53:26Z</time>
      </trkpt>
      <trkpt lat="48.66814" lon="2.51881">
        <ele>138.729</ele>
        <time>2018-11-01T10:53:29Z</time>
      </trkpt>
      <trkpt lat="48.66818" lon="2.51876">
        <ele>138.704</ele>
        <time>2018-11-01T10:53:32Z</time>
      </trkpt>
      <trkpt lat="48.6682" lon="2.51873">
        <ele>138.688</ele>
        <time>2018-11-01T10:53:34Z</time>
      </trkpt>
      <trkpt lat="48.66822" lon="2.5187">
        <ele>138.673</ele>
        <time>2018-11-01T10:53:36Z</time>
      </trkpt>
      <trkpt lat="48.66825" lon="2.51866">
        <ele>138.652</ele>
        <time>2018-11-01T10:53:39Z</time>
      </trkpt>
      <trkpt lat="48.66829" lon="2.51862">
        <ele>138.632</ele>
        <time>2018-11-01T10:53:42Z</time>
      </trkpt>
      <trkpt lat="48.66832" lon="2.51858">
        <ele>138.618</ele>
        <time>2018-11-01T10:53:44Z</time>
      </trkpt>
      <trkpt lat="48.66835" lon="2.51855">
        <ele>138.604</ele>
        <time>2018-11-01T10:53:46Z</time>
      </trkpt>
      <trkpt lat="48.66838" lon="2.51849">
        <ele>138.585</ele>
        <time>2018-11-01T10:53:49Z</time>
      </trkpt>
      <trkpt lat="48.6684" lon="2.51846">
        <ele>138.572</ele>
        <time>2018-11-01T10:53:51Z</time>
      </trkpt>
      <trkpt lat="48.66843" lon="2.5184">
        <ele>138.548</ele>
        <time>2018-11-01T10:53:55Z</time>
      </trkpt>
      <trkpt lat="48.66847" lon="2.51836">
        <ele>138.532</ele>
        <time>2018-11-01T10:53:58Z</time>
      </trkpt>
      <trkpt lat="48.6685" lon="2.51833">
        <ele>138.522</ele>
        <time>2018-11-01T10:54:00Z</time>
      </trkpt>
      <trkpt lat="48.66853" lon="2.51827">
        <ele>138.508</ele>
        <time>2018-11-01T10:54:03Z</time>
      </trkpt>
      <trkpt lat="48.66856" lon="2.51823">
        <ele>138.498</ele>
        <time>2018-11-01T10:54:05Z</time>
      </trkpt>
      <trkpt lat="48.66858" lon="2.51819">
        <ele>138.488</ele>
        <time>2018-11-01T10:54:07Z</time>
      </trkpt>
      <trkpt lat="48.66862" lon="2.51815">
        <ele>138.473</ele>
        <time>2018-11-01T10:54:10Z</time>
      </trkpt>
      <trkpt lat="48.66864" lon="2.51812">
        <ele>138.463</ele>
        <time>2018-11-01T10:54:12Z</time>
      </trkpt>
      <trkpt lat="48.66869" lon="2.51807">
        <ele>138.447</ele>
        <time>2018-11-01T10:54:16Z</time>
      </trkpt>
      <trkpt lat="48.66873" lon="2.51803">
        <ele>138.437</ele>
        <time>2018-11-01T10:54:19Z</time>
      </trkpt>
      <trkpt lat="48.66876" lon="2.51799">
        <ele>138.432</ele>
        <time>2018-11-01T10:54:21Z</time>
      </trkpt>
      <trkpt lat="48.66879" lon="2.51796">
        <ele>138.428</ele>
        <time>2018-11-01T10:54:23Z</time>
      </trkpt>
      <trkpt lat="48.66881" lon="2.51792">
        <ele>138.425</ele>
        <time>2018-11-01T10:54:25Z</time>
      </trkpt>
      <trkpt lat="48.66885" lon="2.51786">
        <ele>138.421</ele>
        <time>2018-11-01T10:54:28Z</time>
      </trkpt>
      <trkpt lat="48.66888" lon="2.5178">
        <ele>138.42</ele>
        <time>2018-11-01T10:54:31Z</time>
      </trkpt>
      <trkpt lat="48.6689" lon="2.51773">
        <ele>138.419</ele>
        <time>2018-11-01T10:54:34Z</time>
      </trkpt>
      <trkpt lat="48.66891" lon="2.5177">
        <ele>138.42</ele>
        <time>2018-11-01T10:54:36Z</time>
      </trkpt>
      <trkpt lat="48.66894" lon="2.51765">
        <ele>138.421</ele>
        <time>2018-11-01T10:54:40Z</time>
      </trkpt>
      <trkpt lat="48.66899" lon="2.5176">
        <ele>138.421</ele>
        <time>2018-11-01T10:54:44Z</time>
      </trkpt>
      <trkpt lat="48.66901" lon="2.51758">
        <ele>138.42</ele>
        <time>2018-11-01T10:54:46Z</time>
      </trkpt>
      <trkpt lat="48.66906" lon="2.51752">
        <ele>138.419</ele>
        <time>2018-11-01T10:54:50Z</time>
      </trkpt>
      <trkpt lat="48.66909" lon="2.51749">
        <ele>138.418</ele>
        <time>2018-11-01T10:54:53Z</time>
      </trkpt>
      <trkpt lat="48.66912" lon="2.51745">
        <ele>138.416</ele>
        <time>2018-11-01T10:54:56Z</time>
      </trkpt>
      <trkpt lat="48.66917" lon="2.5174">
        <ele>138.411</ele>
        <time>2018-11-01T10:55:00Z</time>
      </trkpt>
      <trkpt lat="48.66921" lon="2.51736">
        <ele>138.407</ele>
        <time>2018-11-01T10:55:03Z</time>
      </trkpt>
      <trkpt lat="48.66925" lon="2.51732">
        <ele>138.402</ele>
        <time>2018-11-01T10:55:06Z</time>
      </trkpt>
      <trkpt lat="48.66928" lon="2.5173">
        <ele>138.397</ele>
        <time>2018-11-01T10:55:08Z</time>
      </trkpt>
      <trkpt lat="48.6693" lon="2.51727">
        <ele>138.392</ele>
        <time>2018-11-01T10:55:10Z</time>
      </trkpt>
      <trkpt lat="48.66935" lon="2.51722">
        <ele>138.38</ele>
        <time>2018-11-01T10:55:14Z</time>
      </trkpt>
      <trkpt lat="48.66938" lon="2.51716">
        <ele>138.371</ele>
        <time>2018-11-01T10:55:17Z</time>
      </trkpt>
      <trkpt lat="48.66941" lon="2.51711">
        <ele>138.363</ele>
        <time>2018-11-01T10:55:20Z</time>
      </trkpt>
      <trkpt lat="48.66943" lon="2.51707">
        <ele>138.357</ele>
        <time>2018-11-01T10:55:22Z</time>
      </trkpt>
      <trkpt lat="48.66947" lon="2.51703">
        <ele>138.345</ele>
        <time>2018-11-01T10:55:26Z</time>
      </trkpt>
      <trkpt lat="48.66951" lon="2.517">
        <ele>138.334</ele>
        <time>2018-11-01T10:55:29Z</time>
      </trkpt>
      <trkpt lat="48.66954" lon="2.51695">
        <ele>138.321</ele>
        <time>2018-11-01T10:55:32Z</time>
      </trkpt>
      <trkpt lat="48.66958" lon="2.5169">
        <ele>138.306</ele>
        <time>2018-11-01T10:55:35Z</time>
      </trkpt>
      <trkpt lat="48.6696" lon="2.51688">
        <ele>138.295</ele>
        <time>2018-11-01T10:55:37Z</time>
      </trkpt>
      <trkpt lat="48.66962" lon="2.51685">
        <ele>138.282</ele>
        <time>2018-11-01T10:55:39Z</time>
      </trkpt>
      <trkpt lat="48.66966" lon="2.51679">
        <ele>138.262</ele>
        <time>2018-11-01T10:55:42Z</time>
      </trkpt>
      <trkpt lat="48.66968" lon="2.51674">
        <ele>138.246</ele>
        <time>2018-11-01T10:55:44Z</time>
      </trkpt>
      <trkpt lat="48.66971" lon="2.51668">
        <ele>138.224</ele>
        <time>2018-11-01T10:55:47Z</time>
      </trkpt>
      <trkpt lat="48.66974" lon="2.51662">
        <ele>138.2</ele>
        <time>2018-11-01T10:55:50Z</time>
      </trkpt>
      <trkpt lat="48.66977" lon="2.51656">
        <ele>138.167</ele>
        <time>2018-11-01T10:55:54Z</time>
      </trkpt>
      <trkpt lat="48.66982" lon="2.5165">
        <ele>138.133</ele>
        <time>2018-11-01T10:55:58Z</time>
      </trkpt>
      <trkpt lat="48.66984" lon="2.51647">
        <ele>138.116</ele>
        <time>2018-11-01T10:56:00Z</time>
      </trkpt>
      <trkpt lat="48.66986" lon="2.51643">
        <ele>138.099</ele>
        <time>2018-11-01T10:56:02Z</time>
      </trkpt>
      <trkpt lat="48.66988" lon="2.51639">
        <ele>138.082</ele>
        <time>2018-11-01T10:56:04Z</time>
      </trkpt>
      <trkpt lat="48.6699" lon="2.51636">
        <ele>138.066</ele>
        <time>2018-11-01T10:56:06Z</time>
      </trkpt>
      <trkpt lat="48.66995" lon="2.51633">
        <ele>138.035</ele>
        <time>2018-11-01T10:56:10Z</time>
      </trkpt>
      <trkpt lat="48.66999" lon="2.51627">
        <ele>138.013</ele>
        <time>2018-11-01T10:56:13Z</time>
      </trkpt>
      <trkpt lat="48.67002" lon="2.51623">
        <ele>137.992</ele>
        <time>2018-11-01T10:56:16Z</time>
      </trkpt>
      <trkpt lat="48.67005" lon="2.5162">
        <ele>137.979</ele>
        <time>2018-11-01T10:56:18Z</time>
      </trkpt>
      <trkpt lat="48.6701" lon="2.51616">
        <ele>137.961</ele>
        <time>2018-11-01T10:56:21Z</time>
      </trkpt>
      <trkpt lat="48.67014" lon="2.5161">
        <ele>137.935</ele>
        <time>2018-11-01T10:56:25Z</time>
      </trkpt>
      <trkpt lat="48.67016" lon="2.51607">
        <ele>137.922</ele>
        <time>2018-11-01T10:56:27Z</time>
      </trkpt>
      <trkpt lat="48.67019" lon="2.516">
        <ele>137.901</ele>
        <time>2018-11-01T10:56:30Z</time>
      </trkpt>
      <trkpt lat="48.67022" lon="2.51593">
        <ele>137.879</ele>
        <time>2018-11-01T10:56:33Z</time>
      </trkpt>
      <trkpt lat="48.67025" lon="2.51588">
        <ele>137.857</ele>
        <time>2018-11-01T10:56:36Z</time>
      </trkpt>
      <trkpt lat="48.67028" lon="2.51585">
        <ele>137.842</ele>
        <time>2018-11-01T10:56:38Z</time>
      </trkpt>
      <trkpt lat="48.67033" lon="2.51577">
        <ele>137.802</ele>
        <time>2018-11-01T10:56:43Z</time>
      </trkpt>
      <trkpt lat="48.67037" lon="2.51571">
        <ele>137.779</ele>
        <time>2018-11-01T10:56:46Z</time>
      </trkpt>
      <trkpt lat="48.67042" lon="2.51566">
        <ele>137.756</ele>
        <time>2018-11-01T10:56:49Z</time>
      </trkpt>
      <trkpt lat="48.67045" lon="2.51563">
        <ele>137.742</ele>
        <time>2018-11-01T10:56:51Z</time>
      </trkpt>
      <trkpt lat="48.67048" lon="2.5156">
        <ele>137.727</ele>
        <time>2018-11-01T10:56:53Z</time>
      </trkpt>
      <trkpt lat="48.67052" lon="2.51556">
        <ele>137.703</ele>
        <time>2018-11-01T10:56:56Z</time>
      </trkpt>
      <trkpt lat="48.67055" lon="2.51551">
        <ele>137.681</ele>
        <time>2018-11-01T10:56:59Z</time>
      </trkpt>
      <trkpt lat="48.67059" lon="2.51547">
        <ele>137.659</ele>
        <time>2018-11-01T10:57:02Z</time>
      </trkpt>
      <trkpt lat="48.67062" lon="2.51543">
        <ele>137.638</ele>
        <time>2018-11-01T10:57:05Z</time>
      </trkpt>
      <trkpt lat="48.67066" lon="2.51538">
        <ele>137.619</ele>
        <time>2018-11-01T10:57:08Z</time>
      </trkpt>
      <trkpt lat="48.67069" lon="2.51533">
        <ele>137.601</ele>
        <time>2018-11-01T10:57:11Z</time>
      </trkpt>
      <trkpt lat="48.67074" lon="2.51528">
        <ele>137.578</ele>
        <time>2018-11-01T10:57:15Z</time>
      </trkpt>
      <trkpt lat="48.67077" lon="2.51526">
        <ele>137.569</ele>
        <time>2018-11-01T10:57:17Z</time>
      </trkpt>
      <trkpt lat="48.67079" lon="2.51523">
        <ele>137.559</ele>
        <time>2018-11-01T10:57:19Z</time>
      </trkpt>
      <trkpt lat="48.67083" lon="2.51519">
        <ele>137.546</ele>
        <time>2018-11-01T10:57:22Z</time>
      </trkpt>
      <trkpt lat="48.67086" lon="2.51516">
        <ele>137.537</ele>
        <time>2018-11-01T10:57:24Z</time>
      </trkpt>
      <trkpt lat="48.67091" lon="2.51514">
        <ele>137.525</ele>
        <time>2018-11-01T10:57:27Z</time>
      </trkpt>
      <trkpt lat="48.67095" lon="2.51508">
        <ele>137.511</ele>
        <time>2018-11-01T10:57:31Z</time>
      </trkpt>
      <trkpt lat="48.67099" lon="2.51505">
        <ele>137.497</ele>
        <time>2018-11-01T10:57:35Z</time>
      </trkpt>
      <trkpt lat="48.67103" lon="2.515">
        <ele>137.487</ele>
        <time>2018-11-01T10:57:38Z</time>
      </trkpt>
      <trkpt lat="48.67105" lon="2.51496">
        <ele>137.48</ele>
        <time>2018-11-01T10:57:40Z</time>
      </trkpt>
      <trkpt lat="48.67108" lon="2.51492">
        <ele>137.474</ele>
        <time>2018-11-01T10:57:42Z</time>
      </trkpt>
      <trkpt lat="48.67111" lon="2.51489">
        <ele>137.468</ele>
        <time>2018-11-01T10:57:44Z</time>
      </trkpt>
      <trkpt lat="48.67113" lon="2.51485">
        <ele>137.462</ele>
        <time>2018-11-01T10:57:46Z</time>
      </trkpt>
      <trkpt lat="48.67115" lon="2.51483">
        <ele>137.456</ele>
        <time>2018-11-01T10:57:48Z</time>
      </trkpt>
      <trkpt lat="48.67118" lon="2.51478">
        <ele>137.448</ele>
        <time>2018-11-01T10:57:51Z</time>
      </trkpt>
      <trkpt lat="48.67121" lon="2.51475">
        <ele>137.443</ele>
        <time>2018-11-01T10:57:53Z</time>
      </trkpt>
      <trkpt lat="48.67123" lon="2.51472">
        <ele>137.438</ele>
        <time>2018-11-01T10:57:55Z</time>
      </trkpt>
      <trkpt lat="48.67126" lon="2.51467">
        <ele>137.431</ele>
        <time>2018-11-01T10:57:58Z</time>
      </trkpt>
      <trkpt lat="48.6713" lon="2.5146">
        <ele>137.421</ele>
        <time>2018-11-01T10:58:02Z</time>
      </trkpt>
      <trkpt lat="48.67134" lon="2.51455">
        <ele>137.413</ele>
        <time>2018-11-01T10:58:05Z</time>
      </trkpt>
      <trkpt lat="48.67138" lon="2.51451">
        <ele>137.405</ele>
        <time>2018-11-01T10:58:08Z</time>
      </trkpt>
      <trkpt lat="48.67141" lon="2.51445">
        <ele>137.397</ele>
        <time>2018-11-01T10:58:11Z</time>
      </trkpt>
      <trkpt lat="48.67144" lon="2.51439">
        <ele>137.389</ele>
        <time>2018-11-01T10:58:14Z</time>
      </trkpt>
      <trkpt lat="48.67146" lon="2.51435">
        <ele>137.383</ele>
        <time>2018-11-01T10:58:16Z</time>
      </trkpt>
      <trkpt lat="48.67148" lon="2.51432">
        <ele>137.378</ele>
        <time>2018-11-01T10:58:18Z</time>
      </trkpt>
      <trkpt lat="48.6715" lon="2.51428">
        <ele>137.373</ele>
        <time>2018-11-01T10:58:20Z</time>
      </trkpt>
      <trkpt lat="48.67154" lon="2.51424">
        <ele>137.366</ele>
        <time>2018-11-01T10:58:23Z</time>
      </trkpt>
      <trkpt lat="48.67157" lon="2.51418">
        <ele>137.359</ele>
        <time>2018-11-01T10:58:26Z</time>
      </trkpt>
      <trkpt lat="48.6716" lon="2.51414">
        <ele>137.355</ele>
        <time>2018-11-01T10:58:28Z</time>
      </trkpt>
      <trkpt lat="48.67162" lon="2.51411">
        <ele>137.351</ele>
        <time>2018-11-01T10:58:30Z</time>
      </trkpt>
      <trkpt lat="48.67165" lon="2.51408">
        <ele>137.347</ele>
        <time>2018-11-01T10:58:32Z</time>
      </trkpt>
      <trkpt lat="48.67168" lon="2.51404">
        <ele>137.343</ele>
        <time>2018-11-01T10:58:34Z</time>
      </trkpt>
      <trkpt lat="48.6717" lon="2.51401">
        <ele>137.339</ele>
        <time>2018-11-01T10:58:36Z</time>
      </trkpt>
      <trkpt lat="48.67173" lon="2.51396">
        <ele>137.331</ele>
        <time>2018-11-01T10:58:39Z</time>
      </trkpt>
      <trkpt lat="48.67175" lon="2.51393">
        <ele>137.326</ele>
        <time>2018-11-01T10:58:41Z</time>
      </trkpt>
      <trkpt lat="48.67178" lon="2.51389">
        <ele>137.32</ele>
        <time>2018-11-01T10:58:43Z</time>
      </trkpt>
      <trkpt lat="48.67182" lon="2.51385">
        <ele>137.31</ele>
        <time>2018-11-01T10:58:46Z</time>
      </trkpt>
      <trkpt lat="48.67185" lon="2.51381">
        <ele>137.302</ele>
        <time>2018-11-01T10:58:48Z</time>
      </trkpt>
      <trkpt lat="48.67187" lon="2.51378">
        <ele>137.294</ele>
        <time>2018-11-01T10:58:50Z</time>
      </trkpt>
      <trkpt lat="48.6719" lon="2.51375">
        <ele>137.286</ele>
        <time>2018-11-01T10:58:52Z</time>
      </trkpt>
      <trkpt lat="48.67193" lon="2.51371">
        <ele>137.274</ele>
        <time>2018-11-01T10:58:55Z</time>
      </trkpt>
      <trkpt lat="48.67197" lon="2.51367">
        <ele>137.261</ele>
        <time>2018-11-01T10:58:58Z</time>
      </trkpt>
      <trkpt lat="48.672" lon="2.51364">
        <ele>137.253</ele>
        <time>2018-11-01T10:59:00Z</time>
      </trkpt>
      <trkpt lat="48.67203" lon="2.51359">
        <ele>137.241</ele>
        <time>2018-11-01T10:59:03Z</time>
      </trkpt>
      <trkpt lat="48.67207" lon="2.51355">
        <ele>137.229</ele>
        <time>2018-11-01T10:59:06Z</time>
      </trkpt>
      <trkpt lat="48.6721" lon="2.51353">
        <ele>137.222</ele>
        <time>2018-11-01T10:59:08Z</time>
      </trkpt>
      <trkpt lat="48.67215" lon="2.51346">
        <ele>137.207</ele>
        <time>2018-11-01T10:59:12Z</time>
      </trkpt>
      <trkpt lat="48.67217" lon="2.51343">
        <ele>137.2</ele>
        <time>2018-11-01T10:59:14Z</time>
      </trkpt>
      <trkpt lat="48.6722" lon="2.51338">
        <ele>137.19</ele>
        <time>2018-11-01T10:59:17Z</time>
      </trkpt>
      <trkpt lat="48.67222" lon="2.51334">
        <ele>137.183</ele>
        <time>2018-11-01T10:59:19Z</time>
      </trkpt>
      <trkpt lat="48.67225" lon="2.51329">
        <ele>137.175</ele>
        <time>2018-11-01T10:59:22Z</time>
      </trkpt>
      <trkpt lat="48.67229" lon="2.51324">
        <ele>137.168</ele>
        <time>2018-11-01T10:59:25Z</time>
      </trkpt>
      <trkpt lat="48.6723" lon="2.51321">
        <ele>137.158</ele>
        <time>2018-11-01T10:59:33Z</time>
      </trkpt>
      <trkpt lat="48.67235" lon="2.51317">
        <ele>137.15</ele>
        <time>2018-11-01T10:59:37Z</time>
      </trkpt>
      <trkpt lat="48.67239" lon="2.51311">
        <ele>137.143</ele>
        <time>2018-11-01T10:59:40Z</time>
      </trkpt>
      <trkpt lat="48.67242" lon="2.51306">
        <ele>137.136</ele>
        <time>2018-11-01T10:59:43Z</time>
      </trkpt>
      <trkpt lat="48.67247" lon="2.51301">
        <ele>137.128</ele>
        <time>2018-11-01T10:59:47Z</time>
      </trkpt>
      <trkpt lat="48.6725" lon="2.51298">
        <ele>137.125</ele>
        <time>2018-11-01T10:59:49Z</time>
      </trkpt>
      <trkpt lat="48.67252" lon="2.51295">
        <ele>137.122</ele>
        <time>2018-11-01T10:59:51Z</time>
      </trkpt>
      <trkpt lat="48.67255" lon="2.51293">
        <ele>137.118</ele>
        <time>2018-11-01T10:59:53Z</time>
      </trkpt>
      <trkpt lat="48.67257" lon="2.5129">
        <ele>137.115</ele>
        <time>2018-11-01T10:59:55Z</time>
      </trkpt>
      <trkpt lat="48.67261" lon="2.51285">
        <ele>137.109</ele>
        <time>2018-11-01T10:59:58Z</time>
      </trkpt>
      <trkpt lat="48.67263" lon="2.51282">
        <ele>137.104</ele>
        <time>2018-11-01T11:00:00Z</time>
      </trkpt>
      <trkpt lat="48.67268" lon="2.51276">
        <ele>137.095</ele>
        <time>2018-11-01T11:00:04Z</time>
      </trkpt>
      <trkpt lat="48.6727" lon="2.5127">
        <ele>137.086</ele>
        <time>2018-11-01T11:00:08Z</time>
      </trkpt>
      <trkpt lat="48.6727" lon="2.5127">
        <ele>137.086</ele>
        <time>2018-11-01T11:00:15Z</time>
      </trkpt>
      <trkpt lat="48.6727" lon="2.5127">
        <ele>84</ele>
        <time>2018-11-01T11:00:15Z</time>
      </trkpt>
      <trkpt lat="48.6727" lon="2.5127">
        <ele>84</ele>
        <time>2018-11-01T11:01:00Z</time>
      </trkpt>
      <trkpt lat="48.67287" lon="2.51239">
        <ele>137.113</ele>
        <time>2018-11-01T11:01:00Z</time>
      </trkpt>
      <trkpt lat="48.6729" lon="2.51234">
        <ele>137.12</ele>
        <time>2018-11-01T11:01:03Z</time>
      </trkpt>
      <trkpt lat="48.67294" lon="2.5123">
        <ele>137.125</ele>
        <time>2018-11-01T11:01:06Z</time>
      </trkpt>
      <trkpt lat="48.67297" lon="2.51223">
        <ele>137.13</ele>
        <time>2018-11-01T11:01:10Z</time>
      </trkpt>
      <trkpt lat="48.67299" lon="2.5122">
        <ele>137.132</ele>
        <time>2018-11-01T11:01:12Z</time>
      </trkpt>
      <trkpt lat="48.67303" lon="2.51215">
        <ele>137.133</ele>
        <time>2018-11-01T11:01:15Z</time>
      </trkpt>
      <trkpt lat="48.67306" lon="2.51211">
        <ele>137.134</ele>
        <time>2018-11-01T11:01:17Z</time>
      </trkpt>
      <trkpt lat="48.67309" lon="2.51209">
        <ele>137.134</ele>
        <time>2018-11-01T11:01:19Z</time>
      </trkpt>
      <trkpt lat="48.67311" lon="2.51206">
        <ele>137.134</ele>
        <time>2018-11-01T11:01:21Z</time>
      </trkpt>
      <trkpt lat="48.67316" lon="2.51201">
        <ele>137.134</ele>
        <time>2018-11-01T11:01:25Z</time>
      </trkpt>
      <trkpt lat="48.67318" lon="2.51198">
        <ele>137.134</ele>
        <time>2018-11-01T11:01:27Z</time>
      </trkpt>
      <trkpt lat="48.67322" lon="2.51194">
        <ele>137.131</ele>
        <time>2018-11-01T11:01:31Z</time>
      </trkpt>
      <trkpt lat="48.67326" lon="2.5119">
        <ele>137.127</ele>
        <time>2018-11-01T11:01:34Z</time>
      </trkpt>
      <trkpt lat="48.67331" lon="2.51187">
        <ele>137.119</ele>
        <time>2018-11-01T11:01:38Z</time>
      </trkpt>
      <trkpt lat="48.67335" lon="2.51181">
        <ele>137.109</ele>
        <time>2018-11-01T11:01:42Z</time>
      </trkpt>
      <trkpt lat="48.67339" lon="2.51176">
        <ele>137.098</ele>
        <time>2018-11-01T11:01:45Z</time>
      </trkpt>
      <trkpt lat="48.67342" lon="2.51171">
        <ele>137.086</ele>
        <time>2018-11-01T11:01:48Z</time>
      </trkpt>
      <trkpt lat="48.67345" lon="2.51164">
        <ele>137.072</ele>
        <time>2018-11-01T11:01:51Z</time>
      </trkpt>
      <trkpt lat="48.67347" lon="2.5116">
        <ele>137.061</ele>
        <time>2018-11-01T11:01:53Z</time>
      </trkpt>
      <trkpt lat="48.67351" lon="2.51155">
        <ele>137.044</ele>
        <time>2018-11-01T11:01:56Z</time>
      </trkpt>
      <trkpt lat="48.67353" lon="2.51153">
        <ele>137.033</ele>
        <time>2018-11-01T11:01:58Z</time>
      </trkpt>
      <trkpt lat="48.67356" lon="2.51149">
        <ele>137.014</ele>
        <time>2018-11-01T11:02:01Z</time>
      </trkpt>
      <trkpt lat="48.67359" lon="2.51145">
        <ele>137.002</ele>
        <time>2018-11-01T11:02:03Z</time>
      </trkpt>
      <trkpt lat="48.67361" lon="2.51142">
        <ele>136.99</ele>
        <time>2018-11-01T11:02:05Z</time>
      </trkpt>
      <trkpt lat="48.67365" lon="2.51139">
        <ele>136.972</ele>
        <time>2018-11-01T11:02:08Z</time>
      </trkpt>
      <trkpt lat="48.67368" lon="2.51134">
        <ele>136.955</ele>
        <time>2018-11-01T11:02:11Z</time>
      </trkpt>
      <trkpt lat="48.67371" lon="2.51128">
        <ele>136.939</ele>
        <time>2018-11-01T11:02:14Z</time>
      </trkpt>
      <trkpt lat="48.67375" lon="2.51121">
        <ele>136.916</ele>
        <time>2018-11-01T11:02:18Z</time>
      </trkpt>
      <trkpt lat="48.67377" lon="2.51117">
        <ele>136.898</ele>
        <time>2018-11-01T11:02:21Z</time>
      </trkpt>
      <trkpt lat="48.67379" lon="2.51114">
        <ele>136.886</ele>
        <time>2018-11-01T11:02:23Z</time>
      </trkpt>
      <trkpt lat="48.67383" lon="2.51108">
        <ele>136.86</ele>
        <time>2018-11-01T11:02:27Z</time>
      </trkpt>
      <trkpt lat="48.67387" lon="2.51104">
        <ele>136.839</ele>
        <time>2018-11-01T11:02:30Z</time>
      </trkpt>
      <trkpt lat="48.67389" lon="2.51101">
        <ele>136.826</ele>
        <time>2018-11-01T11:02:32Z</time>
      </trkpt>
      <trkpt lat="48.67391" lon="2.51099">
        <ele>136.814</ele>
        <time>2018-11-01T11:02:34Z</time>
      </trkpt>
      <trkpt lat="48.67394" lon="2.51096">
        <ele>136.802</ele>
        <time>2018-11-01T11:02:36Z</time>
      </trkpt>
      <trkpt lat="48.67397" lon="2.51093">
        <ele>136.791</ele>
        <time>2018-11-01T11:02:38Z</time>
      </trkpt>
      <trkpt lat="48.674" lon="2.51087">
        <ele>136.774</ele>
        <time>2018-11-01T11:02:41Z</time>
      </trkpt>
      <trkpt lat="48.67403" lon="2.51082">
        <ele>136.758</ele>
        <time>2018-11-01T11:02:44Z</time>
      </trkpt>
      <trkpt lat="48.67407" lon="2.51077">
        <ele>136.74</ele>
        <time>2018-11-01T11:02:47Z</time>
      </trkpt>
      <trkpt lat="48.6741" lon="2.51072">
        <ele>136.721</ele>
        <time>2018-11-01T11:02:50Z</time>
      </trkpt>
      <trkpt lat="48.67414" lon="2.51067">
        <ele>136.696</ele>
        <time>2018-11-01T11:02:54Z</time>
      </trkpt>
      <trkpt lat="48.67419" lon="2.51064">
        <ele>136.671</ele>
        <time>2018-11-01T11:02:58Z</time>
      </trkpt>
      <trkpt lat="48.67424" lon="2.5106">
        <ele>136.654</ele>
        <time>2018-11-01T11:03:01Z</time>
      </trkpt>
      <trkpt lat="48.67427" lon="2.51057">
        <ele>136.642</ele>
        <time>2018-11-01T11:03:03Z</time>
      </trkpt>
      <trkpt lat="48.67431" lon="2.51052">
        <ele>136.62</ele>
        <time>2018-11-01T11:03:07Z</time>
      </trkpt>
      <trkpt lat="48.67434" lon="2.51049">
        <ele>136.61</ele>
        <time>2018-11-01T11:03:09Z</time>
      </trkpt>
      <trkpt lat="48.67437" lon="2.51046">
        <ele>136.6</ele>
        <time>2018-11-01T11:03:11Z</time>
      </trkpt>
      <trkpt lat="48.6744" lon="2.51042">
        <ele>136.585</ele>
        <time>2018-11-01T11:03:14Z</time>
      </trkpt>
      <trkpt lat="48.67445" lon="2.51038">
        <ele>136.566</ele>
        <time>2018-11-01T11:03:18Z</time>
      </trkpt>
      <trkpt lat="48.67449" lon="2.51035">
        <ele>136.556</ele>
        <time>2018-11-01T11:03:20Z</time>
      </trkpt>
      <trkpt lat="48.67452" lon="2.51031">
        <ele>136.546</ele>
        <time>2018-11-01T11:03:22Z</time>
      </trkpt>
      <trkpt lat="48.67455" lon="2.51024">
        <ele>136.536</ele>
        <time>2018-11-01T11:03:24Z</time>
      </trkpt>
      <trkpt lat="48.67456" lon="2.5102">
        <ele>136.524</ele>
        <time>2018-11-01T11:03:26Z</time>
      </trkpt>
      <trkpt lat="48.67459" lon="2.51014">
        <ele>136.506</ele>
        <time>2018-11-01T11:03:29Z</time>
      </trkpt>
      <trkpt lat="48.67461" lon="2.51011">
        <ele>136.493</ele>
        <time>2018-11-01T11:03:31Z</time>
      </trkpt>
      <trkpt lat="48.67465" lon="2.51005">
        <ele>136.467</ele>
        <time>2018-11-01T11:03:35Z</time>
      </trkpt>
      <trkpt lat="48.67467" lon="2.51002">
        <ele>136.453</ele>
        <time>2018-11-01T11:03:37Z</time>
      </trkpt>
      <trkpt lat="48.67469" lon="2.50999">
        <ele>136.439</ele>
        <time>2018-11-01T11:03:39Z</time>
      </trkpt>
      <trkpt lat="48.67471" lon="2.50996">
        <ele>136.425</ele>
        <time>2018-11-01T11:03:41Z</time>
      </trkpt>
      <trkpt lat="48.67473" lon="2.50992">
        <ele>136.41</ele>
        <time>2018-11-01T11:03:43Z</time>
      </trkpt>
      <trkpt lat="48.67478" lon="2.50987">
        <ele>136.38</ele>
        <time>2018-11-01T11:03:47Z</time>
      </trkpt>
      <trkpt lat="48.67481" lon="2.50981">
        <ele>136.354</ele>
        <time>2018-11-01T11:03:50Z</time>
      </trkpt>
      <trkpt lat="48.67483" lon="2.50976">
        <ele>136.337</ele>
        <time>2018-11-01T11:03:52Z</time>
      </trkpt>
      <trkpt lat="48.67488" lon="2.50971">
        <ele>136.304</ele>
        <time>2018-11-01T11:03:56Z</time>
      </trkpt>
      <trkpt lat="48.6749" lon="2.50968">
        <ele>136.287</ele>
        <time>2018-11-01T11:03:58Z</time>
      </trkpt>
      <trkpt lat="48.67493" lon="2.50965">
        <ele>136.272</ele>
        <time>2018-11-01T11:04:00Z</time>
      </trkpt>
      <trkpt lat="48.67499" lon="2.50962">
        <ele>136.25</ele>
        <time>2018-11-01T11:04:03Z</time>
      </trkpt>
      <trkpt lat="48.67504" lon="2.50957">
        <ele>136.224</ele>
        <time>2018-11-01T11:04:07Z</time>
      </trkpt>
      <trkpt lat="48.67507" lon="2.50952">
        <ele>136.205</ele>
        <time>2018-11-01T11:04:10Z</time>
      </trkpt>
      <trkpt lat="48.67509" lon="2.50948">
        <ele>136.192</ele>
        <time>2018-11-01T11:04:12Z</time>
      </trkpt>
      <trkpt lat="48.67512" lon="2.50944">
        <ele>136.179</ele>
        <time>2018-11-01T11:04:14Z</time>
      </trkpt>
      <trkpt lat="48.67516" lon="2.50939">
        <ele>136.157</ele>
        <time>2018-11-01T11:04:18Z</time>
      </trkpt>
      <trkpt lat="48.6752" lon="2.50933">
        <ele>136.137</ele>
        <time>2018-11-01T11:04:22Z</time>
      </trkpt>
      <trkpt lat="48.67522" lon="2.5093">
        <ele>136.128</ele>
        <time>2018-11-01T11:04:24Z</time>
      </trkpt>
      <trkpt lat="48.67524" lon="2.50926">
        <ele>136.119</ele>
        <time>2018-11-01T11:04:26Z</time>
      </trkpt>
      <trkpt lat="48.67528" lon="2.50922">
        <ele>136.107</ele>
        <time>2018-11-01T11:04:29Z</time>
      </trkpt>
      <trkpt lat="48.67531" lon="2.50914">
        <ele>136.095</ele>
        <time>2018-11-01T11:04:32Z</time>
      </trkpt>
      <trkpt lat="48.67535" lon="2.50908">
        <ele>136.084</ele>
        <time>2018-11-01T11:04:36Z</time>
      </trkpt>
      <trkpt lat="48.6754" lon="2.50903">
        <ele>136.074</ele>
        <time>2018-11-01T11:04:40Z</time>
      </trkpt>
      <trkpt lat="48.67543" lon="2.50899">
        <ele>136.068</ele>
        <time>2018-11-01T11:04:43Z</time>
      </trkpt>
      <trkpt lat="48.67548" lon="2.50895">
        <ele>136.063</ele>
        <time>2018-11-01T11:04:46Z</time>
      </trkpt>
      <trkpt lat="48.67553" lon="2.50889">
        <ele>136.059</ele>
        <time>2018-11-01T11:04:49Z</time>
      </trkpt>
      <trkpt lat="48.67555" lon="2.50886">
        <ele>136.057</ele>
        <time>2018-11-01T11:04:51Z</time>
      </trkpt>
      <trkpt lat="48.67559" lon="2.5088">
        <ele>136.053</ele>
        <time>2018-11-01T11:04:55Z</time>
      </trkpt>
      <trkpt lat="48.67563" lon="2.50875">
        <ele>136.048</ele>
        <time>2018-11-01T11:04:59Z</time>
      </trkpt>
      <trkpt lat="48.67566" lon="2.50869">
        <ele>136.04</ele>
        <time>2018-11-01T11:05:03Z</time>
      </trkpt>
      <trkpt lat="48.67569" lon="2.50864">
        <ele>136.031</ele>
        <time>2018-11-01T11:05:06Z</time>
      </trkpt>
      <trkpt lat="48.67571" lon="2.5086">
        <ele>136.024</ele>
        <time>2018-11-01T11:05:08Z</time>
      </trkpt>
      <trkpt lat="48.67575" lon="2.50855">
        <ele>136.014</ele>
        <time>2018-11-01T11:05:11Z</time>
      </trkpt>
      <trkpt lat="48.67578" lon="2.50849">
        <ele>136.003</ele>
        <time>2018-11-01T11:05:14Z</time>
      </trkpt>
      <trkpt lat="48.6758" lon="2.50846">
        <ele>135.994</ele>
        <time>2018-11-01T11:05:16Z</time>
      </trkpt>
      <trkpt lat="48.67583" lon="2.50839">
        <ele>135.98</ele>
        <time>2018-11-01T11:05:19Z</time>
      </trkpt>
      <trkpt lat="48.67586" lon="2.50834">
        <ele>135.966</ele>
        <time>2018-11-01T11:05:22Z</time>
      </trkpt>
      <trkpt lat="48.67588" lon="2.50831">
        <ele>135.957</ele>
        <time>2018-11-01T11:05:24Z</time>
      </trkpt>
      <trkpt lat="48.6759" lon="2.50829">
        <ele>135.948</ele>
        <time>2018-11-01T11:05:26Z</time>
      </trkpt>
      <trkpt lat="48.67594" lon="2.50825">
        <ele>135.934</ele>
        <time>2018-11-01T11:05:29Z</time>
      </trkpt>
      <trkpt lat="48.67597" lon="2.50822">
        <ele>135.924</ele>
        <time>2018-11-01T11:05:31Z</time>
      </trkpt>
      <trkpt lat="48.67599" lon="2.5082">
        <ele>135.915</ele>
        <time>2018-11-01T11:05:33Z</time>
      </trkpt>
      <trkpt lat="48.67602" lon="2.50815">
        <ele>135.9</ele>
        <time>2018-11-01T11:05:36Z</time>
      </trkpt>
      <trkpt lat="48.67605" lon="2.50809">
        <ele>135.883</ele>
        <time>2018-11-01T11:05:39Z</time>
      </trkpt>
      <trkpt lat="48.6761" lon="2.50807">
        <ele>135.862</ele>
        <time>2018-11-01T11:05:42Z</time>
      </trkpt>
      <trkpt lat="48.67614" lon="2.50802">
        <ele>135.841</ele>
        <time>2018-11-01T11:05:45Z</time>
      </trkpt>
      <trkpt lat="48.67617" lon="2.50798">
        <ele>135.827</ele>
        <time>2018-11-01T11:05:47Z</time>
      </trkpt>
      <trkpt lat="48.67621" lon="2.50794">
        <ele>135.805</ele>
        <time>2018-11-01T11:05:50Z</time>
      </trkpt>
      <trkpt lat="48.67626" lon="2.50789">
        <ele>135.784</ele>
        <time>2018-11-01T11:05:53Z</time>
      </trkpt>
      <trkpt lat="48.6763" lon="2.50784">
        <ele>135.758</ele>
        <time>2018-11-01T11:05:57Z</time>
      </trkpt>
      <trkpt lat="48.67632" lon="2.50781">
        <ele>135.745</ele>
        <time>2018-11-01T11:05:59Z</time>
      </trkpt>
      <trkpt lat="48.67634" lon="2.50777">
        <ele>135.732</ele>
        <time>2018-11-01T11:06:01Z</time>
      </trkpt>
      <trkpt lat="48.67638" lon="2.50772">
        <ele>135.713</ele>
        <time>2018-11-01T11:06:04Z</time>
      </trkpt>
      <trkpt lat="48.67642" lon="2.50767">
        <ele>135.695</ele>
        <time>2018-11-01T11:06:07Z</time>
      </trkpt>
      <trkpt lat="48.67644" lon="2.50764">
        <ele>135.682</ele>
        <time>2018-11-01T11:06:09Z</time>
      </trkpt>
      <trkpt lat="48.67646" lon="2.50761">
        <ele>135.669</ele>
        <time>2018-11-01T11:06:11Z</time>
      </trkpt>
      <trkpt lat="48.6765" lon="2.50757">
        <ele>135.649</ele>
        <time>2018-11-01T11:06:14Z</time>
      </trkpt>
      <trkpt lat="48.67653" lon="2.50751">
        <ele>135.627</ele>
        <time>2018-11-01T11:06:17Z</time>
      </trkpt>
      <trkpt lat="48.67657" lon="2.50745">
        <ele>135.595</ele>
        <time>2018-11-01T11:06:21Z</time>
      </trkpt>
      <trkpt lat="48.67659" lon="2.50739">
        <ele>135.568</ele>
        <time>2018-11-01T11:06:24Z</time>
      </trkpt>
      <trkpt lat="48.67663" lon="2.50733">
        <ele>135.542</ele>
        <time>2018-11-01T11:06:27Z</time>
      </trkpt>
      <trkpt lat="48.67666" lon="2.5073">
        <ele>135.524</ele>
        <time>2018-11-01T11:06:29Z</time>
      </trkpt>
      <trkpt lat="48.6767" lon="2.50728">
        <ele>135.497</ele>
        <time>2018-11-01T11:06:32Z</time>
      </trkpt>
      <trkpt lat="48.67675" lon="2.50723">
        <ele>135.469</ele>
        <time>2018-11-01T11:06:35Z</time>
      </trkpt>
      <trkpt lat="48.67677" lon="2.5072">
        <ele>135.461</ele>
        <time>2018-11-01T11:06:36Z</time>
      </trkpt>
      <trkpt lat="48.67683" lon="2.50715">
        <ele>135.437</ele>
        <time>2018-11-01T11:06:39Z</time>
      </trkpt>
      <trkpt lat="48.67687" lon="2.5071">
        <ele>135.415</ele>
        <time>2018-11-01T11:06:42Z</time>
      </trkpt>
      <trkpt lat="48.67689" lon="2.50706">
        <ele>135.402</ele>
        <time>2018-11-01T11:06:44Z</time>
      </trkpt>
      <trkpt lat="48.67692" lon="2.50701">
        <ele>135.385</ele>
        <time>2018-11-01T11:06:47Z</time>
      </trkpt>
      <trkpt lat="48.67695" lon="2.50694">
        <ele>135.366</ele>
        <time>2018-11-01T11:06:51Z</time>
      </trkpt>
      <trkpt lat="48.67699" lon="2.5069">
        <ele>135.356</ele>
        <time>2018-11-01T11:06:54Z</time>
      </trkpt>
      <trkpt lat="48.67703" lon="2.50685">
        <ele>135.349</ele>
        <time>2018-11-01T11:06:58Z</time>
      </trkpt>
      <trkpt lat="48.67706" lon="2.50682">
        <ele>135.347</ele>
        <time>2018-11-01T11:07:00Z</time>
      </trkpt>
      <trkpt lat="48.67708" lon="2.50679">
        <ele>135.345</ele>
        <time>2018-11-01T11:07:02Z</time>
      </trkpt>
      <trkpt lat="48.67711" lon="2.50674">
        <ele>135.343</ele>
        <time>2018-11-01T11:07:05Z</time>
      </trkpt>
      <trkpt lat="48.67715" lon="2.5067">
        <ele>135.341</ele>
        <time>2018-11-01T11:07:08Z</time>
      </trkpt>
      <trkpt lat="48.67719" lon="2.50665">
        <ele>135.34</ele>
        <time>2018-11-01T11:07:12Z</time>
      </trkpt>
      <trkpt lat="48.67723" lon="2.5066">
        <ele>135.339</ele>
        <time>2018-11-01T11:07:15Z</time>
      </trkpt>
      <trkpt lat="48.67725" lon="2.50657">
        <ele>135.338</ele>
        <time>2018-11-01T11:07:17Z</time>
      </trkpt>
      <trkpt lat="48.67727" lon="2.50654">
        <ele>135.335</ele>
        <time>2018-11-01T11:07:19Z</time>
      </trkpt>
      <trkpt lat="48.6773" lon="2.5065">
        <ele>135.331</ele>
        <time>2018-11-01T11:07:22Z</time>
      </trkpt>
      <trkpt lat="48.67734" lon="2.50643">
        <ele>135.322</ele>
        <time>2018-11-01T11:07:26Z</time>
      </trkpt>
      <trkpt lat="48.67736" lon="2.50639">
        <ele>135.317</ele>
        <time>2018-11-01T11:07:28Z</time>
      </trkpt>
      <trkpt lat="48.67738" lon="2.50636">
        <ele>135.311</ele>
        <time>2018-11-01T11:07:30Z</time>
      </trkpt>
      <trkpt lat="48.67741" lon="2.50631">
        <ele>135.3</ele>
        <time>2018-11-01T11:07:33Z</time>
      </trkpt>
      <trkpt lat="48.67745" lon="2.50627">
        <ele>135.289</ele>
        <time>2018-11-01T11:07:36Z</time>
      </trkpt>
      <trkpt lat="48.67747" lon="2.50625">
        <ele>135.281</ele>
        <time>2018-11-01T11:07:38Z</time>
      </trkpt>
      <trkpt lat="48.67751" lon="2.5062">
        <ele>135.27</ele>
        <time>2018-11-01T11:07:41Z</time>
      </trkpt>
      <trkpt lat="48.67755" lon="2.50614">
        <ele>135.26</ele>
        <time>2018-11-01T11:07:44Z</time>
      </trkpt>
      <trkpt lat="48.67758" lon="2.5061">
        <ele>135.253</ele>
        <time>2018-11-01T11:07:46Z</time>
      </trkpt>
      <trkpt lat="48.67763" lon="2.50605">
        <ele>135.247</ele>
        <time>2018-11-01T11:07:49Z</time>
      </trkpt>
      <trkpt lat="48.67768" lon="2.506">
        <ele>135.241</ele>
        <time>2018-11-01T11:07:53Z</time>
      </trkpt>
      <trkpt lat="48.6777" lon="2.50597">
        <ele>135.239</ele>
        <time>2018-11-01T11:07:55Z</time>
      </trkpt>
      <trkpt lat="48.67772" lon="2.50594">
        <ele>135.237</ele>
        <time>2018-11-01T11:07:57Z</time>
      </trkpt>
      <trkpt lat="48.67775" lon="2.50588">
        <ele>135.234</ele>
        <time>2018-11-01T11:08:00Z</time>
      </trkpt>
      <trkpt lat="48.67777" lon="2.50586">
        <ele>135.232</ele>
        <time>2018-11-01T11:08:02Z</time>
      </trkpt>
      <trkpt lat="48.6778" lon="2.50583">
        <ele>135.23</ele>
        <time>2018-11-01T11:08:04Z</time>
      </trkpt>
      <trkpt lat="48.67782" lon="2.5058">
        <ele>135.227</ele>
        <time>2018-11-01T11:08:06Z</time>
      </trkpt>
      <trkpt lat="48.67784" lon="2.50576">
        <ele>135.224</ele>
        <time>2018-11-01T11:08:08Z</time>
      </trkpt>
      <trkpt lat="48.67789" lon="2.50572">
        <ele>135.222</ele>
        <time>2018-11-01T11:08:11Z</time>
      </trkpt>
      <trkpt lat="48.67792" lon="2.50566">
        <ele>135.221</ele>
        <time>2018-11-01T11:08:14Z</time>
      </trkpt>
      <trkpt lat="48.67797" lon="2.50562">
        <ele>135.223</ele>
        <time>2018-11-01T11:08:17Z</time>
      </trkpt>
      <trkpt lat="48.67802" lon="2.50559">
        <ele>135.226</ele>
        <time>2018-11-01T11:08:20Z</time>
      </trkpt>
      <trkpt lat="48.67807" lon="2.50554">
        <ele>135.231</ele>
        <time>2018-11-01T11:08:24Z</time>
      </trkpt>
      <trkpt lat="48.67811" lon="2.5055">
        <ele>135.235</ele>
        <time>2018-11-01T11:08:26Z</time>
      </trkpt>
      <trkpt lat="48.67814" lon="2.50547">
        <ele>135.24</ele>
        <time>2018-11-01T11:08:28Z</time>
      </trkpt>
      <trkpt lat="48.67817" lon="2.50545">
        <ele>135.246</ele>
        <time>2018-11-01T11:08:30Z</time>
      </trkpt>
      <trkpt lat="48.6782" lon="2.50542">
        <ele>135.253</ele>
        <time>2018-11-01T11:08:32Z</time>
      </trkpt>
      <trkpt lat="48.67823" lon="2.50539">
        <ele>135.261</ele>
        <time>2018-11-01T11:08:34Z</time>
      </trkpt>
      <trkpt lat="48.67826" lon="2.50536">
        <ele>135.27</ele>
        <time>2018-11-01T11:08:36Z</time>
      </trkpt>
      <trkpt lat="48.6783" lon="2.50531">
        <ele>135.284</ele>
        <time>2018-11-01T11:08:39Z</time>
      </trkpt>
      <trkpt lat="48.67832" lon="2.50528">
        <ele>135.293</ele>
        <time>2018-11-01T11:08:41Z</time>
      </trkpt>
      <trkpt lat="48.67835" lon="2.50524">
        <ele>135.306</ele>
        <time>2018-11-01T11:08:44Z</time>
      </trkpt>
      <trkpt lat="48.67834" lon="2.50514">
        <ele>135.32</ele>
        <time>2018-11-01T11:08:48Z</time>
      </trkpt>
      <trkpt lat="48.67833" lon="2.50505">
        <ele>135.33</ele>
        <time>2018-11-01T11:08:51Z</time>
      </trkpt>
      <trkpt lat="48.67836" lon="2.50499">
        <ele>135.339</ele>
        <time>2018-11-01T11:08:55Z</time>
      </trkpt>
      <trkpt lat="48.6784" lon="2.50496">
        <ele>135.345</ele>
        <time>2018-11-01T11:08:58Z</time>
      </trkpt>
      <trkpt lat="48.67846" lon="2.50493">
        <ele>135.35</ele>
        <time>2018-11-01T11:09:02Z</time>
      </trkpt>
      <trkpt lat="48.6785" lon="2.50488">
        <ele>135.355</ele>
        <time>2018-11-01T11:09:05Z</time>
      </trkpt>
      <trkpt lat="48.67854" lon="2.50482">
        <ele>135.36</ele>
        <time>2018-11-01T11:09:08Z</time>
      </trkpt>
      <trkpt lat="48.67857" lon="2.50478">
        <ele>135.364</ele>
        <time>2018-11-01T11:09:10Z</time>
      </trkpt>
      <trkpt lat="48.67859" lon="2.50474">
        <ele>135.368</ele>
        <time>2018-11-01T11:09:12Z</time>
      </trkpt>
      <trkpt lat="48.67864" lon="2.5047">
        <ele>135.378</ele>
        <time>2018-11-01T11:09:16Z</time>
      </trkpt>
      <trkpt lat="48.67868" lon="2.50464">
        <ele>135.383</ele>
        <time>2018-11-01T11:09:19Z</time>
      </trkpt>
      <trkpt lat="48.6787" lon="2.50461">
        <ele>135.386</ele>
        <time>2018-11-01T11:09:21Z</time>
      </trkpt>
      <trkpt lat="48.67875" lon="2.50457">
        <ele>135.391</ele>
        <time>2018-11-01T11:09:24Z</time>
      </trkpt>
      <trkpt lat="48.67879" lon="2.5045">
        <ele>135.399</ele>
        <time>2018-11-01T11:09:27Z</time>
      </trkpt>
      <trkpt lat="48.67882" lon="2.50445">
        <ele>135.41</ele>
        <time>2018-11-01T11:09:30Z</time>
      </trkpt>
      <trkpt lat="48.67886" lon="2.5044">
        <ele>135.424</ele>
        <time>2018-11-01T11:09:33Z</time>
      </trkpt>
      <trkpt lat="48.67888" lon="2.50438">
        <ele>135.43</ele>
        <time>2018-11-01T11:09:34Z</time>
      </trkpt>
      <trkpt lat="48.67892" lon="2.50433">
        <ele>135.449</ele>
        <time>2018-11-01T11:09:37Z</time>
      </trkpt>
      <trkpt lat="48.67894" lon="2.5043">
        <ele>135.463</ele>
        <time>2018-11-01T11:09:39Z</time>
      </trkpt>
      <trkpt lat="48.67898" lon="2.50425">
        <ele>135.493</ele>
        <time>2018-11-01T11:09:43Z</time>
      </trkpt>
      <trkpt lat="48.679" lon="2.50422">
        <ele>135.508</ele>
        <time>2018-11-01T11:09:45Z</time>
      </trkpt>
      <trkpt lat="48.67903" lon="2.50415">
        <ele>135.541</ele>
        <time>2018-11-01T11:09:49Z</time>
      </trkpt>
      <trkpt lat="48.67905" lon="2.5041">
        <ele>135.565</ele>
        <time>2018-11-01T11:09:52Z</time>
      </trkpt>
      <trkpt lat="48.67907" lon="2.50405">
        <ele>135.586</ele>
        <time>2018-11-01T11:09:55Z</time>
      </trkpt>
      <trkpt lat="48.67908" lon="2.50401">
        <ele>135.598</ele>
        <time>2018-11-01T11:09:57Z</time>
      </trkpt>
      <trkpt lat="48.67912" lon="2.50397">
        <ele>135.619</ele>
        <time>2018-11-01T11:10:01Z</time>
      </trkpt>
      <trkpt lat="48.67915" lon="2.50395">
        <ele>135.627</ele>
        <time>2018-11-01T11:10:03Z</time>
      </trkpt>
      <trkpt lat="48.67918" lon="2.50387">
        <ele>135.642</ele>
        <time>2018-11-01T11:10:08Z</time>
      </trkpt>
      <trkpt lat="48.67922" lon="2.50382">
        <ele>135.647</ele>
        <time>2018-11-01T11:10:11Z</time>
      </trkpt>
      <trkpt lat="48.67924" lon="2.50378">
        <ele>135.65</ele>
        <time>2018-11-01T11:10:13Z</time>
      </trkpt>
      <trkpt lat="48.67928" lon="2.50373">
        <ele>135.651</ele>
        <time>2018-11-01T11:10:15Z</time>
      </trkpt>
      <trkpt lat="48.6793" lon="2.5037">
        <ele>135.653</ele>
        <time>2018-11-01T11:10:17Z</time>
      </trkpt>
      <trkpt lat="48.67933" lon="2.50367">
        <ele>135.654</ele>
        <time>2018-11-01T11:10:19Z</time>
      </trkpt>
      <trkpt lat="48.67939" lon="2.50364">
        <ele>135.656</ele>
        <time>2018-11-01T11:10:22Z</time>
      </trkpt>
      <trkpt lat="48.67944" lon="2.5036">
        <ele>135.656</ele>
        <time>2018-11-01T11:10:25Z</time>
      </trkpt>
      <trkpt lat="48.67949" lon="2.50357">
        <ele>135.656</ele>
        <time>2018-11-01T11:10:28Z</time>
      </trkpt>
      <trkpt lat="48.67954" lon="2.50352">
        <ele>135.658</ele>
        <time>2018-11-01T11:10:31Z</time>
      </trkpt>
      <trkpt lat="48.67957" lon="2.50347">
        <ele>135.659</ele>
        <time>2018-11-01T11:10:34Z</time>
      </trkpt>
      <trkpt lat="48.67959" lon="2.50345">
        <ele>135.66</ele>
        <time>2018-11-01T11:10:36Z</time>
      </trkpt>
      <trkpt lat="48.67961" lon="2.50342">
        <ele>135.661</ele>
        <time>2018-11-01T11:10:38Z</time>
      </trkpt>
      <trkpt lat="48.67964" lon="2.50337">
        <ele>135.664</ele>
        <time>2018-11-01T11:10:41Z</time>
      </trkpt>
      <trkpt lat="48.67967" lon="2.50334">
        <ele>135.666</ele>
        <time>2018-11-01T11:10:43Z</time>
      </trkpt>
      <trkpt lat="48.67969" lon="2.50331">
        <ele>135.669</ele>
        <time>2018-11-01T11:10:45Z</time>
      </trkpt>
      <trkpt lat="48.67971" lon="2.50327">
        <ele>135.671</ele>
        <time>2018-11-01T11:10:47Z</time>
      </trkpt>
      <trkpt lat="48.67975" lon="2.50321">
        <ele>135.675</ele>
        <time>2018-11-01T11:10:50Z</time>
      </trkpt>
      <trkpt lat="48.67979" lon="2.50316">
        <ele>135.68</ele>
        <time>2018-11-01T11:10:53Z</time>
      </trkpt>
      <trkpt lat="48.67982" lon="2.5031">
        <ele>135.684</ele>
        <time>2018-11-01T11:10:57Z</time>
      </trkpt>
      <trkpt lat="48.67986" lon="2.50305">
        <ele>135.687</ele>
        <time>2018-11-01T11:11:00Z</time>
      </trkpt>
      <trkpt lat="48.67988" lon="2.50302">
        <ele>135.688</ele>
        <time>2018-11-01T11:11:02Z</time>
      </trkpt>
      <trkpt lat="48.6799" lon="2.50299">
        <ele>135.688</ele>
        <time>2018-11-01T11:11:04Z</time>
      </trkpt>
      <trkpt lat="48.67993" lon="2.50296">
        <ele>135.688</ele>
        <time>2018-11-01T11:11:06Z</time>
      </trkpt>
      <trkpt lat="48.67996" lon="2.50294">
        <ele>135.686</ele>
        <time>2018-11-01T11:11:08Z</time>
      </trkpt>
      <trkpt lat="48.67999" lon="2.5029">
        <ele>135.685</ele>
        <time>2018-11-01T11:11:10Z</time>
      </trkpt>
      <trkpt lat="48.68004" lon="2.50284">
        <ele>135.684</ele>
        <time>2018-11-01T11:11:13Z</time>
      </trkpt>
      <trkpt lat="48.68006" lon="2.5028">
        <ele>135.684</ele>
        <time>2018-11-01T11:11:15Z</time>
      </trkpt>
      <trkpt lat="48.68009" lon="2.50277">
        <ele>135.683</ele>
        <time>2018-11-01T11:11:17Z</time>
      </trkpt>
      <trkpt lat="48.68011" lon="2.50274">
        <ele>135.682</ele>
        <time>2018-11-01T11:11:19Z</time>
      </trkpt>
      <trkpt lat="48.68015" lon="2.50268">
        <ele>135.678</ele>
        <time>2018-11-01T11:11:23Z</time>
      </trkpt>
      <trkpt lat="48.68018" lon="2.50266">
        <ele>135.675</ele>
        <time>2018-11-01T11:11:25Z</time>
      </trkpt>
      <trkpt lat="48.68022" lon="2.50259">
        <ele>135.665</ele>
        <time>2018-11-01T11:11:29Z</time>
      </trkpt>
      <trkpt lat="48.68026" lon="2.50255">
        <ele>135.658</ele>
        <time>2018-11-01T11:11:32Z</time>
      </trkpt>
      <trkpt lat="48.68028" lon="2.50252">
        <ele>135.653</ele>
        <time>2018-11-01T11:11:34Z</time>
      </trkpt>
      <trkpt lat="48.68033" lon="2.50247">
        <ele>135.645</ele>
        <time>2018-11-01T11:11:38Z</time>
      </trkpt>
      <trkpt lat="48.68038" lon="2.50242">
        <ele>135.641</ele>
        <time>2018-11-01T11:11:41Z</time>
      </trkpt>
      <trkpt lat="48.68041" lon="2.50238">
        <ele>135.639</ele>
        <time>2018-11-01T11:11:43Z</time>
      </trkpt>
      <trkpt lat="48.68044" lon="2.50233">
        <ele>135.636</ele>
        <time>2018-11-01T11:11:46Z</time>
      </trkpt>
      <trkpt lat="48.68046" lon="2.50229">
        <ele>135.634</ele>
        <time>2018-11-01T11:11:48Z</time>
      </trkpt>
      <trkpt lat="48.68049" lon="2.50226">
        <ele>135.631</ele>
        <time>2018-11-01T11:11:50Z</time>
      </trkpt>
      <trkpt lat="48.68051" lon="2.50222">
        <ele>135.629</ele>
        <time>2018-11-01T11:11:52Z</time>
      </trkpt>
      <trkpt lat="48.68053" lon="2.50219">
        <ele>135.627</ele>
        <time>2018-11-01T11:11:54Z</time>
      </trkpt>
      <trkpt lat="48.68056" lon="2.50215">
        <ele>135.625</ele>
        <time>2018-11-01T11:11:56Z</time>
      </trkpt>
      <trkpt lat="48.6806" lon="2.5021">
        <ele>135.621</ele>
        <time>2018-11-01T11:11:59Z</time>
      </trkpt>
      <trkpt lat="48.68064" lon="2.50206">
        <ele>135.62</ele>
        <time>2018-11-01T11:12:03Z</time>
      </trkpt>
      <trkpt lat="48.68069" lon="2.502">
        <ele>135.617</ele>
        <time>2018-11-01T11:12:07Z</time>
      </trkpt>
      <trkpt lat="48.68073" lon="2.50195">
        <ele>135.619</ele>
        <time>2018-11-01T11:12:10Z</time>
      </trkpt>
      <trkpt lat="48.68075" lon="2.50192">
        <ele>135.62</ele>
        <time>2018-11-01T11:12:12Z</time>
      </trkpt>
      <trkpt lat="48.68077" lon="2.50188">
        <ele>135.62</ele>
        <time>2018-11-01T11:12:14Z</time>
      </trkpt>
      <trkpt lat="48.68082" lon="2.50182">
        <ele>135.619</ele>
        <time>2018-11-01T11:12:17Z</time>
      </trkpt>
      <trkpt lat="48.68085" lon="2.50176">
        <ele>135.618</ele>
        <time>2018-11-01T11:12:20Z</time>
      </trkpt>
      <trkpt lat="48.68087" lon="2.50172">
        <ele>135.618</ele>
        <time>2018-11-01T11:12:22Z</time>
      </trkpt>
      <trkpt lat="48.68091" lon="2.50166">
        <ele>135.619</ele>
        <time>2018-11-01T11:12:26Z</time>
      </trkpt>
      <trkpt lat="48.68093" lon="2.50162">
        <ele>135.62</ele>
        <time>2018-11-01T11:12:28Z</time>
      </trkpt>
      <trkpt lat="48.68097" lon="2.50155">
        <ele>135.624</ele>
        <time>2018-11-01T11:12:32Z</time>
      </trkpt>
      <trkpt lat="48.681" lon="2.5015">
        <ele>135.628</ele>
        <time>2018-11-01T11:12:35Z</time>
      </trkpt>
      <trkpt lat="48.68106" lon="2.50144">
        <ele>135.635</ele>
        <time>2018-11-01T11:12:38Z</time>
      </trkpt>
      <trkpt lat="48.6811" lon="2.50141">
        <ele>135.645</ele>
        <time>2018-11-01T11:12:41Z</time>
      </trkpt>
      <trkpt lat="48.68115" lon="2.50137">
        <ele>135.657</ele>
        <time>2018-11-01T11:12:44Z</time>
      </trkpt>
      <trkpt lat="48.68117" lon="2.50134">
        <ele>135.666</ele>
        <time>2018-11-01T11:12:46Z</time>
      </trkpt>
      <trkpt lat="48.68121" lon="2.5013">
        <ele>135.679</ele>
        <time>2018-11-01T11:12:49Z</time>
      </trkpt>
      <trkpt lat="48.68123" lon="2.50127">
        <ele>135.687</ele>
        <time>2018-11-01T11:12:51Z</time>
      </trkpt>
      <trkpt lat="48.68126" lon="2.5012">
        <ele>135.702</ele>
        <time>2018-11-01T11:12:55Z</time>
      </trkpt>
      <trkpt lat="48.68128" lon="2.50117">
        <ele>135.71</ele>
        <time>2018-11-01T11:12:57Z</time>
      </trkpt>
      <trkpt lat="48.68131" lon="2.50114">
        <ele>135.717</ele>
        <time>2018-11-01T11:12:59Z</time>
      </trkpt>
      <trkpt lat="48.68133" lon="2.50108">
        <ele>135.728</ele>
        <time>2018-11-01T11:13:02Z</time>
      </trkpt>
      <trkpt lat="48.68135" lon="2.50105">
        <ele>135.735</ele>
        <time>2018-11-01T11:13:04Z</time>
      </trkpt>
      <trkpt lat="48.68136" lon="2.50102">
        <ele>135.741</ele>
        <time>2018-11-01T11:13:06Z</time>
      </trkpt>
      <trkpt lat="48.68138" lon="2.50098">
        <ele>135.747</ele>
        <time>2018-11-01T11:13:08Z</time>
      </trkpt>
      <trkpt lat="48.68141" lon="2.50094">
        <ele>135.756</ele>
        <time>2018-11-01T11:13:12Z</time>
      </trkpt>
      <trkpt lat="48.68146" lon="2.5009">
        <ele>135.764</ele>
        <time>2018-11-01T11:13:15Z</time>
      </trkpt>
      <trkpt lat="48.6815" lon="2.50086">
        <ele>135.772</ele>
        <time>2018-11-01T11:13:18Z</time>
      </trkpt>
      <trkpt lat="48.68152" lon="2.50084">
        <ele>135.778</ele>
        <time>2018-11-01T11:13:20Z</time>
      </trkpt>
      <trkpt lat="48.68155" lon="2.50079">
        <ele>135.798</ele>
        <time>2018-11-01T11:13:26Z</time>
      </trkpt>
      <trkpt lat="48.68159" lon="2.50073">
        <ele>135.819</ele>
        <time>2018-11-01T11:13:31Z</time>
      </trkpt>
      <trkpt lat="48.68164" lon="2.50069">
        <ele>135.835</ele>
        <time>2018-11-01T11:13:35Z</time>
      </trkpt>
      <trkpt lat="48.68167" lon="2.50062">
        <ele>135.847</ele>
        <time>2018-11-01T11:13:39Z</time>
      </trkpt>
      <trkpt lat="48.68171" lon="2.50056">
        <ele>135.855</ele>
        <time>2018-11-01T11:13:42Z</time>
      </trkpt>
      <trkpt lat="48.68174" lon="2.50051">
        <ele>135.864</ele>
        <time>2018-11-01T11:13:45Z</time>
      </trkpt>
      <trkpt lat="48.68176" lon="2.50048">
        <ele>135.869</ele>
        <time>2018-11-01T11:13:47Z</time>
      </trkpt>
      <trkpt lat="48.68179" lon="2.50041">
        <ele>135.876</ele>
        <time>2018-11-01T11:13:51Z</time>
      </trkpt>
      <trkpt lat="48.68183" lon="2.50037">
        <ele>135.881</ele>
        <time>2018-11-01T11:13:56Z</time>
      </trkpt>
      <trkpt lat="48.68186" lon="2.50034">
        <ele>135.882</ele>
        <time>2018-11-01T11:13:58Z</time>
      </trkpt>
      <trkpt lat="48.68189" lon="2.50028">
        <ele>135.883</ele>
        <time>2018-11-01T11:14:02Z</time>
      </trkpt>
      <trkpt lat="48.68193" lon="2.50023">
        <ele>135.881</ele>
        <time>2018-11-01T11:14:05Z</time>
      </trkpt>
      <trkpt lat="48.68197" lon="2.50019">
        <ele>135.879</ele>
        <time>2018-11-01T11:14:08Z</time>
      </trkpt>
      <trkpt lat="48.68201" lon="2.50013">
        <ele>135.877</ele>
        <time>2018-11-01T11:14:12Z</time>
      </trkpt>
      <trkpt lat="48.68204" lon="2.50011">
        <ele>135.877</ele>
        <time>2018-11-01T11:14:14Z</time>
      </trkpt>
      <trkpt lat="48.68207" lon="2.50007">
        <ele>135.876</ele>
        <time>2018-11-01T11:14:17Z</time>
      </trkpt>
      <trkpt lat="48.68211" lon="2.50002">
        <ele>135.873</ele>
        <time>2018-11-01T11:14:20Z</time>
      </trkpt>
      <trkpt lat="48.68213" lon="2.49999">
        <ele>135.871</ele>
        <time>2018-11-01T11:14:22Z</time>
      </trkpt>
      <trkpt lat="48.68217" lon="2.49995">
        <ele>135.868</ele>
        <time>2018-11-01T11:14:25Z</time>
      </trkpt>
      <trkpt lat="48.6822" lon="2.49991">
        <ele>135.865</ele>
        <time>2018-11-01T11:14:27Z</time>
      </trkpt>
      <trkpt lat="48.68222" lon="2.49988">
        <ele>135.862</ele>
        <time>2018-11-01T11:14:29Z</time>
      </trkpt>
      <trkpt lat="48.68226" lon="2.49982">
        <ele>135.858</ele>
        <time>2018-11-01T11:14:32Z</time>
      </trkpt>
      <trkpt lat="48.68228" lon="2.49979">
        <ele>135.854</ele>
        <time>2018-11-01T11:14:34Z</time>
      </trkpt>
      <trkpt lat="48.6823" lon="2.49975">
        <ele>135.85</ele>
        <time>2018-11-01T11:14:36Z</time>
      </trkpt>
      <trkpt lat="48.68232" lon="2.49971">
        <ele>135.845</ele>
        <time>2018-11-01T11:14:38Z</time>
      </trkpt>
      <trkpt lat="48.68234" lon="2.49967">
        <ele>135.841</ele>
        <time>2018-11-01T11:14:40Z</time>
      </trkpt>
      <trkpt lat="48.68236" lon="2.49964">
        <ele>135.836</ele>
        <time>2018-11-01T11:14:42Z</time>
      </trkpt>
      <trkpt lat="48.68238" lon="2.49961">
        <ele>135.831</ele>
        <time>2018-11-01T11:14:44Z</time>
      </trkpt>
      <trkpt lat="48.6824" lon="2.49958">
        <ele>135.826</ele>
        <time>2018-11-01T11:14:46Z</time>
      </trkpt>
      <trkpt lat="48.68244" lon="2.49954">
        <ele>135.819</ele>
        <time>2018-11-01T11:14:49Z</time>
      </trkpt>
      <trkpt lat="48.68248" lon="2.49949">
        <ele>135.812</ele>
        <time>2018-11-01T11:14:52Z</time>
      </trkpt>
      <trkpt lat="48.68249" lon="2.49947">
        <ele>135.808</ele>
        <time>2018-11-01T11:14:54Z</time>
      </trkpt>
      <trkpt lat="48.68254" lon="2.49942">
        <ele>135.798</ele>
        <time>2018-11-01T11:14:58Z</time>
      </trkpt>
      <trkpt lat="48.68256" lon="2.49939">
        <ele>135.793</ele>
        <time>2018-11-01T11:15:00Z</time>
      </trkpt>
      <trkpt lat="48.68259" lon="2.49936">
        <ele>135.788</ele>
        <time>2018-11-01T11:15:02Z</time>
      </trkpt>
      <trkpt lat="48.68262" lon="2.49934">
        <ele>135.784</ele>
        <time>2018-11-01T11:15:04Z</time>
      </trkpt>
      <trkpt lat="48.68265" lon="2.49931">
        <ele>135.78</ele>
        <time>2018-11-01T11:15:06Z</time>
      </trkpt>
      <trkpt lat="48.68269" lon="2.49929">
        <ele>135.774</ele>
        <time>2018-11-01T11:15:09Z</time>
      </trkpt>
      <trkpt lat="48.68273" lon="2.49925">
        <ele>135.769</ele>
        <time>2018-11-01T11:15:12Z</time>
      </trkpt>
      <trkpt lat="48.68278" lon="2.49922">
        <ele>135.764</ele>
        <time>2018-11-01T11:15:16Z</time>
      </trkpt>
      <trkpt lat="48.68283" lon="2.49917">
        <ele>135.761</ele>
        <time>2018-11-01T11:15:20Z</time>
      </trkpt>
      <trkpt lat="48.68286" lon="2.4991">
        <ele>135.762</ele>
        <time>2018-11-01T11:15:25Z</time>
      </trkpt>
      <trkpt lat="48.68288" lon="2.49907">
        <ele>135.762</ele>
        <time>2018-11-01T11:15:27Z</time>
      </trkpt>
      <trkpt lat="48.68291" lon="2.49902">
        <ele>135.764</ele>
        <time>2018-11-01T11:15:30Z</time>
      </trkpt>
      <trkpt lat="48.68295" lon="2.49897">
        <ele>135.766</ele>
        <time>2018-11-01T11:15:33Z</time>
      </trkpt>
      <trkpt lat="48.68299" lon="2.49893">
        <ele>135.77</ele>
        <time>2018-11-01T11:15:36Z</time>
      </trkpt>
      <trkpt lat="48.68304" lon="2.49888">
        <ele>135.775</ele>
        <time>2018-11-01T11:15:39Z</time>
      </trkpt>
      <trkpt lat="48.68309" lon="2.49882">
        <ele>135.781</ele>
        <time>2018-11-01T11:15:42Z</time>
      </trkpt>
      <trkpt lat="48.68313" lon="2.49879">
        <ele>135.789</ele>
        <time>2018-11-01T11:15:45Z</time>
      </trkpt>
      <trkpt lat="48.68317" lon="2.49874">
        <ele>135.797</ele>
        <time>2018-11-01T11:15:48Z</time>
      </trkpt>
      <trkpt lat="48.6832" lon="2.49872">
        <ele>135.803</ele>
        <time>2018-11-01T11:15:50Z</time>
      </trkpt>
      <trkpt lat="48.68323" lon="2.49864">
        <ele>135.817</ele>
        <time>2018-11-01T11:15:55Z</time>
      </trkpt>
      <trkpt lat="48.68328" lon="2.49858">
        <ele>135.827</ele>
        <time>2018-11-01T11:15:59Z</time>
      </trkpt>
      <trkpt lat="48.6833" lon="2.49855">
        <ele>135.831</ele>
        <time>2018-11-01T11:16:01Z</time>
      </trkpt>
      <trkpt lat="48.68334" lon="2.4985">
        <ele>135.839</ele>
        <time>2018-11-01T11:16:05Z</time>
      </trkpt>
      <trkpt lat="48.68337" lon="2.49846">
        <ele>135.842</ele>
        <time>2018-11-01T11:16:07Z</time>
      </trkpt>
      <trkpt lat="48.68341" lon="2.49841">
        <ele>135.847</ele>
        <time>2018-11-01T11:16:11Z</time>
      </trkpt>
      <trkpt lat="48.68345" lon="2.49835">
        <ele>135.849</ele>
        <time>2018-11-01T11:16:15Z</time>
      </trkpt>
      <trkpt lat="48.68347" lon="2.49832">
        <ele>135.849</ele>
        <time>2018-11-01T11:16:18Z</time>
      </trkpt>
      <trkpt lat="48.68352" lon="2.49827">
        <ele>135.848</ele>
        <time>2018-11-01T11:16:21Z</time>
      </trkpt>
      <trkpt lat="48.68355" lon="2.49823">
        <ele>135.847</ele>
        <time>2018-11-01T11:16:23Z</time>
      </trkpt>
      <trkpt lat="48.68358" lon="2.49816">
        <ele>135.847</ele>
        <time>2018-11-01T11:16:26Z</time>
      </trkpt>
      <trkpt lat="48.68362" lon="2.49811">
        <ele>135.848</ele>
        <time>2018-11-01T11:16:29Z</time>
      </trkpt>
      <trkpt lat="48.68366" lon="2.49807">
        <ele>135.848</ele>
        <time>2018-11-01T11:16:32Z</time>
      </trkpt>
      <trkpt lat="48.6837" lon="2.49801">
        <ele>135.849</ele>
        <time>2018-11-01T11:16:35Z</time>
      </trkpt>
      <trkpt lat="48.68373" lon="2.49797">
        <ele>135.851</ele>
        <time>2018-11-01T11:16:38Z</time>
      </trkpt>
      <trkpt lat="48.68376" lon="2.49791">
        <ele>135.853</ele>
        <time>2018-11-01T11:16:41Z</time>
      </trkpt>
      <trkpt lat="48.6838" lon="2.49786">
        <ele>135.856</ele>
        <time>2018-11-01T11:16:45Z</time>
      </trkpt>
      <trkpt lat="48.68382" lon="2.49783">
        <ele>135.858</ele>
        <time>2018-11-01T11:16:47Z</time>
      </trkpt>
      <trkpt lat="48.68385" lon="2.49779">
        <ele>135.859</ele>
        <time>2018-11-01T11:16:49Z</time>
      </trkpt>
      <trkpt lat="48.68387" lon="2.49774">
        <ele>135.862</ele>
        <time>2018-11-01T11:16:52Z</time>
      </trkpt>
      <trkpt lat="48.68391" lon="2.49771">
        <ele>135.864</ele>
        <time>2018-11-01T11:16:55Z</time>
      </trkpt>
      <trkpt lat="48.68395" lon="2.49765">
        <ele>135.866</ele>
        <time>2018-11-01T11:16:58Z</time>
      </trkpt>
      <trkpt lat="48.68399" lon="2.49758">
        <ele>135.867</ele>
        <time>2018-11-01T11:17:02Z</time>
      </trkpt>
      <trkpt lat="48.68401" lon="2.49755">
        <ele>135.867</ele>
        <time>2018-11-01T11:17:04Z</time>
      </trkpt>
      <trkpt lat="48.68403" lon="2.49748">
        <ele>135.867</ele>
        <time>2018-11-01T11:17:07Z</time>
      </trkpt>
      <trkpt lat="48.68407" lon="2.49744">
        <ele>135.869</ele>
        <time>2018-11-01T11:17:13Z</time>
      </trkpt>
      <trkpt lat="48.6841" lon="2.49741">
        <ele>135.872</ele>
        <time>2018-11-01T11:17:15Z</time>
      </trkpt>
      <trkpt lat="48.68413" lon="2.49738">
        <ele>135.876</ele>
        <time>2018-11-01T11:17:18Z</time>
      </trkpt>
      <trkpt lat="48.68416" lon="2.49732">
        <ele>135.886</ele>
        <time>2018-11-01T11:17:22Z</time>
      </trkpt>
      <trkpt lat="48.68417" lon="2.49728">
        <ele>135.891</ele>
        <time>2018-11-01T11:17:24Z</time>
      </trkpt>
      <trkpt lat="48.6842" lon="2.49722">
        <ele>135.899</ele>
        <time>2018-11-01T11:17:27Z</time>
      </trkpt>
      <trkpt lat="48.68421" lon="2.49716">
        <ele>135.909</ele>
        <time>2018-11-01T11:17:30Z</time>
      </trkpt>
      <trkpt lat="48.68423" lon="2.49708">
        <ele>135.924</ele>
        <time>2018-11-01T11:17:34Z</time>
      </trkpt>
      <trkpt lat="48.68426" lon="2.49702">
        <ele>135.937</ele>
        <time>2018-11-01T11:17:38Z</time>
      </trkpt>
      <trkpt lat="48.6843" lon="2.49697">
        <ele>135.946</ele>
        <time>2018-11-01T11:17:41Z</time>
      </trkpt>
      <trkpt lat="48.68434" lon="2.49692">
        <ele>135.956</ele>
        <time>2018-11-01T11:17:44Z</time>
      </trkpt>
      <trkpt lat="48.68438" lon="2.49687">
        <ele>135.972</ele>
        <time>2018-11-01T11:17:48Z</time>
      </trkpt>
      <trkpt lat="48.6844" lon="2.49685">
        <ele>135.978</ele>
        <time>2018-11-01T11:17:50Z</time>
      </trkpt>
      <trkpt lat="48.68442" lon="2.49682">
        <ele>135.983</ele>
        <time>2018-11-01T11:17:52Z</time>
      </trkpt>
      <trkpt lat="48.68444" lon="2.49678">
        <ele>135.987</ele>
        <time>2018-11-01T11:17:54Z</time>
      </trkpt>
      <trkpt lat="48.68447" lon="2.49674">
        <ele>135.99</ele>
        <time>2018-11-01T11:17:56Z</time>
      </trkpt>
      <trkpt lat="48.68449" lon="2.4967">
        <ele>135.991</ele>
        <time>2018-11-01T11:17:58Z</time>
      </trkpt>
      <trkpt lat="48.68452" lon="2.49665">
        <ele>135.993</ele>
        <time>2018-11-01T11:18:01Z</time>
      </trkpt>
      <trkpt lat="48.68455" lon="2.49662">
        <ele>135.993</ele>
        <time>2018-11-01T11:18:03Z</time>
      </trkpt>
      <trkpt lat="48.68456" lon="2.4966">
        <ele>135.994</ele>
        <time>2018-11-01T11:18:05Z</time>
      </trkpt>
      <trkpt lat="48.68461" lon="2.49654">
        <ele>135.994</ele>
        <time>2018-11-01T11:18:09Z</time>
      </trkpt>
      <trkpt lat="48.68462" lon="2.49651">
        <ele>135.994</ele>
        <time>2018-11-01T11:18:11Z</time>
      </trkpt>
      <trkpt lat="48.68466" lon="2.49647">
        <ele>135.994</ele>
        <time>2018-11-01T11:18:15Z</time>
      </trkpt>
      <trkpt lat="48.68471" lon="2.49643">
        <ele>135.993</ele>
        <time>2018-11-01T11:18:18Z</time>
      </trkpt>
      <trkpt lat="48.68473" lon="2.49641">
        <ele>135.993</ele>
        <time>2018-11-01T11:18:20Z</time>
      </trkpt>
      <trkpt lat="48.68478" lon="2.49636">
        <ele>135.991</ele>
        <time>2018-11-01T11:18:24Z</time>
      </trkpt>
      <trkpt lat="48.68481" lon="2.49631">
        <ele>135.988</ele>
        <time>2018-11-01T11:18:27Z</time>
      </trkpt>
      <trkpt lat="48.68483" lon="2.49628">
        <ele>135.986</ele>
        <time>2018-11-01T11:18:29Z</time>
      </trkpt>
      <trkpt lat="48.68488" lon="2.49622">
        <ele>135.98</ele>
        <time>2018-11-01T11:18:33Z</time>
      </trkpt>
      <trkpt lat="48.68492" lon="2.49619">
        <ele>135.978</ele>
        <time>2018-11-01T11:18:35Z</time>
      </trkpt>
      <trkpt lat="48.68496" lon="2.49616">
        <ele>135.978</ele>
        <time>2018-11-01T11:18:37Z</time>
      </trkpt>
      <trkpt lat="48.685" lon="2.49612">
        <ele>135.979</ele>
        <time>2018-11-01T11:18:40Z</time>
      </trkpt>
      <trkpt lat="48.68504" lon="2.49607">
        <ele>135.981</ele>
        <time>2018-11-01T11:18:43Z</time>
      </trkpt>
      <trkpt lat="48.68508" lon="2.49603">
        <ele>135.985</ele>
        <time>2018-11-01T11:18:46Z</time>
      </trkpt>
      <trkpt lat="48.6851" lon="2.49599">
        <ele>135.987</ele>
        <time>2018-11-01T11:18:48Z</time>
      </trkpt>
      <trkpt lat="48.68512" lon="2.49597">
        <ele>135.99</ele>
        <time>2018-11-01T11:18:50Z</time>
      </trkpt>
      <trkpt lat="48.68516" lon="2.49592">
        <ele>135.994</ele>
        <time>2018-11-01T11:18:53Z</time>
      </trkpt>
      <trkpt lat="48.6852" lon="2.49586">
        <ele>136</ele>
        <time>2018-11-01T11:18:56Z</time>
      </trkpt>
      <trkpt lat="48.68522" lon="2.49583">
        <ele>136.003</ele>
        <time>2018-11-01T11:18:58Z</time>
      </trkpt>
      <trkpt lat="48.68524" lon="2.49579">
        <ele>136.007</ele>
        <time>2018-11-01T11:19:00Z</time>
      </trkpt>
      <trkpt lat="48.68528" lon="2.49574">
        <ele>136.013</ele>
        <time>2018-11-01T11:19:03Z</time>
      </trkpt>
      <trkpt lat="48.6853" lon="2.49571">
        <ele>136.018</ele>
        <time>2018-11-01T11:19:05Z</time>
      </trkpt>
      <trkpt lat="48.68533" lon="2.49564">
        <ele>136.029</ele>
        <time>2018-11-01T11:19:09Z</time>
      </trkpt>
      <trkpt lat="48.68537" lon="2.4956">
        <ele>136.037</ele>
        <time>2018-11-01T11:19:12Z</time>
      </trkpt>
      <trkpt lat="48.68541" lon="2.49555">
        <ele>136.046</ele>
        <time>2018-11-01T11:19:16Z</time>
      </trkpt>
      <trkpt lat="48.68544" lon="2.49549">
        <ele>136.047</ele>
        <time>2018-11-01T11:19:21Z</time>
      </trkpt>
      <trkpt lat="48.68548" lon="2.49545">
        <ele>136.045</ele>
        <time>2018-11-01T11:19:24Z</time>
      </trkpt>
      <trkpt lat="48.68552" lon="2.49542">
        <ele>136.043</ele>
        <time>2018-11-01T11:19:27Z</time>
      </trkpt>
      <trkpt lat="48.68555" lon="2.4954">
        <ele>136.041</ele>
        <time>2018-11-01T11:19:29Z</time>
      </trkpt>
      <trkpt lat="48.68557" lon="2.49537">
        <ele>136.038</ele>
        <time>2018-11-01T11:19:31Z</time>
      </trkpt>
      <trkpt lat="48.6856" lon="2.49535">
        <ele>136.035</ele>
        <time>2018-11-01T11:19:33Z</time>
      </trkpt>
      <trkpt lat="48.68564" lon="2.49532">
        <ele>136.032</ele>
        <time>2018-11-01T11:19:36Z</time>
      </trkpt>
      <trkpt lat="48.68567" lon="2.49524">
        <ele>136.025</ele>
        <time>2018-11-01T11:19:40Z</time>
      </trkpt>
      <trkpt lat="48.68571" lon="2.49518">
        <ele>136.016</ele>
        <time>2018-11-01T11:19:44Z</time>
      </trkpt>
      <trkpt lat="48.68574" lon="2.49513">
        <ele>136.006</ele>
        <time>2018-11-01T11:19:47Z</time>
      </trkpt>
      <trkpt lat="48.68576" lon="2.4951">
        <ele>135.999</ele>
        <time>2018-11-01T11:19:49Z</time>
      </trkpt>
      <trkpt lat="48.6858" lon="2.49504">
        <ele>135.984</ele>
        <time>2018-11-01T11:19:53Z</time>
      </trkpt>
      <trkpt lat="48.68581" lon="2.495">
        <ele>135.976</ele>
        <time>2018-11-01T11:19:55Z</time>
      </trkpt>
      <trkpt lat="48.68585" lon="2.49495">
        <ele>135.963</ele>
        <time>2018-11-01T11:19:58Z</time>
      </trkpt>
      <trkpt lat="48.68587" lon="2.49492">
        <ele>135.954</ele>
        <time>2018-11-01T11:20:00Z</time>
      </trkpt>
      <trkpt lat="48.68591" lon="2.49486">
        <ele>135.945</ele>
        <time>2018-11-01T11:20:02Z</time>
      </trkpt>
      <trkpt lat="48.68593" lon="2.49483">
        <ele>135.941</ele>
        <time>2018-11-01T11:20:03Z</time>
      </trkpt>
      <trkpt lat="48.68596" lon="2.49479">
        <ele>135.933</ele>
        <time>2018-11-01T11:20:05Z</time>
      </trkpt>
      <trkpt lat="48.686" lon="2.49475">
        <ele>135.921</ele>
        <time>2018-11-01T11:20:08Z</time>
      </trkpt>
      <trkpt lat="48.68602" lon="2.49472">
        <ele>135.912</ele>
        <time>2018-11-01T11:20:10Z</time>
      </trkpt>
      <trkpt lat="48.68604" lon="2.49469">
        <ele>135.903</ele>
        <time>2018-11-01T11:20:12Z</time>
      </trkpt>
      <trkpt lat="48.68607" lon="2.49466">
        <ele>135.888</ele>
        <time>2018-11-01T11:20:15Z</time>
      </trkpt>
      <trkpt lat="48.68609" lon="2.49464">
        <ele>135.877</ele>
        <time>2018-11-01T11:20:17Z</time>
      </trkpt>
      <trkpt lat="48.68613" lon="2.49459">
        <ele>135.849</ele>
        <time>2018-11-01T11:20:22Z</time>
      </trkpt>
      <trkpt lat="48.68615" lon="2.49456">
        <ele>135.837</ele>
        <time>2018-11-01T11:20:24Z</time>
      </trkpt>
      <trkpt lat="48.68618" lon="2.49452">
        <ele>135.825</ele>
        <time>2018-11-01T11:20:26Z</time>
      </trkpt>
      <trkpt lat="48.68622" lon="2.49447">
        <ele>135.804</ele>
        <time>2018-11-01T11:20:29Z</time>
      </trkpt>
      <trkpt lat="48.68625" lon="2.49443">
        <ele>135.79</ele>
        <time>2018-11-01T11:20:31Z</time>
      </trkpt>
      <trkpt lat="48.68627" lon="2.4944">
        <ele>135.774</ele>
        <time>2018-11-01T11:20:33Z</time>
      </trkpt>
      <trkpt lat="48.68631" lon="2.49434">
        <ele>135.751</ele>
        <time>2018-11-01T11:20:36Z</time>
      </trkpt>
      <trkpt lat="48.68633" lon="2.49431">
        <ele>135.743</ele>
        <time>2018-11-01T11:20:37Z</time>
      </trkpt>
      <trkpt lat="48.68635" lon="2.49428">
        <ele>135.728</ele>
        <time>2018-11-01T11:20:39Z</time>
      </trkpt>
      <trkpt lat="48.68639" lon="2.49424">
        <ele>135.703</ele>
        <time>2018-11-01T11:20:42Z</time>
      </trkpt>
      <trkpt lat="48.68642" lon="2.49421">
        <ele>135.687</ele>
        <time>2018-11-01T11:20:44Z</time>
      </trkpt>
      <trkpt lat="48.68646" lon="2.49415">
        <ele>135.655</ele>
        <time>2018-11-01T11:20:48Z</time>
      </trkpt>
      <trkpt lat="48.68649" lon="2.49408">
        <ele>135.624</ele>
        <time>2018-11-01T11:20:52Z</time>
      </trkpt>
      <trkpt lat="48.68651" lon="2.49405">
        <ele>135.61</ele>
        <time>2018-11-01T11:20:54Z</time>
      </trkpt>
      <trkpt lat="48.68655" lon="2.494">
        <ele>135.589</ele>
        <time>2018-11-01T11:20:57Z</time>
      </trkpt>
      <trkpt lat="48.68658" lon="2.49395">
        <ele>135.569</ele>
        <time>2018-11-01T11:21:00Z</time>
      </trkpt>
      <trkpt lat="48.6866" lon="2.49392">
        <ele>135.555</ele>
        <time>2018-11-01T11:21:02Z</time>
      </trkpt>
      <trkpt lat="48.68663" lon="2.49388">
        <ele>135.542</ele>
        <time>2018-11-01T11:21:04Z</time>
      </trkpt>
      <trkpt lat="48.68669" lon="2.49381">
        <ele>135.524</ele>
        <time>2018-11-01T11:21:07Z</time>
      </trkpt>
      <trkpt lat="48.68672" lon="2.49378">
        <ele>135.513</ele>
        <time>2018-11-01T11:21:09Z</time>
      </trkpt>
      <trkpt lat="48.68674" lon="2.49374">
        <ele>135.504</ele>
        <time>2018-11-01T11:21:11Z</time>
      </trkpt>
      <trkpt lat="48.68679" lon="2.49369">
        <ele>135.488</ele>
        <time>2018-11-01T11:21:16Z</time>
      </trkpt>
      <trkpt lat="48.68682" lon="2.49367">
        <ele>135.484</ele>
        <time>2018-11-01T11:21:18Z</time>
      </trkpt>
      <trkpt lat="48.68686" lon="2.49363">
        <ele>135.481</ele>
        <time>2018-11-01T11:21:21Z</time>
      </trkpt>
      <trkpt lat="48.68688" lon="2.49356">
        <ele>135.482</ele>
        <time>2018-11-01T11:21:25Z</time>
      </trkpt>
      <trkpt lat="48.68692" lon="2.49349">
        <ele>135.486</ele>
        <time>2018-11-01T11:21:29Z</time>
      </trkpt>
      <trkpt lat="48.68696" lon="2.49343">
        <ele>135.491</ele>
        <time>2018-11-01T11:21:32Z</time>
      </trkpt>
      <trkpt lat="48.68699" lon="2.49341">
        <ele>135.496</ele>
        <time>2018-11-01T11:21:34Z</time>
      </trkpt>
      <trkpt lat="48.68703" lon="2.49336">
        <ele>135.505</ele>
        <time>2018-11-01T11:21:38Z</time>
      </trkpt>
      <trkpt lat="48.68706" lon="2.49333">
        <ele>135.509</ele>
        <time>2018-11-01T11:21:40Z</time>
      </trkpt>
      <trkpt lat="48.68707" lon="2.49327">
        <ele>135.514</ele>
        <time>2018-11-01T11:21:43Z</time>
      </trkpt>
      <trkpt lat="48.68705" lon="2.4932">
        <ele>135.52</ele>
        <time>2018-11-01T11:21:47Z</time>
      </trkpt>
      <trkpt lat="48.68706" lon="2.4931">
        <ele>135.528</ele>
        <time>2018-11-01T11:21:50Z</time>
      </trkpt>
      <trkpt lat="48.68706" lon="2.49303">
        <ele>135.538</ele>
        <time>2018-11-01T11:21:53Z</time>
      </trkpt>
      <trkpt lat="48.68704" lon="2.49297">
        <ele>135.552</ele>
        <time>2018-11-01T11:21:57Z</time>
      </trkpt>
      <trkpt lat="48.68701" lon="2.49291">
        <ele>135.567</ele>
        <time>2018-11-01T11:22:01Z</time>
      </trkpt>
      <trkpt lat="48.68696" lon="2.49285">
        <ele>135.58</ele>
        <time>2018-11-01T11:22:05Z</time>
      </trkpt>
      <trkpt lat="48.68692" lon="2.49281">
        <ele>135.591</ele>
        <time>2018-11-01T11:22:08Z</time>
      </trkpt>
      <trkpt lat="48.68688" lon="2.49278">
        <ele>135.598</ele>
        <time>2018-11-01T11:22:10Z</time>
      </trkpt>
      <trkpt lat="48.68683" lon="2.49274">
        <ele>135.614</ele>
        <time>2018-11-01T11:22:14Z</time>
      </trkpt>
      <trkpt lat="48.68679" lon="2.49273">
        <ele>135.623</ele>
        <time>2018-11-01T11:22:16Z</time>
      </trkpt>
      <trkpt lat="48.68677" lon="2.49271">
        <ele>135.633</ele>
        <time>2018-11-01T11:22:18Z</time>
      </trkpt>
      <trkpt lat="48.68676" lon="2.49262">
        <ele>135.661</ele>
        <time>2018-11-01T11:22:23Z</time>
      </trkpt>
      <trkpt lat="48.68682" lon="2.49255">
        <ele>135.694</ele>
        <time>2018-11-01T11:22:28Z</time>
      </trkpt>
      <trkpt lat="48.68686" lon="2.49252">
        <ele>135.716</ele>
        <time>2018-11-01T11:22:31Z</time>
      </trkpt>
      <trkpt lat="48.68691" lon="2.49249">
        <ele>135.739</ele>
        <time>2018-11-01T11:22:34Z</time>
      </trkpt>
      <trkpt lat="48.68696" lon="2.49244">
        <ele>135.763</ele>
        <time>2018-11-01T11:22:37Z</time>
      </trkpt>
      <trkpt lat="48.68699" lon="2.49242">
        <ele>135.78</ele>
        <time>2018-11-01T11:22:39Z</time>
      </trkpt>
      <trkpt lat="48.68701" lon="2.4924">
        <ele>135.797</ele>
        <time>2018-11-01T11:22:41Z</time>
      </trkpt>
      <trkpt lat="48.68704" lon="2.49237">
        <ele>135.822</ele>
        <time>2018-11-01T11:22:44Z</time>
      </trkpt>
      <trkpt lat="48.68706" lon="2.49235">
        <ele>135.838</ele>
        <time>2018-11-01T11:22:46Z</time>
      </trkpt>
      <trkpt lat="48.68709" lon="2.49233">
        <ele>135.853</ele>
        <time>2018-11-01T11:22:48Z</time>
      </trkpt>
      <trkpt lat="48.68713" lon="2.49228">
        <ele>135.876</ele>
        <time>2018-11-01T11:22:51Z</time>
      </trkpt>
      <trkpt lat="48.68717" lon="2.49226">
        <ele>135.898</ele>
        <time>2018-11-01T11:22:54Z</time>
      </trkpt>
      <trkpt lat="48.68723" lon="2.49221">
        <ele>135.919</ele>
        <time>2018-11-01T11:22:57Z</time>
      </trkpt>
      <trkpt lat="48.68727" lon="2.49216">
        <ele>135.941</ele>
        <time>2018-11-01T11:23:00Z</time>
      </trkpt>
      <trkpt lat="48.68729" lon="2.49213">
        <ele>135.954</ele>
        <time>2018-11-01T11:23:02Z</time>
      </trkpt>
      <trkpt lat="48.68731" lon="2.49211">
        <ele>135.961</ele>
        <time>2018-11-01T11:23:03Z</time>
      </trkpt>
      <trkpt lat="48.68734" lon="2.49207">
        <ele>135.983</ele>
        <time>2018-11-01T11:23:06Z</time>
      </trkpt>
      <trkpt lat="48.68734" lon="2.49207">
        <ele>87.6</ele>
        <time>2018-11-01T11:23:12Z</time>
      </trkpt>
      <trkpt lat="48.68734" lon="2.49207">
        <ele>87.6</ele>
        <time>2018-11-01T11:23:17Z</time>
      </trkpt>
      <trkpt lat="48.68741" lon="2.49198">
        <ele>136.049</ele>
        <time>2018-11-01T11:23:17Z</time>
      </trkpt>
      <trkpt lat="48.68743" lon="2.49195">
        <ele>136.058</ele>
        <time>2018-11-01T11:23:19Z</time>
      </trkpt>
      <trkpt lat="48.68745" lon="2.49192">
        <ele>136.067</ele>
        <time>2018-11-01T11:23:21Z</time>
      </trkpt>
      <trkpt lat="48.68749" lon="2.49187">
        <ele>136.08</ele>
        <time>2018-11-01T11:23:24Z</time>
      </trkpt>
      <trkpt lat="48.68753" lon="2.49181">
        <ele>136.093</ele>
        <time>2018-11-01T11:23:27Z</time>
      </trkpt>
      <trkpt lat="48.68756" lon="2.49177">
        <ele>136.101</ele>
        <time>2018-11-01T11:23:29Z</time>
      </trkpt>
      <trkpt lat="48.68758" lon="2.49174">
        <ele>136.11</ele>
        <time>2018-11-01T11:23:31Z</time>
      </trkpt>
      <trkpt lat="48.6876" lon="2.4917">
        <ele>136.119</ele>
        <time>2018-11-01T11:23:33Z</time>
      </trkpt>
      <trkpt lat="48.68764" lon="2.49166">
        <ele>136.133</ele>
        <time>2018-11-01T11:23:36Z</time>
      </trkpt>
      <trkpt lat="48.68767" lon="2.49163">
        <ele>136.142</ele>
        <time>2018-11-01T11:23:38Z</time>
      </trkpt>
      <trkpt lat="48.6877" lon="2.49158">
        <ele>136.162</ele>
        <time>2018-11-01T11:23:42Z</time>
      </trkpt>
      <trkpt lat="48.68773" lon="2.49154">
        <ele>136.172</ele>
        <time>2018-11-01T11:23:44Z</time>
      </trkpt>
      <trkpt lat="48.68776" lon="2.4915">
        <ele>136.182</ele>
        <time>2018-11-01T11:23:46Z</time>
      </trkpt>
      <trkpt lat="48.6878" lon="2.49146">
        <ele>136.197</ele>
        <time>2018-11-01T11:23:49Z</time>
      </trkpt>
      <trkpt lat="48.68783" lon="2.49141">
        <ele>136.212</ele>
        <time>2018-11-01T11:23:52Z</time>
      </trkpt>
      <trkpt lat="48.68785" lon="2.49138">
        <ele>136.223</ele>
        <time>2018-11-01T11:23:54Z</time>
      </trkpt>
      <trkpt lat="48.68789" lon="2.49134">
        <ele>136.239</ele>
        <time>2018-11-01T11:23:57Z</time>
      </trkpt>
      <trkpt lat="48.68791" lon="2.49132">
        <ele>136.251</ele>
        <time>2018-11-01T11:23:59Z</time>
      </trkpt>
      <trkpt lat="48.68795" lon="2.49127">
        <ele>136.266</ele>
        <time>2018-11-01T11:24:02Z</time>
      </trkpt>
      <trkpt lat="48.68798" lon="2.49124">
        <ele>136.277</ele>
        <time>2018-11-01T11:24:04Z</time>
      </trkpt>
      <trkpt lat="48.68801" lon="2.49119">
        <ele>136.292</ele>
        <time>2018-11-01T11:24:07Z</time>
      </trkpt>
      <trkpt lat="48.68804" lon="2.49115">
        <ele>136.302</ele>
        <time>2018-11-01T11:24:09Z</time>
      </trkpt>
      <trkpt lat="48.68806" lon="2.49111">
        <ele>136.311</ele>
        <time>2018-11-01T11:24:11Z</time>
      </trkpt>
      <trkpt lat="48.68809" lon="2.49106">
        <ele>136.329</ele>
        <time>2018-11-01T11:24:15Z</time>
      </trkpt>
      <trkpt lat="48.68812" lon="2.49103">
        <ele>136.338</ele>
        <time>2018-11-01T11:24:17Z</time>
      </trkpt>
      <trkpt lat="48.68813" lon="2.49096">
        <ele>136.35</ele>
        <time>2018-11-01T11:24:20Z</time>
      </trkpt>
      <trkpt lat="48.68816" lon="2.49091">
        <ele>136.362</ele>
        <time>2018-11-01T11:24:23Z</time>
      </trkpt>
      <trkpt lat="48.6882" lon="2.49085">
        <ele>136.374</ele>
        <time>2018-11-01T11:24:26Z</time>
      </trkpt>
      <trkpt lat="48.68823" lon="2.49082">
        <ele>136.381</ele>
        <time>2018-11-01T11:24:28Z</time>
      </trkpt>
      <trkpt lat="48.68826" lon="2.49079">
        <ele>136.389</ele>
        <time>2018-11-01T11:24:30Z</time>
      </trkpt>
      <trkpt lat="48.68831" lon="2.49073">
        <ele>136.401</ele>
        <time>2018-11-01T11:24:33Z</time>
      </trkpt>
      <trkpt lat="48.68833" lon="2.49066">
        <ele>136.415</ele>
        <time>2018-11-01T11:24:36Z</time>
      </trkpt>
      <trkpt lat="48.68837" lon="2.49061">
        <ele>136.432</ele>
        <time>2018-11-01T11:24:40Z</time>
      </trkpt>
      <trkpt lat="48.6884" lon="2.49057">
        <ele>136.441</ele>
        <time>2018-11-01T11:24:42Z</time>
      </trkpt>
      <trkpt lat="48.68845" lon="2.49052">
        <ele>136.454</ele>
        <time>2018-11-01T11:24:45Z</time>
      </trkpt>
      <trkpt lat="48.68848" lon="2.49046">
        <ele>136.466</ele>
        <time>2018-11-01T11:24:48Z</time>
      </trkpt>
      <trkpt lat="48.68852" lon="2.49041">
        <ele>136.478</ele>
        <time>2018-11-01T11:24:51Z</time>
      </trkpt>
      <trkpt lat="48.68856" lon="2.49038">
        <ele>136.49</ele>
        <time>2018-11-01T11:24:54Z</time>
      </trkpt>
      <trkpt lat="48.68859" lon="2.49033">
        <ele>136.503</ele>
        <time>2018-11-01T11:24:57Z</time>
      </trkpt>
      <trkpt lat="48.68862" lon="2.49028">
        <ele>136.517</ele>
        <time>2018-11-01T11:25:00Z</time>
      </trkpt>
      <trkpt lat="48.68867" lon="2.49023">
        <ele>136.538</ele>
        <time>2018-11-01T11:25:04Z</time>
      </trkpt>
      <trkpt lat="48.68872" lon="2.49017">
        <ele>136.561</ele>
        <time>2018-11-01T11:25:08Z</time>
      </trkpt>
      <trkpt lat="48.68874" lon="2.49013">
        <ele>136.574</ele>
        <time>2018-11-01T11:25:10Z</time>
      </trkpt>
      <trkpt lat="48.68876" lon="2.4901">
        <ele>136.588</ele>
        <time>2018-11-01T11:25:12Z</time>
      </trkpt>
      <trkpt lat="48.68879" lon="2.49007">
        <ele>136.601</ele>
        <time>2018-11-01T11:25:14Z</time>
      </trkpt>
      <trkpt lat="48.68882" lon="2.49">
        <ele>136.627</ele>
        <time>2018-11-01T11:25:18Z</time>
      </trkpt>
      <trkpt lat="48.68886" lon="2.48995">
        <ele>136.645</ele>
        <time>2018-11-01T11:25:21Z</time>
      </trkpt>
      <trkpt lat="48.68889" lon="2.48991">
        <ele>136.662</ele>
        <time>2018-11-01T11:25:24Z</time>
      </trkpt>
      <trkpt lat="48.68893" lon="2.48985">
        <ele>136.683</ele>
        <time>2018-11-01T11:25:28Z</time>
      </trkpt>
      <trkpt lat="48.68895" lon="2.48981">
        <ele>136.693</ele>
        <time>2018-11-01T11:25:30Z</time>
      </trkpt>
      <trkpt lat="48.68898" lon="2.48978">
        <ele>136.702</ele>
        <time>2018-11-01T11:25:32Z</time>
      </trkpt>
      <trkpt lat="48.68901" lon="2.48973">
        <ele>136.71</ele>
        <time>2018-11-01T11:25:34Z</time>
      </trkpt>
      <trkpt lat="48.68902" lon="2.48971">
        <ele>136.714</ele>
        <time>2018-11-01T11:25:35Z</time>
      </trkpt>
      <trkpt lat="48.68905" lon="2.48968">
        <ele>136.722</ele>
        <time>2018-11-01T11:25:37Z</time>
      </trkpt>
      <trkpt lat="48.68908" lon="2.48964">
        <ele>136.732</ele>
        <time>2018-11-01T11:25:40Z</time>
      </trkpt>
      <trkpt lat="48.68911" lon="2.48957">
        <ele>136.745</ele>
        <time>2018-11-01T11:25:44Z</time>
      </trkpt>
      <trkpt lat="48.68913" lon="2.48954">
        <ele>136.75</ele>
        <time>2018-11-01T11:25:46Z</time>
      </trkpt>
      <trkpt lat="48.68915" lon="2.4895">
        <ele>136.755</ele>
        <time>2018-11-01T11:25:48Z</time>
      </trkpt>
      <trkpt lat="48.68917" lon="2.48946">
        <ele>136.76</ele>
        <time>2018-11-01T11:25:50Z</time>
      </trkpt>
      <trkpt lat="48.68919" lon="2.48943">
        <ele>136.765</ele>
        <time>2018-11-01T11:25:52Z</time>
      </trkpt>
      <trkpt lat="48.68923" lon="2.48938">
        <ele>136.773</ele>
        <time>2018-11-01T11:25:55Z</time>
      </trkpt>
      <trkpt lat="48.68925" lon="2.48935">
        <ele>136.777</ele>
        <time>2018-11-01T11:25:57Z</time>
      </trkpt>
      <trkpt lat="48.68928" lon="2.48932">
        <ele>136.781</ele>
        <time>2018-11-01T11:25:59Z</time>
      </trkpt>
      <trkpt lat="48.6893" lon="2.48928">
        <ele>136.784</ele>
        <time>2018-11-01T11:26:01Z</time>
      </trkpt>
      <trkpt lat="48.68933" lon="2.48925">
        <ele>136.787</ele>
        <time>2018-11-01T11:26:03Z</time>
      </trkpt>
      <trkpt lat="48.68938" lon="2.4892">
        <ele>136.792</ele>
        <time>2018-11-01T11:26:06Z</time>
      </trkpt>
      <trkpt lat="48.68942" lon="2.48915">
        <ele>136.799</ele>
        <time>2018-11-01T11:26:10Z</time>
      </trkpt>
      <trkpt lat="48.68945" lon="2.48912">
        <ele>136.804</ele>
        <time>2018-11-01T11:26:13Z</time>
      </trkpt>
      <trkpt lat="48.68948" lon="2.48908">
        <ele>136.807</ele>
        <time>2018-11-01T11:26:15Z</time>
      </trkpt>
      <trkpt lat="48.68951" lon="2.48903">
        <ele>136.812</ele>
        <time>2018-11-01T11:26:18Z</time>
      </trkpt>
      <trkpt lat="48.68951" lon="2.48903">
        <ele>84.8</ele>
        <time>2018-11-01T11:26:24Z</time>
      </trkpt>
      <trkpt lat="48.68951" lon="2.48903">
        <ele>84.8</ele>
        <time>2018-11-01T11:26:30Z</time>
      </trkpt>
      <trkpt lat="48.68962" lon="2.48921">
        <ele>136.842</ele>
        <time>2018-11-01T11:26:33Z</time>
      </trkpt>
      <trkpt lat="48.68968" lon="2.48927">
        <ele>136.843</ele>
        <time>2018-11-01T11:26:37Z</time>
      </trkpt>
      <trkpt lat="48.68971" lon="2.48932">
        <ele>136.842</ele>
        <time>2018-11-01T11:26:40Z</time>
      </trkpt>
      <trkpt lat="48.68973" lon="2.48936">
        <ele>136.841</ele>
        <time>2018-11-01T11:26:42Z</time>
      </trkpt>
      <trkpt lat="48.68977" lon="2.48941">
        <ele>136.842</ele>
        <time>2018-11-01T11:26:44Z</time>
      </trkpt>
      <trkpt lat="48.6898" lon="2.48945">
        <ele>136.842</ele>
        <time>2018-11-01T11:26:46Z</time>
      </trkpt>
      <trkpt lat="48.68983" lon="2.48949">
        <ele>136.843</ele>
        <time>2018-11-01T11:26:49Z</time>
      </trkpt>
      <trkpt lat="48.68986" lon="2.48955">
        <ele>136.844</ele>
        <time>2018-11-01T11:26:52Z</time>
      </trkpt>
      <trkpt lat="48.68987" lon="2.48958">
        <ele>136.845</ele>
        <time>2018-11-01T11:26:53Z</time>
      </trkpt>
      <trkpt lat="48.6899" lon="2.48966">
        <ele>136.849</ele>
        <time>2018-11-01T11:26:56Z</time>
      </trkpt>
      <trkpt lat="48.68993" lon="2.48972">
        <ele>136.853</ele>
        <time>2018-11-01T11:26:59Z</time>
      </trkpt>
      <trkpt lat="48.68995" lon="2.48975">
        <ele>136.856</ele>
        <time>2018-11-01T11:27:01Z</time>
      </trkpt>
      <trkpt lat="48.68998" lon="2.48982">
        <ele>136.861</ele>
        <time>2018-11-01T11:27:05Z</time>
      </trkpt>
      <trkpt lat="48.69002" lon="2.48988">
        <ele>136.864</ele>
        <time>2018-11-01T11:27:10Z</time>
      </trkpt>
      <trkpt lat="48.69004" lon="2.48992">
        <ele>136.866</ele>
        <time>2018-11-01T11:27:12Z</time>
      </trkpt>
      <trkpt lat="48.69007" lon="2.48998">
        <ele>136.869</ele>
        <time>2018-11-01T11:27:16Z</time>
      </trkpt>
      <trkpt lat="48.69009" lon="2.49002">
        <ele>136.87</ele>
        <time>2018-11-01T11:27:18Z</time>
      </trkpt>
      <trkpt lat="48.69012" lon="2.49006">
        <ele>136.874</ele>
        <time>2018-11-01T11:27:21Z</time>
      </trkpt>
      <trkpt lat="48.69014" lon="2.49009">
        <ele>136.878</ele>
        <time>2018-11-01T11:27:23Z</time>
      </trkpt>
      <trkpt lat="48.69016" lon="2.49012">
        <ele>136.881</ele>
        <time>2018-11-01T11:27:25Z</time>
      </trkpt>
      <trkpt lat="48.69019" lon="2.49015">
        <ele>136.886</ele>
        <time>2018-11-01T11:27:27Z</time>
      </trkpt>
      <trkpt lat="48.69021" lon="2.49018">
        <ele>136.89</ele>
        <time>2018-11-01T11:27:29Z</time>
      </trkpt>
      <trkpt lat="48.69025" lon="2.49022">
        <ele>136.9</ele>
        <time>2018-11-01T11:27:33Z</time>
      </trkpt>
      <trkpt lat="48.69025" lon="2.49022">
        <ele>84</ele>
        <time>2018-11-01T11:27:40Z</time>
      </trkpt>
      <trkpt lat="48.69025" lon="2.49022">
        <ele>84</ele>
        <time>2018-11-01T11:27:42Z</time>
      </trkpt>
    </trkseg>
  </trk>
</gpx>